
Distance (Route):
Temperature : 12.8°C
Humidity : 81.6%
Pressure : 849.9hPa| Receiver | Frames | First received | Last received |
|---|---|---|---|
| DO3MHA-12 | 510 | 2026-09-02 09:47:13 | 2026-09-02 11:18:21 |
| DO3MHA-11 | 472 | 2026-09-02 09:47:26 | 2026-09-02 11:18:20 |
| OE5MMP-10 | 167 | 2026-09-02 10:23:27 | 2026-09-02 11:00:53 |
| OE5DRO-10 | 128 | 2026-09-02 10:02:49 | 2026-09-02 11:13:26 |
| BAUMI2-15 | 119 | 2026-09-02 10:23:10 | 2026-09-02 11:11:36 |
| DB0UT-7 | 97 | 2026-09-02 10:02:04 | 2026-09-02 11:00:35 |
| NBG1-10 | 92 | 2026-09-02 09:51:15 | 2026-09-02 11:10:59 |
| DL6DJ-15 | 91 | 2026-09-02 09:57:31 | 2026-09-02 11:11:33 |
| OE5DXL-15 | 89 | 2026-09-02 09:52:06 | 2026-09-02 11:18:30 |
| DG1MFX-10 | 84 | 2026-09-02 10:14:11 | 2026-09-02 11:18:20 |
| OE5WHR-10 | 75 | 2026-09-02 10:23:57 | 2026-09-02 11:06:32 |
| DG1MJG | 64 | 2026-09-02 09:58:55 | 2026-09-02 11:04:48 |
| DF7PN | 46 | 2026-09-02 10:15:26 | 2026-09-02 10:55:18 |
| PG1ADW-2 | 40 | 2026-09-02 10:28:11 | 2026-09-02 10:58:00 |
| OM5KV | 36 | 2026-09-02 10:42:48 | 2026-09-02 10:49:10 |
| IN3HCDX | 29 | 2026-09-02 10:24:50 | 2026-09-02 11:03:00 |
| OE3JTB-15 | 28 | 2026-09-02 10:08:39 | 2026-09-02 11:11:06 |
| DO8TBO-1 | 24 | 2026-09-02 10:14:17 | 2026-09-02 10:58:04 |
| DB0ND-19 | 23 | 2026-09-02 09:53:16 | 2026-09-02 10:58:57 |
| DK5PH-5 | 22 | 2026-09-02 10:29:43 | 2026-09-02 10:52:46 |
| DM0DOS-11 | 22 | 2026-09-02 10:45:08 | 2026-09-02 10:48:53 |
| DL9SK-14 | 20 | 2026-09-02 10:42:37 | 2026-09-02 10:59:42 |
| DB0NH | 19 | 2026-09-02 09:54:49 | 2026-09-02 11:10:08 |
| OE5HKT-10 | 11 | 2026-09-02 10:49:44 | 2026-09-02 10:54:27 |
| DH7VM-15 | 7 | 2026-09-02 10:09:06 | 2026-09-02 10:56:00 |
| DN1GJH-1 | 6 | 2026-09-02 10:11:59 | 2026-09-02 10:14:07 |
| DL1ZP-14 | 4 | 2026-09-02 10:33:50 | 2026-09-02 10:36:56 |
| DF1GD-15 | 3 | 2026-09-02 10:34:11 | 2026-09-02 10:41:42 |
| PETON7-10 | 2 | 2026-09-02 10:47:25 | 2026-09-02 10:49:26 |
| Receiver | Date | Latitude | Longitude | Direction | Speed | Altitude | Climb | Temperature | Humidity | Pressure | Voltage | Killtimer | Uptime | BKT | XDATA |
|---|---|---|---|---|---|---|---|---|---|---|---|---|---|---|---|
| OE5DXL-15 | 2026-09-02 11:18:30 | 47.71371 | 12.03493 | 149° | 4km/h | 1605m | -5.5m/s | 12.8°C | 81.6% | 849.9hPa | 2.6V | 00:00:00 | 00:00:00 | 00:00:00 | |
| OE5DXL-15 | 2026-09-02 11:18:28 | 47.71373 | 12.03492 | 166° | 2km/h | 1617m | -5.6m/s | 12.7°C | 82.0% | 848.9hPa | 2.6V | 01:48:00 | 00:00:00 | 00:00:00 | |
| OE5DXL-15 | 2026-09-02 11:18:26 | 47.71374 | 12.03492 | 169° | 2km/h | 1629m | -6.2m/s | 12.8°C | 81.2% | 847.8hPa | 2.7V | 00:00:00 | 00:00:00 | 00:00:00 | |
| OE5DXL-15 | 2026-09-02 11:18:21 | 47.71376 | 12.03493 | 267° | 4km/h | 1659m | -5.5m/s | 12.5°C | 82.0% | 844.8hPa | 2.7V | 01:48:00 | 00:00:00 | 00:00:00 | |
| DO3MHA-12 | 2026-09-02 11:18:21 | 47.71376 | 12.03493 | 267° | 4km/h | 1659m | -5.5m/s | 12.5°C | 82.0% | 844.8hPa | 2.7V | 00:00:00 | 01:49:30 | 00:00:00 | |
| DO3MHA-11 | 2026-09-02 11:18:20 | 47.71377 | 12.03494 | 257° | 4km/h | 1665m | -5.1m/s | 12.4°C | 82.2% | 844.3hPa | 2.7V | 00:00:00 | 01:49:29 | 00:00:00 | |
| DG1MFX-10 | 2026-09-02 11:18:20 | 47.71376 | 12.03494 | 258° | 2km/h | 1665m | -5.1m/s | 12.5°C | 82.5% | 844.3hPa | 2.7V | 01:49:00 | 00:00:00 | 00:00:00 | |
| DO3MHA-12 | 2026-09-02 11:18:16 | 47.71379 | 12.03497 | 203° | 4km/h | 1686m | -5.7m/s | 12.3°C | 83.6% | 841.9hPa | 2.7V | 01:48:00 | 01:49:25 | 00:00:00 | |
| OE5DXL-15 | 2026-09-02 11:18:15 | 47.71379 | 12.03498 | 226° | 4km/h | 1692m | -5.9m/s | 12.2°C | 83.8% | 841.4hPa | 2.7V | 00:00:00 | 00:00:00 | 00:00:00 | |
| DO3MHA-11 | 2026-09-02 11:18:15 | 47.71379 | 12.03498 | 226° | 4km/h | 1692m | -5.9m/s | 12.2°C | 83.8% | 841.4hPa | 2.7V | 01:48:00 | 01:49:24 | 00:00:00 | |
| DO3MHA-12 | 2026-09-02 11:18:11 | 47.71382 | 12.03500 | 216° | 5km/h | 1718m | -6.4m/s | 12.0°C | 84.8% | 838.9hPa | 2.6V | 00:00:00 | 01:49:20 | 00:00:00 | |
| DO3MHA-11 | 2026-09-02 11:18:10 | 47.71383 | 12.03501 | 206° | 5km/h | 1725m | -6.5m/s | 11.9°C | 85.1% | 838.2hPa | 2.7V | 00:00:00 | 01:49:19 | 00:00:00 | |
| OE5DXL-15 | 2026-09-02 11:18:09 | 47.71384 | 12.03502 | 223° | 4km/h | 1731m | -5.5m/s | 11.8°C | 85.2% | 837.4hPa | 2.7V | 01:49:00 | 00:00:00 | 00:00:00 | |
| DO3MHA-12 | 2026-09-02 11:18:06 | 47.71388 | 12.03503 | 199° | 4km/h | 1749m | -6.3m/s | 11.7°C | 85.9% | 835.6hPa | 2.7V | 01:49:00 | 01:49:15 | 00:00:00 | |
| DO3MHA-11 | 2026-09-02 11:18:05 | 47.71389 | 12.03504 | 184° | 4km/h | 1756m | -7.0m/s | 11.6°C | 86.5% | 835.0hPa | 2.7V | 01:49:00 | 01:49:14 | 00:00:00 | |
| OE5DXL-15 | 2026-09-02 11:18:03 | 47.71391 | 12.03503 | 165° | 2km/h | 1768m | -5.0m/s | 11.5°C | 88.1% | 833.7hPa | 2.7V | 00:00:00 | 00:00:00 | 00:00:00 | |
| DO3MHA-12 | 2026-09-02 11:18:01 | 47.71391 | 12.03503 | 114° | 4km/h | 1781m | -7.2m/s | 11.5°C | 87.3% | 832.5hPa | 2.7V | 00:00:00 | 01:49:10 | 00:00:00 | |
| DO3MHA-11 | 2026-09-02 11:18:00 | 47.71391 | 12.03502 | 94° | 4km/h | 1788m | -7.1m/s | 11.4°C | 87.7% | 831.8hPa | 2.7V | 00:00:00 | 01:49:09 | 00:00:00 | |
| DG1MFX-10 | 2026-09-02 11:17:58 | 47.71391 | 12.03501 | 89° | 2km/h | 1795m | -6.8m/s | 11.3°C | 88.6% | 831.1hPa | 2.7V | 01:49:00 | 00:00:00 | 00:00:00 | |
| OE5DXL-15 | 2026-09-02 11:17:57 | 47.71392 | 12.03499 | 135° | 7km/h | 1808m | -6.2m/s | 11.2°C | 89.1% | 829.6hPa | 2.7V | 01:49:00 | 00:00:00 | 00:00:00 | |
| DO3MHA-12 | 2026-09-02 11:17:56 | 47.71393 | 12.03497 | 112° | 7km/h | 1814m | -5.9m/s | 11.1°C | 89.2% | 829.2hPa | 2.7V | 01:49:00 | 01:49:05 | 00:00:00 | |
| DO3MHA-11 | 2026-09-02 11:17:55 | 47.71393 | 12.03495 | 120° | 7km/h | 1820m | -5.9m/s | 11.1°C | 89.3% | 828.6hPa | 2.7V | 01:49:00 | 01:49:04 | 00:00:00 | |
| OE5DXL-15 | 2026-09-02 11:17:51 | 47.71396 | 12.03484 | 86° | 11km/h | 1845m | -6.4m/s | 11.1°C | 88.6% | 826.2hPa | 2.7V | 00:00:00 | 00:00:00 | 00:00:00 | |
| DO3MHA-12 | 2026-09-02 11:17:51 | 47.71396 | 12.03484 | 86° | 11km/h | 1845m | -6.4m/s | 11.1°C | 88.6% | 826.2hPa | 2.7V | 00:00:00 | 01:49:00 | 00:00:00 | |
| DO3MHA-11 | 2026-09-02 11:17:50 | 47.71395 | 12.03481 | 78° | 11km/h | 1851m | -6.9m/s | 11.4°C | 80.4% | 825.5hPa | 2.7V | 00:00:00 | 01:48:59 | 00:00:00 | |
| DO3MHA-12 | 2026-09-02 11:17:46 | 47.71392 | 12.03465 | 68° | 13km/h | 1879m | -6.3m/s | 11.3°C | 78.7% | 822.7hPa | 2.7V | 01:49:00 | 01:48:55 | 00:00:00 | |
| OE5DXL-15 | 2026-09-02 11:17:45 | 47.71390 | 12.03461 | 67° | 13km/h | 1885m | -6.4m/s | 11.1°C | 79.9% | 822.2hPa | 2.7V | 01:49:00 | 00:00:00 | 00:00:00 | |
| DO3MHA-11 | 2026-09-02 11:17:45 | 47.71390 | 12.03461 | 67° | 13km/h | 1885m | -6.4m/s | 11.1°C | 79.9% | 822.2hPa | 2.7V | 01:49:00 | 01:48:54 | 00:00:00 | |
| DO3MHA-12 | 2026-09-02 11:17:41 | 47.71387 | 12.03443 | 81° | 11km/h | 1909m | -5.9m/s | 10.9°C | 82.4% | 819.9hPa | 2.6V | 00:00:00 | 01:48:50 | 00:00:00 | |
| DO3MHA-11 | 2026-09-02 11:17:40 | 47.71386 | 12.03438 | 80° | 11km/h | 1915m | -5.6m/s | 10.9°C | 82.1% | 819.2hPa | 2.7V | 00:00:00 | 01:48:49 | 00:00:00 | |
| OE5DXL-15 | 2026-09-02 11:17:39 | 47.71386 | 12.03434 | 81° | 11km/h | 1920m | -5.1m/s | 10.8°C | 82.2% | 818.7hPa | 2.7V | 00:00:00 | 00:00:00 | 00:00:00 | |
| DG1MFX-10 | 2026-09-02 11:17:38 | 47.71386 | 12.03434 | 82° | 11km/h | 1920m | -5.2m/s | 10.9°C | 82.4% | 818.7hPa | 2.6V | 01:49:00 | 00:00:00 | 00:00:00 | |
| DO3MHA-12 | 2026-09-02 11:17:36 | 47.71384 | 12.03422 | 71° | 11km/h | 1935m | -5.5m/s | 10.7°C | 83.0% | 817.1hPa | 2.6V | 01:49:00 | 01:48:45 | 00:00:00 | |
| DO3MHA-11 | 2026-09-02 11:17:35 | 47.71383 | 12.03418 | 64° | 13km/h | 1941m | -4.2m/s | 10.6°C | 83.4% | 816.7hPa | 2.6V | 01:49:00 | 01:48:44 | 00:00:00 | |
| OE5DXL-15 | 2026-09-02 11:17:33 | 47.71380 | 12.03410 | 61° | 15km/h | 1950m | -5.2m/s | 10.5°C | 84.0% | 815.8hPa | 2.6V | 01:49:00 | 00:00:00 | 00:00:00 | |
| DO3MHA-12 | 2026-09-02 11:17:31 | 47.71377 | 12.03402 | 58° | 15km/h | 1961m | -5.4m/s | 10.4°C | 84.2% | 814.8hPa | 2.6V | 00:00:00 | 01:48:40 | 00:00:00 | |
| DO3MHA-11 | 2026-09-02 11:17:30 | 47.71375 | 12.03397 | 52° | 15km/h | 1966m | -4.7m/s | 10.4°C | 84.5% | 814.3hPa | 2.6V | 00:00:00 | 01:48:39 | 00:00:00 | |
| OE5DXL-15 | 2026-09-02 11:17:27 | 47.71368 | 12.03384 | 48° | 13km/h | 1981m | -6.1m/s | 10.2°C | 84.8% | 812.9hPa | 2.7V | 00:00:00 | 00:00:00 | 00:00:00 | |
| DO3MHA-12 | 2026-09-02 11:17:26 | 47.71366 | 12.03381 | 35° | 13km/h | 1987m | -6.0m/s | 10.3°C | 84.4% | 812.5hPa | 2.7V | 01:49:00 | 01:48:35 | 00:00:00 | |
| DO3MHA-11 | 2026-09-02 11:17:25 | 47.71363 | 12.03379 | 35° | 13km/h | 1993m | -4.8m/s | 10.3°C | 83.9% | 811.8hPa | 2.7V | 01:49:00 | 01:48:34 | 00:00:00 | |
| DO3MHA-12 | 2026-09-02 11:17:21 | 47.71353 | 12.03368 | 53° | 15km/h | 2015m | -5.6m/s | 10.2°C | 81.7% | 809.6hPa | 2.7V | 00:00:00 | 01:48:30 | 00:00:00 | |
| DO3MHA-11 | 2026-09-02 11:17:20 | 47.71351 | 12.03364 | 53° | 16km/h | 2021m | -6.1m/s | 10.1°C | 82.9% | 809.3hPa | 2.7V | 00:00:00 | 01:48:29 | 00:00:00 | |
| DO3MHA-12 | 2026-09-02 11:17:16 | 47.71341 | 12.03345 | 57° | 15km/h | 2043m | -5.2m/s | 9.8°C | 86.4% | 806.9hPa | 2.7V | 01:49:00 | 01:48:25 | 00:00:00 | |
| OE5DXL-15 | 2026-09-02 11:17:15 | 47.71339 | 12.03339 | 61° | 15km/h | 2048m | -4.5m/s | 9.7°C | 87.5% | 806.4hPa | 2.7V | 00:00:00 | 00:00:00 | 00:00:00 | |
| DO3MHA-12 | 2026-09-02 11:17:11 | 47.71330 | 12.03322 | 48° | 18km/h | 2072m | -7.0m/s | 9.6°C | 85.8% | 804.1hPa | 2.7V | 00:00:00 | 01:48:20 | 00:00:00 | |
| DO3MHA-11 | 2026-09-02 11:17:10 | 47.71328 | 12.03318 | 49° | 18km/h | 2079m | -6.3m/s | 9.5°C | 87.3% | 803.4hPa | 2.7V | 00:00:00 | 01:48:19 | 00:00:00 | |
| OE5DXL-15 | 2026-09-02 11:17:09 | 47.71325 | 12.03313 | 45° | 20km/h | 2085m | -7.0m/s | 9.5°C | 86.7% | 802.8hPa | 2.7V | 01:50:00 | 00:00:00 | 00:00:00 | |
| DO3MHA-12 | 2026-09-02 11:17:06 | 47.71315 | 12.03297 | 55° | 20km/h | 2105m | -6.2m/s | 9.7°C | 77.4% | 801.0hPa | 2.7V | 01:50:00 | 01:48:15 | 00:00:00 | |
| DO3MHA-11 | 2026-09-02 11:17:05 | 47.71313 | 12.03291 | 60° | 20km/h | 2111m | -6.4m/s | 9.5°C | 80.2% | 800.4hPa | 2.7V | 01:50:00 | 01:48:14 | 00:00:00 | |
| OE5DXL-15 | 2026-09-02 11:17:03 | 47.71308 | 12.03278 | 62° | 22km/h | 2124m | -6.0m/s | 9.5°C | 79.9% | 799.2hPa | 2.7V | 00:00:00 | 01:48:12 | 00:00:00 | |
| DO3MHA-12 | 2026-09-02 11:17:01 | 47.71303 | 12.03264 | 68° | 22km/h | 2135m | -4.1m/s | 9.4°C | 78.7% | 798.1hPa | 2.7V | 00:00:00 | 01:48:10 | 00:00:00 | |
| DO3MHA-11 | 2026-09-02 11:17:00 | 47.71301 | 12.03256 | 67° | 22km/h | 2140m | -5.6m/s | 9.3°C | 79.3% | 797.6hPa | 2.7V | 00:00:00 | 01:48:09 | 00:00:00 | |
| OE5DXL-15 | 2026-09-02 11:16:57 | 47.71293 | 12.03233 | 64° | 24km/h | 2158m | -5.9m/s | 9.0°C | 85.0% | 795.8hPa | 2.7V | 01:50:00 | 00:00:00 | 00:00:00 | |
| DO3MHA-12 | 2026-09-02 11:16:56 | 47.71291 | 12.03225 | 69° | 24km/h | 2164m | -6.4m/s | 8.9°C | 84.9% | 795.4hPa | 2.7V | 01:50:00 | 01:48:05 | 00:00:00 | |
| DO3MHA-11 | 2026-09-02 11:16:55 | 47.71289 | 12.03217 | 68° | 24km/h | 2170m | -7.0m/s | 8.8°C | 88.6% | 794.8hPa | 2.7V | 01:50:00 | 01:48:04 | 00:00:00 | |
| DO3MHA-12 | 2026-09-02 11:16:51 | 47.71279 | 12.03184 | 67° | 26km/h | 2195m | -5.6m/s | 8.7°C | 87.8% | 792.3hPa | 2.7V | 00:00:00 | 01:48:00 | 00:00:00 | |
| DO3MHA-11 | 2026-09-02 11:16:50 | 47.71277 | 12.03176 | 67° | 26km/h | 2201m | -6.2m/s | 9.1°C | 74.5% | 791.8hPa | 2.7V | 00:00:00 | 01:47:59 | 00:00:00 | |
| DO3MHA-12 | 2026-09-02 11:16:46 | 47.71267 | 12.03140 | 67° | 27km/h | 2227m | -6.5m/s | 9.0°C | 68.6% | 789.3hPa | 2.7V | 01:50:00 | 01:47:55 | 00:00:00 | |
| DO3MHA-11 | 2026-09-02 11:16:45 | 47.71264 | 12.03131 | 68° | 27km/h | 2234m | -6.6m/s | 9.0°C | 67.6% | 788.5hPa | 2.7V | 01:50:00 | 01:47:54 | 00:00:00 | |
| DO3MHA-12 | 2026-09-02 11:16:41 | 47.71251 | 12.03094 | 59° | 27km/h | 2259m | -6.2m/s | 8.7°C | 68.2% | 786.1hPa | 2.7V | 00:00:00 | 01:47:50 | 00:00:00 | |
| DO3MHA-11 | 2026-09-02 11:16:40 | 47.71247 | 12.03086 | 58° | 29km/h | 2266m | -6.3m/s | 8.6°C | 68.3% | 785.5hPa | 2.7V | 00:00:00 | 01:47:49 | 00:00:00 | |
| OE5DXL-15 | 2026-09-02 11:16:39 | 47.71243 | 12.03076 | 64° | 29km/h | 2272m | -6.2m/s | 8.6°C | 68.3% | 784.7hPa | 2.7V | 00:00:00 | 00:00:00 | 00:00:00 | |
| DO3MHA-12 | 2026-09-02 11:16:36 | 47.71234 | 12.03048 | 67° | 29km/h | 2292m | -6.8m/s | 8.4°C | 68.8% | 783.0hPa | 2.7V | 01:50:00 | 01:47:45 | 00:00:00 | |
| DO3MHA-11 | 2026-09-02 11:16:35 | 47.71231 | 12.03038 | 66° | 31km/h | 2299m | -6.6m/s | 8.4°C | 67.2% | 782.3hPa | 2.7V | 01:50:00 | 01:47:44 | 00:00:00 | |
| OE5DXL-15 | 2026-09-02 11:16:33 | 47.71225 | 12.03017 | 68° | 31km/h | 2312m | -7.1m/s | 8.3°C | 65.7% | 781.1hPa | 2.7V | 01:50:00 | 00:00:00 | 00:00:00 | |
| DO3MHA-12 | 2026-09-02 11:16:31 | 47.71219 | 12.02996 | 68° | 31km/h | 2326m | -7.1m/s | 8.1°C | 68.3% | 779.6hPa | 2.7V | 00:00:00 | 01:47:40 | 00:00:00 | |
| DO3MHA-11 | 2026-09-02 11:16:30 | 47.71216 | 12.02985 | 67° | 33km/h | 2333m | -6.0m/s | 8.1°C | 68.2% | 779.1hPa | 2.7V | 00:00:00 | 01:47:39 | 00:00:00 | |
| DO3MHA-12 | 2026-09-02 11:16:26 | 47.71202 | 12.02942 | 67° | 35km/h | 2359m | -6.4m/s | 7.9°C | 68.5% | 776.5hPa | 2.6V | 01:50:00 | 01:47:35 | 00:00:00 | |
| DO3MHA-11 | 2026-09-02 11:16:25 | 47.71199 | 12.02930 | 67° | 35km/h | 2365m | -5.6m/s | 7.8°C | 68.2% | 776.2hPa | 2.7V | 01:50:00 | 01:47:34 | 00:00:00 | |
| OE5DXL-15 | 2026-09-02 11:16:23 | 47.71192 | 12.02907 | 68° | 38km/h | 2376m | -4.8m/s | 7.7°C | 67.6% | 774.7hPa | 2.7V | 00:00:00 | 00:00:00 | 00:00:00 | |
| DO3MHA-12 | 2026-09-02 11:16:21 | 47.71186 | 12.02882 | 70° | 37km/h | 2388m | -6.8m/s | 7.6°C | 69.7% | 773.6hPa | 2.7V | 00:00:00 | 01:47:30 | 00:00:00 | |
| DO3MHA-11 | 2026-09-02 11:16:20 | 47.71182 | 12.02869 | 71° | 37km/h | 2395m | -6.4m/s | 7.5°C | 68.1% | 773.0hPa | 2.7V | 00:00:00 | 01:47:29 | 00:00:00 | |
| DO3MHA-12 | 2026-09-02 11:16:16 | 47.71170 | 12.02818 | 69° | 38km/h | 2422m | -6.4m/s | 7.4°C | 64.5% | 770.6hPa | 2.7V | 01:50:00 | 01:47:25 | 00:00:00 | |
| DO3MHA-11 | 2026-09-02 11:16:15 | 47.71167 | 12.02805 | 70° | 38km/h | 2428m | -7.1m/s | 7.3°C | 68.0% | 770.1hPa | 2.7V | 01:50:00 | 01:47:24 | 00:00:00 | |
| DG1MFX-10 | 2026-09-02 11:16:13 | 47.71163 | 12.02792 | 70° | 38km/h | 2435m | -6.8m/s | 7.3°C | 65.4% | 769.4hPa | 2.7V | 01:51:00 | 00:00:00 | 00:00:00 | |
| DO3MHA-12 | 2026-09-02 11:16:11 | 47.71152 | 12.02752 | 69° | 38km/h | 2454m | -5.9m/s | 7.3°C | 60.4% | 767.6hPa | 2.7V | 00:00:00 | 01:47:20 | 00:00:00 | |
| DO3MHA-11 | 2026-09-02 11:16:10 | 47.71148 | 12.02738 | 67° | 40km/h | 2461m | -7.2m/s | 7.3°C | 59.7% | 767.1hPa | 2.6V | 00:00:00 | 01:47:19 | 00:00:00 | |
| DO3MHA-12 | 2026-09-02 11:16:06 | 47.71133 | 12.02684 | 70° | 42km/h | 2488m | -6.4m/s | 7.1°C | 58.0% | 764.4hPa | 2.6V | 01:51:00 | 01:47:15 | 00:00:00 | |
| DO3MHA-11 | 2026-09-02 11:16:05 | 47.71129 | 12.02669 | 71° | 42km/h | 2494m | -6.4m/s | 7.0°C | 59.0% | 763.9hPa | 2.6V | 01:51:00 | 01:47:14 | 00:00:00 | |
| OE5DXL-15 | 2026-09-02 11:16:03 | 47.71122 | 12.02640 | 70° | 44km/h | 2507m | -6.6m/s | 6.9°C | 59.4% | 762.6hPa | 2.6V | 01:51:00 | 00:00:00 | 00:00:00 | |
| DO3MHA-12 | 2026-09-02 11:16:01 | 47.71115 | 12.02610 | 70° | 44km/h | 2520m | -6.1m/s | 6.8°C | 59.0% | 761.6hPa | 2.6V | 00:00:00 | 01:47:10 | 00:00:00 | |
| DO3MHA-11 | 2026-09-02 11:16:00 | 47.71111 | 12.02595 | 72° | 44km/h | 2526m | -6.7m/s | 6.7°C | 59.3% | 761.0hPa | 2.6V | 00:00:00 | 01:47:09 | 00:00:00 | |
| DO3MHA-11 | 2026-09-02 11:15:55 | 47.71093 | 12.02519 | 72° | 44km/h | 2559m | -6.8m/s | 6.5°C | 55.7% | 757.9hPa | 2.7V | 01:51:00 | 01:47:04 | 00:00:00 | |
| DO3MHA-12 | 2026-09-02 11:15:54 | 47.71090 | 12.02504 | 71° | 46km/h | 2566m | -6.9m/s | 6.4°C | 57.1% | 757.4hPa | 2.7V | 01:51:00 | 01:47:03 | 00:00:00 | |
| DO3MHA-11 | 2026-09-02 11:15:50 | 47.71075 | 12.02440 | 72° | 46km/h | 2592m | -6.0m/s | 6.5°C | 48.0% | 754.9hPa | 2.6V | 00:00:00 | 01:46:59 | 00:00:00 | |
| DO3MHA-12 | 2026-09-02 11:15:49 | 47.71071 | 12.02424 | 73° | 46km/h | 2598m | -5.9m/s | 6.5°C | 47.0% | 754.3hPa | 2.6V | 00:00:00 | 01:46:58 | 00:00:00 | |
| DO3MHA-11 | 2026-09-02 11:15:45 | 47.71058 | 12.02358 | 74° | 47km/h | 2622m | -5.1m/s | 6.5°C | 39.9% | 752.0hPa | 2.6V | 01:51:00 | 01:46:54 | 00:00:00 | |
| DO3MHA-12 | 2026-09-02 11:15:44 | 47.71054 | 12.02341 | 73° | 47km/h | 2628m | -6.4m/s | 6.4°C | 39.4% | 751.4hPa | 2.7V | 01:51:00 | 01:46:53 | 00:00:00 | |
| OE5DXL-15 | 2026-09-02 11:15:43 | 47.71051 | 12.02324 | 75° | 47km/h | 2635m | -6.4m/s | 6.4°C | 38.6% | 750.9hPa | 2.7V | 00:00:00 | 00:00:00 | 00:00:00 | |
| DO3MHA-11 | 2026-09-02 11:15:40 | 47.71041 | 12.02273 | 74° | 47km/h | 2655m | -6.5m/s | 6.2°C | 38.4% | 749.2hPa | 2.7V | 00:00:00 | 01:46:49 | 00:00:00 | |
| DO3MHA-12 | 2026-09-02 11:15:39 | 47.71037 | 12.02256 | 75° | 47km/h | 2661m | -6.5m/s | 6.1°C | 39.1% | 748.6hPa | 2.7V | 00:00:00 | 01:46:48 | 00:00:00 | |
| DO3MHA-11 | 2026-09-02 11:15:35 | 47.71024 | 12.02189 | 75° | 47km/h | 2687m | -6.3m/s | 6.0°C | 38.0% | 746.3hPa | 2.7V | 01:51:00 | 01:46:44 | 00:00:00 | |
| DO3MHA-12 | 2026-09-02 11:15:34 | 47.71021 | 12.02172 | 76° | 47km/h | 2694m | -6.1m/s | 6.0°C | 36.7% | 745.6hPa | 2.7V | 01:51:00 | 01:46:43 | 00:00:00 | |
| DO3MHA-11 | 2026-09-02 11:15:30 | 47.71011 | 12.02103 | 78° | 47km/h | 2719m | -6.9m/s | 5.7°C | 36.2% | 743.3hPa | 2.7V | 00:00:00 | 01:46:39 | 00:00:00 | |
| DO3MHA-12 | 2026-09-02 11:15:29 | 47.71008 | 12.02085 | 77° | 47km/h | 2726m | -6.3m/s | 5.6°C | 36.9% | 742.7hPa | 2.7V | 00:00:00 | 01:46:38 | 00:00:00 | |
| DO3MHA-11 | 2026-09-02 11:15:25 | 47.70996 | 12.02015 | 75° | 47km/h | 2752m | -6.0m/s | 5.5°C | 35.1% | 740.4hPa | 2.7V | 01:51:00 | 01:46:34 | 00:00:00 | |
| DO3MHA-12 | 2026-09-02 11:15:24 | 47.70993 | 12.01998 | 78° | 47km/h | 2758m | -6.0m/s | 5.4°C | 33.5% | 739.8hPa | 2.7V | 01:51:00 | 01:46:33 | 00:00:00 | |
| OE5DXL-15 | 2026-09-02 11:15:23 | 47.70991 | 12.01981 | 78° | 47km/h | 2764m | -6.5m/s | 5.4°C | 33.3% | 739.1hPa | 2.6V | 01:51:00 | 00:00:00 | 00:00:00 | |
| DO3MHA-11 | 2026-09-02 11:15:20 | 47.70984 | 12.01929 | 79° | 46km/h | 2783m | -6.3m/s | 5.2°C | 31.0% | 737.5hPa | 2.6V | 00:00:00 | 01:46:29 | 00:00:00 | |
| DO3MHA-12 | 2026-09-02 11:15:19 | 47.70982 | 12.01912 | 82° | 46km/h | 2790m | -6.5m/s | 5.2°C | 31.1% | 736.9hPa | 2.6V | 00:00:00 | 01:46:28 | 00:00:00 | |
| DO3MHA-11 | 2026-09-02 11:15:16 | 47.70975 | 12.01843 | 84° | 47km/h | 2816m | -6.4m/s | 4.9°C | 33.7% | 734.4hPa | 2.6V | 01:51:00 | 01:46:24 | 00:00:00 | |
| DO3MHA-12 | 2026-09-02 11:15:14 | 47.70974 | 12.01825 | 85° | 47km/h | 2822m | -6.6m/s | 4.8°C | 33.2% | 733.9hPa | 2.6V | 01:51:00 | 01:46:23 | 00:00:00 | |
| DG1MFX-10 | 2026-09-02 11:15:11 | 47.70972 | 12.01791 | 85° | 47km/h | 2834m | -6.5m/s | 4.8°C | 32.7% | 732.9hPa | 2.6V | 01:52:00 | 00:00:00 | 00:00:00 | |
| DO3MHA-11 | 2026-09-02 11:15:10 | 47.70970 | 12.01756 | 85° | 47km/h | 2847m | -6.3m/s | 4.6°C | 31.7% | 731.7hPa | 2.6V | 00:00:00 | 01:46:19 | 00:00:00 | |
| DO3MHA-11 | 2026-09-02 11:15:05 | 47.70962 | 12.01668 | 81° | 44km/h | 2877m | -5.8m/s | 4.8°C | 18.5% | 729.1hPa | 2.6V | 01:52:00 | 01:46:14 | 00:00:00 | |
| DO3MHA-12 | 2026-09-02 11:15:04 | 47.70960 | 12.01651 | 81° | 44km/h | 2883m | -6.1m/s | 4.8°C | 17.8% | 728.5hPa | 2.6V | 01:52:00 | 01:46:13 | 00:00:00 | |
| OE5DXL-15 | 2026-09-02 11:15:03 | 47.70958 | 12.01635 | 83° | 42km/h | 2889m | -6.4m/s | 4.7°C | 17.2% | 727.9hPa | 2.6V | 00:00:00 | 00:00:00 | 00:00:00 | |
| DO3MHA-11 | 2026-09-02 11:15:00 | 47.70954 | 12.01586 | 85° | 42km/h | 2907m | -6.0m/s | 4.6°C | 16.4% | 726.3hPa | 2.6V | 00:00:00 | 01:46:09 | 00:00:00 | |
| DO3MHA-12 | 2026-09-02 11:14:59 | 47.70953 | 12.01570 | 85° | 42km/h | 2913m | -5.1m/s | 4.5°C | 16.5% | 725.8hPa | 2.6V | 00:00:00 | 01:46:08 | 00:00:00 | |
| DO3MHA-11 | 2026-09-02 11:14:55 | 47.70949 | 12.01508 | 85° | 42km/h | 2937m | -5.7m/s | 4.3°C | 16.8% | 723.5hPa | 2.6V | 01:52:00 | 01:46:04 | 00:00:00 | |
| DO3MHA-12 | 2026-09-02 11:14:54 | 47.70948 | 12.01492 | 84° | 42km/h | 2943m | -6.2m/s | 4.3°C | 16.9% | 723.2hPa | 2.6V | 01:52:00 | 01:46:03 | 00:00:00 | |
| DO3MHA-11 | 2026-09-02 11:14:50 | 47.70943 | 12.01429 | 82° | 42km/h | 2967m | -6.4m/s | 4.1°C | 16.7% | 720.8hPa | 2.6V | 00:00:00 | 01:45:59 | 00:00:00 | |
| DO3MHA-12 | 2026-09-02 11:14:49 | 47.70941 | 12.01414 | 82° | 42km/h | 2974m | -6.5m/s | 4.1°C | 16.5% | 720.3hPa | 2.6V | 00:00:00 | 01:45:58 | 00:00:00 | |
| DO3MHA-11 | 2026-09-02 11:14:45 | 47.70936 | 12.01352 | 84° | 42km/h | 2998m | -5.9m/s | 4.0°C | 16.0% | 718.3hPa | 2.6V | 01:52:00 | 01:45:54 | 00:00:00 | |
| DO3MHA-12 | 2026-09-02 11:14:44 | 47.70935 | 12.01337 | 85° | 42km/h | 3004m | -6.4m/s | 4.0°C | 16.1% | 717.6hPa | 2.7V | 01:52:00 | 01:45:53 | 00:00:00 | |
| DO3MHA-11 | 2026-09-02 11:14:40 | 47.70932 | 12.01275 | 86° | 42km/h | 3030m | -6.3m/s | 3.8°C | 16.6% | 715.3hPa | 2.7V | 00:00:00 | 01:45:49 | 00:00:00 | |
| DO3MHA-12 | 2026-09-02 11:14:39 | 47.70931 | 12.01260 | 85° | 42km/h | 3037m | -6.2m/s | 3.7°C | 17.4% | 714.9hPa | 2.7V | 00:00:00 | 01:45:48 | 00:00:00 | |
| DO3MHA-11 | 2026-09-02 11:14:35 | 47.70927 | 12.01198 | 84° | 42km/h | 3062m | -6.5m/s | 3.5°C | 25.4% | 712.7hPa | 2.7V | 01:52:00 | 01:45:44 | 00:00:00 | |
| DO3MHA-12 | 2026-09-02 11:14:34 | 47.70925 | 12.01182 | 85° | 42km/h | 3068m | -5.6m/s | 3.5°C | 26.6% | 712.0hPa | 2.7V | 01:52:00 | 01:45:43 | 00:00:00 | |
| DO3MHA-11 | 2026-09-02 11:14:30 | 47.70922 | 12.01121 | 85° | 40km/h | 3094m | -6.1m/s | 3.3°C | 20.8% | 709.7hPa | 2.7V | 00:00:00 | 01:45:39 | 00:00:00 | |
| DO3MHA-12 | 2026-09-02 11:14:29 | 47.70921 | 12.01106 | 87° | 40km/h | 3100m | -6.7m/s | 3.3°C | 19.6% | 709.2hPa | 2.7V | 00:00:00 | 01:45:38 | 00:00:00 | |
| DO3MHA-11 | 2026-09-02 11:14:25 | 47.70918 | 12.01045 | 85° | 42km/h | 3125m | -5.7m/s | 3.1°C | 25.7% | 707.0hPa | 2.7V | 01:52:00 | 01:45:34 | 00:00:00 | |
| DO3MHA-12 | 2026-09-02 11:14:24 | 47.70917 | 12.01029 | 86° | 42km/h | 3131m | -5.8m/s | 3.0°C | 26.2% | 706.6hPa | 2.7V | 01:52:00 | 01:45:33 | 00:00:00 | |
| OE5DXL-15 | 2026-09-02 11:14:23 | 47.70916 | 12.01014 | 87° | 44km/h | 3137m | -6.8m/s | 3.0°C | 26.9% | 706.0hPa | 2.7V | 00:00:00 | 00:00:00 | 00:00:00 | |
| DO3MHA-11 | 2026-09-02 11:14:20 | 47.70914 | 12.00967 | 87° | 44km/h | 3157m | -6.5m/s | 2.8°C | 26.7% | 704.4hPa | 2.7V | 00:00:00 | 01:45:29 | 00:00:00 | |
| DO3MHA-12 | 2026-09-02 11:14:19 | 47.70913 | 12.00951 | 89° | 44km/h | 3163m | -6.3m/s | 2.8°C | 27.8% | 703.8hPa | 2.7V | 00:00:00 | 01:45:28 | 00:00:00 | |
| DO3MHA-11 | 2026-09-02 11:14:15 | 47.70911 | 12.00886 | 87° | 42km/h | 3189m | -6.3m/s | 2.6°C | 20.8% | 701.5hPa | 2.7V | 01:52:00 | 01:45:24 | 00:00:00 | |
| DO3MHA-12 | 2026-09-02 11:14:14 | 47.70911 | 12.00870 | 89° | 42km/h | 3195m | -6.9m/s | 2.6°C | 19.1% | 701.1hPa | 2.7V | 01:52:00 | 01:45:23 | 00:00:00 | |
| DO3MHA-11 | 2026-09-02 11:14:10 | 47.70910 | 12.00806 | 89° | 44km/h | 3221m | -6.3m/s | 2.4°C | 19.9% | 698.8hPa | 2.7V | 00:00:00 | 01:45:19 | 00:00:00 | |
| DO3MHA-12 | 2026-09-02 11:14:09 | 47.70909 | 12.00790 | 90° | 44km/h | 3227m | -6.8m/s | 2.4°C | 19.9% | 698.3hPa | 2.7V | 00:00:00 | 01:45:18 | 00:00:00 | |
| DG1MFX-10 | 2026-09-02 11:14:08 | 47.70910 | 12.00790 | 91° | 44km/h | 3227m | -6.8m/s | 2.4°C | 19.8% | 698.4hPa | 2.6V | 01:53:00 | 00:00:00 | 00:00:00 | |
| DO3MHA-11 | 2026-09-02 11:14:05 | 47.70910 | 12.00725 | 92° | 44km/h | 3253m | -6.4m/s | 2.2°C | 21.3% | 696.2hPa | 2.6V | 01:53:00 | 01:45:14 | 00:00:00 | |
| DO3MHA-12 | 2026-09-02 11:14:04 | 47.70910 | 12.00708 | 93° | 44km/h | 3260m | -6.6m/s | 2.1°C | 22.1% | 695.5hPa | 2.6V | 01:53:00 | 01:45:13 | 00:00:00 | |
| OE5DXL-15 | 2026-09-02 11:14:03 | 47.70911 | 12.00692 | 91° | 42km/h | 3266m | -5.9m/s | 2.1°C | 22.8% | 695.0hPa | 2.6V | 01:53:00 | 00:00:00 | 00:00:00 | |
| DO3MHA-11 | 2026-09-02 11:14:00 | 47.70912 | 12.00642 | 91° | 42km/h | 3285m | -6.5m/s | 1.9°C | 24.1% | 693.5hPa | 2.6V | 00:00:00 | 01:45:09 | 00:00:00 | |
| DO3MHA-12 | 2026-09-02 11:13:59 | 47.70912 | 12.00626 | 91° | 42km/h | 3292m | -6.6m/s | 1.9°C | 24.6% | 692.9hPa | 2.7V | 00:00:00 | 01:45:08 | 00:00:00 | |
| DO3MHA-11 | 2026-09-02 11:13:55 | 47.70912 | 12.00562 | 94° | 44km/h | 3317m | -6.2m/s | 1.6°C | 26.0% | 690.8hPa | 2.7V | 01:53:00 | 01:45:04 | 00:00:00 | |
| DO3MHA-12 | 2026-09-02 11:13:54 | 47.70913 | 12.00547 | 95° | 44km/h | 3324m | -5.8m/s | 1.6°C | 27.3% | 690.3hPa | 2.7V | 01:53:00 | 01:45:03 | 00:00:00 | |
| DO3MHA-11 | 2026-09-02 11:13:50 | 47.70917 | 12.00482 | 96° | 42km/h | 3346m | -5.5m/s | 1.5°C | 27.7% | 688.0hPa | 2.7V | 00:00:00 | 01:44:59 | 00:00:00 | |
| DO3MHA-12 | 2026-09-02 11:13:49 | 47.70918 | 12.00466 | 97° | 42km/h | 3352m | -6.3m/s | 1.4°C | 28.2% | 687.7hPa | 2.7V | 00:00:00 | 01:44:58 | 00:00:00 | |
| DG1MFX-10 | 2026-09-02 11:13:48 | 47.70918 | 12.00466 | 98° | 44km/h | 3352m | -6.4m/s | 1.5°C | 28.0% | 687.7hPa | 2.7V | 01:53:00 | 00:00:00 | 00:00:00 | |
| DO3MHA-11 | 2026-09-02 11:13:45 | 47.70922 | 12.00403 | 96° | 42km/h | 3377m | -6.5m/s | 1.3°C | 26.6% | 685.7hPa | 2.7V | 01:53:00 | 01:44:54 | 00:00:00 | |
| DO3MHA-12 | 2026-09-02 11:13:44 | 47.70923 | 12.00387 | 94° | 42km/h | 3383m | -6.0m/s | 1.3°C | 26.3% | 685.1hPa | 2.7V | 01:53:00 | 01:44:53 | 00:00:00 | |
| OE5DXL-15 | 2026-09-02 11:13:43 | 47.70923 | 12.00372 | 93° | 40km/h | 3389m | -6.1m/s | 1.2°C | 26.6% | 684.6hPa | 2.7V | 00:00:00 | 00:00:00 | 00:00:00 | |
| DO3MHA-11 | 2026-09-02 11:13:40 | 47.70925 | 12.00325 | 96° | 42km/h | 3407m | -6.3m/s | 1.1°C | 27.4% | 682.9hPa | 2.7V | 00:00:00 | 01:44:49 | 00:00:00 | |
| DO3MHA-12 | 2026-09-02 11:13:39 | 47.70925 | 12.00310 | 94° | 42km/h | 3413m | -6.2m/s | 1.1°C | 27.7% | 682.4hPa | 2.7V | 00:00:00 | 01:44:48 | 00:00:00 | |
| DO3MHA-11 | 2026-09-02 11:13:35 | 47.70930 | 12.00248 | 97° | 40km/h | 3437m | -6.7m/s | 0.8°C | 28.8% | 680.2hPa | 2.7V | 01:53:00 | 01:44:44 | 00:00:00 | |
| DO3MHA-12 | 2026-09-02 11:13:34 | 47.70932 | 12.00232 | 99° | 40km/h | 3444m | -6.4m/s | 0.8°C | 28.9% | 679.7hPa | 2.7V | 01:53:00 | 01:44:43 | 00:00:00 | |
| DO3MHA-11 | 2026-09-02 11:13:30 | 47.70936 | 12.00172 | 97° | 40km/h | 3470m | -6.7m/s | 0.6°C | 29.9% | 677.5hPa | 2.7V | 00:00:00 | 01:44:39 | 00:00:00 | |
| DO3MHA-12 | 2026-09-02 11:13:29 | 47.70937 | 12.00157 | 98° | 42km/h | 3477m | -6.1m/s | 0.5°C | 29.5% | 677.0hPa | 2.7V | 00:00:00 | 01:44:38 | 00:00:00 | |
| DG1MFX-10 | 2026-09-02 11:13:28 | 47.70937 | 12.00157 | 99° | 40km/h | 3477m | -6.1m/s | 0.6°C | 29.2% | 677.0hPa | 2.7V | 01:53:00 | 00:00:00 | 00:00:00 | |
| OE5DRO-10 | 2026-09-02 11:13:26 | 47.70940 | 12.00111 | 95° | 40km/h | 3496m | -6.6m/s | 0.5°C | 25.8% | 675.5hPa | 2.7V | 00:00:00 | 00:00:00 | 00:00:00 | |
| DO3MHA-11 | 2026-09-02 11:13:25 | 47.70941 | 12.00096 | 95° | 40km/h | 3503m | -6.4m/s | 0.5°C | 24.7% | 674.9hPa | 2.7V | 01:53:00 | 01:44:34 | 00:00:00 | |
| DO3MHA-12 | 2026-09-02 11:13:24 | 47.70942 | 12.00081 | 94° | 40km/h | 3509m | -5.9m/s | 0.4°C | 26.6% | 674.4hPa | 2.7V | 01:53:00 | 01:44:33 | 00:00:00 | |
| DO3MHA-11 | 2026-09-02 11:13:20 | 47.70947 | 12.00021 | 100° | 40km/h | 3534m | -6.3m/s | 0.3°C | 29.1% | 672.3hPa | 2.6V | 00:00:00 | 01:44:29 | 00:00:00 | |
| DO3MHA-12 | 2026-09-02 11:13:19 | 47.70948 | 12.00006 | 98° | 40km/h | 3540m | -6.7m/s | 0.2°C | 30.2% | 671.8hPa | 2.6V | 00:00:00 | 01:44:28 | 00:00:00 | |
| DO3MHA-11 | 2026-09-02 11:13:15 | 47.70953 | 11.99948 | 96° | 38km/h | 3565m | -6.7m/s | 0.0°C | 31.8% | 669.7hPa | 2.6V | 01:53:00 | 01:44:24 | 00:00:00 | |
| DO3MHA-12 | 2026-09-02 11:13:14 | 47.70954 | 11.99934 | 97° | 38km/h | 3571m | -6.3m/s | 0.0°C | 31.8% | 669.1hPa | 2.7V | 01:53:00 | 01:44:23 | 00:00:00 | |
| OE5DXL-15 | 2026-09-02 11:13:13 | 47.70955 | 11.99920 | 93° | 40km/h | 3578m | -6.1m/s | -0.0°C | 31.9% | 668.6hPa | 2.7V | 01:53:00 | 00:00:00 | 00:00:00 | |
| DO3MHA-11 | 2026-09-02 11:13:10 | 47.70957 | 11.99877 | 95° | 38km/h | 3597m | -6.6m/s | -0.1°C | 32.0% | 667.0hPa | 2.6V | 00:00:00 | 01:44:19 | 00:00:00 | |
| DO3MHA-12 | 2026-09-02 11:13:09 | 47.70958 | 11.99863 | 97° | 38km/h | 3603m | -6.0m/s | -0.1°C | 31.6% | 666.6hPa | 2.6V | 00:00:00 | 01:44:18 | 00:00:00 | |
| DG1MFX-10 | 2026-09-02 11:13:07 | 47.70959 | 11.99849 | 95° | 40km/h | 3609m | -5.4m/s | -0.2°C | 30.0% | 666.1hPa | 2.7V | 01:54:00 | 00:00:00 | 00:00:00 | |
| DO3MHA-12 | 2026-09-02 11:13:04 | 47.70962 | 11.99790 | 94° | 38km/h | 3632m | -6.4m/s | -0.2°C | 30.0% | 664.0hPa | 2.7V | 01:54:00 | 01:44:13 | 00:00:00 | |
| DO3MHA-11 | 2026-09-02 11:13:00 | 47.70965 | 11.99733 | 96° | 38km/h | 3658m | -7.2m/s | -0.4°C | 27.1% | 661.9hPa | 2.7V | 00:00:00 | 01:44:09 | 00:00:00 | |
| DO3MHA-12 | 2026-09-02 11:12:59 | 47.70966 | 11.99719 | 95° | 38km/h | 3665m | -5.6m/s | -0.4°C | 27.1% | 661.3hPa | 2.7V | 00:00:00 | 01:44:08 | 00:00:00 | |
| DO3MHA-11 | 2026-09-02 11:12:55 | 47.70969 | 11.99662 | 95° | 40km/h | 3690m | -6.3m/s | -0.5°C | 23.2% | 659.2hPa | 2.7V | 01:54:00 | 01:44:04 | 00:00:00 | |
| DO3MHA-12 | 2026-09-02 11:12:54 | 47.70970 | 11.99648 | 96° | 40km/h | 3696m | -6.6m/s | -0.5°C | 22.2% | 658.9hPa | 2.7V | 01:54:00 | 01:44:03 | 00:00:00 | |
| DO3MHA-12 | 2026-09-02 11:12:49 | 47.70976 | 11.99573 | 99° | 42km/h | 3731m | -6.8m/s | -0.7°C | 23.2% | 656.0hPa | 2.7V | 00:00:00 | 01:43:58 | 00:00:00 | |
| DG1MFX-10 | 2026-09-02 11:12:46 | 47.70979 | 11.99541 | 99° | 42km/h | 3743m | -5.0m/s | -0.8°C | 23.1% | 655.0hPa | 2.7V | 01:54:00 | 00:00:00 | 00:00:00 | |
| DO3MHA-11 | 2026-09-02 11:12:45 | 47.70982 | 11.99510 | 99° | 42km/h | 3754m | -5.7m/s | -0.9°C | 22.5% | 653.9hPa | 2.7V | 01:54:00 | 01:43:54 | 00:00:00 | |
| DO3MHA-12 | 2026-09-02 11:12:44 | 47.70984 | 11.99494 | 100° | 42km/h | 3760m | -5.9m/s | -0.9°C | 22.3% | 653.5hPa | 2.7V | 01:54:00 | 01:43:53 | 00:00:00 | |
| OE5DXL-15 | 2026-09-02 11:12:43 | 47.70985 | 11.99479 | 98° | 44km/h | 3766m | -6.1m/s | -0.9°C | 22.0% | 653.0hPa | 2.7V | 00:00:00 | 00:00:00 | 00:00:00 | |
| DO3MHA-11 | 2026-09-02 11:12:40 | 47.70990 | 11.99432 | 100° | 42km/h | 3785m | -6.5m/s | -1.0°C | 20.6% | 651.5hPa | 2.7V | 00:00:00 | 01:43:49 | 00:00:00 | |
| DO3MHA-12 | 2026-09-02 11:12:39 | 47.70992 | 11.99416 | 100° | 44km/h | 3791m | -6.4m/s | -1.0°C | 20.1% | 651.0hPa | 2.7V | 00:00:00 | 01:43:48 | 00:00:00 | |
| OE5DRO-10 | 2026-09-02 11:12:38 | 47.70993 | 11.99401 | 100° | 44km/h | 3798m | -5.4m/s | -1.1°C | 19.7% | 650.4hPa | 2.6V | 01:54:00 | 00:00:00 | 00:00:00 | |
| DO3MHA-11 | 2026-09-02 11:12:35 | 47.71000 | 11.99353 | 102° | 44km/h | 3817m | -6.2m/s | -1.2°C | 19.9% | 648.8hPa | 2.7V | 01:54:00 | 01:43:44 | 00:00:00 | |
| DO3MHA-12 | 2026-09-02 11:12:34 | 47.71002 | 11.99337 | 101° | 44km/h | 3822m | -5.5m/s | -1.2°C | 20.4% | 648.4hPa | 2.7V | 01:54:00 | 01:43:43 | 00:00:00 | |
| DO3MHA-11 | 2026-09-02 11:12:30 | 47.71010 | 11.99273 | 101° | 44km/h | 3847m | -5.8m/s | -1.3°C | 18.2% | 646.3hPa | 2.7V | 00:00:00 | 01:43:39 | 00:00:00 | |
| DO3MHA-12 | 2026-09-02 11:12:29 | 47.71012 | 11.99256 | 102° | 44km/h | 3853m | -6.5m/s | -1.3°C | 17.9% | 645.9hPa | 2.7V | 00:00:00 | 01:43:38 | 00:00:00 | |
| DG1MFX-10 | 2026-09-02 11:12:26 | 47.71017 | 11.99224 | 102° | 44km/h | 3865m | -6.4m/s | -1.5°C | 18.5% | 644.9hPa | 2.7V | 01:55:00 | 00:00:00 | 00:00:00 | |
| DO3MHA-11 | 2026-09-02 11:12:25 | 47.71021 | 11.99191 | 102° | 46km/h | 3878m | -6.8m/s | -1.5°C | 19.1% | 643.9hPa | 2.7V | 01:54:00 | 01:43:34 | 00:00:00 | |
| DO3MHA-12 | 2026-09-02 11:12:24 | 47.71024 | 11.99174 | 103° | 46km/h | 3885m | -5.8m/s | -1.6°C | 19.3% | 643.5hPa | 2.7V | 01:54:00 | 01:43:33 | 00:00:00 | |
| OE5DRO-10 | 2026-09-02 11:12:22 | 47.71028 | 11.99141 | 101° | 42km/h | 3897m | -6.1m/s | -1.7°C | 20.4% | 642.4hPa | 2.7V | 00:00:00 | 00:00:00 | 00:00:00 | |
| DO3MHA-11 | 2026-09-02 11:12:20 | 47.71032 | 11.99108 | 100° | 44km/h | 3909m | -5.8m/s | -1.8°C | 20.9% | 641.5hPa | 2.7V | 00:00:00 | 01:43:29 | 00:00:00 | |
| DO3MHA-12 | 2026-09-02 11:12:19 | 47.71034 | 11.99092 | 99° | 44km/h | 3915m | -6.0m/s | -1.8°C | 20.3% | 640.9hPa | 2.7V | 00:00:00 | 01:43:28 | 00:00:00 | |
| DO3MHA-11 | 2026-09-02 11:12:15 | 47.71040 | 11.99028 | 99° | 42km/h | 3940m | -6.2m/s | -1.9°C | 18.7% | 639.0hPa | 2.7V | 01:54:00 | 01:43:24 | 00:00:00 | |
| DO3MHA-12 | 2026-09-02 11:12:14 | 47.71042 | 11.99012 | 98° | 42km/h | 3946m | -5.5m/s | -2.0°C | 19.5% | 638.5hPa | 2.7V | 01:54:00 | 01:43:23 | 00:00:00 | |
| OE5DXL-15 | 2026-09-02 11:12:13 | 47.71043 | 11.98996 | 98° | 42km/h | 3951m | -6.1m/s | -2.0°C | 19.9% | 637.9hPa | 2.7V | 01:54:00 | 00:00:00 | 00:00:00 | |
| DO3MHA-11 | 2026-09-02 11:12:10 | 47.71048 | 11.98949 | 100° | 42km/h | 3970m | -6.3m/s | -2.1°C | 19.0% | 636.5hPa | 2.7V | 00:00:00 | 01:43:19 | 00:00:00 | |
| DO3MHA-12 | 2026-09-02 11:12:09 | 47.71049 | 11.98934 | 99° | 42km/h | 3976m | -6.4m/s | -2.2°C | 18.5% | 636.0hPa | 2.7V | 00:00:00 | 01:43:18 | 00:00:00 | |
| DO3MHA-11 | 2026-09-02 11:12:05 | 47.71056 | 11.98872 | 98° | 42km/h | 4001m | -7.0m/s | -2.3°C | 17.5% | 633.9hPa | 2.7V | 01:55:00 | 01:43:14 | 00:00:00 | |
| DO3MHA-12 | 2026-09-02 11:12:04 | 47.71058 | 11.98856 | 99° | 42km/h | 4008m | -5.8m/s | -2.3°C | 17.3% | 633.5hPa | 2.7V | 01:55:00 | 01:43:13 | 00:00:00 | |
| DO3MHA-11 | 2026-09-02 11:12:00 | 47.71065 | 11.98794 | 102° | 42km/h | 4034m | -6.4m/s | -2.4°C | 15.9% | 631.6hPa | 2.7V | 00:00:00 | 01:43:09 | 00:00:00 | |
| DO3MHA-12 | 2026-09-02 11:11:59 | 47.71067 | 11.98779 | 99° | 42km/h | 4040m | -6.4m/s | -2.4°C | 15.4% | 630.9hPa | 2.7V | 00:00:00 | 01:43:08 | 00:00:00 | |
| DO3MHA-11 | 2026-09-02 11:11:55 | 47.71073 | 11.98715 | 99° | 42km/h | 4065m | -4.3m/s | -2.6°C | 15.7% | 628.8hPa | 2.7V | 01:55:00 | 01:43:04 | 00:00:00 | |
| DO3MHA-12 | 2026-09-02 11:11:54 | 47.71075 | 11.98699 | 100° | 42km/h | 4070m | -7.2m/s | -2.6°C | 15.9% | 628.3hPa | 2.7V | 01:55:00 | 01:43:03 | 00:00:00 | |
| OE5DRO-10 | 2026-09-02 11:11:50 | 47.71082 | 11.98636 | 99° | 42km/h | 4096m | -6.5m/s | -2.9°C | 19.6% | 626.4hPa | 2.6V | 00:00:00 | 00:00:00 | 00:00:00 | |
| DO3MHA-12 | 2026-09-02 11:11:49 | 47.71083 | 11.98620 | 98° | 44km/h | 4102m | -6.0m/s | -2.9°C | 24.3% | 625.8hPa | 2.7V | 00:00:00 | 01:42:58 | 00:00:00 | |
| DO3MHA-11 | 2026-09-02 11:11:45 | 47.71089 | 11.98556 | 97° | 44km/h | 4126m | -6.1m/s | -3.1°C | 23.6% | 624.0hPa | 2.7V | 01:55:00 | 01:42:54 | 00:00:00 | |
| DO3MHA-12 | 2026-09-02 11:11:44 | 47.71090 | 11.98540 | 96° | 44km/h | 4133m | -6.9m/s | -3.1°C | 24.0% | 623.3hPa | 2.6V | 01:55:00 | 01:42:53 | 00:00:00 | |
| OE5DXL-15 | 2026-09-02 11:11:43 | 47.71091 | 11.98524 | 95° | 44km/h | 4139m | -6.5m/s | -3.2°C | 23.2% | 622.9hPa | 2.6V | 00:00:00 | 00:00:00 | 00:00:00 | |
| DO3MHA-11 | 2026-09-02 11:11:40 | 47.71094 | 11.98475 | 96° | 42km/h | 4157m | -6.3m/s | -3.3°C | 25.3% | 621.6hPa | 2.7V | 00:00:00 | 01:42:49 | 00:00:00 | |
| DO3MHA-12 | 2026-09-02 11:11:39 | 47.71095 | 11.98460 | 97° | 42km/h | 4163m | -6.3m/s | -3.3°C | 24.8% | 620.9hPa | 2.7V | 00:00:00 | 01:42:48 | 00:00:00 | |
| BAUMI2-15 | 2026-09-02 11:11:36 | 47.71098 | 11.98414 | 98° | 42km/h | 4180m | -5.5m/s | -3.4°C | 22.0% | 619.6hPa | 2.7V | 00:00:00 | 01:42:45 | 00:00:00 | |
| DO3MHA-11 | 2026-09-02 11:11:35 | 47.71099 | 11.98398 | 95° | 42km/h | 4186m | -5.6m/s | -3.4°C | 20.4% | 619.2hPa | 2.7V | 01:55:00 | 01:42:44 | 00:00:00 | |
| DO3MHA-12 | 2026-09-02 11:11:34 | 47.71100 | 11.98382 | 95° | 42km/h | 4192m | -6.7m/s | -3.4°C | 19.8% | 618.7hPa | 2.7V | 01:55:00 | 01:42:43 | 00:00:00 | |
| DL6DJ-15 | 2026-09-02 11:11:33 | 47.71101 | 11.98366 | 94° | 42km/h | 4198m | -6.7m/s | -3.5°C | 19.3% | 618.2hPa | 2.7V | 00:00:00 | 00:00:00 | 00:00:00 | |
| DO3MHA-11 | 2026-09-02 11:11:30 | 47.71105 | 11.98318 | 97° | 44km/h | 4216m | -6.3m/s | -3.6°C | 18.4% | 616.8hPa | 2.7V | 00:00:00 | 01:42:39 | 00:00:00 | |
| DO3MHA-12 | 2026-09-02 11:11:29 | 47.71106 | 11.98302 | 96° | 44km/h | 4222m | -6.0m/s | -3.6°C | 18.3% | 616.3hPa | 2.6V | 00:00:00 | 01:42:38 | 00:00:00 | |
| BAUMI2-15 | 2026-09-02 11:11:27 | 47.71109 | 11.98269 | 97° | 44km/h | 4235m | -6.6m/s | -3.7°C | 18.0% | 615.3hPa | 2.6V | 01:55:00 | 01:42:36 | 00:00:00 | |
| DO3MHA-11 | 2026-09-02 11:11:25 | 47.71111 | 11.98237 | 96° | 44km/h | 4247m | -6.0m/s | -3.8°C | 17.8% | 614.3hPa | 2.6V | 01:55:00 | 01:42:34 | 00:00:00 | |
| DG1MFX-10 | 2026-09-02 11:11:23 | 47.71112 | 11.98221 | 95° | 44km/h | 4253m | -6.2m/s | -3.8°C | 17.7% | 614.0hPa | 2.6V | 01:56:00 | 00:00:00 | 00:00:00 | |
| BAUMI2-15 | 2026-09-02 11:11:22 | 47.71113 | 11.98189 | 95° | 44km/h | 4267m | -7.1m/s | -3.9°C | 18.7% | 613.0hPa | 2.6V | 00:00:00 | 01:42:31 | 00:00:00 | |
| OE5DRO-10 | 2026-09-02 11:11:18 | 47.71118 | 11.98123 | 98° | 44km/h | 4292m | -6.1m/s | -4.0°C | 19.2% | 610.9hPa | 2.6V | 00:00:00 | 00:00:00 | 00:00:00 | |
| BAUMI2-15 | 2026-09-02 11:11:17 | 47.71119 | 11.98107 | 96° | 44km/h | 4299m | -5.9m/s | -4.1°C | 18.9% | 610.5hPa | 2.6V | 01:55:00 | 01:42:26 | 00:00:00 | |
| DO3MHA-11 | 2026-09-02 11:11:15 | 47.71121 | 11.98075 | 96° | 44km/h | 4311m | -6.7m/s | -4.2°C | 18.3% | 609.4hPa | 2.6V | 00:00:00 | 01:42:24 | 00:00:00 | |
| OE5DXL-15 | 2026-09-02 11:11:13 | 47.71123 | 11.98042 | 95° | 46km/h | 4323m | -6.1m/s | -4.3°C | 17.8% | 608.5hPa | 2.6V | 01:55:00 | 00:00:00 | 00:00:00 | |
| DO3MHA-12 | 2026-09-02 11:11:10 | 47.71125 | 11.97992 | 96° | 46km/h | 4342m | -6.3m/s | -4.5°C | 17.8% | 607.1hPa | 2.6V | 01:55:00 | 01:42:19 | 00:00:00 | |
| OE3JTB-15 | 2026-09-02 11:11:06 | 47.71132 | 11.97927 | 100° | 46km/h | 4367m | -6.7m/s | -4.7°C | 18.1% | 605.1hPa | 2.7V | 00:00:00 | 00:00:00 | 00:00:00 | |
| DO3MHA-11 | 2026-09-02 11:11:05 | 47.71134 | 11.97910 | 99° | 46km/h | 4374m | -6.9m/s | -4.8°C | 18.1% | 604.6hPa | 2.7V | 00:00:00 | 01:42:14 | 00:00:00 | |
| DO3MHA-12 | 2026-09-02 11:11:03 | 47.71138 | 11.97877 | 100° | 47km/h | 4387m | -6.4m/s | -4.9°C | 18.0% | 603.6hPa | 2.7V | 00:00:00 | 01:42:12 | 00:00:00 | |
| OE5DRO-10 | 2026-09-02 11:11:02 | 47.71140 | 11.97860 | 102° | 46km/h | 4393m | -6.2m/s | -4.9°C | 18.3% | 603.2hPa | 2.7V | 01:56:00 | 00:00:00 | 00:00:00 | |
| BAUMI2-15 | 2026-09-02 11:11:01 | 47.71142 | 11.97843 | 101° | 46km/h | 4400m | -6.7m/s | -5.0°C | 18.8% | 602.6hPa | 2.7V | 01:56:00 | 01:42:10 | 00:00:00 | |
| DO3MHA-11 | 2026-09-02 11:11:00 | 47.71144 | 11.97826 | 101° | 46km/h | 4406m | -6.3m/s | -5.0°C | 19.5% | 602.2hPa | 2.7V | 01:56:00 | 01:42:09 | 00:00:00 | |
| NBG1-10 | 2026-09-02 11:10:59 | 47.71146 | 11.97809 | 101° | 47km/h | 4413m | -6.3m/s | -5.1°C | 20.5% | 601.6hPa | 2.7V | 01:56:00 | 01:42:08 | 00:00:00 | |
| BAUMI2-15 | 2026-09-02 11:10:56 | 47.71153 | 11.97759 | 101° | 44km/h | 4433m | -6.7m/s | -5.3°C | 23.2% | 600.0hPa | 2.7V | 00:00:00 | 01:42:05 | 00:00:00 | |
| BAUMI2-15 | 2026-09-02 11:10:51 | 47.71164 | 11.97677 | 104° | 47km/h | 4467m | -6.9m/s | -5.5°C | 24.1% | 597.7hPa | 2.7V | 01:56:00 | 01:42:00 | 00:00:00 | |
| DO3MHA-11 | 2026-09-02 11:10:50 | 47.71168 | 11.97660 | 104° | 47km/h | 4474m | -6.4m/s | -5.5°C | 24.3% | 597.1hPa | 2.7V | 00:00:00 | 01:41:59 | 00:00:00 | |
| BAUMI2-15 | 2026-09-02 11:10:47 | 47.71179 | 11.97590 | 104° | 46km/h | 4499m | -6.7m/s | -5.8°C | 24.9% | 595.1hPa | 2.6V | 00:00:00 | 01:41:55 | 00:00:00 | |
| DO3MHA-12 | 2026-09-02 11:10:46 | 47.71179 | 11.97590 | 104° | 46km/h | 4499m | -6.7m/s | -5.8°C | 24.9% | 595.1hPa | 2.6V | 01:56:00 | 01:41:55 | 00:00:00 | |
| DO3MHA-11 | 2026-09-02 11:10:45 | 47.71181 | 11.97573 | 103° | 46km/h | 4506m | -6.0m/s | -5.8°C | 24.9% | 594.8hPa | 2.6V | 01:56:00 | 01:41:54 | 00:00:00 | |
| OE5DXL-15 | 2026-09-02 11:10:43 | 47.71186 | 11.97540 | 105° | 47km/h | 4519m | -7.1m/s | -5.9°C | 24.5% | 593.7hPa | 2.6V | 00:00:00 | 00:00:00 | 00:00:00 | |
| DO3MHA-12 | 2026-09-02 11:10:41 | 47.71192 | 11.97506 | 108° | 47km/h | 4534m | -6.7m/s | -6.0°C | 24.6% | 592.6hPa | 2.6V | 00:00:00 | 01:41:50 | 00:00:00 | |
| DO3MHA-11 | 2026-09-02 11:10:40 | 47.71195 | 11.97490 | 105° | 46km/h | 4540m | -6.1m/s | -6.1°C | 24.7% | 592.2hPa | 2.6V | 00:00:00 | 01:41:49 | 00:00:00 | |
| OE3JTB-15 | 2026-09-02 11:10:37 | 47.71204 | 11.97440 | 104° | 47km/h | 4560m | -6.3m/s | -6.3°C | 25.3% | 590.6hPa | 2.6V | 01:56:00 | 01:41:46 | 00:00:00 | |
| DL6DJ-15 | 2026-09-02 11:10:31 | 47.71221 | 11.97336 | 103° | 47km/h | 4600m | -7.0m/s | -6.7°C | 26.3% | 587.6hPa | 2.6V | 00:00:00 | 00:00:00 | 00:00:00 | |
| DO3MHA-11 | 2026-09-02 11:10:30 | 47.71224 | 11.97319 | 104° | 47km/h | 4607m | -7.3m/s | -6.7°C | 27.0% | 587.1hPa | 2.6V | 01:56:00 | 01:41:39 | 00:00:00 | |
| DO3MHA-12 | 2026-09-02 11:10:25 | 47.71238 | 11.97232 | 104° | 47km/h | 4644m | -7.2m/s | -7.0°C | 26.8% | 584.4hPa | 2.6V | 01:56:00 | 01:41:34 | 00:00:00 | |
| DG1MFX-10 | 2026-09-02 11:10:22 | 47.71244 | 11.97198 | 104° | 46km/h | 4658m | -7.2m/s | -7.2°C | 26.5% | 583.4hPa | 2.6V | 01:57:00 | 00:00:00 | 00:00:00 | |
| DO3MHA-12 | 2026-09-02 11:10:20 | 47.71253 | 11.97147 | 106° | 47km/h | 4680m | -7.3m/s | -7.3°C | 27.0% | 581.6hPa | 2.6V | 00:00:00 | 01:41:29 | 00:00:00 | |
| DO3MHA-12 | 2026-09-02 11:10:15 | 47.71269 | 11.97062 | 108° | 46km/h | 4714m | -5.1m/s | -7.5°C | 27.1% | 579.1hPa | 2.6V | 01:56:00 | 01:41:24 | 00:00:00 | |
| OE5DRO-10 | 2026-09-02 11:10:14 | 47.71272 | 11.97046 | 106° | 47km/h | 4720m | -6.5m/s | -7.6°C | 27.1% | 578.6hPa | 2.6V | 00:00:00 | 00:00:00 | 00:00:00 | |
| OE5DXL-15 | 2026-09-02 11:10:13 | 47.71275 | 11.97030 | 106° | 47km/h | 4727m | -6.9m/s | -7.6°C | 27.1% | 578.2hPa | 2.7V | 01:56:00 | 00:00:00 | 00:00:00 | |
| NBG1-10 | 2026-09-02 11:10:12 | 47.71279 | 11.97013 | 105° | 47km/h | 4734m | -6.8m/s | -7.6°C | 27.1% | 577.7hPa | 2.6V | 00:00:00 | 01:41:21 | 00:00:00 | |
| DO3MHA-11 | 2026-09-02 11:10:10 | 47.71285 | 11.96981 | 109° | 46km/h | 4747m | -6.5m/s | -7.8°C | 26.9% | 576.7hPa | 2.6V | 01:56:00 | 01:41:19 | 00:00:00 | |
| DO3MHA-12 | 2026-09-02 11:10:09 | 47.71288 | 11.96965 | 108° | 47km/h | 4754m | -6.9m/s | -7.8°C | 26.9% | 576.2hPa | 2.6V | 00:00:00 | 01:41:18 | 00:00:00 | |
| DB0NH | 2026-09-02 11:10:08 | 47.71292 | 11.96949 | 109° | 47km/h | 4761m | -7.1m/s | -7.9°C | 26.8% | 575.8hPa | 2.6V | 01:57:00 | 01:41:17 | 00:00:00 | |
| DO3MHA-11 | 2026-09-02 11:10:05 | 47.71303 | 11.96898 | 107° | 47km/h | 4780m | -6.8m/s | -8.0°C | 26.9% | 574.3hPa | 2.6V | 00:00:00 | 01:41:14 | 00:00:00 | |
| DO3MHA-12 | 2026-09-02 11:10:04 | 47.71306 | 11.96881 | 105° | 47km/h | 4787m | -6.5m/s | -8.1°C | 26.9% | 573.7hPa | 2.6V | 01:57:00 | 01:41:13 | 00:00:00 | |
| DG1MFX-10 | 2026-09-02 11:10:01 | 47.71312 | 11.96846 | 104° | 47km/h | 4799m | -6.9m/s | -8.2°C | 26.0% | 572.9hPa | 2.6V | 01:57:00 | 00:00:00 | 00:00:00 | |
| DO3MHA-11 | 2026-09-02 11:10:00 | 47.71318 | 11.96811 | 103° | 47km/h | 4811m | -5.5m/s | -8.3°C | 26.5% | 571.8hPa | 2.6V | 01:57:00 | 01:41:09 | 00:00:00 | |
| DO3MHA-12 | 2026-09-02 11:09:59 | 47.71320 | 11.96794 | 103° | 47km/h | 4817m | -6.7m/s | -8.3°C | 26.1% | 571.5hPa | 2.6V | 00:00:00 | 01:41:08 | 00:00:00 | |
| OE5DRO-10 | 2026-09-02 11:09:58 | 47.71323 | 11.96777 | 104° | 49km/h | 4823m | -6.8m/s | -8.3°C | 25.9% | 570.9hPa | 2.7V | 01:57:00 | 00:00:00 | 00:00:00 | |
| DO3MHA-11 | 2026-09-02 11:09:55 | 47.71331 | 11.96724 | 103° | 49km/h | 4842m | -6.5m/s | -8.5°C | 25.9% | 569.6hPa | 2.7V | 00:00:00 | 01:41:04 | 00:00:00 | |
| DO3MHA-12 | 2026-09-02 11:09:54 | 47.71334 | 11.96706 | 105° | 51km/h | 4848m | -5.1m/s | -8.5°C | 25.9% | 569.0hPa | 2.7V | 01:57:00 | 01:41:03 | 00:00:00 | |
| DO3MHA-11 | 2026-09-02 11:09:50 | 47.71347 | 11.96633 | 105° | 49km/h | 4873m | -6.4m/s | -8.7°C | 25.9% | 567.3hPa | 2.7V | 01:57:00 | 01:40:59 | 00:00:00 | |
| DO3MHA-12 | 2026-09-02 11:09:49 | 47.71350 | 11.96614 | 105° | 49km/h | 4879m | -6.2m/s | -8.8°C | 25.7% | 566.8hPa | 2.7V | 00:00:00 | 01:40:58 | 00:00:00 | |
| DO3MHA-11 | 2026-09-02 11:09:45 | 47.71361 | 11.96542 | 102° | 49km/h | 4904m | -5.9m/s | -8.9°C | 25.1% | 565.0hPa | 2.7V | 00:00:00 | 01:40:54 | 00:00:00 | |
| DO3MHA-12 | 2026-09-02 11:09:44 | 47.71364 | 11.96525 | 102° | 49km/h | 4910m | -7.0m/s | -9.0°C | 22.3% | 564.5hPa | 2.6V | 01:57:00 | 01:40:53 | 00:00:00 | |
| OE5DXL-15 | 2026-09-02 11:09:43 | 47.71366 | 11.96507 | 103° | 47km/h | 4916m | -6.0m/s | -8.9°C | 18.1% | 564.1hPa | 2.6V | 00:00:00 | 00:00:00 | 00:00:00 | |
| OE5DRO-10 | 2026-09-02 11:09:42 | 47.71369 | 11.96489 | 103° | 49km/h | 4922m | -5.5m/s | -8.9°C | 15.2% | 563.6hPa | 2.6V | 00:00:00 | 00:00:00 | 00:00:00 | |
| DO3MHA-11 | 2026-09-02 11:09:40 | 47.71374 | 11.96453 | 102° | 49km/h | 4934m | -7.3m/s | -9.0°C | 13.8% | 562.8hPa | 2.6V | 01:57:00 | 01:40:49 | 00:00:00 | |
| DO3MHA-12 | 2026-09-02 11:09:39 | 47.71377 | 11.96434 | 102° | 49km/h | 4941m | -5.9m/s | -9.0°C | 13.7% | 562.4hPa | 2.6V | 00:00:00 | 01:40:48 | 00:00:00 | |
| DB0NH | 2026-09-02 11:09:38 | 47.71379 | 11.96416 | 101° | 44km/h | 4947m | -6.6m/s | -9.1°C | 13.6% | 561.8hPa | 2.6V | 00:00:00 | 01:40:47 | 00:00:00 | |
| DO3MHA-11 | 2026-09-02 11:09:35 | 47.71385 | 11.96361 | 100° | 49km/h | 4965m | -4.9m/s | -9.2°C | 13.2% | 560.4hPa | 2.7V | 00:00:00 | 01:40:44 | 00:00:00 | |
| DO3MHA-12 | 2026-09-02 11:09:34 | 47.71387 | 11.96343 | 99° | 49km/h | 4970m | -5.1m/s | -9.2°C | 13.1% | 560.1hPa | 2.7V | 01:57:00 | 01:40:43 | 00:00:00 | |
| DO3MHA-11 | 2026-09-02 11:09:30 | 47.71395 | 11.96269 | 100° | 47km/h | 4993m | -6.6m/s | -9.5°C | 13.1% | 558.5hPa | 2.7V | 01:57:00 | 01:40:39 | 00:00:00 | |
| DO3MHA-12 | 2026-09-02 11:09:29 | 47.71397 | 11.96252 | 100° | 46km/h | 5000m | -6.7m/s | -9.5°C | 13.0% | 558.0hPa | 2.6V | 00:00:00 | 01:40:38 | 00:00:00 | |
| OE5DRO-10 | 2026-09-02 11:09:26 | 47.71404 | 11.96200 | 101° | 44km/h | 5019m | -6.7m/s | -9.7°C | 13.3% | 556.5hPa | 2.7V | 01:57:00 | 00:00:00 | 00:00:00 | |
| DO3MHA-11 | 2026-09-02 11:09:25 | 47.71406 | 11.96183 | 101° | 44km/h | 5026m | -7.2m/s | -9.8°C | 13.4% | 556.1hPa | 2.7V | 00:00:00 | 01:40:34 | 00:00:00 | |
| DO3MHA-12 | 2026-09-02 11:09:21 | 47.71414 | 11.96117 | 99° | 44km/h | 5053m | -7.1m/s | -10.0°C | 13.6% | 554.0hPa | 2.7V | 01:57:00 | 01:40:30 | 00:00:00 | |
| DG1MFX-10 | 2026-09-02 11:09:19 | 47.71416 | 11.96101 | 99° | 44km/h | 5060m | -6.6m/s | -10.1°C | 12.9% | 553.5hPa | 2.7V | 01:58:00 | 00:00:00 | 00:00:00 | |
| DO3MHA-11 | 2026-09-02 11:09:15 | 47.71424 | 11.96021 | 97° | 44km/h | 5094m | -7.1m/s | -10.0°C | 8.5% | 551.1hPa | 2.7V | 01:57:00 | 01:40:24 | 00:00:00 | |
| OE5DXL-15 | 2026-09-02 11:09:13 | 47.71427 | 11.95989 | 101° | 42km/h | 5108m | -6.6m/s | -10.1°C | 8.5% | 550.1hPa | 2.7V | 01:57:00 | 00:00:00 | 00:00:00 | |
| DO3MHA-12 | 2026-09-02 11:09:11 | 47.71430 | 11.95956 | 99° | 42km/h | 5122m | -7.3m/s | -10.2°C | 8.4% | 549.1hPa | 2.7V | 00:00:00 | 01:40:20 | 00:00:00 | |
| OE3JTB-15 | 2026-09-02 11:09:10 | 47.71432 | 11.95940 | 101° | 42km/h | 5129m | -6.8m/s | -10.2°C | 8.3% | 548.6hPa | 2.7V | 00:00:00 | 01:40:19 | 00:00:00 | |
| DB0NH | 2026-09-02 11:09:06 | 47.71439 | 11.95876 | 100° | 51km/h | 5156m | -6.8m/s | -10.4°C | 9.0% | 546.6hPa | 2.7V | 01:58:00 | 01:40:15 | 00:00:00 | |
| DO3MHA-11 | 2026-09-02 11:09:05 | 47.71441 | 11.95860 | 98° | 42km/h | 5163m | -7.4m/s | -10.5°C | 9.7% | 546.1hPa | 2.7V | 00:00:00 | 01:40:14 | 00:00:00 | |
| DL6DJ-15 | 2026-09-02 11:08:58 | 47.71453 | 11.95752 | 99° | 42km/h | 5213m | -7.9m/s | -10.8°C | 12.4% | 542.7hPa | 2.6V | 00:00:00 | 00:00:00 | 00:00:00 | |
| DO3MHA-11 | 2026-09-02 11:08:55 | 47.71458 | 11.95704 | 99° | 42km/h | 5234m | -7.8m/s | -10.9°C | 16.5% | 541.0hPa | 2.6V | 01:58:00 | 01:40:04 | 00:00:00 | |
| OE5DRO-10 | 2026-09-02 11:08:54 | 47.71460 | 11.95688 | 99° | 44km/h | 5242m | -7.6m/s | -11.0°C | 17.7% | 540.5hPa | 2.6V | 01:58:00 | 00:00:00 | 00:00:00 | |
| DO3MHA-12 | 2026-09-02 11:08:51 | 47.71465 | 11.95640 | 98° | 44km/h | 5264m | -7.1m/s | -11.1°C | 18.2% | 539.0hPa | 2.6V | 00:00:00 | 01:40:00 | 00:00:00 | |
| DO3MHA-11 | 2026-09-02 11:08:45 | 47.71474 | 11.95547 | 100° | 44km/h | 5307m | -7.2m/s | -11.4°C | 17.4% | 536.0hPa | 2.6V | 00:00:00 | 01:39:54 | 00:00:00 | |
| OE5DXL-15 | 2026-09-02 11:08:43 | 47.71478 | 11.95514 | 99° | 42km/h | 5321m | -6.9m/s | -11.5°C | 16.5% | 535.1hPa | 2.6V | 00:00:00 | 00:00:00 | 00:00:00 | |
| DO3MHA-12 | 2026-09-02 11:08:41 | 47.71482 | 11.95480 | 100° | 44km/h | 5335m | -6.9m/s | -11.6°C | 17.8% | 534.0hPa | 2.6V | 01:58:00 | 01:39:50 | 00:00:00 | |
| OE5DRO-10 | 2026-09-02 11:08:38 | 47.71488 | 11.95431 | 101° | 42km/h | 5357m | -6.8m/s | -11.7°C | 18.1% | 532.6hPa | 2.6V | 00:00:00 | 00:00:00 | 00:00:00 | |
| DG1MFX-10 | 2026-09-02 11:08:37 | 47.71488 | 11.95430 | 102° | 46km/h | 5357m | -6.8m/s | -11.8°C | 17.4% | 532.6hPa | 2.6V | 01:58:00 | 00:00:00 | 00:00:00 | |
| BAUMI2-15 | 2026-09-02 11:08:35 | 47.71495 | 11.95382 | 101° | 44km/h | 5377m | -7.0m/s | -11.8°C | 17.2% | 531.0hPa | 2.6V | 00:00:00 | 01:39:44 | 00:00:00 | |
| NBG1-10 | 2026-09-02 11:08:33 | 47.71499 | 11.95351 | 102° | 40km/h | 5392m | -7.4m/s | -11.9°C | 17.1% | 530.0hPa | 2.7V | 01:58:00 | 01:39:42 | 00:00:00 | |
| DO3MHA-12 | 2026-09-02 11:08:31 | 47.71503 | 11.95319 | 102° | 42km/h | 5406m | -7.3m/s | -12.0°C | 20.1% | 529.0hPa | 2.7V | 00:00:00 | 01:39:40 | 00:00:00 | |
| BAUMI2-15 | 2026-09-02 11:08:30 | 47.71506 | 11.95303 | 104° | 42km/h | 5413m | -7.3m/s | -12.0°C | 25.3% | 528.5hPa | 2.6V | 01:58:00 | 01:39:39 | 00:00:00 | |
| DL6DJ-15 | 2026-09-02 11:08:27 | 47.71513 | 11.95257 | 103° | 40km/h | 5435m | -7.2m/s | -12.3°C | 28.4% | 527.0hPa | 2.6V | 00:00:00 | 00:00:00 | 00:00:00 | |
| DO3MHA-11 | 2026-09-02 11:08:25 | 47.71517 | 11.95226 | 103° | 40km/h | 5450m | -6.9m/s | -12.4°C | 30.4% | 526.0hPa | 2.6V | 00:00:00 | 01:39:34 | 00:00:00 | |
| OE5DRO-10 | 2026-09-02 11:08:22 | 47.71523 | 11.95180 | 100° | 38km/h | 5471m | -7.4m/s | -12.5°C | 30.1% | 524.6hPa | 2.6V | 01:58:00 | 00:00:00 | 00:00:00 | |
| DO3MHA-12 | 2026-09-02 11:08:21 | 47.71525 | 11.95166 | 101° | 38km/h | 5478m | -7.2m/s | -12.5°C | 32.7% | 524.0hPa | 2.6V | 01:58:00 | 01:39:30 | 00:00:00 | |
| BAUMI2-15 | 2026-09-02 11:08:20 | 47.71527 | 11.95151 | 101° | 38km/h | 5485m | -6.9m/s | -12.6°C | 34.0% | 523.6hPa | 2.6V | 01:58:00 | 01:39:29 | 00:00:00 | |
| DG1MFX-10 | 2026-09-02 11:08:17 | 47.71530 | 11.95122 | 100° | 38km/h | 5500m | -6.7m/s | -12.8°C | 37.3% | 522.6hPa | 2.7V | 01:58:00 | 00:00:00 | 00:00:00 | |
| DO3MHA-11 | 2026-09-02 11:08:15 | 47.71536 | 11.95079 | 99° | 38km/h | 5521m | -6.6m/s | -12.9°C | 43.6% | 521.1hPa | 2.7V | 01:58:00 | 01:39:24 | 00:00:00 | |
| OE5DXL-15 | 2026-09-02 11:08:13 | 47.71539 | 11.95049 | 98° | 42km/h | 5534m | -6.7m/s | -13.0°C | 47.0% | 520.3hPa | 2.7V | 01:58:00 | 00:00:00 | 00:00:00 | |
| OE3JTB-15 | 2026-09-02 11:08:12 | 47.71540 | 11.95035 | 99° | 42km/h | 5541m | -7.3m/s | -13.0°C | 53.7% | 519.8hPa | 2.7V | 00:00:00 | 00:00:00 | 00:00:00 | |
| DO3MHA-12 | 2026-09-02 11:08:11 | 47.71542 | 11.95021 | 98° | 40km/h | 5548m | -7.7m/s | -13.1°C | 54.8% | 519.3hPa | 2.7V | 00:00:00 | 01:39:20 | 00:00:00 | |
| BAUMI2-15 | 2026-09-02 11:08:10 | 47.71543 | 11.95007 | 98° | 38km/h | 5556m | -7.4m/s | -13.2°C | 55.2% | 518.8hPa | 2.7V | 01:58:00 | 01:39:19 | 00:00:00 | |
| OE5DRO-10 | 2026-09-02 11:08:06 | 47.71547 | 11.94949 | 95° | 42km/h | 5585m | -6.7m/s | -13.5°C | 56.3% | 516.7hPa | 2.7V | 00:00:00 | 00:00:00 | 00:00:00 | |
| DO3MHA-11 | 2026-09-02 11:08:05 | 47.71548 | 11.94934 | 94° | 42km/h | 5592m | -7.6m/s | -13.5°C | 55.6% | 516.3hPa | 2.7V | 00:00:00 | 01:39:14 | 00:00:00 | |
| DL6DJ-15 | 2026-09-02 11:07:56 | 47.71554 | 11.94793 | 93° | 42km/h | 5656m | -7.4m/s | -14.1°C | 37.0% | 511.9hPa | 2.6V | 00:00:00 | 00:00:00 | 00:00:00 | |
| BAUMI2-15 | 2026-09-02 11:07:55 | 47.71555 | 11.94777 | 94° | 46km/h | 5663m | -6.7m/s | -14.0°C | 35.1% | 511.5hPa | 2.6V | 00:00:00 | 01:39:04 | 00:00:00 | |
| DO3MHA-12 | 2026-09-02 11:07:51 | 47.71560 | 11.94710 | 97° | 47km/h | 5692m | -7.6m/s | -14.2°C | 24.7% | 509.6hPa | 2.6V | 00:00:00 | 01:39:00 | 00:00:00 | |
| BAUMI2-15 | 2026-09-02 11:07:50 | 47.71561 | 11.94693 | 97° | 47km/h | 5700m | -7.5m/s | -14.3°C | 23.2% | 509.0hPa | 2.6V | 01:59:00 | 01:38:59 | 00:00:00 | |
| DO3MHA-11 | 2026-09-02 11:07:45 | 47.71569 | 11.94605 | 99° | 47km/h | 5736m | -6.9m/s | -14.5°C | 22.4% | 506.6hPa | 2.6V | 00:00:00 | 01:38:54 | 00:00:00 | |
| OE3JTB-15 | 2026-09-02 11:07:43 | 47.71572 | 11.94570 | 98° | 49km/h | 5750m | -7.0m/s | -14.6°C | 26.0% | 505.7hPa | 2.6V | 01:59:00 | 01:38:52 | 00:00:00 | |
| DO3MHA-12 | 2026-09-02 11:07:41 | 47.71575 | 11.94536 | 98° | 47km/h | 5763m | -7.2m/s | -14.8°C | 33.4% | 504.7hPa | 2.6V | 01:59:00 | 01:38:50 | 00:00:00 | |
| BAUMI2-15 | 2026-09-02 11:07:40 | 47.71576 | 11.94518 | 96° | 46km/h | 5770m | -6.9m/s | -14.8°C | 36.3% | 504.3hPa | 2.6V | 01:59:00 | 01:38:49 | 00:00:00 | |
| DG1MFX-10 | 2026-09-02 11:07:36 | 47.71580 | 11.94467 | 97° | 47km/h | 5791m | -6.9m/s | -15.0°C | 41.4% | 502.9hPa | 2.6V | 01:59:00 | 00:00:00 | 00:00:00 | |
| DO3MHA-11 | 2026-09-02 11:07:35 | 47.71583 | 11.94432 | 97° | 49km/h | 5805m | -7.5m/s | -15.1°C | 48.6% | 501.9hPa | 2.6V | 01:59:00 | 01:38:44 | 00:00:00 | |
| OE5DRO-10 | 2026-09-02 11:07:34 | 47.71584 | 11.94413 | 97° | 49km/h | 5813m | -7.4m/s | -15.1°C | 49.8% | 501.4hPa | 2.7V | 00:00:00 | 00:00:00 | 00:00:00 | |
| DO3MHA-12 | 2026-09-02 11:07:31 | 47.71588 | 11.94358 | 94° | 49km/h | 5834m | -7.2m/s | -15.4°C | 51.5% | 500.0hPa | 2.7V | 00:00:00 | 01:38:40 | 00:00:00 | |
| BAUMI2-15 | 2026-09-02 11:07:30 | 47.71588 | 11.94340 | 94° | 49km/h | 5842m | -8.0m/s | -15.4°C | 51.4% | 499.4hPa | 2.7V | 01:59:00 | 01:38:39 | 00:00:00 | |
| NBG1-10 | 2026-09-02 11:07:27 | 47.71591 | 11.94284 | 93° | 53km/h | 5865m | -7.4m/s | -15.5°C | 47.6% | 498.0hPa | 2.7V | 01:59:00 | 01:38:36 | 00:00:00 | |
| DO3MHA-11 | 2026-09-02 11:07:25 | 47.71592 | 11.94248 | 95° | 51km/h | 5880m | -7.8m/s | -15.7°C | 48.1% | 497.0hPa | 2.7V | 00:00:00 | 01:38:34 | 00:00:00 | |
| DO3MHA-12 | 2026-09-02 11:07:21 | 47.71596 | 11.94174 | 93° | 53km/h | 5909m | -7.3m/s | -15.8°C | 38.4% | 495.1hPa | 2.7V | 01:59:00 | 01:38:30 | 00:00:00 | |
| OE5DRO-10 | 2026-09-02 11:07:17 | 47.71597 | 11.94094 | 92° | 53km/h | 5938m | -7.3m/s | -15.9°C | 41.4% | 493.2hPa | 2.7V | 01:59:00 | 00:00:00 | 00:00:00 | |
| DG1MFX-10 | 2026-09-02 11:07:16 | 47.71598 | 11.94094 | 93° | 53km/h | 5938m | -7.3m/s | -16.0°C | 39.8% | 493.2hPa | 2.7V | 02:00:00 | 00:00:00 | 00:00:00 | |
| DO3MHA-11 | 2026-09-02 11:07:15 | 47.71598 | 11.94053 | 91° | 53km/h | 5952m | -7.3m/s | -16.0°C | 42.2% | 492.2hPa | 2.7V | 01:59:00 | 01:38:24 | 00:00:00 | |
| OE3JTB-15 | 2026-09-02 11:07:14 | 47.71598 | 11.94033 | 91° | 55km/h | 5960m | -7.6m/s | -16.1°C | 42.7% | 492.0hPa | 2.7V | 00:00:00 | 00:00:00 | 00:00:00 | |
| OE5DXL-15 | 2026-09-02 11:07:13 | 47.71598 | 11.94013 | 91° | 55km/h | 5967m | -7.7m/s | -16.1°C | 43.5% | 491.3hPa | 2.7V | 01:59:00 | 00:00:00 | 00:00:00 | |
| DO3MHA-12 | 2026-09-02 11:07:11 | 47.71599 | 11.93973 | 91° | 53km/h | 5982m | -7.5m/s | -16.2°C | 45.3% | 490.3hPa | 2.6V | 00:00:00 | 01:38:20 | 00:00:00 | |
| BAUMI2-15 | 2026-09-02 11:07:10 | 47.71599 | 11.93953 | 92° | 53km/h | 5989m | -7.1m/s | -16.2°C | 49.3% | 489.8hPa | 2.6V | 01:59:00 | 01:38:19 | 00:00:00 | |
| BAUMI2-15 | 2026-09-02 11:07:05 | 47.71601 | 11.93853 | 93° | 53km/h | 6026m | -6.6m/s | -16.4°C | 60.7% | 487.5hPa | 2.6V | 02:00:00 | 01:38:14 | 00:00:00 | |
| DO3MHA-12 | 2026-09-02 11:07:01 | 47.71604 | 11.93774 | 94° | 55km/h | 6056m | -7.5m/s | -16.7°C | 60.8% | 485.6hPa | 2.5V | 02:00:00 | 01:38:10 | 00:00:00 | |
| OE5DRO-10 | 2026-09-02 11:06:58 | 47.71607 | 11.93714 | 95° | 55km/h | 6077m | -7.6m/s | -16.9°C | 59.1% | 484.3hPa | 2.7V | 02:00:00 | 00:00:00 | 00:00:00 | |
| DG1MFX-10 | 2026-09-02 11:06:56 | 47.71608 | 11.93693 | 96° | 55km/h | 6084m | -7.2m/s | -17.0°C | 55.9% | 483.9hPa | 2.6V | 02:00:00 | 00:00:00 | 00:00:00 | |
| DO3MHA-11 | 2026-09-02 11:06:55 | 47.71610 | 11.93651 | 97° | 55km/h | 6098m | -6.5m/s | -16.9°C | 47.5% | 482.9hPa | 2.6V | 00:00:00 | 01:38:04 | 00:00:00 | |
| NBG1-10 | 2026-09-02 11:06:54 | 47.71612 | 11.93630 | 94° | 57km/h | 6105m | -7.1m/s | -16.9°C | 40.5% | 482.4hPa | 2.6V | 00:00:00 | 01:38:03 | 00:00:00 | |
| DO3MHA-12 | 2026-09-02 11:06:51 | 47.71613 | 11.93568 | 92° | 55km/h | 6127m | -7.0m/s | -17.0°C | 34.4% | 481.1hPa | 2.6V | 00:00:00 | 01:38:00 | 00:00:00 | |
| BAUMI2-15 | 2026-09-02 11:06:50 | 47.71614 | 11.93547 | 92° | 55km/h | 6134m | -7.8m/s | -17.0°C | 34.3% | 480.5hPa | 2.6V | 02:00:00 | 01:37:59 | 00:00:00 | |
| OE3JTB-15 | 2026-09-02 11:06:45 | 47.71619 | 11.93445 | 95° | 58km/h | 6172m | -7.5m/s | -17.2°C | 35.4% | 478.3hPa | 2.6V | 00:00:00 | 00:00:00 | 00:00:00 | |
| OE5DXL-15 | 2026-09-02 11:06:43 | 47.71621 | 11.93405 | 95° | 58km/h | 6187m | -7.2m/s | -17.2°C | 37.1% | 477.4hPa | 2.6V | 00:00:00 | 00:00:00 | 00:00:00 | |
| DO3MHA-12 | 2026-09-02 11:06:41 | 47.71623 | 11.93364 | 95° | 57km/h | 6202m | -7.7m/s | -17.3°C | 38.3% | 476.4hPa | 2.6V | 00:00:00 | 01:37:50 | 00:00:00 | |
| BAUMI2-15 | 2026-09-02 11:06:40 | 47.71624 | 11.93344 | 96° | 57km/h | 6209m | -7.6m/s | -17.4°C | 39.0% | 476.0hPa | 2.6V | 00:00:00 | 01:37:49 | 00:00:00 | |
| OE5DRO-10 | 2026-09-02 11:06:39 | 47.71626 | 11.93323 | 97° | 58km/h | 6217m | -7.2m/s | -17.4°C | 40.0% | 475.7hPa | 2.6V | 00:00:00 | 00:00:00 | 00:00:00 | |
| DO3MHA-11 | 2026-09-02 11:06:35 | 47.71631 | 11.93238 | 95° | 58km/h | 6245m | -7.3m/s | -17.5°C | 40.3% | 473.7hPa | 2.6V | 02:00:00 | 01:37:44 | 00:00:00 | |
| OE5WHR-10 | 2026-09-02 11:06:32 | 47.71635 | 11.93174 | 96° | 60km/h | 6268m | -7.4m/s | -17.7°C | 37.3% | 472.2hPa | 2.7V | 00:00:00 | 01:37:41 | 00:00:00 | |
| DO3MHA-12 | 2026-09-02 11:06:31 | 47.71637 | 11.93153 | 98° | 58km/h | 6275m | -7.5m/s | -17.7°C | 36.8% | 471.7hPa | 2.7V | 02:00:00 | 01:37:40 | 00:00:00 | |
| DO3MHA-11 | 2026-09-02 11:06:25 | 47.71646 | 11.93023 | 96° | 60km/h | 6322m | -7.6m/s | -17.9°C | 38.6% | 468.9hPa | 2.5V | 00:00:00 | 01:37:34 | 00:00:00 | |
| DL6DJ-15 | 2026-09-02 11:06:23 | 47.71650 | 11.92978 | 96° | 60km/h | 6336m | -7.2m/s | -18.1°C | 37.0% | 468.0hPa | 2.5V | 00:00:00 | 00:00:00 | 00:00:00 | |
| DO3MHA-12 | 2026-09-02 11:06:21 | 47.71652 | 11.92933 | 96° | 60km/h | 6351m | -7.2m/s | -18.1°C | 39.2% | 467.0hPa | 2.5V | 00:00:00 | 01:37:30 | 00:00:00 | |
| OE5DRO-10 | 2026-09-02 11:06:20 | 47.71654 | 11.92910 | 96° | 60km/h | 6358m | -7.5m/s | -18.2°C | 39.3% | 466.6hPa | 2.5V | 00:00:00 | 00:00:00 | 00:00:00 | |
| DG1MFX-10 | 2026-09-02 11:06:15 | 47.71660 | 11.92799 | 95° | 58km/h | 6396m | -7.5m/s | -18.5°C | 35.0% | 464.4hPa | 2.5V | 02:01:00 | 00:00:00 | 00:00:00 | |
| OE5DXL-15 | 2026-09-02 11:06:13 | 47.71662 | 11.92755 | 94° | 60km/h | 6411m | -7.8m/s | -18.5°C | 33.1% | 463.4hPa | 2.5V | 00:00:00 | 00:00:00 | 00:00:00 | |
| DO3MHA-12 | 2026-09-02 11:06:11 | 47.71664 | 11.92710 | 93° | 60km/h | 6425m | -5.8m/s | -18.6°C | 32.3% | 462.5hPa | 2.5V | 00:00:00 | 01:37:20 | 00:00:00 | |
| DO3MHA-11 | 2026-09-02 11:06:05 | 47.71670 | 11.92575 | 95° | 60km/h | 6465m | -7.0m/s | -19.0°C | 31.6% | 460.0hPa | 2.5V | 02:01:00 | 01:37:14 | 00:00:00 | |
| DL6DJ-15 | 2026-09-02 11:05:52 | 47.71684 | 11.92256 | 94° | 60km/h | 6560m | -5.1m/s | -19.8°C | 26.7% | 453.9hPa | 2.7V | 00:00:00 | 00:00:00 | 00:00:00 | |
| DO3MHA-12 | 2026-09-02 11:05:51 | 47.71684 | 11.92256 | 95° | 64km/h | 6560m | -5.0m/s | -19.7°C | 28.3% | 453.9hPa | 2.7V | 00:00:00 | 01:37:00 | 00:00:00 | |
| OE5WHR-10 | 2026-09-02 11:05:49 | 47.71686 | 11.92210 | 95° | 69km/h | 6573m | -6.7m/s | -19.9°C | 28.7% | 453.1hPa | 2.7V | 02:01:00 | 00:00:00 | 00:00:00 | |
| NBG1-10 | 2026-09-02 11:05:48 | 47.71687 | 11.92187 | 97° | 69km/h | 6579m | -7.0m/s | -19.9°C | 29.0% | 452.7hPa | 2.7V | 00:00:00 | 01:36:57 | 00:00:00 | |
| OE3JTB-15 | 2026-09-02 11:05:47 | 47.71689 | 11.92164 | 96° | 69km/h | 6587m | -7.7m/s | -20.0°C | 29.4% | 452.3hPa | 2.7V | 02:01:00 | 00:00:00 | 00:00:00 | |
| DO3MHA-11 | 2026-09-02 11:05:45 | 47.71692 | 11.92117 | 98° | 66km/h | 6602m | -6.8m/s | -20.1°C | 29.7% | 451.5hPa | 2.7V | 00:00:00 | 01:36:54 | 00:00:00 | |
| OE5DXL-15 | 2026-09-02 11:05:43 | 47.71696 | 11.92069 | 95° | 69km/h | 6616m | -6.9m/s | -20.3°C | 30.4% | 450.5hPa | 2.7V | 02:01:00 | 00:00:00 | 00:00:00 | |
| OE5DRO-10 | 2026-09-02 11:05:42 | 47.71697 | 11.92044 | 96° | 69km/h | 6622m | -5.9m/s | -20.3°C | 31.3% | 450.2hPa | 2.7V | 00:00:00 | 00:00:00 | 00:00:00 | |
| DO3MHA-12 | 2026-09-02 11:05:41 | 47.71699 | 11.92020 | 94° | 69km/h | 6628m | -7.3m/s | -20.3°C | 32.8% | 449.7hPa | 2.7V | 00:00:00 | 01:36:50 | 00:00:00 | |
| DO3MHA-11 | 2026-09-02 11:05:35 | 47.71705 | 11.91869 | 95° | 71km/h | 6672m | -7.1m/s | -20.6°C | 29.5% | 447.0hPa | 2.7V | 02:01:00 | 01:36:44 | 00:00:00 | |
| DG1MFX-10 | 2026-09-02 11:05:33 | 47.71706 | 11.91842 | 98° | 71km/h | 6679m | -7.0m/s | -20.7°C | 25.9% | 446.6hPa | 2.7V | 02:02:00 | 00:00:00 | 00:00:00 | |
| DO3MHA-12 | 2026-09-02 11:05:31 | 47.71712 | 11.91762 | 96° | 71km/h | 6700m | -7.6m/s | -20.9°C | 28.2% | 445.4hPa | 2.7V | 02:01:00 | 01:36:40 | 00:00:00 | |
| DO3MHA-11 | 2026-09-02 11:05:25 | 47.71721 | 11.91603 | 94° | 71km/h | 6745m | -7.9m/s | -21.3°C | 28.3% | 442.7hPa | 2.6V | 00:00:00 | 01:36:34 | 00:00:00 | |
| OE5DRO-10 | 2026-09-02 11:05:23 | 47.71723 | 11.91551 | 94° | 71km/h | 6760m | -7.3m/s | -21.3°C | 26.5% | 441.8hPa | 2.6V | 00:00:00 | 00:00:00 | 00:00:00 | |
| OE5WHR-10 | 2026-09-02 11:05:22 | 47.71725 | 11.91525 | 96° | 71km/h | 6768m | -7.3m/s | -21.3°C | 27.0% | 441.4hPa | 2.6V | 00:00:00 | 00:00:00 | 00:00:00 | |
| DL6DJ-15 | 2026-09-02 11:05:21 | 47.71728 | 11.91472 | 94° | 69km/h | 6782m | -7.3m/s | -21.5°C | 26.0% | 440.5hPa | 2.6V | 00:00:00 | 00:00:00 | 00:00:00 | |
| OE3JTB-15 | 2026-09-02 11:05:18 | 47.71731 | 11.91419 | 95° | 73km/h | 6797m | -7.8m/s | -21.6°C | 28.5% | 439.6hPa | 2.6V | 00:00:00 | 00:00:00 | 00:00:00 | |
| NBG1-10 | 2026-09-02 11:05:15 | 47.71736 | 11.91341 | 97° | 73km/h | 6821m | -7.8m/s | -21.8°C | 30.0% | 438.3hPa | 2.6V | 00:00:00 | 01:36:24 | 00:00:00 | |
| OE5DXL-15 | 2026-09-02 11:05:13 | 47.71740 | 11.91289 | 96° | 75km/h | 6836m | -7.7m/s | -21.9°C | 30.3% | 437.3hPa | 2.6V | 00:00:00 | 00:00:00 | 00:00:00 | |
| DG1MFX-10 | 2026-09-02 11:05:12 | 47.71740 | 11.91289 | 97° | 69km/h | 6836m | -7.7m/s | -22.0°C | 28.5% | 437.4hPa | 2.6V | 02:02:00 | 00:00:00 | 00:00:00 | |
| DO3MHA-12 | 2026-09-02 11:05:11 | 47.71744 | 11.91237 | 96° | 73km/h | 6852m | -7.7m/s | -22.1°C | 31.5% | 436.5hPa | 2.6V | 00:00:00 | 01:36:20 | 00:00:00 | |
| DO3MHA-11 | 2026-09-02 11:05:05 | 47.71753 | 11.91074 | 95° | 73km/h | 6897m | -7.1m/s | -22.5°C | 40.2% | 433.7hPa | 2.6V | 02:02:00 | 01:36:14 | 00:00:00 | |
| OE5DRO-10 | 2026-09-02 11:05:04 | 47.71755 | 11.91047 | 94° | 75km/h | 6904m | -7.4m/s | -22.5°C | 39.7% | 433.4hPa | 2.7V | 02:02:00 | 00:00:00 | 00:00:00 | |
| DL6DJ-15 | 2026-09-02 11:04:50 | 47.71759 | 11.90630 | 90° | 75km/h | 7012m | -7.3m/s | -23.3°C | 21.5% | 427.1hPa | 2.5V | 00:00:00 | 00:00:00 | 00:00:00 | |
| OE3JTB-15 | 2026-09-02 11:04:49 | 47.71758 | 11.90630 | 91° | 75km/h | 7013m | -7.2m/s | -23.2°C | 23.2% | 427.0hPa | 2.5V | 00:00:00 | 01:35:58 | 00:00:00 | |
| DG1MJG | 2026-09-02 11:04:48 | 47.71758 | 11.90630 | 91° | 77km/h | 7013m | -7.3m/s | -23.3°C | 21.5% | 427.1hPa | 2.5V | 02:03:00 | 00:00:00 | 00:00:00 | |
| DO3MHA-11 | 2026-09-02 11:04:45 | 47.71758 | 11.90515 | 88° | 77km/h | 7041m | -7.2m/s | -23.5°C | 23.9% | 425.3hPa | 2.5V | 00:00:00 | 01:35:54 | 00:00:00 | |
| OE5DXL-15 | 2026-09-02 11:04:43 | 47.71756 | 11.90458 | 88° | 73km/h | 7056m | -7.6m/s | -23.6°C | 24.6% | 424.4hPa | 2.5V | 00:00:00 | 00:00:00 | 00:00:00 | |
| NBG1-10 | 2026-09-02 11:04:42 | 47.71755 | 11.90430 | 88° | 73km/h | 7063m | -7.1m/s | -23.7°C | 25.1% | 424.0hPa | 2.5V | 02:02:00 | 01:35:51 | 00:00:00 | |
| DO3MHA-12 | 2026-09-02 11:04:41 | 47.71754 | 11.90401 | 88° | 77km/h | 7070m | -7.0m/s | -23.8°C | 25.6% | 423.6hPa | 2.7V | 00:00:00 | 01:35:50 | 00:00:00 | |
| OE5WHR-10 | 2026-09-02 11:04:40 | 47.71753 | 11.90372 | 87° | 73km/h | 7077m | -6.4m/s | -23.8°C | 26.4% | 423.2hPa | 2.7V | 02:02:00 | 00:00:00 | 00:00:00 | |
| BAUMI2-15 | 2026-09-02 11:04:36 | 47.71749 | 11.90256 | 87° | 77km/h | 7103m | -7.0m/s | -24.1°C | 28.4% | 421.6hPa | 2.5V | 02:02:00 | 01:35:45 | 00:00:00 | |
| DO3MHA-11 | 2026-09-02 11:04:35 | 47.71748 | 11.90228 | 88° | 73km/h | 7110m | -6.4m/s | -24.1°C | 29.2% | 421.2hPa | 2.7V | 02:02:00 | 01:35:44 | 00:00:00 | |
| DO3MHA-12 | 2026-09-02 11:04:31 | 47.71744 | 11.90115 | 87° | 71km/h | 7137m | -6.5m/s | -24.5°C | 39.7% | 419.6hPa | 2.5V | 02:02:00 | 01:35:40 | 00:00:00 | |
| BAUMI2-15 | 2026-09-02 11:04:26 | 47.71736 | 11.89980 | 84° | 71km/h | 7173m | -7.1m/s | -24.8°C | 42.3% | 417.6hPa | 2.5V | 00:00:00 | 01:35:35 | 00:00:00 | |
| DO3MHA-11 | 2026-09-02 11:04:25 | 47.71734 | 11.89953 | 85° | 71km/h | 7180m | -7.6m/s | -24.9°C | 46.9% | 417.1hPa | 2.5V | 00:00:00 | 01:35:34 | 00:00:00 | |
| DO3MHA-12 | 2026-09-02 11:04:21 | 47.71729 | 11.89848 | 87° | 71km/h | 7211m | -7.1m/s | -25.2°C | 48.1% | 415.3hPa | 2.5V | 00:00:00 | 01:35:30 | 00:00:00 | |
| OE3JTB-15 | 2026-09-02 11:04:20 | 47.71728 | 11.89822 | 87° | 69km/h | 7219m | -7.8m/s | -25.3°C | 47.6% | 415.0hPa | 2.5V | 02:02:00 | 00:00:00 | 00:00:00 | |
| DL6DJ-15 | 2026-09-02 11:04:19 | 47.71726 | 11.89770 | 86° | 69km/h | 7234m | -7.8m/s | -25.4°C | 42.4% | 414.1hPa | 2.7V | 00:00:00 | 00:00:00 | 00:00:00 | |
| DG1MJG | 2026-09-02 11:04:17 | 47.71726 | 11.89770 | 88° | 69km/h | 7234m | -7.8m/s | -25.4°C | 42.4% | 414.1hPa | 2.7V | 02:03:00 | 00:00:00 | 00:00:00 | |
| BAUMI2-15 | 2026-09-02 11:04:16 | 47.71723 | 11.89717 | 84° | 71km/h | 7249m | -8.1m/s | -25.5°C | 46.0% | 413.2hPa | 2.7V | 00:00:00 | 01:35:25 | 00:00:00 | |
| DO3MHA-11 | 2026-09-02 11:04:15 | 47.71721 | 11.89690 | 84° | 69km/h | 7257m | -6.7m/s | -25.6°C | 47.5% | 412.7hPa | 2.7V | 00:00:00 | 01:35:24 | 00:00:00 | |
| OE5DXL-15 | 2026-09-02 11:04:13 | 47.71717 | 11.89636 | 83° | 68km/h | 7272m | -8.3m/s | -25.8°C | 49.5% | 411.9hPa | 2.7V | 02:02:00 | 00:00:00 | 00:00:00 | |
| DO3MHA-12 | 2026-09-02 11:04:11 | 47.71712 | 11.89584 | 83° | 68km/h | 7289m | -7.9m/s | -25.9°C | 51.4% | 411.0hPa | 2.5V | 00:00:00 | 01:35:20 | 00:00:00 | |
| DG1MFX-10 | 2026-09-02 11:04:10 | 47.71712 | 11.89584 | 84° | 69km/h | 7289m | -8.0m/s | -26.0°C | 48.3% | 411.0hPa | 2.5V | 02:03:00 | 00:00:00 | 00:00:00 | |
| NBG1-10 | 2026-09-02 11:04:09 | 47.71708 | 11.89534 | 84° | 69km/h | 7304m | -7.5m/s | -26.1°C | 51.9% | 410.1hPa | 2.5V | 00:00:00 | 01:35:18 | 00:00:00 | |
| OE5DRO-10 | 2026-09-02 11:04:07 | 47.71705 | 11.89483 | 85° | 68km/h | 7319m | -8.0m/s | -26.2°C | 52.5% | 409.2hPa | 2.5V | 02:03:00 | 00:00:00 | 00:00:00 | |
| BAUMI2-15 | 2026-09-02 11:04:06 | 47.71703 | 11.89457 | 85° | 68km/h | 7327m | -8.1m/s | -26.3°C | 53.0% | 408.6hPa | 2.5V | 02:03:00 | 01:35:15 | 00:00:00 | |
| DO3MHA-11 | 2026-09-02 11:04:05 | 47.71702 | 11.89432 | 88° | 68km/h | 7335m | -7.7m/s | -26.4°C | 52.9% | 408.3hPa | 2.5V | 02:03:00 | 01:35:14 | 00:00:00 | |
| DL6DJ-15 | 2026-09-02 11:03:47 | 47.71682 | 11.88977 | 88° | 69km/h | 7479m | -7.7m/s | -27.0°C | 68.5% | 400.6hPa | 2.6V | 00:00:00 | 00:00:00 | 00:00:00 | |
| BAUMI2-15 | 2026-09-02 11:03:46 | 47.71681 | 11.88951 | 87° | 71km/h | 7486m | -8.2m/s | -27.0°C | 72.9% | 399.8hPa | 2.6V | 00:00:00 | 01:34:55 | 00:00:00 | |
| DO3MHA-11 | 2026-09-02 11:03:45 | 47.71680 | 11.88925 | 89° | 73km/h | 7495m | -8.4m/s | -27.1°C | 73.3% | 399.4hPa | 2.6V | 00:00:00 | 01:34:54 | 00:00:00 | |
| OE5DXL-15 | 2026-09-02 11:03:43 | 47.71680 | 11.88871 | 89° | 75km/h | 7511m | -8.7m/s | -27.2°C | 74.7% | 398.4hPa | 2.6V | 00:00:00 | 00:00:00 | 00:00:00 | |
| DO3MHA-12 | 2026-09-02 11:03:41 | 47.71680 | 11.88816 | 90° | 75km/h | 7528m | -7.8m/s | -27.3°C | 76.5% | 397.6hPa | 2.6V | 00:00:00 | 01:34:50 | 00:00:00 | |
| OE5WHR-10 | 2026-09-02 11:03:37 | 47.71681 | 11.88703 | 92° | 75km/h | 7560m | -7.5m/s | -27.3°C | 78.6% | 395.8hPa | 2.6V | 02:03:00 | 00:00:00 | 00:00:00 | |
| BAUMI2-15 | 2026-09-02 11:03:36 | 47.71681 | 11.88675 | 93° | 75km/h | 7568m | -8.1m/s | -27.3°C | 78.9% | 395.4hPa | 2.6V | 02:03:00 | 01:34:45 | 00:00:00 | |
| DO3MHA-11 | 2026-09-02 11:03:35 | 47.71682 | 11.88647 | 93° | 75km/h | 7576m | -8.4m/s | -27.2°C | 78.8% | 394.9hPa | 2.5V | 02:03:00 | 01:34:44 | 00:00:00 | |
| DO3MHA-12 | 2026-09-02 11:03:31 | 47.71687 | 11.88536 | 95° | 75km/h | 7610m | -7.9m/s | -27.1°C | 77.7% | 393.1hPa | 2.5V | 02:03:00 | 01:34:40 | 00:00:00 | |
| OE5DRO-10 | 2026-09-02 11:03:29 | 47.71691 | 11.88479 | 97° | 75km/h | 7626m | -8.2m/s | -27.1°C | 77.6% | 392.2hPa | 2.6V | 00:00:00 | 00:00:00 | 00:00:00 | |
| BAUMI2-15 | 2026-09-02 11:03:26 | 47.71698 | 11.88395 | 100° | 75km/h | 7651m | -6.1m/s | -27.3°C | 78.4% | 390.8hPa | 2.6V | 00:00:00 | 01:34:35 | 00:00:00 | |
| DO3MHA-11 | 2026-09-02 11:03:25 | 47.71701 | 11.88367 | 98° | 75km/h | 7658m | -8.3m/s | -27.3°C | 78.1% | 390.5hPa | 2.6V | 00:00:00 | 01:34:34 | 00:00:00 | |
| OE3JTB-15 | 2026-09-02 11:03:22 | 47.71710 | 11.88283 | 101° | 73km/h | 7682m | -7.4m/s | -27.4°C | 79.1% | 389.1hPa | 2.6V | 00:00:00 | 01:34:31 | 00:00:00 | |
| DO3MHA-12 | 2026-09-02 11:03:21 | 47.71714 | 11.88255 | 101° | 75km/h | 7690m | -7.8m/s | -27.5°C | 79.7% | 388.7hPa | 2.6V | 00:00:00 | 01:34:30 | 00:00:00 | |
| OE5WHR-10 | 2026-09-02 11:03:16 | 47.71736 | 11.88119 | 106° | 71km/h | 7731m | -8.6m/s | -27.6°C | 80.5% | 386.5hPa | 2.6V | 00:00:00 | 00:00:00 | 00:00:00 | |
| DO3MHA-11 | 2026-09-02 11:03:15 | 47.71741 | 11.88092 | 106° | 73km/h | 7740m | -8.6m/s | -27.6°C | 80.2% | 386.0hPa | 2.6V | 00:00:00 | 01:34:24 | 00:00:00 | |
| OE5DXL-15 | 2026-09-02 11:03:13 | 47.71751 | 11.88039 | 105° | 71km/h | 7757m | -8.4m/s | -27.6°C | 78.5% | 385.2hPa | 2.6V | 00:00:00 | 00:00:00 | 00:00:00 | |
| DO3MHA-12 | 2026-09-02 11:03:11 | 47.71760 | 11.87985 | 105° | 71km/h | 7773m | -8.0m/s | -27.7°C | 78.5% | 384.3hPa | 2.6V | 00:00:00 | 01:34:20 | 00:00:00 | |
| OE5DRO-10 | 2026-09-02 11:03:10 | 47.71765 | 11.87958 | 104° | 71km/h | 7781m | -8.3m/s | -27.7°C | 78.7% | 383.9hPa | 2.6V | 02:03:00 | 00:00:00 | 00:00:00 | |
| DG1MFX-10 | 2026-09-02 11:03:09 | 47.71765 | 11.87958 | 104° | 73km/h | 7781m | -8.3m/s | -27.7°C | 74.0% | 383.9hPa | 2.6V | 02:04:00 | 00:00:00 | 00:00:00 | |
| BAUMI2-15 | 2026-09-02 11:03:06 | 47.71782 | 11.87854 | 106° | 71km/h | 7815m | -8.3m/s | -27.8°C | 77.7% | 382.2hPa | 2.6V | 02:04:00 | 01:34:15 | 00:00:00 | |
| DO3MHA-11 | 2026-09-02 11:03:05 | 47.71786 | 11.87828 | 106° | 71km/h | 7823m | -8.5m/s | -27.8°C | 77.0% | 381.6hPa | 2.5V | 02:04:00 | 01:34:14 | 00:00:00 | |
| NBG1-10 | 2026-09-02 11:03:03 | 47.71795 | 11.87777 | 104° | 68km/h | 7840m | -8.0m/s | -27.9°C | 76.3% | 380.8hPa | 2.5V | 02:04:00 | 01:34:12 | 00:00:00 | |
| DO3MHA-12 | 2026-09-02 11:03:01 | 47.71803 | 11.87725 | 104° | 71km/h | 7857m | -8.4m/s | -27.9°C | 76.2% | 379.8hPa | 2.6V | 02:04:00 | 01:34:10 | 00:00:00 | |
| IN3HCDX | 2026-09-02 11:03:00 | 47.71803 | 11.87724 | 104° | 73km/h | 7857m | -8.4m/s | -28.0°C | 71.6% | 379.9hPa | 2.6V | 00:00:00 | 00:00:00 | 00:00:00 | |
| BAUMI2-15 | 2026-09-02 11:02:56 | 47.71824 | 11.87595 | 104° | 71km/h | 7900m | -8.5m/s | -28.3°C | 76.8% | 377.6hPa | 2.6V | 00:00:00 | 01:34:05 | 00:00:00 | |
| DO3MHA-11 | 2026-09-02 11:02:55 | 47.71828 | 11.87569 | 104° | 69km/h | 7909m | -8.8m/s | -28.4°C | 76.8% | 377.1hPa | 2.6V | 00:00:00 | 01:34:04 | 00:00:00 | |
| OE5WHR-10 | 2026-09-02 11:02:54 | 47.71832 | 11.87544 | 104° | 68km/h | 7918m | -8.9m/s | -28.4°C | 76.7% | 376.7hPa | 2.6V | 00:00:00 | 01:34:03 | 00:00:00 | |
| OE3JTB-15 | 2026-09-02 11:02:53 | 47.71836 | 11.87519 | 106° | 66km/h | 7927m | -8.8m/s | -28.5°C | 76.8% | 376.3hPa | 2.6V | 02:04:00 | 00:00:00 | 00:00:00 | |
| DO3MHA-12 | 2026-09-02 11:02:51 | 47.71846 | 11.87467 | 106° | 69km/h | 7944m | -8.9m/s | -28.7°C | 76.8% | 375.3hPa | 2.5V | 00:00:00 | 01:34:00 | 00:00:00 | |
| DG1MFX-10 | 2026-09-02 11:02:49 | 47.71851 | 11.87442 | 106° | 69km/h | 7952m | -7.0m/s | -28.8°C | 72.7% | 374.9hPa | 2.5V | 02:04:00 | 00:00:00 | 00:00:00 | |
| BAUMI2-15 | 2026-09-02 11:02:46 | 47.71872 | 11.87343 | 110° | 68km/h | 7986m | -8.9m/s | -29.0°C | 78.2% | 373.2hPa | 2.5V | 00:00:00 | 01:33:55 | 00:00:00 | |
| DO3MHA-11 | 2026-09-02 11:02:45 | 47.71878 | 11.87319 | 110° | 66km/h | 7995m | -9.1m/s | -29.1°C | 78.4% | 372.7hPa | 2.5V | 00:00:00 | 01:33:54 | 00:00:00 | |
| DG1MJG | 2026-09-02 11:02:44 | 47.71878 | 11.87319 | 110° | 69km/h | 7995m | -9.2m/s | -29.2°C | 73.5% | 372.7hPa | 2.5V | 02:04:00 | 00:00:00 | 00:00:00 | |
| OE5DXL-15 | 2026-09-02 11:02:43 | 47.71889 | 11.87271 | 111° | 66km/h | 8013m | -8.5m/s | -29.3°C | 78.9% | 371.8hPa | 2.5V | 02:04:00 | 00:00:00 | 00:00:00 | |
| DO3MHA-12 | 2026-09-02 11:02:41 | 47.71901 | 11.87224 | 111° | 64km/h | 8029m | -8.7m/s | -29.4°C | 79.0% | 370.8hPa | 2.7V | 00:00:00 | 01:33:50 | 00:00:00 | |
| IN3HCDX | 2026-09-02 11:02:39 | 47.71906 | 11.87201 | 109° | 64km/h | 8038m | -8.8m/s | -29.5°C | 74.2% | 370.4hPa | 2.7V | 00:00:00 | 00:00:00 | 00:00:00 | |
| DO3MHA-11 | 2026-09-02 11:02:35 | 47.71932 | 11.87086 | 108° | 64km/h | 8081m | -8.1m/s | -29.8°C | 77.6% | 368.2hPa | 2.7V | 02:04:00 | 01:33:44 | 00:00:00 | |
| OE5WHR-10 | 2026-09-02 11:02:33 | 47.71942 | 11.87040 | 110° | 66km/h | 8098m | -7.7m/s | -29.9°C | 77.8% | 367.2hPa | 2.6V | 02:04:00 | 00:00:00 | 00:00:00 | |
| OE5DRO-10 | 2026-09-02 11:02:32 | 47.71947 | 11.87017 | 109° | 66km/h | 8106m | -8.6m/s | -30.0°C | 77.8% | 366.9hPa | 2.5V | 00:00:00 | 00:00:00 | 00:00:00 | |
| DO3MHA-12 | 2026-09-02 11:02:31 | 47.71952 | 11.86995 | 110° | 64km/h | 8114m | -8.7m/s | -30.1°C | 77.5% | 366.3hPa | 2.5V | 02:04:00 | 01:33:40 | 00:00:00 | |
| NBG1-10 | 2026-09-02 11:02:30 | 47.71958 | 11.86972 | 111° | 68km/h | 8123m | -8.4m/s | -30.2°C | 77.7% | 365.9hPa | 2.5V | 00:00:00 | 01:33:39 | 00:00:00 | |
| DG1MFX-10 | 2026-09-02 11:02:29 | 47.71958 | 11.86972 | 112° | 64km/h | 8123m | -8.4m/s | -30.2°C | 72.7% | 366.0hPa | 2.5V | 02:04:00 | 00:00:00 | 00:00:00 | |
| DO3MHA-11 | 2026-09-02 11:02:25 | 47.71984 | 11.86860 | 108° | 66km/h | 8164m | -8.1m/s | -30.4°C | 78.4% | 363.8hPa | 2.5V | 00:00:00 | 01:33:34 | 00:00:00 | |
| OE3JTB-15 | 2026-09-02 11:02:23 | 47.71994 | 11.86814 | 108° | 68km/h | 8181m | -8.5m/s | -30.6°C | 79.0% | 362.9hPa | 2.5V | 00:00:00 | 00:00:00 | 00:00:00 | |
| DO3MHA-12 | 2026-09-02 11:02:21 | 47.72003 | 11.86767 | 108° | 68km/h | 8198m | -8.8m/s | -30.7°C | 79.6% | 362.1hPa | 2.5V | 00:00:00 | 01:33:30 | 00:00:00 | |
| IN3HCDX | 2026-09-02 11:02:16 | 47.72023 | 11.86671 | 106° | 68km/h | 8230m | -8.2m/s | -31.0°C | 73.9% | 360.5hPa | 2.5V | 00:00:00 | 00:00:00 | 00:00:00 | |
| DO3MHA-11 | 2026-09-02 11:02:15 | 47.72032 | 11.86622 | 106° | 69km/h | 8246m | -8.7m/s | -31.1°C | 78.8% | 359.6hPa | 2.5V | 00:00:00 | 01:33:24 | 00:00:00 | |
| DL6DJ-15 | 2026-09-02 11:02:14 | 47.72037 | 11.86597 | 105° | 69km/h | 8255m | -8.1m/s | -31.2°C | 73.9% | 359.2hPa | 2.5V | 00:00:00 | 00:00:00 | 00:00:00 | |
| DB0NH | 2026-09-02 11:02:12 | 47.72046 | 11.86547 | 106° | 69km/h | 8270m | -7.5m/s | -31.3°C | 80.6% | 358.2hPa | 2.5V | 02:04:00 | 01:33:21 | 00:00:00 | |
| DO3MHA-12 | 2026-09-02 11:02:11 | 47.72051 | 11.86522 | 106° | 69km/h | 8278m | -7.6m/s | -31.3°C | 80.6% | 357.9hPa | 2.5V | 00:00:00 | 01:33:20 | 00:00:00 | |
| DG1MFX-10 | 2026-09-02 11:02:08 | 47.72061 | 11.86472 | 108° | 69km/h | 8291m | -8.4m/s | -31.5°C | 74.7% | 357.3hPa | 2.5V | 02:05:00 | 00:00:00 | 00:00:00 | |
| DO3MHA-11 | 2026-09-02 11:02:05 | 47.72078 | 11.86372 | 102° | 69km/h | 8327m | -8.8m/s | -31.8°C | 80.0% | 355.5hPa | 2.5V | 02:05:00 | 01:33:14 | 00:00:00 | |
| DO3MHA-12 | 2026-09-02 11:02:01 | 47.72093 | 11.86273 | 104° | 69km/h | 8362m | -8.9m/s | -32.0°C | 79.3% | 354.0hPa | 2.6V | 02:05:00 | 01:33:10 | 00:00:00 | |
| NBG1-10 | 2026-09-02 11:01:57 | 47.72111 | 11.86173 | 106° | 69km/h | 8396m | -7.7m/s | -32.2°C | 78.8% | 352.0hPa | 2.5V | 00:00:00 | 01:33:06 | 00:00:00 | |
| DO3MHA-11 | 2026-09-02 11:01:55 | 47.72120 | 11.86122 | 104° | 69km/h | 8412m | -8.4m/s | -32.3°C | 78.2% | 351.2hPa | 2.5V | 00:00:00 | 01:33:04 | 00:00:00 | |
| OE3JTB-15 | 2026-09-02 11:01:54 | 47.72124 | 11.86096 | 104° | 69km/h | 8421m | -8.2m/s | -32.4°C | 78.2% | 350.9hPa | 2.5V | 00:00:00 | 01:33:03 | 00:00:00 | |
| DO3MHA-12 | 2026-09-02 11:01:51 | 47.72136 | 11.86019 | 101° | 69km/h | 8445m | -8.2m/s | -32.6°C | 78.5% | 349.6hPa | 2.5V | 00:00:00 | 01:33:00 | 00:00:00 | |
| DG1MFX-10 | 2026-09-02 11:01:47 | 47.72145 | 11.85942 | 101° | 69km/h | 8468m | -6.9m/s | -32.8°C | 73.3% | 348.5hPa | 2.5V | 02:05:00 | 00:00:00 | 00:00:00 | |
| DO3MHA-11 | 2026-09-02 11:01:45 | 47.72154 | 11.85867 | 100° | 69km/h | 8491m | -8.2m/s | -32.9°C | 78.2% | 347.3hPa | 2.5V | 00:00:00 | 01:32:54 | 00:00:00 | |
| OE5DXL-15 | 2026-09-02 11:01:43 | 47.72159 | 11.85815 | 99° | 69km/h | 8508m | -8.3m/s | -33.1°C | 78.2% | 346.5hPa | 2.5V | 00:00:00 | 00:00:00 | 00:00:00 | |
| DB0NH | 2026-09-02 11:01:42 | 47.72162 | 11.85790 | 99° | 69km/h | 8516m | -8.3m/s | -33.2°C | 78.4% | 346.0hPa | 2.5V | 00:00:00 | 01:32:51 | 00:00:00 | |
| DO3MHA-12 | 2026-09-02 11:01:41 | 47.72164 | 11.85764 | 99° | 68km/h | 8525m | -8.3m/s | -33.2°C | 78.7% | 345.7hPa | 2.5V | 00:00:00 | 01:32:50 | 00:00:00 | |
| DO3MHA-11 | 2026-09-02 11:01:35 | 47.72179 | 11.85612 | 98° | 68km/h | 8573m | -8.6m/s | -33.6°C | 79.9% | 343.3hPa | 2.5V | 02:05:00 | 01:32:44 | 00:00:00 | |
| DO3MHA-12 | 2026-09-02 11:01:31 | 47.72189 | 11.85511 | 97° | 69km/h | 8606m | -8.0m/s | -33.9°C | 79.5% | 341.6hPa | 2.5V | 02:05:00 | 01:32:40 | 00:00:00 | |
| DG1MFX-10 | 2026-09-02 11:01:27 | 47.72194 | 11.85434 | 97° | 69km/h | 8632m | -9.0m/s | -34.1°C | 71.6% | 340.4hPa | 2.7V | 02:06:00 | 00:00:00 | 00:00:00 | |
| DO3MHA-11 | 2026-09-02 11:01:25 | 47.72199 | 11.85357 | 95° | 69km/h | 8658m | -8.7m/s | -34.2°C | 76.9% | 339.1hPa | 2.7V | 00:00:00 | 01:32:34 | 00:00:00 | |
| NBG1-10 | 2026-09-02 11:01:24 | 47.72201 | 11.85331 | 96° | 69km/h | 8666m | -8.9m/s | -34.3°C | 76.6% | 338.7hPa | 2.7V | 02:05:00 | 01:32:33 | 00:00:00 | |
| DO3MHA-12 | 2026-09-02 11:01:21 | 47.72206 | 11.85253 | 97° | 68km/h | 8693m | -8.6m/s | -34.5°C | 76.1% | 337.4hPa | 2.5V | 00:00:00 | 01:32:30 | 00:00:00 | |
| OE5DRO-10 | 2026-09-02 11:01:16 | 47.72216 | 11.85125 | 96° | 69km/h | 8733m | -8.3m/s | -34.9°C | 77.7% | 335.3hPa | 2.5V | 02:05:00 | 00:00:00 | 00:00:00 | |
| DO3MHA-11 | 2026-09-02 11:01:15 | 47.72217 | 11.85100 | 95° | 69km/h | 8742m | -8.7m/s | -34.9°C | 77.8% | 335.0hPa | 2.7V | 00:00:00 | 01:32:24 | 00:00:00 | |
| DL6DJ-15 | 2026-09-02 11:01:13 | 47.72223 | 11.85024 | 96° | 68km/h | 8767m | -8.1m/s | -35.2°C | 72.8% | 333.9hPa | 2.7V | 00:00:00 | 00:00:00 | 00:00:00 | |
| DB0NH | 2026-09-02 11:01:12 | 47.72223 | 11.85024 | 97° | 71km/h | 8767m | -8.1m/s | -35.2°C | 78.9% | 333.8hPa | 2.7V | 00:00:00 | 01:32:21 | 00:00:00 | |
| DO3MHA-12 | 2026-09-02 11:01:11 | 47.72225 | 11.84999 | 98° | 69km/h | 8775m | -8.2m/s | -35.2°C | 79.2% | 333.4hPa | 2.7V | 00:00:00 | 01:32:20 | 00:00:00 | |
| DG1MFX-10 | 2026-09-02 11:01:06 | 47.72234 | 11.84896 | 100° | 69km/h | 8809m | -8.5m/s | -35.6°C | 74.0% | 331.9hPa | 2.7V | 02:06:00 | 00:00:00 | 00:00:00 | |
| DO3MHA-11 | 2026-09-02 11:01:05 | 47.72238 | 11.84845 | 97° | 69km/h | 8826m | -8.5m/s | -35.7°C | 80.8% | 331.0hPa | 2.7V | 02:06:00 | 01:32:14 | 00:00:00 | |
| OE5WHR-10 | 2026-09-02 11:01:04 | 47.72240 | 11.84820 | 98° | 69km/h | 8834m | -7.6m/s | -35.7°C | 80.8% | 330.6hPa | 2.5V | 00:00:00 | 00:00:00 | 00:00:00 | |
| DO3MHA-12 | 2026-09-02 11:01:01 | 47.72246 | 11.84742 | 97° | 69km/h | 8858m | -8.0m/s | -36.0°C | 80.7% | 329.5hPa | 2.5V | 02:06:00 | 01:32:10 | 00:00:00 | |
| OE5DRO-10 | 2026-09-02 11:00:57 | 47.72254 | 11.84640 | 96° | 69km/h | 8893m | -8.8m/s | -36.3°C | 81.3% | 327.9hPa | 2.5V | 00:00:00 | 00:00:00 | 00:00:00 | |
| DO3MHA-11 | 2026-09-02 11:00:55 | 47.72257 | 11.84588 | 94° | 69km/h | 8910m | -8.7m/s | -36.5°C | 81.2% | 327.0hPa | 2.5V | 00:00:00 | 01:32:04 | 00:00:00 | |
| OE5MMP-10 | 2026-09-02 11:00:53 | 47.72259 | 11.84537 | 95° | 69km/h | 8928m | -9.2m/s | -36.7°C | 81.2% | 326.2hPa | 2.5V | 00:00:00 | 01:32:02 | 00:00:00 | |
| DO3MHA-12 | 2026-09-02 11:00:51 | 47.72262 | 11.84485 | 94° | 69km/h | 8946m | -9.3m/s | -36.9°C | 80.4% | 325.4hPa | 2.5V | 00:00:00 | 01:32:00 | 00:00:00 | |
| OE3JTB-15 | 2026-09-02 11:00:49 | 47.72266 | 11.84433 | 97° | 69km/h | 8964m | -9.3m/s | -37.0°C | 80.1% | 324.5hPa | 2.5V | 00:00:00 | 00:00:00 | 00:00:00 | |
| DO3MHA-11 | 2026-09-02 11:00:45 | 47.72275 | 11.84331 | 97° | 68km/h | 9001m | -9.0m/s | -37.3°C | 80.5% | 322.7hPa | 2.5V | 00:00:00 | 01:31:54 | 00:00:00 | |
| OE5MMP-10 | 2026-09-02 11:00:43 | 47.72279 | 11.84280 | 96° | 68km/h | 9019m | -9.3m/s | -37.5°C | 81.3% | 321.9hPa | 2.5V | 00:00:00 | 01:31:52 | 00:00:00 | |
| DG1MJG | 2026-09-02 11:00:42 | 47.72279 | 11.84280 | 97° | 68km/h | 9019m | -9.3m/s | -37.6°C | 74.5% | 322.0hPa | 2.5V | 02:06:00 | 00:00:00 | 00:00:00 | |
| DO3MHA-12 | 2026-09-02 11:00:41 | 47.72283 | 11.84230 | 98° | 68km/h | 9036m | -8.1m/s | -37.7°C | 83.1% | 321.2hPa | 2.5V | 00:00:00 | 01:31:50 | 00:00:00 | |
| OE5DRO-10 | 2026-09-02 11:00:38 | 47.72289 | 11.84156 | 99° | 68km/h | 9062m | -8.4m/s | -37.9°C | 84.0% | 320.0hPa | 2.5V | 00:00:00 | 00:00:00 | 00:00:00 | |
| BAUMI2-15 | 2026-09-02 11:00:36 | 47.72293 | 11.84106 | 98° | 68km/h | 9079m | -9.5m/s | -38.1°C | 83.6% | 319.1hPa | 2.5V | 02:06:00 | 01:31:45 | 00:00:00 | |
| DB0UT-7 | 2026-09-02 11:00:35 | 47.72295 | 11.84080 | 97° | 68km/h | 9089m | -9.0m/s | -38.2°C | 83.4% | 318.7hPa | 2.7V | 02:06:00 | 00:00:00 | 00:00:00 | |
| OE5MMP-10 | 2026-09-02 11:00:33 | 47.72299 | 11.84029 | 97° | 68km/h | 9107m | -9.0m/s | -38.3°C | 80.4% | 317.9hPa | 2.5V | 02:06:00 | 01:31:42 | 00:00:00 | |
| DO3MHA-12 | 2026-09-02 11:00:31 | 47.72303 | 11.83979 | 98° | 66km/h | 9125m | -9.5m/s | -38.4°C | 77.7% | 317.0hPa | 2.5V | 02:06:00 | 01:31:40 | 00:00:00 | |
| BAUMI2-15 | 2026-09-02 11:00:26 | 47.72314 | 11.83856 | 100° | 66km/h | 9171m | -9.2m/s | -38.7°C | 76.8% | 315.0hPa | 2.5V | 00:00:00 | 01:31:35 | 00:00:00 | |
| DO3MHA-11 | 2026-09-02 11:00:25 | 47.72316 | 11.83832 | 99° | 68km/h | 9180m | -9.1m/s | -38.8°C | 76.9% | 314.5hPa | 2.5V | 00:00:00 | 01:31:34 | 00:00:00 | |
| OE5WHR-10 | 2026-09-02 11:00:22 | 47.72323 | 11.83758 | 100° | 69km/h | 9208m | -8.8m/s | -39.1°C | 77.3% | 313.3hPa | 2.5V | 02:06:00 | 00:00:00 | 00:00:00 | |
| DO3MHA-12 | 2026-09-02 11:00:21 | 47.72325 | 11.83732 | 98° | 69km/h | 9217m | -8.9m/s | -39.1°C | 77.5% | 312.8hPa | 2.6V | 00:00:00 | 01:31:30 | 00:00:00 | |
| OE5DRO-10 | 2026-09-02 11:00:19 | 47.72329 | 11.83680 | 98° | 68km/h | 9235m | -8.4m/s | -39.3°C | 77.9% | 312.0hPa | 2.6V | 02:06:00 | 00:00:00 | 00:00:00 | |
| OE5MMP-10 | 2026-09-02 11:00:18 | 47.72331 | 11.83653 | 95° | 68km/h | 9243m | -8.9m/s | -39.4°C | 78.1% | 311.7hPa | 2.5V | 00:00:00 | 01:31:27 | 00:00:00 | |
| BAUMI2-15 | 2026-09-02 11:00:17 | 47.72335 | 11.83602 | 97° | 68km/h | 9261m | -9.6m/s | -39.6°C | 78.2% | 310.8hPa | 2.5V | 00:00:00 | 01:31:25 | 00:00:00 | |
| DO3MHA-11 | 2026-09-02 11:00:15 | 47.72336 | 11.83577 | 96° | 68km/h | 9271m | -9.7m/s | -39.6°C | 77.5% | 310.4hPa | 2.5V | 00:00:00 | 01:31:24 | 00:00:00 | |
| OE5DXL-15 | 2026-09-02 11:00:13 | 47.72340 | 11.83526 | 98° | 69km/h | 9290m | -9.3m/s | -39.8°C | 77.6% | 309.5hPa | 2.5V | 00:00:00 | 00:00:00 | 00:00:00 | |
| DG1MJG | 2026-09-02 11:00:12 | 47.72340 | 11.83527 | 98° | 68km/h | 9290m | -9.4m/s | -39.9°C | 70.6% | 309.6hPa | 2.5V | 02:07:00 | 00:00:00 | 00:00:00 | |
| DO3MHA-12 | 2026-09-02 11:00:11 | 47.72344 | 11.83476 | 97° | 68km/h | 9309m | -9.6m/s | -40.0°C | 77.8% | 308.7hPa | 2.5V | 00:00:00 | 01:31:20 | 00:00:00 | |
| DL6DJ-15 | 2026-09-02 11:00:10 | 47.72346 | 11.83450 | 96° | 68km/h | 9318m | -9.3m/s | -40.1°C | 70.6% | 308.3hPa | 2.5V | 00:00:00 | 00:00:00 | 00:00:00 | |
| OE5MMP-10 | 2026-09-02 11:00:08 | 47.72350 | 11.83399 | 97° | 69km/h | 9337m | -9.5m/s | -40.3°C | 78.1% | 307.4hPa | 2.5V | 00:00:00 | 01:31:17 | 00:00:00 | |
| BAUMI2-15 | 2026-09-02 11:00:06 | 47.72353 | 11.83348 | 95° | 68km/h | 9356m | -9.8m/s | -40.4°C | 77.7% | 306.5hPa | 2.5V | 02:07:00 | 01:31:15 | 00:00:00 | |
| DB0UT-7 | 2026-09-02 11:00:05 | 47.72355 | 11.83323 | 97° | 71km/h | 9366m | -9.2m/s | -40.5°C | 77.2% | 306.1hPa | 2.5V | 00:00:00 | 01:31:14 | 00:00:00 | |
| OE5WHR-10 | 2026-09-02 11:00:01 | 47.72363 | 11.83222 | 99° | 71km/h | 9403m | -9.8m/s | -40.9°C | 73.7% | 304.4hPa | 2.5V | 00:00:00 | 00:00:00 | 00:00:00 | |
| OE5DRO-10 | 2026-09-02 11:00:00 | 47.72366 | 11.83196 | 97° | 71km/h | 9413m | -9.2m/s | -40.9°C | 72.1% | 304.0hPa | 2.5V | 00:00:00 | 00:00:00 | 00:00:00 | |
| OE5MMP-10 | 2026-09-02 10:59:58 | 47.72369 | 11.83144 | 97° | 73km/h | 9431m | -9.6m/s | -41.1°C | 70.2% | 303.1hPa | 2.5V | 02:07:00 | 01:31:07 | 00:00:00 | |
| BAUMI2-15 | 2026-09-02 10:59:56 | 47.72373 | 11.83092 | 95° | 71km/h | 9450m | -9.2m/s | -41.3°C | 69.4% | 302.3hPa | 2.7V | 00:00:00 | 01:31:05 | 00:00:00 | |
| DO3MHA-11 | 2026-09-02 10:59:55 | 47.72374 | 11.83066 | 96° | 71km/h | 9459m | -9.8m/s | -41.3°C | 68.9% | 302.0hPa | 2.7V | 00:00:00 | 01:31:04 | 00:00:00 | |
| DO3MHA-12 | 2026-09-02 10:59:51 | 47.72380 | 11.82960 | 96° | 73km/h | 9498m | -9.5m/s | -41.7°C | 65.3% | 300.1hPa | 2.7V | 00:00:00 | 01:31:00 | 00:00:00 | |
| OE5MMP-10 | 2026-09-02 10:59:48 | 47.72385 | 11.82877 | 96° | 73km/h | 9527m | -10.0m/s | -42.0°C | 61.8% | 298.9hPa | 2.7V | 00:00:00 | 01:30:57 | 00:00:00 | |
| NBG1-10 | 2026-09-02 10:59:46 | 47.72390 | 11.82796 | 95° | 77km/h | 9558m | -10.0m/s | -42.2°C | 62.5% | 297.6hPa | 2.7V | 02:07:00 | 01:30:54 | 00:00:00 | |
| DO3MHA-11 | 2026-09-02 10:59:45 | 47.72390 | 11.82796 | 95° | 73km/h | 9558m | -10.0m/s | -42.2°C | 62.5% | 297.6hPa | 2.5V | 00:00:00 | 01:30:54 | 00:00:00 | |
| OE5DXL-15 | 2026-09-02 10:59:43 | 47.72393 | 11.82742 | 97° | 77km/h | 9578m | -9.9m/s | -42.4°C | 63.2% | 296.7hPa | 2.5V | 02:07:00 | 00:00:00 | 00:00:00 | |
| DL9SK-14 | 2026-09-02 10:59:42 | 47.72395 | 11.82716 | 95° | 71km/h | 9588m | -10.5m/s | -42.6°C | 57.0% | 296.2hPa | 2.5V | 00:00:00 | 00:00:00 | 00:00:00 | |
| DO3MHA-12 | 2026-09-02 10:59:41 | 47.72397 | 11.82689 | 98° | 75km/h | 9598m | -10.4m/s | -42.6°C | 64.2% | 295.8hPa | 2.5V | 00:00:00 | 01:30:50 | 00:00:00 | |
| OE5WHR-10 | 2026-09-02 10:59:40 | 47.72399 | 11.82662 | 98° | 75km/h | 9609m | -10.3m/s | -42.7°C | 64.8% | 295.3hPa | 2.5V | 00:00:00 | 01:30:49 | 00:00:00 | |
| DL6DJ-15 | 2026-09-02 10:59:39 | 47.72402 | 11.82635 | 95° | 71km/h | 9619m | -10.8m/s | -42.9°C | 58.1% | 294.9hPa | 2.5V | 00:00:00 | 00:00:00 | 00:00:00 | |
| OE5MMP-10 | 2026-09-02 10:59:38 | 47.72404 | 11.82608 | 98° | 75km/h | 9630m | -10.2m/s | -42.9°C | 65.0% | 294.4hPa | 2.5V | 00:00:00 | 01:30:47 | 00:00:00 | |
| BAUMI2-15 | 2026-09-02 10:59:36 | 47.72408 | 11.82553 | 96° | 77km/h | 9650m | -10.0m/s | -43.1°C | 65.3% | 293.6hPa | 2.5V | 02:07:00 | 01:30:45 | 00:00:00 | |
| DB0UT-7 | 2026-09-02 10:59:35 | 47.72409 | 11.82525 | 96° | 77km/h | 9660m | -10.1m/s | -43.2°C | 66.3% | 293.1hPa | 2.5V | 00:00:00 | 00:00:00 | 00:00:00 | |
| DO3MHA-12 | 2026-09-02 10:59:31 | 47.72416 | 11.82411 | 95° | 75km/h | 9699m | -9.0m/s | -43.6°C | 69.0% | 291.3hPa | 2.5V | 02:07:00 | 01:30:40 | 00:00:00 | |
| OE5MMP-10 | 2026-09-02 10:59:28 | 47.72421 | 11.82327 | 97° | 77km/h | 9727m | -9.4m/s | -43.9°C | 69.2% | 290.2hPa | 2.5V | 02:07:00 | 01:30:37 | 00:00:00 | |
| DG1MFX-10 | 2026-09-02 10:59:27 | 47.72421 | 11.82327 | 98° | 75km/h | 9727m | -9.5m/s | -43.9°C | 61.8% | 290.2hPa | 2.5V | 02:08:00 | 00:00:00 | 00:00:00 | |
| BAUMI2-15 | 2026-09-02 10:59:26 | 47.72425 | 11.82270 | 96° | 75km/h | 9746m | -10.0m/s | -44.0°C | 68.1% | 289.4hPa | 2.5V | 00:00:00 | 01:30:35 | 00:00:00 | |
| DO3MHA-11 | 2026-09-02 10:59:25 | 47.72427 | 11.82243 | 96° | 78km/h | 9756m | -10.3m/s | -44.1°C | 67.9% | 288.9hPa | 2.5V | 00:00:00 | 01:30:34 | 00:00:00 | |
| OE3JTB-15 | 2026-09-02 10:59:22 | 47.72432 | 11.82157 | 94° | 80km/h | 9785m | -10.2m/s | -44.3°C | 67.6% | 287.7hPa | 2.5V | 02:07:00 | 00:00:00 | 00:00:00 | |
| DO3MHA-12 | 2026-09-02 10:59:21 | 47.72434 | 11.82129 | 95° | 80km/h | 9795m | -10.3m/s | -44.4°C | 67.8% | 287.2hPa | 2.7V | 00:00:00 | 01:30:30 | 00:00:00 | |
| OE5WHR-10 | 2026-09-02 10:59:19 | 47.72437 | 11.82069 | 96° | 80km/h | 9815m | -9.6m/s | -44.6°C | 68.5% | 286.4hPa | 2.7V | 02:07:00 | 00:00:00 | 00:00:00 | |
| OE5MMP-10 | 2026-09-02 10:59:18 | 47.72439 | 11.82040 | 95° | 78km/h | 9824m | -9.4m/s | -44.7°C | 68.9% | 286.0hPa | 2.5V | 00:00:00 | 01:30:27 | 00:00:00 | |
| BAUMI2-15 | 2026-09-02 10:59:16 | 47.72443 | 11.81979 | 96° | 78km/h | 9842m | -9.8m/s | -44.9°C | 69.0% | 285.3hPa | 2.5V | 00:00:00 | 01:30:25 | 00:00:00 | |
| DO3MHA-11 | 2026-09-02 10:59:15 | 47.72445 | 11.81949 | 95° | 78km/h | 9852m | -9.8m/s | -45.0°C | 69.3% | 284.8hPa | 2.5V | 00:00:00 | 01:30:24 | 00:00:00 | |
| OE5DXL-15 | 2026-09-02 10:59:13 | 47.72449 | 11.81890 | 97° | 80km/h | 9872m | -9.6m/s | -45.2°C | 69.5% | 283.9hPa | 2.5V | 00:00:00 | 00:00:00 | 00:00:00 | |
| NBG1-10 | 2026-09-02 10:59:12 | 47.72451 | 11.81861 | 96° | 80km/h | 9881m | -9.4m/s | -45.3°C | 69.6% | 283.4hPa | 2.5V | 00:00:00 | 01:30:21 | 00:00:00 | |
| DO3MHA-12 | 2026-09-02 10:59:11 | 47.72453 | 11.81831 | 96° | 78km/h | 9891m | -9.4m/s | -45.4°C | 69.4% | 283.1hPa | 2.5V | 00:00:00 | 01:30:20 | 00:00:00 | |
| OE5MMP-10 | 2026-09-02 10:59:08 | 47.72456 | 11.81744 | 93° | 80km/h | 9920m | -10.2m/s | -45.6°C | 68.0% | 281.9hPa | 2.5V | 00:00:00 | 01:30:17 | 00:00:00 | |
| BAUMI2-15 | 2026-09-02 10:59:06 | 47.72460 | 11.81686 | 95° | 80km/h | 9940m | -10.1m/s | -45.8°C | 67.8% | 281.1hPa | 2.5V | 02:08:00 | 01:30:15 | 00:00:00 | |
| DO3MHA-11 | 2026-09-02 10:59:05 | 47.72462 | 11.81656 | 95° | 82km/h | 9950m | -10.1m/s | -45.9°C | 67.8% | 280.6hPa | 2.7V | 02:08:00 | 01:30:14 | 00:00:00 | |
| OE5DRO-10 | 2026-09-02 10:59:03 | 47.72465 | 11.81595 | 96° | 82km/h | 9970m | -9.8m/s | -46.0°C | 67.8% | 279.8hPa | 2.5V | 00:00:00 | 00:00:00 | 00:00:00 | |
| DB0ND-19 | 2026-09-02 10:58:57 | 47.72479 | 11.81380 | 94° | 84km/h | 10037m | -9.6m/s | 0°C | -1.0% | -1.0hPa | 2.5V | 00:00:00 | 00:00:00 | 00:00:00 | |
| BAUMI2-15 | 2026-09-02 10:58:56 | 47.72479 | 11.81380 | 95° | 84km/h | 10038m | -9.6m/s | -46.6°C | 67.6% | 277.0hPa | 2.5V | 00:00:00 | 01:30:05 | 00:00:00 | |
| DO3MHA-11 | 2026-09-02 10:58:55 | 47.72481 | 11.81349 | 97° | 82km/h | 10047m | -9.8m/s | -46.6°C | 68.0% | 276.5hPa | 2.5V | 00:00:00 | 01:30:04 | 00:00:00 | |
| OE3JTB-15 | 2026-09-02 10:58:53 | 47.72485 | 11.81287 | 97° | 82km/h | 10067m | -9.8m/s | -46.8°C | 68.5% | 275.8hPa | 2.5V | 00:00:00 | 00:00:00 | 00:00:00 | |
| DO3MHA-12 | 2026-09-02 10:58:51 | 47.72489 | 11.81225 | 96° | 80km/h | 10087m | -9.9m/s | -47.0°C | 69.0% | 274.9hPa | 2.5V | 00:00:00 | 01:30:00 | 00:00:00 | |
| BAUMI2-15 | 2026-09-02 10:58:46 | 47.72495 | 11.81072 | 93° | 80km/h | 10136m | -10.0m/s | -47.5°C | 69.8% | 272.9hPa | 2.5V | 00:00:00 | 01:29:55 | 00:00:00 | |
| DO3MHA-11 | 2026-09-02 10:58:45 | 47.72496 | 11.81042 | 93° | 82km/h | 10146m | -9.9m/s | -47.6°C | 70.1% | 272.5hPa | 2.5V | 00:00:00 | 01:29:54 | 00:00:00 | |
| OE5DRO-10 | 2026-09-02 10:58:44 | 47.72497 | 11.81012 | 94° | 82km/h | 10156m | -9.9m/s | -47.7°C | 70.3% | 272.1hPa | 2.5V | 00:00:00 | 00:00:00 | 00:00:00 | |
| OE5DXL-15 | 2026-09-02 10:58:43 | 47.72498 | 11.80982 | 95° | 80km/h | 10166m | -9.3m/s | -47.7°C | 70.4% | 271.8hPa | 2.5V | 00:00:00 | 01:29:52 | 00:00:00 | |
| DL9SK-14 | 2026-09-02 10:58:40 | 47.72501 | 11.80891 | 92° | 80km/h | 10195m | -10.1m/s | -48.0°C | 61.5% | 270.6hPa | 2.5V | 00:00:00 | 00:00:00 | 00:00:00 | |
| NBG1-10 | 2026-09-02 10:58:39 | 47.72502 | 11.80860 | 91° | 80km/h | 10205m | -9.7m/s | -48.1°C | 70.0% | 270.1hPa | 2.5V | 00:00:00 | 01:29:48 | 00:00:00 | |
| OE5WHR-10 | 2026-09-02 10:58:37 | 47.72502 | 11.80798 | 90° | 80km/h | 10225m | -10.1m/s | -48.2°C | 69.7% | 269.3hPa | 2.5V | 00:00:00 | 01:29:46 | 00:00:00 | |
| OE5MMP-10 | 2026-09-02 10:58:35 | 47.72501 | 11.80736 | 88° | 82km/h | 10245m | -9.8m/s | -48.4°C | 68.9% | 268.5hPa | 2.5V | 00:00:00 | 01:29:44 | 00:00:00 | |
| DO3MHA-12 | 2026-09-02 10:58:31 | 47.72496 | 11.80611 | 87° | 80km/h | 10283m | -10.1m/s | -48.7°C | 68.3% | 266.9hPa | 2.5V | 02:08:00 | 01:29:40 | 00:00:00 | |
| DO3MHA-11 | 2026-09-02 10:58:25 | 47.72495 | 11.80431 | 90° | 80km/h | 10341m | -9.6m/s | -49.2°C | 71.0% | 264.5hPa | 2.7V | 00:00:00 | 01:29:34 | 00:00:00 | |
| OE3JTB-15 | 2026-09-02 10:58:22 | 47.72495 | 11.80340 | 90° | 78km/h | 10371m | -9.9m/s | 0°C | 0% | 0hPa | 2.7V | 00:00:00 | 01:29:31 | 00:00:00 | |
| DO3MHA-12 | 2026-09-02 10:58:21 | 47.72495 | 11.80310 | 90° | 80km/h | 10381m | -10.0m/s | -49.6°C | 72.3% | 263.0hPa | 2.7V | 00:00:00 | 01:29:30 | 00:00:00 | |
| OE5WHR-10 | 2026-09-02 10:58:16 | 47.72495 | 11.80160 | 92° | 78km/h | 10430m | -9.4m/s | -50.1°C | 73.8% | 261.1hPa | 2.7V | 02:08:00 | 00:00:00 | 00:00:00 | |
| DO3MHA-11 | 2026-09-02 10:58:15 | 47.72495 | 11.80129 | 92° | 78km/h | 10440m | -10.4m/s | -50.2°C | 73.9% | 260.6hPa | 2.5V | 00:00:00 | 01:29:24 | 00:00:00 | |
| IN3HCDX | 2026-09-02 10:58:14 | 47.72495 | 11.80129 | 92° | 80km/h | 10440m | -10.5m/s | -50.2°C | 64.5% | 260.7hPa | 2.5V | 00:00:00 | 00:00:00 | 00:00:00 | |
| OE5DXL-15 | 2026-09-02 10:58:13 | 47.72496 | 11.80070 | 92° | 80km/h | 10460m | -10.0m/s | -50.4°C | 74.2% | 259.8hPa | 2.5V | 02:08:00 | 00:00:00 | 00:00:00 | |
| OE5MMP-10 | 2026-09-02 10:58:12 | 47.72497 | 11.80040 | 92° | 80km/h | 10470m | -9.9m/s | -50.5°C | 73.9% | 259.4hPa | 2.7V | 02:08:00 | 01:29:21 | 00:00:00 | |
| DO3MHA-12 | 2026-09-02 10:58:11 | 47.72497 | 11.80010 | 90° | 80km/h | 10481m | -10.4m/s | -50.6°C | 73.7% | 259.0hPa | 2.7V | 00:00:00 | 01:29:20 | 00:00:00 | |
| DG1MJG | 2026-09-02 10:58:10 | 47.72497 | 11.80010 | 91° | 80km/h | 10481m | -10.4m/s | -50.6°C | 64.2% | 259.0hPa | 2.7V | 02:09:00 | 00:00:00 | 00:00:00 | |
| DL9SK-14 | 2026-09-02 10:58:09 | 47.72496 | 11.79950 | 87° | 78km/h | 10500m | -9.5m/s | -50.8°C | 63.6% | 258.2hPa | 2.7V | 00:00:00 | 00:00:00 | 00:00:00 | |
| DL6DJ-15 | 2026-09-02 10:58:06 | 47.72490 | 11.79832 | 87° | 78km/h | 10538m | -10.2m/s | -51.2°C | 62.7% | 256.7hPa | 2.7V | 00:00:00 | 00:00:00 | 00:00:00 | |
| DB0UT-7 | 2026-09-02 10:58:05 | 47.72490 | 11.79832 | 88° | 80km/h | 10539m | -10.1m/s | -51.1°C | 72.2% | 256.7hPa | 2.7V | 00:00:00 | 01:29:14 | 00:00:00 | |
| DO8TBO-1 | 2026-09-02 10:58:04 | 47.72490 | 11.79802 | 90° | 82km/h | 10549m | -10.1m/s | -51.2°C | 72.5% | 256.3hPa | 2.7V | 00:00:00 | 01:29:13 | 00:00:00 | |
| OE5MMP-10 | 2026-09-02 10:58:02 | 47.72490 | 11.79740 | 92° | 77km/h | 10569m | -9.9m/s | -51.4°C | 71.8% | 255.5hPa | 2.7V | 00:00:00 | 01:29:11 | 00:00:00 | |
| DO3MHA-12 | 2026-09-02 10:58:01 | 47.72491 | 11.79709 | 92° | 77km/h | 10579m | -10.5m/s | -51.5°C | 71.4% | 255.1hPa | 2.7V | 02:09:00 | 01:29:10 | 00:00:00 | |
| PG1ADW-2 | 2026-09-02 10:58:00 | 47.72491 | 11.79678 | 91° | 82km/h | 10589m | -10.2m/s | -51.6°C | 71.1% | 254.7hPa | 2.5V | 00:00:00 | 00:00:00 | 00:00:00 | |
| OE5WHR-10 | 2026-09-02 10:57:55 | 47.72487 | 11.79537 | 88° | 82km/h | 10641m | -10.5m/s | -52.1°C | 68.8% | 252.7hPa | 2.5V | 00:00:00 | 00:00:00 | 00:00:00 | |
| OE3JTB-15 | 2026-09-02 10:57:53 | 47.72487 | 11.79481 | 91° | 84km/h | 10663m | -10.4m/s | 0°C | 0% | 0hPa | 2.5V | 02:09:00 | 00:00:00 | 00:00:00 | |
| DO3MHA-12 | 2026-09-02 10:57:51 | 47.72487 | 11.79420 | 92° | 82km/h | 10684m | -10.0m/s | -52.4°C | 68.9% | 251.0hPa | 2.5V | 00:00:00 | 01:29:00 | 00:00:00 | |
| OE5DRO-10 | 2026-09-02 10:57:47 | 47.72483 | 11.79291 | 84° | 82km/h | 10724m | -9.6m/s | -52.8°C | 67.0% | 249.4hPa | 2.5V | 00:00:00 | 00:00:00 | 00:00:00 | |
| DO3MHA-11 | 2026-09-02 10:57:45 | 47.72479 | 11.79232 | 85° | 82km/h | 10744m | -10.0m/s | -52.9°C | 66.5% | 248.7hPa | 2.5V | 00:00:00 | 01:28:54 | 00:00:00 | |
| DG1MFX-10 | 2026-09-02 10:57:44 | 47.72479 | 11.79232 | 86° | 77km/h | 10744m | -10.1m/s | -53.0°C | 57.1% | 248.7hPa | 2.5V | 02:09:00 | 00:00:00 | 00:00:00 | |
| OE5DXL-15 | 2026-09-02 10:57:43 | 47.72477 | 11.79175 | 90° | 82km/h | 10764m | -10.6m/s | -53.1°C | 67.6% | 247.9hPa | 2.5V | 00:00:00 | 00:00:00 | 00:00:00 | |
| DO3MHA-12 | 2026-09-02 10:57:41 | 47.72478 | 11.79118 | 94° | 84km/h | 10784m | -10.1m/s | -53.3°C | 68.7% | 247.2hPa | 2.5V | 00:00:00 | 01:28:50 | 00:00:00 | |
| DG1MJG | 2026-09-02 10:57:39 | 47.72479 | 11.79087 | 95° | 82km/h | 10795m | -10.4m/s | -53.5°C | 59.3% | 246.8hPa | 2.5V | 02:09:00 | 00:00:00 | 00:00:00 | |
| DL9SK-14 | 2026-09-02 10:57:38 | 47.72481 | 11.79023 | 91° | 88km/h | 10815m | -10.1m/s | -53.6°C | 59.8% | 246.0hPa | 2.5V | 00:00:00 | 00:00:00 | 00:00:00 | |
| DL6DJ-15 | 2026-09-02 10:57:35 | 47.72478 | 11.78892 | 85° | 84km/h | 10856m | -10.1m/s | -54.0°C | 60.7% | 244.4hPa | 2.5V | 00:00:00 | 00:00:00 | 00:00:00 | |
| OE5WHR-10 | 2026-09-02 10:57:34 | 47.72478 | 11.78892 | 86° | 82km/h | 10856m | -10.0m/s | -53.9°C | 70.8% | 244.3hPa | 2.5V | 00:00:00 | 01:28:43 | 00:00:00 | |
| NBG1-10 | 2026-09-02 10:57:33 | 47.72476 | 11.78860 | 88° | 84km/h | 10866m | -9.9m/s | -54.0°C | 71.5% | 244.0hPa | 2.5V | 00:00:00 | 01:28:42 | 00:00:00 | |
| OE5MMP-10 | 2026-09-02 10:57:31 | 47.72475 | 11.78800 | 90° | 82km/h | 10887m | -10.6m/s | -54.2°C | 72.4% | 243.2hPa | 2.5V | 00:00:00 | 01:28:40 | 00:00:00 | |
| DO8TBO-1 | 2026-09-02 10:57:29 | 47.72475 | 11.78742 | 93° | 84km/h | 10908m | -10.2m/s | -54.4°C | 73.4% | 242.4hPa | 2.5V | 02:09:00 | 01:28:38 | 00:00:00 | |
| OE5DRO-10 | 2026-09-02 10:57:28 | 47.72477 | 11.78712 | 95° | 82km/h | 10918m | -9.9m/s | -54.5°C | 73.9% | 242.0hPa | 2.5V | 02:09:00 | 00:00:00 | 00:00:00 | |
| DO3MHA-11 | 2026-09-02 10:57:25 | 47.72481 | 11.78616 | 93° | 82km/h | 10948m | -9.5m/s | -54.8°C | 74.6% | 240.9hPa | 2.5V | 00:00:00 | 01:28:34 | 00:00:00 | |
| DG1MFX-10 | 2026-09-02 10:57:24 | 47.72481 | 11.78616 | 94° | 88km/h | 10948m | -9.6m/s | -54.9°C | 63.8% | 240.9hPa | 2.5V | 02:09:00 | 00:00:00 | 00:00:00 | |
| IN3HCDX | 2026-09-02 10:57:22 | 47.72482 | 11.78552 | 92° | 82km/h | 10966m | -9.5m/s | -55.1°C | 63.7% | 240.2hPa | 2.5V | 02:09:00 | 00:00:00 | 00:00:00 | |
| OE5MMP-10 | 2026-09-02 10:57:21 | 47.72484 | 11.78492 | 94° | 82km/h | 10986m | -9.4m/s | -55.2°C | 74.8% | 239.5hPa | 2.5V | 00:00:00 | 01:28:30 | 00:00:00 | |
| DO3MHA-11 | 2026-09-02 10:57:15 | 47.72489 | 11.78307 | 93° | 82km/h | 11044m | -9.7m/s | -55.8°C | 74.7% | 237.2hPa | 2.5V | 00:00:00 | 01:28:24 | 00:00:00 | |
| OE5WHR-10 | 2026-09-02 10:57:14 | 47.72492 | 11.78246 | 96° | 86km/h | 11064m | -9.6m/s | -56.0°C | 74.6% | 236.5hPa | 2.5V | 02:09:00 | 00:00:00 | 00:00:00 | |
| DB0NH | 2026-09-02 10:57:12 | 47.72493 | 11.78215 | 97° | 86km/h | 11074m | -9.5m/s | -56.0°C | 73.9% | 236.1hPa | 2.7V | 02:09:00 | 01:28:21 | 00:00:00 | |
| DO3MHA-12 | 2026-09-02 10:57:11 | 47.72496 | 11.78184 | 96° | 84km/h | 11083m | -10.0m/s | -56.1°C | 73.2% | 235.9hPa | 2.5V | 00:00:00 | 01:28:20 | 00:00:00 | |
| OE5DRO-10 | 2026-09-02 10:57:09 | 47.72500 | 11.78124 | 98° | 86km/h | 11104m | -10.0m/s | -56.3°C | 71.0% | 235.0hPa | 2.5V | 00:00:00 | 00:00:00 | 00:00:00 | |
| DG1MJG | 2026-09-02 10:57:08 | 47.72500 | 11.78124 | 98° | 80km/h | 11104m | -10.0m/s | -56.4°C | 60.0% | 235.1hPa | 2.5V | 02:10:00 | 00:00:00 | 00:00:00 | |
| DL9SK-14 | 2026-09-02 10:57:07 | 47.72506 | 11.78064 | 97° | 80km/h | 11124m | -10.2m/s | -56.6°C | 57.7% | 234.3hPa | 2.5V | 00:00:00 | 00:00:00 | 00:00:00 | |
| DO3MHA-11 | 2026-09-02 10:57:05 | 47.72511 | 11.78001 | 97° | 88km/h | 11145m | -10.5m/s | -56.6°C | 65.7% | 233.5hPa | 2.5V | 02:10:00 | 01:28:14 | 00:00:00 | |
| DL6DJ-15 | 2026-09-02 10:57:04 | 47.72516 | 11.77935 | 96° | 91km/h | 11165m | -10.8m/s | -56.8°C | 53.0% | 232.9hPa | 2.6V | 00:00:00 | 00:00:00 | 00:00:00 | |
| DO3MHA-12 | 2026-09-02 10:57:01 | 47.72522 | 11.77867 | 99° | 86km/h | 11186m | -10.0m/s | -56.7°C | 60.3% | 232.0hPa | 2.6V | 02:10:00 | 01:28:10 | 00:00:00 | |
| NBG1-10 | 2026-09-02 10:57:00 | 47.72525 | 11.77834 | 98° | 86km/h | 11196m | -10.0m/s | -56.7°C | 58.8% | 231.6hPa | 2.5V | 00:00:00 | 01:28:09 | 00:00:00 | |
| DO8TBO-1 | 2026-09-02 10:56:59 | 47.72528 | 11.77802 | 98° | 86km/h | 11206m | -10.0m/s | -56.7°C | 56.7% | 231.3hPa | 2.5V | 00:00:00 | 01:28:08 | 00:00:00 | |
| OE3JTB-15 | 2026-09-02 10:56:57 | 47.72534 | 11.77740 | 101° | 86km/h | 11226m | -10.5m/s | 0°C | 0% | 0hPa | 2.5V | 00:00:00 | 00:00:00 | 00:00:00 | |
| DO3MHA-11 | 2026-09-02 10:56:55 | 47.72543 | 11.77679 | 106° | 86km/h | 11247m | -9.8m/s | -56.7°C | 51.4% | 229.9hPa | 2.5V | 00:00:00 | 01:28:04 | 00:00:00 | |
| PG1ADW-2 | 2026-09-02 10:56:54 | 47.72549 | 11.77648 | 105° | 86km/h | 11257m | -10.2m/s | -56.8°C | 51.0% | 229.5hPa | 2.5V | 00:00:00 | 00:00:00 | 00:00:00 | |
| OE5MMP-10 | 2026-09-02 10:56:52 | 47.72564 | 11.77550 | 101° | 86km/h | 11288m | -9.7m/s | -56.6°C | 48.3% | 228.4hPa | 2.5V | 00:00:00 | 01:28:00 | 00:00:00 | |
| DO3MHA-12 | 2026-09-02 10:56:51 | 47.72564 | 11.77550 | 101° | 86km/h | 11288m | -9.7m/s | -56.6°C | 48.3% | 228.4hPa | 2.5V | 00:00:00 | 01:28:00 | 00:00:00 | |
| OE5DRO-10 | 2026-09-02 10:56:50 | 47.72567 | 11.77517 | 99° | 86km/h | 11298m | -9.6m/s | -56.6°C | 47.4% | 228.0hPa | 2.5V | 00:00:00 | 00:00:00 | 00:00:00 | |
| DO3MHA-11 | 2026-09-02 10:56:45 | 47.72589 | 11.77362 | 105° | 86km/h | 11347m | -10.2m/s | -56.8°C | 44.6% | 226.2hPa | 2.5V | 00:00:00 | 01:27:54 | 00:00:00 | |
| OE5DXL-15 | 2026-09-02 10:56:43 | 47.72599 | 11.77299 | 103° | 84km/h | 11369m | -10.3m/s | -56.8°C | 43.7% | 225.4hPa | 2.5V | 02:10:00 | 00:00:00 | 00:00:00 | |
| OE5MMP-10 | 2026-09-02 10:56:41 | 47.72610 | 11.77236 | 104° | 86km/h | 11389m | -10.4m/s | -57.0°C | 43.2% | 224.8hPa | 2.7V | 02:10:00 | 01:27:50 | 00:00:00 | |
| IN3HCDX | 2026-09-02 10:56:40 | 47.72610 | 11.77236 | 105° | 86km/h | 11389m | -10.5m/s | -57.0°C | 34.8% | 224.8hPa | 2.7V | 02:10:00 | 00:00:00 | 00:00:00 | |
| DG1MJG | 2026-09-02 10:56:37 | 47.72626 | 11.77148 | 109° | 80km/h | 11420m | -10.1m/s | -57.3°C | 34.6% | 223.7hPa | 2.7V | 02:10:00 | 00:00:00 | 00:00:00 | |
| BAUMI2-15 | 2026-09-02 10:56:36 | 47.72640 | 11.77088 | 112° | 89km/h | 11440m | -9.3m/s | -57.4°C | 42.9% | 223.0hPa | 2.7V | 02:10:00 | 01:27:45 | 00:00:00 | |
| DB0UT-7 | 2026-09-02 10:56:35 | 47.72648 | 11.77057 | 111° | 84km/h | 11450m | -9.8m/s | -57.5°C | 42.5% | 222.6hPa | 2.5V | 00:00:00 | 00:00:00 | 00:00:00 | |
| PG1ADW-2 | 2026-09-02 10:56:34 | 47.72656 | 11.77025 | 111° | 84km/h | 11460m | -10.6m/s | -57.6°C | 42.1% | 222.3hPa | 2.5V | 02:10:00 | 00:00:00 | 00:00:00 | |
| DL6DJ-15 | 2026-09-02 10:56:32 | 47.72672 | 11.76963 | 111° | 88km/h | 11481m | -9.8m/s | -57.8°C | 33.3% | 221.5hPa | 2.7V | 00:00:00 | 00:00:00 | 00:00:00 | |
| OE5WHR-10 | 2026-09-02 10:56:31 | 47.72680 | 11.76932 | 114° | 84km/h | 11491m | -9.6m/s | -57.9°C | 41.5% | 221.3hPa | 2.7V | 00:00:00 | 01:27:40 | 00:00:00 | |
| DB0NH | 2026-09-02 10:56:30 | 47.72689 | 11.76903 | 115° | 51km/h | 11501m | -10.4m/s | -58.0°C | 41.2% | 220.9hPa | 2.7V | 00:00:00 | 01:27:39 | 00:00:00 | |
| OE5MMP-10 | 2026-09-02 10:56:29 | 47.72698 | 11.76874 | 116° | 82km/h | 11511m | -10.4m/s | -58.0°C | 40.9% | 220.5hPa | 2.7V | 00:00:00 | 01:27:38 | 00:00:00 | |
| NBG1-10 | 2026-09-02 10:56:27 | 47.72716 | 11.76820 | 118° | 86km/h | 11533m | -10.7m/s | -58.2°C | 40.3% | 219.8hPa | 2.7V | 02:10:00 | 01:27:36 | 00:00:00 | |
| BAUMI2-15 | 2026-09-02 10:56:26 | 47.72725 | 11.76793 | 118° | 80km/h | 11544m | -10.6m/s | -58.2°C | 40.4% | 219.4hPa | 2.5V | 00:00:00 | 01:27:35 | 00:00:00 | |
| DO3MHA-12 | 2026-09-02 10:56:25 | 47.72735 | 11.76766 | 118° | 84km/h | 11554m | -10.2m/s | -58.2°C | 40.1% | 219.0hPa | 2.5V | 02:10:00 | 01:27:34 | 00:00:00 | |
| DO3MHA-11 | 2026-09-02 10:56:23 | 47.72754 | 11.76712 | 118° | 84km/h | 11575m | -10.3m/s | -58.2°C | 38.9% | 218.3hPa | 2.6V | 00:00:00 | 01:27:32 | 00:00:00 | |
| DG1MFX-10 | 2026-09-02 10:56:22 | 47.72754 | 11.76713 | 118° | 82km/h | 11575m | -10.3m/s | -58.3°C | 30.5% | 218.4hPa | 2.6V | 02:11:00 | 00:00:00 | 00:00:00 | |
| BAUMI2-15 | 2026-09-02 10:56:21 | 47.72772 | 11.76658 | 116° | 84km/h | 11596m | -10.4m/s | -58.3°C | 37.3% | 217.5hPa | 2.6V | 02:10:00 | 01:27:30 | 00:00:00 | |
| IN3HCDX | 2026-09-02 10:56:20 | 47.72781 | 11.76629 | 116° | 84km/h | 11607m | -10.4m/s | -58.4°C | 28.3% | 217.2hPa | 2.5V | 00:00:00 | 00:00:00 | 00:00:00 | |
| OE5MMP-10 | 2026-09-02 10:56:19 | 47.72790 | 11.76600 | 114° | 86km/h | 11617m | -10.6m/s | -58.4°C | 35.6% | 216.8hPa | 2.5V | 00:00:00 | 01:27:28 | 00:00:00 | |
| BAUMI2-15 | 2026-09-02 10:56:16 | 47.72815 | 11.76512 | 113° | 86km/h | 11650m | -11.0m/s | -58.4°C | 32.8% | 215.7hPa | 2.5V | 00:00:00 | 01:27:25 | 00:00:00 | |
| DO3MHA-12 | 2026-09-02 10:56:15 | 47.72823 | 11.76482 | 113° | 86km/h | 11662m | -11.0m/s | -58.2°C | 31.5% | 215.2hPa | 2.5V | 00:00:00 | 01:27:24 | 00:00:00 | |
| PG1ADW-2 | 2026-09-02 10:56:14 | 47.72831 | 11.76453 | 112° | 86km/h | 11672m | -10.9m/s | -57.8°C | 29.6% | 214.8hPa | 2.5V | 00:00:00 | 00:00:00 | 00:00:00 | |
| DO3MHA-11 | 2026-09-02 10:56:13 | 47.72839 | 11.76423 | 113° | 84km/h | 11684m | -11.1m/s | -57.3°C | 27.7% | 214.5hPa | 2.5V | 00:00:00 | 01:27:22 | 00:00:00 | |
| OE5DRO-10 | 2026-09-02 10:56:12 | 47.72848 | 11.76394 | 114° | 88km/h | 11694m | -10.3m/s | -57.0°C | 26.1% | 214.1hPa | 2.5V | 00:00:00 | 00:00:00 | 00:00:00 | |
| BAUMI2-15 | 2026-09-02 10:56:11 | 47.72857 | 11.76364 | 114° | 86km/h | 11705m | -10.4m/s | -56.7°C | 25.0% | 213.8hPa | 2.5V | 00:00:00 | 01:27:20 | 00:00:00 | |
| OE5WHR-10 | 2026-09-02 10:56:10 | 47.72866 | 11.76334 | 115° | 89km/h | 11715m | -9.6m/s | -56.6°C | 24.0% | 213.5hPa | 2.5V | 02:10:00 | 00:00:00 | 00:00:00 | |
| DG1MJG | 2026-09-02 10:56:07 | 47.72884 | 11.76275 | 117° | 86km/h | 11736m | -10.7m/s | -56.3°C | 16.6% | 212.7hPa | 2.6V | 02:11:00 | 00:00:00 | 00:00:00 | |
| BAUMI2-15 | 2026-09-02 10:56:06 | 47.72902 | 11.76219 | 116° | 82km/h | 11759m | -11.9m/s | -55.9°C | 20.9% | 212.0hPa | 2.6V | 02:11:00 | 01:27:15 | 00:00:00 | |
| DO3MHA-12 | 2026-09-02 10:56:05 | 47.72911 | 11.76191 | 116° | 88km/h | 11770m | -11.3m/s | -55.8°C | 20.3% | 211.6hPa | 2.5V | 00:00:00 | 01:27:14 | 00:00:00 | |
| DO3MHA-11 | 2026-09-02 10:56:03 | 47.72929 | 11.76135 | 116° | 89km/h | 11792m | -10.5m/s | -55.5°C | 18.8% | 210.9hPa | 2.5V | 02:11:00 | 01:27:12 | 00:00:00 | |
| BAUMI2-15 | 2026-09-02 10:56:01 | 47.72948 | 11.76079 | 118° | 89km/h | 11815m | -11.1m/s | -55.4°C | 17.8% | 210.2hPa | 2.5V | 00:00:00 | 01:27:10 | 00:00:00 | |
| DH7VM-15 | 2026-09-02 10:56:00 | 47.72948 | 11.76079 | 119° | 86km/h | 11815m | -11.1m/s | -55.4°C | 0% | 0hPa | 2.5V | 00:00:00 | 00:00:00 | 00:00:00 | |
| IN3HCDX | 2026-09-02 10:55:57 | 47.72980 | 11.75992 | 120° | 91km/h | 11848m | -10.6m/s | -55.1°C | 11.6% | 209.1hPa | 2.5V | 00:00:00 | 00:00:00 | 00:00:00 | |
| BAUMI2-15 | 2026-09-02 10:55:56 | 47.73002 | 11.75931 | 119° | 95km/h | 11870m | -11.7m/s | -55.0°C | 15.6% | 208.3hPa | 2.5V | 00:00:00 | 01:27:05 | 00:00:00 | |
| DO3MHA-12 | 2026-09-02 10:55:55 | 47.73013 | 11.75900 | 118° | 97km/h | 11882m | -11.9m/s | -55.0°C | 15.1% | 207.9hPa | 2.5V | 02:11:00 | 01:27:04 | 00:00:00 | |
| PG1ADW-2 | 2026-09-02 10:55:54 | 47.73024 | 11.75868 | 118° | 97km/h | 11894m | -11.3m/s | -54.9°C | 14.9% | 207.5hPa | 2.7V | 00:00:00 | 01:27:03 | 00:00:00 | |
| DO3MHA-11 | 2026-09-02 10:55:53 | 47.73036 | 11.75836 | 119° | 99km/h | 11905m | -10.8m/s | -54.8°C | 14.5% | 207.2hPa | 2.7V | 00:00:00 | 01:27:02 | 00:00:00 | |
| BAUMI2-15 | 2026-09-02 10:55:52 | 47.73059 | 11.75773 | 118° | 95km/h | 11926m | -10.2m/s | -54.6°C | 13.6% | 206.5hPa | 2.7V | 02:11:00 | 01:27:00 | 00:00:00 | |
| OE5MMP-10 | 2026-09-02 10:55:49 | 47.73080 | 11.75711 | 118° | 99km/h | 11948m | -10.4m/s | -54.5°C | 12.8% | 205.8hPa | 2.5V | 00:00:00 | 01:26:58 | 00:00:00 | |
| BAUMI2-15 | 2026-09-02 10:55:46 | 47.73115 | 11.75614 | 118° | 102km/h | 11980m | -11.0m/s | -54.2°C | 11.4% | 204.9hPa | 2.5V | 00:00:00 | 01:26:55 | 00:00:00 | |
| DO3MHA-12 | 2026-09-02 10:55:45 | 47.73127 | 11.75580 | 118° | 97km/h | 11991m | -11.3m/s | -54.3°C | 11.0% | 204.4hPa | 2.5V | 00:00:00 | 01:26:54 | 00:00:00 | |
| OE5DXL-15 | 2026-09-02 10:55:43 | 47.73152 | 11.75512 | 119° | 91km/h | 12013m | -10.6m/s | -54.1°C | 10.3% | 203.7hPa | 2.5V | 00:00:00 | 00:00:00 | 00:00:00 | |
| BAUMI2-15 | 2026-09-02 10:55:41 | 47.73176 | 11.75446 | 119° | 93km/h | 12034m | -10.5m/s | -54.1°C | 10.0% | 203.0hPa | 2.5V | 00:00:00 | 01:26:50 | 00:00:00 | |
| OE5MMP-10 | 2026-09-02 10:55:39 | 47.73200 | 11.75384 | 123° | 93km/h | 12056m | -9.9m/s | -53.7°C | 9.2% | 202.4hPa | 2.5V | 02:11:00 | 01:26:48 | 00:00:00 | |
| BAUMI2-15 | 2026-09-02 10:55:36 | 47.73240 | 11.75301 | 128° | 95km/h | 12087m | -10.7m/s | -53.7°C | 8.7% | 201.5hPa | 2.7V | 02:11:00 | 01:26:45 | 00:00:00 | |
| DO3MHA-12 | 2026-09-02 10:55:35 | 47.73254 | 11.75273 | 128° | 93km/h | 12098m | -10.3m/s | -53.7°C | 8.6% | 201.1hPa | 2.5V | 00:00:00 | 01:26:44 | 00:00:00 | |
| OE5DRO-10 | 2026-09-02 10:55:34 | 47.73269 | 11.75245 | 127° | 89km/h | 12108m | -10.9m/s | -53.7°C | 8.6% | 200.9hPa | 2.5V | 02:11:00 | 00:00:00 | 00:00:00 | |
| DO3MHA-11 | 2026-09-02 10:55:33 | 47.73282 | 11.75215 | 124° | 91km/h | 12119m | -10.4m/s | -53.8°C | 8.5% | 200.5hPa | 2.5V | 02:11:00 | 01:26:42 | 00:00:00 | |
| BAUMI2-15 | 2026-09-02 10:55:31 | 47.73308 | 11.75153 | 120° | 91km/h | 12141m | -11.0m/s | -53.8°C | 8.3% | 199.8hPa | 2.5V | 00:00:00 | 01:26:40 | 00:00:00 | |
| DL6DJ-15 | 2026-09-02 10:55:30 | 47.73319 | 11.75123 | 117° | 91km/h | 12151m | -10.9m/s | -53.9°C | 4.8% | 199.5hPa | 2.5V | 00:00:00 | 00:00:00 | 00:00:00 | |
| OE5MMP-10 | 2026-09-02 10:55:29 | 47.73329 | 11.75093 | 118° | 86km/h | 12162m | -10.3m/s | -53.9°C | 8.0% | 199.1hPa | 2.5V | 00:00:00 | 01:26:38 | 00:00:00 | |
| OE5WHR-10 | 2026-09-02 10:55:28 | 47.73340 | 11.75062 | 116° | 89km/h | 12173m | -11.3m/s | -54.0°C | 7.9% | 198.6hPa | 2.5V | 00:00:00 | 01:26:37 | 00:00:00 | |
| BAUMI2-15 | 2026-09-02 10:55:26 | 47.73360 | 11.75003 | 117° | 84km/h | 12196m | -10.9m/s | -53.9°C | 7.6% | 198.1hPa | 2.5V | 00:00:00 | 01:26:35 | 00:00:00 | |
| DO3MHA-12 | 2026-09-02 10:55:25 | 47.73370 | 11.74973 | 118° | 88km/h | 12208m | -11.3m/s | -53.9°C | 7.3% | 197.8hPa | 2.5V | 02:11:00 | 01:26:34 | 00:00:00 | |
| DO3MHA-11 | 2026-09-02 10:55:23 | 47.73390 | 11.74918 | 120° | 89km/h | 12232m | -11.6m/s | -53.9°C | 7.0% | 197.1hPa | 2.5V | 00:00:00 | 01:26:32 | 00:00:00 | |
| NBG1-10 | 2026-09-02 10:55:21 | 47.73412 | 11.74865 | 125° | 88km/h | 12255m | -10.0m/s | -53.8°C | 6.6% | 196.4hPa | 2.5V | 00:00:00 | 01:26:30 | 00:00:00 | |
| DG1MFX-10 | 2026-09-02 10:55:20 | 47.73412 | 11.74865 | 125° | 84km/h | 12255m | -10.1m/s | -53.8°C | 3.6% | 196.5hPa | 2.5V | 02:12:00 | 00:00:00 | 00:00:00 | |
| OE5MMP-10 | 2026-09-02 10:55:19 | 47.73438 | 11.74813 | 128° | 93km/h | 12278m | -10.9m/s | -53.7°C | 6.3% | 195.7hPa | 2.5V | 00:00:00 | 01:26:28 | 00:00:00 | |
| DF7PN | 2026-09-02 10:55:18 | 47.73482 | 11.74734 | 131° | 93km/h | 12311m | -11.5m/s | -53.4°C | 3.0% | 194.7hPa | 2.5V | 00:00:00 | 00:00:00 | 00:00:00 | |
| BAUMI2-15 | 2026-09-02 10:55:16 | 47.73482 | 11.74734 | 132° | 97km/h | 12311m | -11.5m/s | -53.3°C | 5.9% | 194.6hPa | 2.5V | 00:00:00 | 01:26:25 | 00:00:00 | |
| DO3MHA-12 | 2026-09-02 10:55:15 | 47.73498 | 11.74708 | 133° | 93km/h | 12323m | -11.0m/s | -53.2°C | 5.8% | 194.3hPa | 2.5V | 00:00:00 | 01:26:24 | 00:00:00 | |
| PG1ADW-2 | 2026-09-02 10:55:14 | 47.73514 | 11.74681 | 133° | 89km/h | 12334m | -11.2m/s | -53.0°C | 5.7% | 194.0hPa | 2.5V | 00:00:00 | 00:00:00 | 00:00:00 | |
| DO3MHA-11 | 2026-09-02 10:55:13 | 47.73531 | 11.74654 | 133° | 93km/h | 12345m | -10.6m/s | -52.9°C | 5.6% | 193.8hPa | 2.5V | 00:00:00 | 01:26:22 | 00:00:00 | |
| BAUMI2-15 | 2026-09-02 10:55:11 | 47.73563 | 11.74600 | 132° | 91km/h | 12367m | -10.9m/s | -53.0°C | 5.6% | 193.1hPa | 2.5V | 00:00:00 | 01:26:20 | 00:00:00 | |
| OE5MMP-10 | 2026-09-02 10:55:09 | 47.73595 | 11.74549 | 134° | 89km/h | 12390m | -11.2m/s | -52.8°C | 5.4% | 192.5hPa | 2.5V | 02:12:00 | 01:26:18 | 00:00:00 | |
| OE5WHR-10 | 2026-09-02 10:55:06 | 47.73641 | 11.74475 | 134° | 84km/h | 12425m | -11.6m/s | -52.7°C | 5.1% | 191.5hPa | 2.7V | 02:12:00 | 00:00:00 | 00:00:00 | |
| DO3MHA-12 | 2026-09-02 10:55:05 | 47.73657 | 11.74451 | 135° | 86km/h | 12437m | -11.4m/s | -52.7°C | 5.0% | 191.1hPa | 2.5V | 00:00:00 | 01:26:14 | 00:00:00 | |
| DL9SK-14 | 2026-09-02 10:55:03 | 47.73704 | 11.74377 | 131° | 89km/h | 12477m | -13.0m/s | -52.7°C | 2.3% | 189.9hPa | 2.5V | 00:00:00 | 00:00:00 | 00:00:00 | |
| DL6DJ-15 | 2026-09-02 10:54:59 | 47.73748 | 11.74304 | 130° | 80km/h | 12521m | -14.0m/s | -52.4°C | 2.1% | 188.7hPa | 2.5V | 00:00:00 | 00:00:00 | 00:00:00 | |
| DF7PN | 2026-09-02 10:54:47 | 47.73905 | 11.73987 | 127° | 75km/h | 12713m | -15.1m/s | -53.4°C | 2.0% | 183.2hPa | 2.5V | 00:00:00 | 00:00:00 | 00:00:00 | |
| BAUMI2-15 | 2026-09-02 10:54:46 | 47.73905 | 11.73987 | 128° | 71km/h | 12714m | -15.1m/s | -53.4°C | 4.8% | 183.2hPa | 2.5V | 00:00:00 | 01:25:55 | 00:00:00 | |
| DO3MHA-12 | 2026-09-02 10:54:45 | 47.73917 | 11.73965 | 129° | 69km/h | 12729m | -15.5m/s | -53.2°C | 4.8% | 182.7hPa | 2.5V | 00:00:00 | 01:25:54 | 00:00:00 | |
| OE5DXL-15 | 2026-09-02 10:54:43 | 47.73939 | 11.73924 | 129° | 62km/h | 12759m | -14.9m/s | -52.5°C | 4.5% | 181.8hPa | 2.5V | 00:00:00 | 00:00:00 | 00:00:00 | |
| BAUMI2-15 | 2026-09-02 10:54:41 | 47.73961 | 11.73883 | 128° | 66km/h | 12788m | -14.4m/s | -52.2°C | 4.3% | 181.1hPa | 2.5V | 00:00:00 | 01:25:50 | 00:00:00 | |
| OE5MMP-10 | 2026-09-02 10:54:39 | 47.73982 | 11.73843 | 128° | 66km/h | 12817m | -14.7m/s | -51.9°C | 4.1% | 180.3hPa | 2.5V | 02:12:00 | 01:25:48 | 00:00:00 | |
| OE5DRO-10 | 2026-09-02 10:54:37 | 47.74003 | 11.73803 | 130° | 60km/h | 12846m | -13.0m/s | -52.1°C | 4.1% | 179.5hPa | 2.7V | 02:12:00 | 00:00:00 | 00:00:00 | |
| DO3MHA-12 | 2026-09-02 10:54:35 | 47.74023 | 11.73764 | 129° | 62km/h | 12876m | -15.1m/s | -51.9°C | 4.1% | 178.7hPa | 2.5V | 00:00:00 | 01:25:44 | 00:00:00 | |
| PG1ADW-2 | 2026-09-02 10:54:34 | 47.74034 | 11.73745 | 130° | 58km/h | 12891m | -13.5m/s | -52.0°C | 4.0% | 178.2hPa | 2.5V | 02:12:00 | 01:25:43 | 00:00:00 | |
| DO3MHA-11 | 2026-09-02 10:54:33 | 47.74044 | 11.73726 | 129° | 62km/h | 12905m | -14.2m/s | -51.9°C | 4.0% | 177.8hPa | 2.5V | 02:12:00 | 01:25:42 | 00:00:00 | |
| DL9SK-14 | 2026-09-02 10:54:32 | 47.74063 | 11.73689 | 125° | 60km/h | 12934m | -15.6m/s | -51.6°C | 1.5% | 177.1hPa | 2.5V | 00:00:00 | 00:00:00 | 00:00:00 | |
| OE5MMP-10 | 2026-09-02 10:54:29 | 47.74080 | 11.73649 | 124° | 58km/h | 12963m | -13.5m/s | -51.3°C | 3.9% | 176.2hPa | 2.5V | 00:00:00 | 01:25:38 | 00:00:00 | |
| DL6DJ-15 | 2026-09-02 10:54:28 | 47.74088 | 11.73628 | 120° | 62km/h | 12975m | -12.5m/s | -51.3°C | 1.5% | 175.8hPa | 2.5V | 00:00:00 | 00:00:00 | 00:00:00 | |
| OE5HKT-10 | 2026-09-02 10:54:27 | 47.74096 | 11.73608 | 121° | 57km/h | 12989m | -13.4m/s | -51.2°C | 3.8% | 175.4hPa | 2.5V | 00:00:00 | 01:25:36 | 00:00:00 | |
| DO3MHA-12 | 2026-09-02 10:54:25 | 47.74111 | 11.73569 | 118° | 57km/h | 13013m | -13.1m/s | -51.2°C | 3.8% | 174.8hPa | 2.5V | 02:12:00 | 01:25:34 | 00:00:00 | |
| OE5WHR-10 | 2026-09-02 10:54:24 | 47.74117 | 11.73549 | 116° | 57km/h | 13027m | -14.5m/s | -51.1°C | 3.7% | 174.5hPa | 2.5V | 00:00:00 | 01:25:33 | 00:00:00 | |
| DO3MHA-11 | 2026-09-02 10:54:23 | 47.74124 | 11.73529 | 117° | 55km/h | 13041m | -14.8m/s | -50.9°C | 3.6% | 174.1hPa | 2.5V | 00:00:00 | 01:25:32 | 00:00:00 | |
| OE5MMP-10 | 2026-09-02 10:54:19 | 47.74146 | 11.73452 | 113° | 55km/h | 13097m | -13.1m/s | -50.9°C | 3.6% | 172.5hPa | 2.5V | 00:00:00 | 01:25:28 | 00:00:00 | |
| OE5DRO-10 | 2026-09-02 10:54:18 | 47.74151 | 11.73433 | 111° | 58km/h | 13111m | -14.7m/s | -51.0°C | 3.7% | 172.2hPa | 2.5V | 00:00:00 | 00:00:00 | 00:00:00 | |
| DO3MHA-12 | 2026-09-02 10:54:15 | 47.74164 | 11.73375 | 107° | 57km/h | 13154m | -14.0m/s | -51.1°C | 3.8% | 171.0hPa | 2.5V | 00:00:00 | 01:25:24 | 00:00:00 | |
| PG1ADW-2 | 2026-09-02 10:54:14 | 47.74168 | 11.73356 | 107° | 58km/h | 13168m | -14.2m/s | -51.2°C | 3.8% | 170.8hPa | 2.5V | 00:00:00 | 00:00:00 | 00:00:00 | |
| DO3MHA-11 | 2026-09-02 10:54:13 | 47.74172 | 11.73337 | 106° | 58km/h | 13182m | -14.7m/s | -51.3°C | 3.8% | 170.3hPa | 2.5V | 00:00:00 | 01:25:22 | 00:00:00 | |
| OE5MMP-10 | 2026-09-02 10:54:09 | 47.74185 | 11.73257 | 102° | 60km/h | 13241m | -15.4m/s | -51.8°C | 3.9% | 168.8hPa | 2.5V | 02:13:00 | 01:25:18 | 00:00:00 | |
| OE5HKT-10 | 2026-09-02 10:54:06 | 47.74193 | 11.73192 | 98° | 60km/h | 13287m | -15.1m/s | -52.2°C | 4.0% | 167.5hPa | 2.5V | 02:13:00 | 00:00:00 | 00:00:00 | |
| DO3MHA-12 | 2026-09-02 10:54:05 | 47.74195 | 11.73170 | 97° | 60km/h | 13302m | -15.0m/s | -52.3°C | 4.0% | 167.1hPa | 2.7V | 00:00:00 | 01:25:14 | 00:00:00 | |
| OE5WHR-10 | 2026-09-02 10:54:03 | 47.74200 | 11.73124 | 99° | 60km/h | 13333m | -14.3m/s | -52.5°C | 4.1% | 166.3hPa | 2.7V | 02:13:00 | 00:00:00 | 00:00:00 | |
| DL9SK-14 | 2026-09-02 10:54:01 | 47.74208 | 11.73056 | 100° | 60km/h | 13375m | -13.6m/s | -52.9°C | 1.7% | 165.3hPa | 2.5V | 00:00:00 | 00:00:00 | 00:00:00 | |
| OE5MMP-10 | 2026-09-02 10:53:59 | 47.74211 | 11.73034 | 102° | 60km/h | 13388m | -14.2m/s | -53.0°C | 4.3% | 164.9hPa | 2.5V | 00:00:00 | 01:25:08 | 00:00:00 | |
| DG1MFX-10 | 2026-09-02 10:53:58 | 47.74212 | 11.73034 | 102° | 60km/h | 13388m | -14.3m/s | -53.0°C | 1.7% | 164.9hPa | 2.5V | 02:13:00 | 00:00:00 | 00:00:00 | |
| DO8TBO-1 | 2026-09-02 10:53:57 | 47.74218 | 11.72992 | 101° | 73km/h | 13416m | -13.4m/s | -53.0°C | 4.3% | 164.2hPa | 2.5V | 00:00:00 | 01:25:06 | 00:00:00 | |
| DO3MHA-12 | 2026-09-02 10:53:55 | 47.74223 | 11.72950 | 101° | 60km/h | 13442m | -13.5m/s | -52.7°C | 4.2% | 163.5hPa | 2.5V | 02:13:00 | 01:25:04 | 00:00:00 | |
| PG1ADW-2 | 2026-09-02 10:53:54 | 47.74226 | 11.72928 | 102° | 66km/h | 13456m | -14.1m/s | -52.8°C | 4.1% | 163.1hPa | 2.6V | 00:00:00 | 00:00:00 | 00:00:00 | |
| DO3MHA-11 | 2026-09-02 10:53:53 | 47.74229 | 11.72907 | 101° | 60km/h | 13470m | -14.3m/s | -52.8°C | 4.1% | 162.8hPa | 2.6V | 00:00:00 | 01:25:02 | 00:00:00 | |
| OE5MMP-10 | 2026-09-02 10:53:50 | 47.74242 | 11.72819 | 104° | 64km/h | 13529m | -16.2m/s | -53.0°C | 4.2% | 161.3hPa | 2.6V | 00:00:00 | 01:24:58 | 00:00:00 | |
| DF7PN | 2026-09-02 10:53:45 | 47.74260 | 11.72708 | 100° | 64km/h | 13604m | -14.6m/s | -53.2°C | 1.7% | 159.5hPa | 2.6V | 00:00:00 | 00:00:00 | 00:00:00 | |
| OE5DXL-15 | 2026-09-02 10:53:43 | 47.74263 | 11.72684 | 102° | 77km/h | 13618m | -15.1m/s | -53.2°C | 4.2% | 159.1hPa | 2.6V | 02:13:00 | 00:00:00 | 00:00:00 | |
| OE5WHR-10 | 2026-09-02 10:53:42 | 47.74267 | 11.72659 | 102° | 77km/h | 13633m | -14.1m/s | -53.3°C | 4.3% | 158.7hPa | 2.7V | 00:00:00 | 00:00:00 | 00:00:00 | |
| OE5DRO-10 | 2026-09-02 10:53:40 | 47.74274 | 11.72609 | 103° | 77km/h | 13662m | -15.5m/s | -53.4°C | 4.2% | 158.1hPa | 2.7V | 02:13:00 | 00:00:00 | 00:00:00 | |
| OE5MMP-10 | 2026-09-02 10:53:39 | 47.74278 | 11.72582 | 102° | 75km/h | 13678m | -15.8m/s | -53.5°C | 4.3% | 157.6hPa | 2.5V | 02:13:00 | 01:24:48 | 00:00:00 | |
| DG1MFX-10 | 2026-09-02 10:53:37 | 47.74282 | 11.72556 | 104° | 73km/h | 13693m | -15.5m/s | -53.6°C | 1.7% | 157.3hPa | 2.5V | 02:14:00 | 00:00:00 | 00:00:00 | |
| DO3MHA-12 | 2026-09-02 10:53:35 | 47.74294 | 11.72475 | 103° | 77km/h | 13740m | -14.9m/s | -53.8°C | 4.4% | 156.1hPa | 2.5V | 00:00:00 | 01:24:44 | 00:00:00 | |
| PG1ADW-2 | 2026-09-02 10:53:34 | 47.74298 | 11.72448 | 103° | 78km/h | 13755m | -15.7m/s | -53.9°C | 4.5% | 155.7hPa | 2.5V | 02:13:00 | 00:00:00 | 00:00:00 | |
| DO3MHA-11 | 2026-09-02 10:53:33 | 47.74303 | 11.72421 | 103° | 78km/h | 13771m | -15.9m/s | -54.0°C | 4.5% | 155.4hPa | 2.5V | 02:13:00 | 01:24:42 | 00:00:00 | |
| DL9SK-14 | 2026-09-02 10:53:30 | 47.74321 | 11.72311 | 104° | 77km/h | 13831m | -16.3m/s | -54.3°C | 1.7% | 154.0hPa | 2.7V | 00:00:00 | 00:00:00 | 00:00:00 | |
| OE5MMP-10 | 2026-09-02 10:53:29 | 47.74321 | 11.72311 | 105° | 80km/h | 13831m | -16.2m/s | -54.2°C | 4.5% | 153.9hPa | 2.7V | 00:00:00 | 01:24:38 | 00:00:00 | |
| DL6DJ-15 | 2026-09-02 10:53:26 | 47.74339 | 11.72227 | 109° | 77km/h | 13877m | -15.0m/s | -54.3°C | 1.6% | 152.8hPa | 2.7V | 00:00:00 | 00:00:00 | 00:00:00 | |
| DO3MHA-12 | 2026-09-02 10:53:25 | 47.74346 | 11.72200 | 110° | 80km/h | 13892m | -15.5m/s | -54.3°C | 4.5% | 152.4hPa | 2.7V | 02:13:00 | 01:24:34 | 00:00:00 | |
| DO3MHA-11 | 2026-09-02 10:53:23 | 47.74360 | 11.72144 | 115° | 78km/h | 13923m | -13.5m/s | -54.4°C | 4.5% | 151.6hPa | 2.5V | 00:00:00 | 01:24:32 | 00:00:00 | |
| DO8TBO-1 | 2026-09-02 10:53:21 | 47.74377 | 11.72088 | 115° | 68km/h | 13954m | -15.4m/s | -54.3°C | 4.5% | 151.0hPa | 2.5V | 00:00:00 | 01:24:30 | 00:00:00 | |
| OE5WHR-10 | 2026-09-02 10:53:20 | 47.74386 | 11.72060 | 114° | 69km/h | 13970m | -15.6m/s | -54.4°C | 4.5% | 150.6hPa | 2.5V | 00:00:00 | 01:24:29 | 00:00:00 | |
| OE5MMP-10 | 2026-09-02 10:53:19 | 47.74394 | 11.72032 | 115° | 73km/h | 13985m | -15.6m/s | -54.4°C | 4.5% | 150.2hPa | 2.5V | 00:00:00 | 01:24:28 | 00:00:00 | |
| DO3MHA-12 | 2026-09-02 10:53:15 | 47.74426 | 11.71926 | 114° | 68km/h | 14049m | -16.4m/s | -53.7°C | 4.2% | 148.9hPa | 2.5V | 00:00:00 | 01:24:24 | 00:00:00 | |
| OE5HKT-10 | 2026-09-02 10:53:14 | 47.74433 | 11.71901 | 115° | 64km/h | 14066m | -16.4m/s | -53.7°C | 4.2% | 148.5hPa | 2.5V | 00:00:00 | 01:24:23 | 00:00:00 | |
| DO3MHA-11 | 2026-09-02 10:53:13 | 47.74440 | 11.71877 | 112° | 66km/h | 14082m | -16.2m/s | -53.7°C | 4.2% | 148.0hPa | 2.5V | 00:00:00 | 01:24:22 | 00:00:00 | |
| NBG1-10 | 2026-09-02 10:53:09 | 47.74464 | 11.71782 | 112° | 60km/h | 14147m | -15.1m/s | -53.9°C | 4.3% | 146.6hPa | 2.5V | 02:14:00 | 01:24:18 | 00:00:00 | |
| DO3MHA-12 | 2026-09-02 10:53:05 | 47.74487 | 11.71691 | 109° | 64km/h | 14209m | -15.2m/s | -54.0°C | 4.4% | 145.1hPa | 2.5V | 00:00:00 | 01:24:14 | 00:00:00 | |
| DO3MHA-11 | 2026-09-02 10:53:03 | 47.74498 | 11.71645 | 110° | 62km/h | 14239m | -15.8m/s | -53.8°C | 4.2% | 144.4hPa | 2.5V | 02:14:00 | 01:24:12 | 00:00:00 | |
| OE5DRO-10 | 2026-09-02 10:53:02 | 47.74503 | 11.71622 | 108° | 58km/h | 14255m | -15.2m/s | -53.6°C | 4.2% | 144.1hPa | 2.5V | 00:00:00 | 00:00:00 | 00:00:00 | |
| OE5MMP-10 | 2026-09-02 10:52:59 | 47.74517 | 11.71554 | 106° | 58km/h | 14301m | -13.5m/s | -53.4°C | 4.1% | 143.0hPa | 2.5V | 00:00:00 | 01:24:08 | 00:00:00 | |
| OE5WHR-10 | 2026-09-02 10:52:58 | 47.74521 | 11.71532 | 108° | 57km/h | 14315m | -14.5m/s | -53.4°C | 4.1% | 142.8hPa | 2.5V | 02:14:00 | 00:00:00 | 00:00:00 | |
| DG1MFX-10 | 2026-09-02 10:52:57 | 47.74521 | 11.71532 | 108° | 60km/h | 14315m | -14.6m/s | -53.5°C | 1.5% | 142.8hPa | 2.5V | 02:15:00 | 00:00:00 | 00:00:00 | |
| DO3MHA-12 | 2026-09-02 10:52:55 | 47.74533 | 11.71467 | 104° | 57km/h | 14358m | -14.7m/s | -53.4°C | 4.1% | 141.7hPa | 2.5V | 02:14:00 | 01:24:04 | 00:00:00 | |
| PG1ADW-2 | 2026-09-02 10:52:54 | 47.74537 | 11.71446 | 106° | 57km/h | 14373m | -15.1m/s | -53.2°C | 4.0% | 141.5hPa | 2.6V | 00:00:00 | 00:00:00 | 00:00:00 | |
| OE5HKT-10 | 2026-09-02 10:52:53 | 47.74540 | 11.71425 | 105° | 57km/h | 14387m | -14.6m/s | -53.1°C | 4.0% | 141.2hPa | 2.6V | 02:14:00 | 00:00:00 | 00:00:00 | |
| DO8TBO-1 | 2026-09-02 10:52:51 | 47.74547 | 11.71384 | 106° | 58km/h | 14417m | -13.8m/s | -52.7°C | 3.8% | 140.5hPa | 2.7V | 02:14:00 | 01:24:00 | 00:00:00 | |
| OE5MMP-10 | 2026-09-02 10:52:49 | 47.74554 | 11.71344 | 103° | 55km/h | 14444m | -14.7m/s | -52.8°C | 3.9% | 139.9hPa | 2.5V | 00:00:00 | 01:23:58 | 00:00:00 | |
| DK5PH-5 | 2026-09-02 10:52:46 | 47.74563 | 11.71283 | 102° | 58km/h | 14487m | -14.9m/s | -53.0°C | 3.9% | 138.9hPa | 2.5V | 00:00:00 | 01:23:55 | 00:00:00 | |
| DO3MHA-12 | 2026-09-02 10:52:45 | 47.74565 | 11.71262 | 102° | 57km/h | 14503m | -14.7m/s | -53.1°C | 3.9% | 138.7hPa | 2.5V | 00:00:00 | 01:23:54 | 00:00:00 | |
| OE5DXL-15 | 2026-09-02 10:52:43 | 47.74570 | 11.71221 | 99° | 58km/h | 14533m | -15.0m/s | -53.3°C | 4.0% | 138.0hPa | 2.5V | 00:00:00 | 00:00:00 | 00:00:00 | |
| DF7PN | 2026-09-02 10:52:42 | 47.74572 | 11.71201 | 99° | 53km/h | 14548m | -13.2m/s | -53.4°C | 1.4% | 137.8hPa | 2.5V | 00:00:00 | 00:00:00 | 00:00:00 | |
| DH7VM-15 | 2026-09-02 10:52:40 | 47.74574 | 11.71180 | 98° | 57km/h | 14561m | -12.9m/s | -53.5°C | 0% | 0hPa | 2.5V | 00:00:00 | 00:00:00 | 00:00:00 | |
| OE5WHR-10 | 2026-09-02 10:52:37 | 47.74578 | 11.71094 | 91° | 58km/h | 14622m | -15.2m/s | -53.7°C | 4.1% | 136.1hPa | 2.5V | 00:00:00 | 00:00:00 | 00:00:00 | |
| NBG1-10 | 2026-09-02 10:52:36 | 47.74578 | 11.71072 | 93° | 57km/h | 14637m | -13.8m/s | -53.8°C | 4.1% | 135.8hPa | 2.5V | 00:00:00 | 01:23:45 | 00:00:00 | |
| DO3MHA-11 | 2026-09-02 10:52:35 | 47.74580 | 11.71002 | 94° | 60km/h | 14679m | -13.6m/s | -53.9°C | 4.1% | 134.9hPa | 2.5V | 02:14:00 | 01:23:42 | 00:00:00 | |
| OE5HKT-10 | 2026-09-02 10:52:34 | 47.74581 | 11.70979 | 96° | 57km/h | 14693m | -15.4m/s | -53.7°C | 4.0% | 134.7hPa | 2.7V | 00:00:00 | 00:00:00 | 00:00:00 | |
| BAUMI2-15 | 2026-09-02 10:52:30 | 47.74585 | 11.70935 | 98° | 60km/h | 14724m | -14.9m/s | -53.7°C | 4.0% | 134.0hPa | 2.7V | 00:00:00 | 01:23:39 | 00:00:00 | |
| OE5MMP-10 | 2026-09-02 10:52:29 | 47.74587 | 11.70912 | 99° | 60km/h | 14737m | -13.5m/s | -53.7°C | 4.0% | 133.7hPa | 2.7V | 00:00:00 | 01:23:38 | 00:00:00 | |
| DL9SK-14 | 2026-09-02 10:52:27 | 47.74594 | 11.70867 | 103° | 62km/h | 14767m | -15.2m/s | -53.8°C | 1.3% | 133.2hPa | 2.7V | 00:00:00 | 00:00:00 | 00:00:00 | |
| DO3MHA-12 | 2026-09-02 10:52:25 | 47.74602 | 11.70823 | 107° | 57km/h | 14798m | -14.5m/s | -53.9°C | 4.0% | 132.5hPa | 2.7V | 02:14:00 | 01:23:34 | 00:00:00 | |
| DL6DJ-15 | 2026-09-02 10:52:24 | 47.74606 | 11.70801 | 107° | 58km/h | 14812m | -14.7m/s | -54.0°C | 1.3% | 132.2hPa | 2.7V | 00:00:00 | 00:00:00 | 00:00:00 | |
| DO3MHA-11 | 2026-09-02 10:52:23 | 47.74610 | 11.70780 | 107° | 57km/h | 14828m | -16.2m/s | -54.0°C | 4.1% | 131.9hPa | 2.7V | 00:00:00 | 01:23:32 | 00:00:00 | |
| DO8TBO-1 | 2026-09-02 10:52:21 | 47.74620 | 11.70738 | 111° | 55km/h | 14859m | -14.2m/s | -54.1°C | 4.1% | 131.2hPa | 2.7V | 00:00:00 | 01:23:30 | 00:00:00 | |
| BAUMI2-15 | 2026-09-02 10:52:20 | 47.74624 | 11.70717 | 109° | 55km/h | 14874m | -12.7m/s | -54.1°C | 4.2% | 130.9hPa | 2.7V | 02:14:00 | 01:23:29 | 00:00:00 | |
| OE5MMP-10 | 2026-09-02 10:52:19 | 47.74629 | 11.70697 | 109° | 53km/h | 14886m | -11.6m/s | -54.1°C | 4.2% | 130.6hPa | 2.5V | 00:00:00 | 01:23:28 | 00:00:00 | |
| OE5WHR-10 | 2026-09-02 10:52:16 | 47.74641 | 11.70638 | 106° | 55km/h | 14926m | -15.0m/s | -54.2°C | 4.1% | 129.9hPa | 2.5V | 00:00:00 | 01:23:25 | 00:00:00 | |
| DO3MHA-12 | 2026-09-02 10:52:15 | 47.74645 | 11.70619 | 106° | 51km/h | 14941m | -15.1m/s | -54.0°C | 4.1% | 129.7hPa | 2.5V | 00:00:00 | 01:23:24 | 00:00:00 | |
| PG1ADW-2 | 2026-09-02 10:52:14 | 47.74648 | 11.70599 | 107° | 55km/h | 14956m | -15.0m/s | -53.8°C | 4.0% | 129.3hPa | 2.5V | 00:00:00 | 00:00:00 | 00:00:00 | |
| DO3MHA-11 | 2026-09-02 10:52:13 | 47.74652 | 11.70580 | 107° | 51km/h | 14971m | -15.5m/s | -53.8°C | 3.9% | 129.0hPa | 2.5V | 00:00:00 | 01:23:22 | 00:00:00 | |
| OE5HKT-10 | 2026-09-02 10:52:11 | 47.74659 | 11.70543 | 105° | 57km/h | 15002m | -15.5m/s | -53.7°C | 3.9% | 128.4hPa | 2.5V | 00:00:00 | 01:23:20 | 00:00:00 | |
| BAUMI2-15 | 2026-09-02 10:52:10 | 47.74662 | 11.70525 | 104° | 49km/h | 15017m | -16.1m/s | -53.8°C | 3.9% | 128.1hPa | 2.5V | 00:00:00 | 01:23:19 | 00:00:00 | |
| OE5MMP-10 | 2026-09-02 10:52:09 | 47.74664 | 11.70508 | 102° | 53km/h | 15033m | -16.6m/s | -53.9°C | 3.9% | 127.7hPa | 2.5V | 02:15:00 | 01:23:18 | 00:00:00 | |
| DO3MHA-12 | 2026-09-02 10:52:05 | 47.74671 | 11.70432 | 96° | 58km/h | 15096m | -17.4m/s | -54.1°C | 4.0% | 126.4hPa | 2.5V | 00:00:00 | 01:23:14 | 00:00:00 | |
| DB0UT-7 | 2026-09-02 10:52:04 | 47.74673 | 11.70412 | 97° | 62km/h | 15113m | -16.3m/s | -54.2°C | 4.0% | 126.1hPa | 2.5V | 00:00:00 | 01:23:13 | 00:00:00 | |
| DO3MHA-11 | 2026-09-02 10:52:03 | 47.74674 | 11.70392 | 95° | 60km/h | 15129m | -16.9m/s | -54.2°C | 4.0% | 125.8hPa | 2.5V | 02:15:00 | 01:23:12 | 00:00:00 | |
| BAUMI2-15 | 2026-09-02 10:52:01 | 47.74678 | 11.70328 | 100° | 60km/h | 15178m | -16.2m/s | -54.2°C | 4.0% | 124.8hPa | 2.5V | 00:00:00 | 01:23:09 | 00:00:00 | |
| DG1MFX-10 | 2026-09-02 10:51:59 | 47.74688 | 11.70238 | 102° | 62km/h | 15245m | -16.3m/s | -54.1°C | 1.2% | 123.6hPa | 2.5V | 02:15:00 | 00:00:00 | 00:00:00 | |
| BAUMI2-15 | 2026-09-02 10:51:58 | 47.74690 | 11.70214 | 101° | 62km/h | 15261m | -17.3m/s | -54.0°C | 4.0% | 123.2hPa | 2.5V | 00:00:00 | 01:23:04 | 00:00:00 | |
| DO3MHA-12 | 2026-09-02 10:51:57 | 47.74690 | 11.70214 | 101° | 62km/h | 15261m | -17.3m/s | -54.0°C | 4.0% | 123.2hPa | 2.5V | 02:15:00 | 01:23:04 | 00:00:00 | |
| OE5WHR-10 | 2026-09-02 10:51:55 | 47.74690 | 11.70214 | 101° | 64km/h | 15261m | -17.3m/s | -54.0°C | 4.0% | 123.2hPa | 2.5V | 02:15:00 | 00:00:00 | 00:00:00 | |
| PG1ADW-2 | 2026-09-02 10:51:54 | 47.74693 | 11.70191 | 101° | 64km/h | 15278m | -17.5m/s | -54.0°C | 4.0% | 122.9hPa | 2.5V | 00:00:00 | 01:23:03 | 00:00:00 | |
| DO3MHA-11 | 2026-09-02 10:51:53 | 47.74696 | 11.70169 | 101° | 62km/h | 15296m | -18.3m/s | -54.0°C | 4.0% | 122.6hPa | 2.5V | 00:00:00 | 01:23:02 | 00:00:00 | |
| DO8TBO-1 | 2026-09-02 10:51:51 | 47.74701 | 11.70124 | 97° | 69km/h | 15331m | -18.0m/s | -54.2°C | 4.1% | 121.9hPa | 2.5V | 00:00:00 | 01:23:00 | 00:00:00 | |
| OE5HKT-10 | 2026-09-02 10:51:50 | 47.74703 | 11.70101 | 97° | 68km/h | 15348m | -18.1m/s | -54.3°C | 4.0% | 121.6hPa | 2.5V | 02:15:00 | 00:00:00 | 00:00:00 | |
| OE5MMP-10 | 2026-09-02 10:51:49 | 47.74705 | 11.70078 | 97° | 62km/h | 15366m | -17.4m/s | -54.3°C | 4.1% | 121.3hPa | 2.7V | 00:00:00 | 01:22:58 | 00:00:00 | |
| DK5PH-5 | 2026-09-02 10:51:46 | 47.74709 | 11.70008 | 94° | 71km/h | 15418m | -17.9m/s | -54.3°C | 4.1% | 120.2hPa | 2.7V | 02:15:00 | 01:22:55 | 00:00:00 | |
| DO3MHA-12 | 2026-09-02 10:51:45 | 47.74710 | 11.69986 | 92° | 64km/h | 15436m | -18.6m/s | -54.4°C | 4.1% | 119.9hPa | 2.5V | 00:00:00 | 01:22:54 | 00:00:00 | |
| DO3MHA-11 | 2026-09-02 10:51:43 | 47.74710 | 11.69939 | 90° | 66km/h | 15474m | -19.6m/s | -54.5°C | 4.2% | 119.2hPa | 2.5V | 00:00:00 | 01:22:52 | 00:00:00 | |
| BAUMI2-15 | 2026-09-02 10:51:40 | 47.74711 | 11.69867 | 91° | 66km/h | 15527m | -16.7m/s | -54.6°C | 4.2% | 118.2hPa | 2.5V | 00:00:00 | 01:22:49 | 00:00:00 | |
| OE5MMP-10 | 2026-09-02 10:51:39 | 47.74712 | 11.69843 | 93° | 71km/h | 15544m | -17.2m/s | -54.7°C | 4.2% | 118.0hPa | 2.5V | 02:15:00 | 01:22:48 | 00:00:00 | |
| DO3MHA-12 | 2026-09-02 10:51:35 | 47.74716 | 11.69743 | 94° | 77km/h | 15615m | -16.6m/s | -54.9°C | 4.4% | 116.6hPa | 2.7V | 00:00:00 | 01:22:44 | 00:00:00 | |
| OE5WHR-10 | 2026-09-02 10:51:34 | 47.74717 | 11.69716 | 96° | 75km/h | 15632m | -19.1m/s | -54.7°C | 4.3% | 116.3hPa | 2.7V | 00:00:00 | 00:00:00 | 00:00:00 | |
| DO3MHA-11 | 2026-09-02 10:51:33 | 47.74719 | 11.69689 | 95° | 77km/h | 15651m | -18.5m/s | -54.5°C | 4.2% | 115.9hPa | 2.7V | 02:15:00 | 01:22:42 | 00:00:00 | |
| DG1MJG | 2026-09-02 10:51:32 | 47.74718 | 11.69689 | 95° | 75km/h | 15651m | -18.5m/s | -54.5°C | 1.3% | 116.0hPa | 2.5V | 02:15:00 | 00:00:00 | 00:00:00 | |
| BAUMI2-15 | 2026-09-02 10:51:30 | 47.74724 | 11.69603 | 96° | 78km/h | 15705m | -17.0m/s | -54.2°C | 4.2% | 114.9hPa | 2.5V | 00:00:00 | 01:22:39 | 00:00:00 | |
| OE5MMP-10 | 2026-09-02 10:51:29 | 47.74726 | 11.69575 | 96° | 77km/h | 15722m | -17.9m/s | -54.2°C | 4.2% | 114.7hPa | 2.5V | 00:00:00 | 01:22:38 | 00:00:00 | |
| OE5DRO-10 | 2026-09-02 10:51:27 | 47.74730 | 11.69516 | 97° | 71km/h | 15756m | -18.2m/s | -54.1°C | 4.1% | 114.0hPa | 2.5V | 00:00:00 | 00:00:00 | 00:00:00 | |
| DO3MHA-12 | 2026-09-02 10:51:25 | 47.74736 | 11.69458 | 99° | 75km/h | 15792m | -18.8m/s | -53.8°C | 3.9% | 113.4hPa | 2.5V | 02:15:00 | 01:22:34 | 00:00:00 | |
| DL6DJ-15 | 2026-09-02 10:51:24 | 47.74749 | 11.69344 | 101° | 75km/h | 15867m | -18.9m/s | -53.5°C | 1.1% | 112.2hPa | 2.6V | 00:00:00 | 00:00:00 | 00:00:00 | |
| DO8TBO-1 | 2026-09-02 10:51:22 | 47.74749 | 11.69344 | 102° | 55km/h | 15868m | -18.8m/s | -53.5°C | 3.8% | 112.1hPa | 2.6V | 02:15:00 | 01:22:30 | 00:00:00 | |
| BAUMI2-15 | 2026-09-02 10:51:20 | 47.74753 | 11.69317 | 102° | 73km/h | 15886m | -18.3m/s | -53.5°C | 3.8% | 111.8hPa | 2.6V | 02:15:00 | 01:22:29 | 00:00:00 | |
| OE5MMP-10 | 2026-09-02 10:51:19 | 47.74757 | 11.69289 | 105° | 69km/h | 15904m | -18.4m/s | -53.5°C | 3.8% | 111.5hPa | 2.6V | 00:00:00 | 01:22:28 | 00:00:00 | |
| BAUMI2-15 | 2026-09-02 10:51:16 | 47.74779 | 11.69186 | 110° | 68km/h | 15972m | -13.9m/s | -53.6°C | 4.0% | 110.2hPa | 2.6V | 00:00:00 | 01:22:24 | 00:00:00 | |
| DO3MHA-12 | 2026-09-02 10:51:15 | 47.74779 | 11.69186 | 110° | 64km/h | 15972m | -13.9m/s | -53.6°C | 4.0% | 110.2hPa | 2.6V | 00:00:00 | 01:22:24 | 00:00:00 | |
| PG1ADW-2 | 2026-09-02 10:51:14 | 47.74784 | 11.69161 | 112° | 66km/h | 15986m | -13.9m/s | -53.6°C | 4.0% | 110.0hPa | 2.6V | 00:00:00 | 00:00:00 | 00:00:00 | |
| DO3MHA-11 | 2026-09-02 10:51:13 | 47.74791 | 11.69138 | 112° | 60km/h | 15999m | -12.0m/s | -53.7°C | 4.0% | 109.7hPa | 2.6V | 00:00:00 | 01:22:22 | 00:00:00 | |
| BAUMI2-15 | 2026-09-02 10:51:10 | 47.74809 | 11.69070 | 112° | 58km/h | 16043m | -16.6m/s | -53.5°C | 3.9% | 109.0hPa | 2.6V | 00:00:00 | 01:22:19 | 00:00:00 | |
| OE5MMP-10 | 2026-09-02 10:51:09 | 47.74814 | 11.69049 | 110° | 55km/h | 16060m | -18.0m/s | -53.6°C | 3.9% | 108.9hPa | 2.6V | 02:16:00 | 01:22:18 | 00:00:00 | |
| OE5HKT-10 | 2026-09-02 10:51:08 | 47.74820 | 11.69028 | 110° | 44km/h | 16078m | -17.5m/s | -53.7°C | 3.9% | 108.4hPa | 2.6V | 00:00:00 | 01:22:17 | 00:00:00 | |
| DO3MHA-12 | 2026-09-02 10:51:05 | 47.74834 | 11.68967 | 111° | 47km/h | 16127m | -16.2m/s | -53.8°C | 3.9% | 107.6hPa | 2.6V | 00:00:00 | 01:22:14 | 00:00:00 | |
| DB0UT-7 | 2026-09-02 10:51:04 | 47.74840 | 11.68948 | 114° | 37km/h | 16145m | -17.9m/s | -53.8°C | 3.8% | 107.4hPa | 2.6V | 00:00:00 | 01:22:13 | 00:00:00 | |
| DO3MHA-11 | 2026-09-02 10:51:03 | 47.74845 | 11.68930 | 115° | 44km/h | 16164m | -19.8m/s | -53.8°C | 3.9% | 107.1hPa | 2.6V | 02:16:00 | 01:22:12 | 00:00:00 | |
| DL9SK-14 | 2026-09-02 10:50:54 | 47.74894 | 11.68801 | 116° | 35km/h | 16320m | -17.7m/s | -54.0°C | 1.2% | 104.5hPa | 2.6V | 00:00:00 | 00:00:00 | 00:00:00 | |
| DL6DJ-15 | 2026-09-02 10:50:51 | 47.74906 | 11.68757 | 104° | 29km/h | 16392m | -18.1m/s | -54.0°C | 1.1% | 103.2hPa | 2.6V | 00:00:00 | 00:00:00 | 00:00:00 | |
| BAUMI2-15 | 2026-09-02 10:50:50 | 47.74906 | 11.68757 | 105° | 29km/h | 16392m | -18.1m/s | -54.0°C | 3.9% | 103.2hPa | 2.6V | 02:16:00 | 01:21:59 | 00:00:00 | |
| OE5MMP-10 | 2026-09-02 10:50:49 | 47.74908 | 11.68745 | 101° | 29km/h | 16409m | -17.3m/s | -54.0°C | 3.9% | 102.9hPa | 2.7V | 00:00:00 | 01:21:58 | 00:00:00 | |
| OE5HKT-10 | 2026-09-02 10:50:47 | 47.74910 | 11.68725 | 96° | 37km/h | 16442m | -14.5m/s | -54.2°C | 0% | 102.3hPa | 2.7V | 02:16:00 | 00:00:00 | 00:00:00 | |
| DK5PH-5 | 2026-09-02 10:50:46 | 47.74911 | 11.68714 | 97° | 37km/h | 16456m | -13.2m/s | -54.3°C | 4.1% | 102.1hPa | 2.5V | 00:00:00 | 01:21:55 | 00:00:00 | |
| DO3MHA-12 | 2026-09-02 10:50:45 | 47.74912 | 11.68704 | 90° | 35km/h | 16470m | -15.6m/s | -54.4°C | 4.1% | 101.9hPa | 2.5V | 00:00:00 | 01:21:54 | 00:00:00 | |
| OE5DXL-15 | 2026-09-02 10:50:43 | 47.74911 | 11.68682 | 89° | 38km/h | 16502m | -15.7m/s | -54.4°C | 4.0% | 101.4hPa | 2.5V | 02:16:00 | 00:00:00 | 00:00:00 | |
| BAUMI2-15 | 2026-09-02 10:50:40 | 47.74911 | 11.68646 | 90° | 37km/h | 16548m | -17.2m/s | -54.7°C | 4.0% | 100.6hPa | 2.7V | 00:00:00 | 01:21:49 | 00:00:00 | |
| OE5MMP-10 | 2026-09-02 10:50:39 | 47.74911 | 11.68632 | 89° | 40km/h | 16566m | -18.4m/s | -54.7°C | 4.1% | 100.4hPa | 2.7V | 02:16:00 | 01:21:48 | 00:00:00 | |
| DF7PN | 2026-09-02 10:50:38 | 47.74911 | 11.68618 | 91° | 37km/h | 16584m | -18.0m/s | -54.8°C | 1.2% | 100.1hPa | 2.7V | 00:00:00 | 00:00:00 | 00:00:00 | |
| DO3MHA-12 | 2026-09-02 10:50:35 | 47.74911 | 11.68575 | 88° | 40km/h | 16633m | -14.7m/s | -54.7°C | 4.1% | 99.3hPa | 2.7V | 00:00:00 | 01:21:44 | 00:00:00 | |
| DB0UT-7 | 2026-09-02 10:50:34 | 47.74911 | 11.68560 | 87° | 40km/h | 16646m | -11.3m/s | -54.6°C | 4.1% | 99.0hPa | 2.7V | 00:00:00 | 00:00:00 | 00:00:00 | |
| DO3MHA-11 | 2026-09-02 10:50:33 | 47.74910 | 11.68546 | 89° | 40km/h | 16656m | -10.2m/s | -54.4°C | 4.1% | 98.8hPa | 2.7V | 02:16:00 | 01:21:42 | 00:00:00 | |
| OE5WHR-10 | 2026-09-02 10:50:31 | 47.74909 | 11.68515 | 85° | 40km/h | 16677m | -11.2m/s | -54.3°C | 4.0% | 98.6hPa | 2.6V | 00:00:00 | 00:00:00 | 00:00:00 | |
| OE5DRO-10 | 2026-09-02 10:50:30 | 47.74908 | 11.68500 | 88° | 40km/h | 16687m | -9.9m/s | -54.4°C | 4.0% | 98.4hPa | 2.6V | 00:00:00 | 00:00:00 | 00:00:00 | |
| OE5MMP-10 | 2026-09-02 10:50:29 | 47.74908 | 11.68484 | 89° | 38km/h | 16698m | -11.5m/s | -54.4°C | 4.0% | 98.2hPa | 2.6V | 00:00:00 | 01:21:38 | 00:00:00 | |
| OE5HKT-10 | 2026-09-02 10:50:26 | 47.74908 | 11.68440 | 96° | 40km/h | 16738m | -12.9m/s | 0°C | 0% | 0hPa | 2.6V | 00:00:00 | 00:00:00 | 00:00:00 | |
| DO3MHA-12 | 2026-09-02 10:50:25 | 47.74909 | 11.68426 | 92° | 40km/h | 16749m | -10.4m/s | -54.5°C | 4.0% | 97.5hPa | 2.6V | 02:16:00 | 01:21:34 | 00:00:00 | |
| NBG1-10 | 2026-09-02 10:50:24 | 47.74909 | 11.68412 | 88° | 40km/h | 16760m | -10.1m/s | -54.5°C | 4.0% | 97.3hPa | 2.6V | 00:00:00 | 01:21:33 | 00:00:00 | |
| DO3MHA-11 | 2026-09-02 10:50:23 | 47.74908 | 11.68398 | 86° | 40km/h | 16770m | -11.5m/s | -54.5°C | 3.9% | 97.2hPa | 2.6V | 00:00:00 | 01:21:32 | 00:00:00 | |
| IN3HCDX | 2026-09-02 10:50:21 | 47.74908 | 11.68384 | 88° | 37km/h | 16781m | -9.1m/s | -54.4°C | 1.0% | 97.0hPa | 2.6V | 00:00:00 | 00:00:00 | 00:00:00 | |
| DL6DJ-15 | 2026-09-02 10:50:20 | 47.74904 | 11.68342 | 81° | 38km/h | 16812m | -11.8m/s | -54.5°C | 1.0% | 96.5hPa | 2.6V | 00:00:00 | 00:00:00 | 00:00:00 | |
| OE5MMP-10 | 2026-09-02 10:50:19 | 47.74903 | 11.68342 | 82° | 42km/h | 16812m | -11.8m/s | -54.4°C | 3.9% | 96.5hPa | 2.6V | 00:00:00 | 01:21:28 | 00:00:00 | |
| DK5PH-5 | 2026-09-02 10:50:16 | 47.74899 | 11.68295 | 83° | 42km/h | 16845m | -11.6m/s | -54.7°C | 4.0% | 96.0hPa | 2.6V | 02:16:00 | 01:21:25 | 00:00:00 | |
| OE5DXL-15 | 2026-09-02 10:50:15 | 47.74896 | 11.68247 | 87° | 42km/h | 16875m | -9.5m/s | -54.9°C | 4.0% | 95.6hPa | 2.6V | 00:00:00 | 00:00:00 | 00:00:00 | |
| DO3MHA-11 | 2026-09-02 10:50:14 | 47.74896 | 11.68247 | 87° | 38km/h | 16875m | -9.5m/s | -54.9°C | 4.0% | 95.6hPa | 2.6V | 00:00:00 | 01:21:22 | 00:00:00 | |
| OE5DRO-10 | 2026-09-02 10:50:11 | 47.74896 | 11.68217 | 92° | 38km/h | 16894m | -8.8m/s | -54.9°C | 4.0% | 95.2hPa | 2.6V | 00:00:00 | 00:00:00 | 00:00:00 | |
| OE5WHR-10 | 2026-09-02 10:50:10 | 47.74897 | 11.68202 | 97° | 40km/h | 16902m | -7.2m/s | -54.9°C | 4.0% | 95.1hPa | 2.6V | 00:00:00 | 01:21:19 | 00:00:00 | |
| OE5MMP-10 | 2026-09-02 10:50:09 | 47.74898 | 11.68187 | 100° | 35km/h | 16910m | -9.3m/s | -54.9°C | 4.0% | 95.0hPa | 2.6V | 02:17:00 | 01:21:18 | 00:00:00 | |
| DF7PN | 2026-09-02 10:50:07 | 47.74901 | 11.68160 | 99° | 35km/h | 16929m | -10.3m/s | -54.9°C | 1.0% | 94.8hPa | 2.6V | 00:00:00 | 00:00:00 | 00:00:00 | |
| DO3MHA-12 | 2026-09-02 10:50:05 | 47.74903 | 11.68134 | 92° | 38km/h | 16952m | -10.0m/s | -54.9°C | 4.1% | 94.4hPa | 2.6V | 00:00:00 | 01:21:14 | 00:00:00 | |
| DB0UT-7 | 2026-09-02 10:50:04 | 47.74903 | 11.68121 | 87° | 46km/h | 16962m | -9.8m/s | -54.9°C | 4.1% | 94.3hPa | 2.6V | 02:17:00 | 01:21:13 | 00:00:00 | |
| DO3MHA-11 | 2026-09-02 10:50:03 | 47.74903 | 11.68109 | 84° | 40km/h | 16972m | -10.2m/s | -54.8°C | 4.0% | 94.2hPa | 2.6V | 02:17:00 | 01:21:12 | 00:00:00 | |
| DL9SK-14 | 2026-09-02 10:49:52 | 47.74878 | 11.67923 | 86° | 49km/h | 17083m | -10.9m/s | -54.8°C | 1.0% | 92.6hPa | 2.7V | 00:00:00 | 00:00:00 | 00:00:00 | |
| DL6DJ-15 | 2026-09-02 10:49:48 | 47.74876 | 11.67870 | 87° | 47km/h | 17113m | -10.0m/s | -54.8°C | 1.1% | 92.2hPa | 2.7V | 00:00:00 | 00:00:00 | 00:00:00 | |
| DK5PH-5 | 2026-09-02 10:49:46 | 47.74875 | 11.67835 | 87° | 53km/h | 17132m | -9.2m/s | -54.6°C | 4.1% | 91.8hPa | 2.7V | 00:00:00 | 01:20:55 | 00:00:00 | |
| DO3MHA-12 | 2026-09-02 10:49:45 | 47.74874 | 11.67817 | 86° | 53km/h | 17141m | -9.3m/s | -54.5°C | 4.0% | 91.7hPa | 2.7V | 00:00:00 | 01:20:54 | 00:00:00 | |
| OE5HKT-10 | 2026-09-02 10:49:44 | 47.74873 | 11.67799 | 87° | 53km/h | 17150m | -8.5m/s | 0°C | 0% | 0hPa | 2.7V | 00:00:00 | 00:00:00 | 00:00:00 | |
| DO3MHA-11 | 2026-09-02 10:49:43 | 47.74872 | 11.67780 | 87° | 53km/h | 17160m | -10.3m/s | -54.5°C | 4.0% | 91.4hPa | 2.7V | 00:00:00 | 01:20:52 | 00:00:00 | |
| OE5MMP-10 | 2026-09-02 10:49:41 | 47.74868 | 11.67701 | 84° | 55km/h | 17198m | -8.7m/s | -54.1°C | 3.9% | 90.8hPa | 2.7V | 02:17:00 | 01:20:48 | 00:00:00 | |
| DF7PN | 2026-09-02 10:49:36 | 47.74862 | 11.67641 | 82° | 53km/h | 17226m | -9.6m/s | -54.2°C | 1.0% | 90.5hPa | 2.6V | 00:00:00 | 00:00:00 | 00:00:00 | |
| DO3MHA-12 | 2026-09-02 10:49:35 | 47.74860 | 11.67621 | 82° | 57km/h | 17235m | -9.2m/s | -54.2°C | 4.0% | 90.3hPa | 2.6V | 00:00:00 | 01:20:44 | 00:00:00 | |
| DB0UT-7 | 2026-09-02 10:49:34 | 47.74858 | 11.67600 | 81° | 51km/h | 17244m | -8.7m/s | -54.1°C | 3.9% | 90.2hPa | 2.6V | 00:00:00 | 00:00:00 | 00:00:00 | |
| DO3MHA-11 | 2026-09-02 10:49:33 | 47.74856 | 11.67579 | 84° | 55km/h | 17252m | -7.7m/s | -54.1°C | 3.8% | 90.1hPa | 2.6V | 02:17:00 | 01:20:42 | 00:00:00 | |
| DG1MFX-10 | 2026-09-02 10:49:30 | 47.74853 | 11.67538 | 85° | 57km/h | 17270m | -10.6m/s | -54.0°C | 1.0% | 89.9hPa | 2.7V | 02:18:00 | 00:00:00 | 00:00:00 | |
| OE5MMP-10 | 2026-09-02 10:49:29 | 47.74851 | 11.67495 | 86° | 55km/h | 17289m | -9.9m/s | -54.0°C | 3.8% | 89.6hPa | 2.7V | 00:00:00 | 01:20:38 | 00:00:00 | |
| OE5WHR-10 | 2026-09-02 10:49:28 | 47.74850 | 11.67474 | 89° | 51km/h | 17299m | -9.6m/s | -54.0°C | 3.8% | 89.5hPa | 2.7V | 00:00:00 | 00:00:00 | 00:00:00 | |
| PETON7-10 | 2026-09-02 10:49:26 | 47.74850 | 11.67433 | 91° | 47km/h | 17318m | -9.0m/s | 0°C | 0% | 0hPa | 2.7V | 00:00:00 | 01:20:35 | 00:00:00 | |
| DO3MHA-12 | 2026-09-02 10:49:25 | 47.74851 | 11.67413 | 93° | 53km/h | 17327m | -10.3m/s | -54.0°C | 3.8% | 89.0hPa | 2.7V | 02:17:00 | 01:20:34 | 00:00:00 | |
| DO3MHA-11 | 2026-09-02 10:49:23 | 47.74852 | 11.67372 | 95° | 53km/h | 17347m | -10.0m/s | -53.9°C | 3.8% | 88.7hPa | 2.7V | 00:00:00 | 01:20:32 | 00:00:00 | |
| DL9SK-14 | 2026-09-02 10:49:21 | 47.74855 | 11.67313 | 93° | 51km/h | 17378m | -10.8m/s | -54.1°C | 1.0% | 88.3hPa | 2.7V | 00:00:00 | 00:00:00 | 00:00:00 | |
| OE5MMP-10 | 2026-09-02 10:49:19 | 47.74855 | 11.67293 | 94° | 51km/h | 17389m | -11.9m/s | -54.0°C | 3.9% | 88.2hPa | 2.7V | 00:00:00 | 01:20:28 | 00:00:00 | |
| NBG1-10 | 2026-09-02 10:49:18 | 47.74856 | 11.67273 | 94° | 42km/h | 17400m | -10.1m/s | -54.0°C | 3.9% | 88.0hPa | 2.7V | 00:00:00 | 01:20:27 | 00:00:00 | |
| DL6DJ-15 | 2026-09-02 10:49:17 | 47.74857 | 11.67254 | 94° | 53km/h | 17408m | -7.8m/s | -54.1°C | 1.0% | 88.0hPa | 2.7V | 00:00:00 | 00:00:00 | 00:00:00 | |
| DK5PH-5 | 2026-09-02 10:49:16 | 47.74858 | 11.67235 | 98° | 42km/h | 17417m | -9.5m/s | -54.1°C | 3.9% | 87.8hPa | 2.7V | 00:00:00 | 01:20:25 | 00:00:00 | |
| DO3MHA-12 | 2026-09-02 10:49:15 | 47.74860 | 11.67216 | 97° | 46km/h | 17427m | -9.7m/s | -54.2°C | 3.9% | 87.7hPa | 2.7V | 00:00:00 | 01:20:24 | 00:00:00 | |
| OE5DRO-10 | 2026-09-02 10:49:14 | 47.74862 | 11.67197 | 100° | 42km/h | 17436m | -10.5m/s | -54.2°C | 3.9% | 87.5hPa | 2.7V | 00:00:00 | 00:00:00 | 00:00:00 | |
| DO3MHA-11 | 2026-09-02 10:49:13 | 47.74865 | 11.67178 | 105° | 42km/h | 17447m | -10.5m/s | -54.3°C | 3.9% | 87.4hPa | 2.7V | 00:00:00 | 01:20:22 | 00:00:00 | |
| OM5KV | 2026-09-02 10:49:10 | 47.74872 | 11.67144 | 111° | 46km/h | 17469m | -11.3m/s | -54.4°C | 0.9% | 87.2hPa | 2.7V | 00:00:00 | 00:00:00 | 00:00:00 | |
| OE5MMP-10 | 2026-09-02 10:49:09 | 47.74881 | 11.67112 | 119° | 38km/h | 17489m | -9.0m/s | -54.3°C | 3.9% | 86.8hPa | 2.7V | 02:18:00 | 01:20:18 | 00:00:00 | |
| OE5WHR-10 | 2026-09-02 10:49:07 | 47.74892 | 11.67086 | 121° | 40km/h | 17506m | -7.7m/s | -54.2°C | 3.9% | 86.6hPa | 2.6V | 00:00:00 | 01:20:16 | 00:00:00 | |
| OM5KV | 2026-09-02 10:49:06 | 47.74892 | 11.67086 | 121° | 40km/h | 17506m | -7.7m/s | -54.2°C | 1.0% | 86.6hPa | 2.6V | 00:00:00 | 00:00:00 | 00:00:00 | |
| DB0UT-7 | 2026-09-02 10:49:05 | 47.74904 | 11.67049 | 112° | 42km/h | 17539m | -9.6m/s | -54.1°C | 3.8% | 86.2hPa | 2.6V | 00:00:00 | 01:20:13 | 00:00:00 | |
| OE5MMP-10 | 2026-09-02 10:48:59 | 47.74916 | 11.66981 | 98° | 42km/h | 17587m | -8.6m/s | -54.1°C | 3.9% | 85.5hPa | 2.6V | 00:00:00 | 01:20:08 | 00:00:00 | |
| DG1MJG | 2026-09-02 10:48:58 | 47.74916 | 11.66981 | 99° | 40km/h | 17587m | -8.7m/s | -54.2°C | 1.0% | 85.6hPa | 2.6V | 02:18:00 | 00:00:00 | 00:00:00 | |
| OM5KV | 2026-09-02 10:48:56 | 47.74920 | 11.66936 | 102° | 42km/h | 17612m | -9.3m/s | -54.2°C | 0.9% | 85.3hPa | 2.6V | 00:00:00 | 00:00:00 | 00:00:00 | |
| DM0DOS-11 | 2026-09-02 10:48:53 | 47.74929 | 11.66875 | 100° | 44km/h | 17650m | -8.8m/s | -54.3°C | 3.9% | 84.7hPa | 2.6V | 02:18:17 | 01:20:01 | 00:00:00 | |
| DL9SK-14 | 2026-09-02 10:48:50 | 47.74934 | 11.66829 | 95° | 38km/h | 17678m | -9.1m/s | -54.3°C | 1.0% | 84.4hPa | 2.7V | 00:00:00 | 00:00:00 | 00:00:00 | |
| OE5MMP-10 | 2026-09-02 10:48:49 | 47.74934 | 11.66829 | 96° | 44km/h | 17678m | -9.0m/s | -54.2°C | 3.9% | 84.3hPa | 2.7V | 00:00:00 | 01:19:58 | 00:00:00 | |
| DM0DOS-11 | 2026-09-02 10:48:48 | 47.74937 | 11.66722 | 91° | 46km/h | 17741m | -10.5m/s | -53.8°C | 3.8% | 83.6hPa | 2.7V | 02:18:27 | 01:19:51 | 00:00:00 | |
| DK5PH-5 | 2026-09-02 10:48:46 | 47.74935 | 11.66786 | 92° | 42km/h | 17705m | -8.2m/s | -54.0°C | 3.9% | 84.0hPa | 2.6V | 02:18:00 | 01:19:55 | 00:00:00 | |
| DO3MHA-12 | 2026-09-02 10:48:45 | 47.74935 | 11.66771 | 90° | 47km/h | 17714m | -9.0m/s | -54.0°C | 3.9% | 83.8hPa | 2.6V | 00:00:00 | 01:19:54 | 00:00:00 | |
| IN3HCDX | 2026-09-02 10:48:44 | 47.74935 | 11.66771 | 91° | 40km/h | 17714m | -9.1m/s | -54.0°C | 1.0% | 83.9hPa | 2.6V | 02:18:00 | 00:00:00 | 00:00:00 | |
| DO3MHA-11 | 2026-09-02 10:48:43 | 47.74936 | 11.66739 | 95° | 49km/h | 17732m | -9.2m/s | -53.9°C | 3.8% | 83.6hPa | 2.6V | 00:00:00 | 01:19:52 | 00:00:00 | |
| OE5MMP-10 | 2026-09-02 10:48:39 | 47.74938 | 11.66665 | 91° | 47km/h | 17770m | -9.9m/s | -53.8°C | 3.8% | 83.2hPa | 2.6V | 02:18:00 | 01:19:48 | 00:00:00 | |
| DM0DOS-11 | 2026-09-02 10:48:37 | 47.74942 | 11.66537 | 97° | 46km/h | 17831m | -8.8m/s | -54.1°C | 4% | 82.4hPa | 2.6V | 02:18:37 | 01:19:41 | 00:00:00 | |
| BAUMI2-15 | 2026-09-02 10:48:36 | 47.74938 | 11.66607 | 92° | 47km/h | 17799m | -8.9m/s | -53.9°C | 3.9% | 82.8hPa | 2.7V | 02:18:00 | 01:19:45 | 00:00:00 | |
| DO3MHA-12 | 2026-09-02 10:48:35 | 47.74939 | 11.66589 | 95° | 46km/h | 17808m | -8.5m/s | -54.0°C | 3.9% | 82.6hPa | 2.7V | 00:00:00 | 01:19:44 | 00:00:00 | |
| DB0UT-7 | 2026-09-02 10:48:34 | 47.74940 | 11.66572 | 94° | 35km/h | 17815m | -6.3m/s | -54.0°C | 3.9% | 82.5hPa | 2.7V | 02:18:00 | 00:00:00 | 00:00:00 | |
| BAUMI2-15 | 2026-09-02 10:48:31 | 47.74943 | 11.66520 | 98° | 46km/h | 17840m | -9.5m/s | -54.0°C | 3.9% | 82.2hPa | 2.7V | 00:00:00 | 01:19:40 | 00:00:00 | |
| OE5MMP-10 | 2026-09-02 10:48:30 | 47.74946 | 11.66486 | 99° | 40km/h | 17859m | -9.3m/s | -53.9°C | 3.9% | 82.0hPa | 2.7V | 00:00:00 | 01:19:38 | 00:00:00 | |
| DG1MJG | 2026-09-02 10:48:29 | 47.74947 | 11.66486 | 100° | 47km/h | 17859m | -9.3m/s | -54.0°C | 0.9% | 82.0hPa | 2.7V | 02:19:00 | 00:00:00 | 00:00:00 | |
| BAUMI2-15 | 2026-09-02 10:48:26 | 47.74953 | 11.66436 | 101° | 40km/h | 17889m | -10.0m/s | -53.4°C | 3.8% | 81.6hPa | 2.7V | 00:00:00 | 01:19:35 | 00:00:00 | |
| DM0DOS-11 | 2026-09-02 10:48:23 | 47.74962 | 11.66379 | 107° | 38km/h | 17927m | -9.6m/s | -53.4°C | 3.8% | 81.2hPa | 2.7V | 02:18:47 | 01:19:31 | 00:00:00 | |
| DO3MHA-11 | 2026-09-02 10:48:23 | 47.74960 | 11.66393 | 106° | 31km/h | 17917m | -11.2m/s | -53.3°C | 3.8% | 81.2hPa | 2.6V | 00:00:00 | 01:19:32 | 00:00:00 | |
| OE5MMP-10 | 2026-09-02 10:48:19 | 47.74971 | 11.66343 | 112° | 27km/h | 17954m | -8.8m/s | -53.3°C | 3.7% | 80.8hPa | 2.6V | 00:00:00 | 01:19:28 | 00:00:00 | |
| DM0DOS-11 | 2026-09-02 10:48:17 | 47.74978 | 11.66261 | 85° | 29km/h | 18026m | -7.9m/s | -52.9°C | 3.6% | 79.9hPa | 2.6V | 02:18:58 | 01:19:20 | 00:00:00 | |
| OE5DRO-10 | 2026-09-02 10:48:17 | 47.74975 | 11.66323 | 106° | 27km/h | 17972m | -9.9m/s | -53.3°C | 3.7% | 80.5hPa | 2.7V | 00:00:00 | 00:00:00 | 00:00:00 | |
| DK5PH-5 | 2026-09-02 10:48:16 | 47.74977 | 11.66314 | 101° | 27km/h | 17982m | -10.3m/s | -53.2°C | 3.7% | 80.4hPa | 2.7V | 00:00:00 | 01:19:25 | 00:00:00 | |
| DO3MHA-12 | 2026-09-02 10:48:15 | 47.74978 | 11.66304 | 95° | 27km/h | 17991m | -9.6m/s | -53.2°C | 3.7% | 80.3hPa | 2.7V | 00:00:00 | 01:19:24 | 00:00:00 | |
| OM5KV | 2026-09-02 10:48:14 | 47.74978 | 11.66304 | 95° | 26km/h | 17991m | -9.6m/s | -53.2°C | 0.9% | 80.3hPa | 2.7V | 02:19:00 | 00:00:00 | 00:00:00 | |
| DO3MHA-11 | 2026-09-02 10:48:13 | 47.74978 | 11.66283 | 90° | 27km/h | 18008m | -9.0m/s | -53.0°C | 3.6% | 80.1hPa | 2.7V | 00:00:00 | 01:19:22 | 00:00:00 | |
| NBG1-10 | 2026-09-02 10:48:12 | 47.74978 | 11.66272 | 89° | 29km/h | 18018m | -9.5m/s | -53.0°C | 3.7% | 79.9hPa | 2.7V | 02:18:00 | 01:19:21 | 00:00:00 | |
| BAUMI2-15 | 2026-09-02 10:48:11 | 47.74978 | 11.66261 | 86° | 27km/h | 18026m | -7.8m/s | -52.9°C | 3.6% | 79.8hPa | 2.7V | 00:00:00 | 01:19:20 | 00:00:00 | |
| OE5MMP-10 | 2026-09-02 10:48:09 | 47.74976 | 11.66240 | 79° | 27km/h | 18044m | -9.6m/s | -52.8°C | 3.6% | 79.6hPa | 2.7V | 02:19:00 | 01:19:18 | 00:00:00 | |
| BAUMI2-15 | 2026-09-02 10:48:06 | 47.74971 | 11.66210 | 73° | 27km/h | 18071m | -9.2m/s | -52.8°C | 3.6% | 79.3hPa | 2.6V | 02:19:00 | 01:19:15 | 00:00:00 | |
| DM0DOS-11 | 2026-09-02 10:48:05 | 47.74964 | 11.66169 | 77° | 29km/h | 18109m | -9.5m/s | -52.9°C | 3.5% | 78.9hPa | 2.6V | 02:19:07 | 01:19:11 | 00:00:00 | |
| DO3MHA-12 | 2026-09-02 10:48:05 | 47.74969 | 11.66200 | 74° | 27km/h | 18080m | -9.7m/s | -52.8°C | 3.5% | 79.2hPa | 2.7V | 00:00:00 | 01:19:14 | 00:00:00 | |
| DB0UT-7 | 2026-09-02 10:48:04 | 47.74967 | 11.66190 | 75° | 29km/h | 18090m | -10.6m/s | -52.8°C | 3.5% | 79.0hPa | 2.7V | 00:00:00 | 01:19:13 | 00:00:00 | |
| DO3MHA-11 | 2026-09-02 10:48:03 | 47.74966 | 11.66180 | 77° | 26km/h | 18100m | -9.5m/s | -52.9°C | 3.6% | 79.0hPa | 2.7V | 02:19:00 | 01:19:12 | 00:00:00 | |
| BAUMI2-15 | 2026-09-02 10:48:01 | 47.74962 | 11.66159 | 78° | 26km/h | 18119m | -9.0m/s | -52.8°C | 3.5% | 78.7hPa | 2.7V | 00:00:00 | 01:19:10 | 00:00:00 | |
| OM5KV | 2026-09-02 10:47:59 | 47.74956 | 11.66132 | 61° | 26km/h | 18148m | -9.7m/s | -52.8°C | 0.9% | 78.4hPa | 2.7V | 02:19:00 | 00:00:00 | 00:00:00 | |
| BAUMI2-15 | 2026-09-02 10:47:57 | 47.74949 | 11.66116 | 57° | 27km/h | 18168m | -9.5m/s | -52.7°C | 3.5% | 78.1hPa | 2.7V | 00:00:00 | 01:19:05 | 00:00:00 | |
| DO3MHA-12 | 2026-09-02 10:47:55 | 47.74946 | 11.66108 | 53° | 31km/h | 18178m | -10.5m/s | -52.7°C | 3.5% | 78.0hPa | 2.7V | 02:19:00 | 01:19:04 | 00:00:00 | |
| OM5KV | 2026-09-02 10:47:54 | 47.74946 | 11.66108 | 53° | 26km/h | 18178m | -10.5m/s | -52.8°C | 0.8% | 78.1hPa | 2.6V | 02:19:00 | 00:00:00 | 00:00:00 | |
| DO3MHA-11 | 2026-09-02 10:47:53 | 47.74938 | 11.66093 | 50° | 33km/h | 18197m | -10.3m/s | -52.9°C | 3.6% | 77.8hPa | 2.6V | 00:00:00 | 01:19:02 | 00:00:00 | |
| BAUMI2-15 | 2026-09-02 10:47:51 | 47.74929 | 11.66077 | 51° | 33km/h | 18214m | -6.7m/s | -52.9°C | 3.5% | 77.6hPa | 2.6V | 02:19:00 | 01:19:00 | 00:00:00 | |
| OE5MMP-10 | 2026-09-02 10:47:49 | 47.74919 | 11.66057 | 56° | 33km/h | 18232m | -11.9m/s | -53.1°C | 3.6% | 77.4hPa | 2.7V | 00:00:00 | 01:18:58 | 00:00:00 | |
| OM5KV | 2026-09-02 10:47:48 | 47.74914 | 11.66047 | 55° | 35km/h | 18244m | -12.4m/s | -53.2°C | 0.8% | 77.3hPa | 2.7V | 02:20:00 | 00:00:00 | 00:00:00 | |
| DM0DOS-11 | 2026-09-02 10:47:47 | 47.74899 | 11.66015 | 58° | 33km/h | 18278m | -10.3m/s | -53.5°C | 3.7% | 76.8hPa | 2.7V | 02:19:24 | 01:18:54 | 00:00:00 | |
| DK5PH-5 | 2026-09-02 10:47:46 | 47.74903 | 11.66026 | 57° | 33km/h | 18267m | -11.1m/s | -53.4°C | 3.6% | 76.9hPa | 2.6V | 00:00:00 | 01:18:55 | 00:00:00 | |
| DO3MHA-12 | 2026-09-02 10:47:45 | 47.74899 | 11.66015 | 59° | 31km/h | 18278m | -10.3m/s | -53.4°C | 3.7% | 76.8hPa | 2.6V | 00:00:00 | 01:18:54 | 00:00:00 | |
| DL6DJ-15 | 2026-09-02 10:47:44 | 47.74895 | 11.66005 | 56° | 31km/h | 18288m | -10.1m/s | -53.5°C | 0.9% | 76.7hPa | 2.6V | 00:00:00 | 00:00:00 | 00:00:00 | |
| OE5WHR-10 | 2026-09-02 10:47:43 | 47.74890 | 11.65995 | 60° | 33km/h | 18298m | -9.2m/s | -53.5°C | 3.7% | 76.6hPa | 2.6V | 02:19:00 | 00:00:00 | 00:00:00 | |
| BAUMI2-15 | 2026-09-02 10:47:41 | 47.74883 | 11.65977 | 58° | 31km/h | 18318m | -10.0m/s | -53.6°C | 3.7% | 76.3hPa | 2.6V | 00:00:00 | 01:18:50 | 00:00:00 | |
| DM0DOS-11 | 2026-09-02 10:47:40 | 47.74857 | 11.65916 | 53° | 35km/h | 18375m | -9.7m/s | -53.4°C | 3.7% | 75.7hPa | 2.6V | 02:19:34 | 01:18:44 | 00:00:00 | |
| NBG1-10 | 2026-09-02 10:47:39 | 47.74875 | 11.65958 | 60° | 33km/h | 18337m | -9.4m/s | -53.6°C | 3.7% | 76.1hPa | 2.6V | 00:00:00 | 01:18:48 | 00:00:00 | |
| BAUMI2-15 | 2026-09-02 10:47:36 | 47.74862 | 11.65927 | 56° | 37km/h | 18365m | -9.3m/s | -53.5°C | 3.7% | 75.8hPa | 2.6V | 02:19:00 | 01:18:45 | 00:00:00 | |
| DO3MHA-12 | 2026-09-02 10:47:35 | 47.74856 | 11.65916 | 54° | 33km/h | 18375m | -9.6m/s | -53.3°C | 3.7% | 75.7hPa | 2.7V | 00:00:00 | 01:18:44 | 00:00:00 | |
| DB0UT-7 | 2026-09-02 10:47:34 | 47.74851 | 11.65905 | 55° | 35km/h | 18384m | -8.6m/s | -53.3°C | 3.6% | 75.5hPa | 2.7V | 00:00:00 | 00:00:00 | 00:00:00 | |
| DO3MHA-11 | 2026-09-02 10:47:33 | 47.74846 | 11.65894 | 54° | 33km/h | 18393m | -9.8m/s | -53.3°C | 3.6% | 75.5hPa | 2.7V | 02:19:00 | 01:18:42 | 00:00:00 | |
| DF7PN | 2026-09-02 10:47:32 | 47.74835 | 11.65873 | 49° | 33km/h | 18414m | -11.3m/s | -53.4°C | 0.9% | 75.3hPa | 2.6V | 00:00:00 | 00:00:00 | 00:00:00 | |
| BAUMI2-15 | 2026-09-02 10:47:31 | 47.74835 | 11.65873 | 50° | 33km/h | 18414m | -11.3m/s | -53.4°C | 3.7% | 75.2hPa | 2.6V | 00:00:00 | 01:18:40 | 00:00:00 | |
| DM0DOS-11 | 2026-09-02 10:47:30 | 47.74792 | 11.65779 | 65° | 37km/h | 18501m | -9.8m/s | -53.7°C | 3.7% | 74.2hPa | 2.6V | 02:19:47 | 01:18:31 | 00:00:00 | |
| OE5MMP-10 | 2026-09-02 10:47:29 | 47.74824 | 11.65854 | 52° | 35km/h | 18435m | -9.4m/s | -53.3°C | 3.7% | 74.9hPa | 2.6V | 00:00:00 | 01:18:38 | 00:00:00 | |
| OM5KV | 2026-09-02 10:47:28 | 47.74824 | 11.65854 | 52° | 33km/h | 18435m | -9.5m/s | -53.3°C | 0.9% | 75.0hPa | 2.6V | 02:20:00 | 00:00:00 | 00:00:00 | |
| DG1MFX-10 | 2026-09-02 10:47:27 | 47.74819 | 11.65845 | 56° | 31km/h | 18445m | -10.5m/s | -53.4°C | 0.9% | 74.9hPa | 2.6V | 02:20:00 | 00:00:00 | 00:00:00 | |
| BAUMI2-15 | 2026-09-02 10:47:26 | 47.74810 | 11.65825 | 57° | 35km/h | 18465m | -9.5m/s | -53.5°C | 3.8% | 74.6hPa | 2.6V | 00:00:00 | 01:18:35 | 00:00:00 | |
| PETON7-10 | 2026-09-02 10:47:25 | 47.74800 | 11.65804 | 59° | 37km/h | 18482m | -8.9m/s | 0°C | 0% | 0hPa | 2.6V | 00:00:00 | 00:00:00 | 00:00:00 | |
| OM5KV | 2026-09-02 10:47:24 | 47.74800 | 11.65804 | 60° | 35km/h | 18482m | -8.9m/s | -53.7°C | 0.9% | 74.5hPa | 2.6V | 02:20:00 | 00:00:00 | 00:00:00 | |
| DO3MHA-11 | 2026-09-02 10:47:23 | 47.74796 | 11.65792 | 63° | 33km/h | 18492m | -10.0m/s | -53.7°C | 3.8% | 74.3hPa | 2.6V | 00:00:00 | 01:18:32 | 00:00:00 | |
| BAUMI2-15 | 2026-09-02 10:47:21 | 47.74788 | 11.65766 | 68° | 35km/h | 18512m | -11.1m/s | -53.6°C | 3.7% | 74.1hPa | 2.6V | 02:19:00 | 01:18:30 | 00:00:00 | |
| OE5DRO-10 | 2026-09-02 10:47:20 | 47.74784 | 11.65753 | 71° | 33km/h | 18523m | -10.8m/s | -53.6°C | 3.7% | 74.0hPa | 2.7V | 00:00:00 | 00:00:00 | 00:00:00 | |
| OE5MMP-10 | 2026-09-02 10:47:19 | 47.74781 | 11.65740 | 71° | 29km/h | 18533m | -9.5m/s | -53.6°C | 3.6% | 73.8hPa | 2.7V | 00:00:00 | 01:18:28 | 00:00:00 | |
| OE5WHR-10 | 2026-09-02 10:47:18 | 47.74778 | 11.65727 | 72° | 35km/h | 18543m | -9.4m/s | -53.7°C | 3.7% | 73.7hPa | 2.7V | 00:00:00 | 00:00:00 | 00:00:00 | |
| DM0DOS-11 | 2026-09-02 10:47:17 | 47.74764 | 11.65669 | 68° | 27km/h | 18550m | 6m/s | -53.6°C | 3.8% | 73.6hPa | 2.7V | 02:19:57 | 01:18:21 | 00:00:00 | |
| DL9SK-14 | 2026-09-02 10:47:17 | 47.74773 | 11.65706 | 70° | 27km/h | 18568m | -7.7m/s | -53.7°C | 0.9% | 73.5hPa | 2.6V | 00:00:00 | 00:00:00 | 00:00:00 | |
| DK5PH-5 | 2026-09-02 10:47:16 | 47.74773 | 11.65706 | 71° | 35km/h | 18568m | -7.7m/s | -53.7°C | 3.8% | 73.4hPa | 2.6V | 02:19:00 | 01:18:25 | 00:00:00 | |
| DO3MHA-12 | 2026-09-02 10:47:15 | 47.74771 | 11.65697 | 74° | 33km/h | 18571m | 1.6m/s | -53.6°C | 3.8% | 73.4hPa | 2.6V | 00:00:00 | 01:18:24 | 00:00:00 | |
| DO3MHA-11 | 2026-09-02 10:47:13 | 47.74767 | 11.65678 | 67° | 33km/h | 18556m | 4.7m/s | -53.6°C | 3.8% | 73.5hPa | 2.6V | 00:00:00 | 01:18:22 | 00:00:00 | |
| BAUMI2-15 | 2026-09-02 10:47:11 | 47.74762 | 11.65659 | 71° | 35km/h | 18545m | 4.8m/s | -53.5°C | 3.8% | 73.7hPa | 2.6V | 00:00:00 | 01:18:20 | 00:00:00 | |
| OE5MMP-10 | 2026-09-02 10:47:09 | 47.74756 | 11.65637 | 64° | 35km/h | 18534m | 6.7m/s | -53.5°C | 3.8% | 73.7hPa | 2.6V | 02:20:00 | 01:18:18 | 00:00:00 | |
| DM0DOS-11 | 2026-09-02 10:47:07 | 47.74726 | 11.65555 | 60° | 29km/h | 18495m | 4.8m/s | -53.5°C | 3.7% | 74.2hPa | 2.6V | 02:20:07 | 01:18:11 | 00:00:00 | |
| NBG1-10 | 2026-09-02 10:47:06 | 47.74742 | 11.65601 | 64° | 33km/h | 18518m | 6.0m/s | -53.4°C | 3.7% | 73.9hPa | 2.7V | 00:00:00 | 01:18:15 | 00:00:00 | |
| OM5KV | 2026-09-02 10:47:05 | 47.74742 | 11.65601 | 64° | 38km/h | 18518m | 6.0m/s | -53.5°C | 0.8% | 74.0hPa | 2.7V | 02:20:00 | 00:00:00 | 00:00:00 | |
| DB0UT-7 | 2026-09-02 10:47:04 | 47.74734 | 11.65576 | 64° | 33km/h | 18507m | 6.5m/s | -53.4°C | 3.7% | 74.0hPa | 2.7V | 02:20:00 | 01:18:13 | 00:00:00 | |
| DO3MHA-11 | 2026-09-02 10:47:03 | 47.74730 | 11.65565 | 61° | 33km/h | 18501m | 5.6m/s | -53.4°C | 3.7% | 74.1hPa | 2.7V | 02:20:00 | 01:18:12 | 00:00:00 | |
| DF7PN | 2026-09-02 10:47:01 | 47.74719 | 11.65536 | 58° | 29km/h | 18485m | 4.5m/s | -53.5°C | 0.9% | 74.3hPa | 2.6V | 00:00:00 | 00:00:00 | 00:00:00 | |
| OE5MMP-10 | 2026-09-02 10:46:59 | 47.74714 | 11.65527 | 54° | 37km/h | 18479m | 6.0m/s | -53.4°C | 3.7% | 74.4hPa | 2.6V | 00:00:00 | 01:18:08 | 00:00:00 | |
| BAUMI2-15 | 2026-09-02 10:46:56 | 47.74699 | 11.65498 | 55° | 37km/h | 18464m | 5.4m/s | -53.3°C | 3.8% | 74.6hPa | 2.6V | 00:00:00 | 01:18:05 | 00:00:00 | |
| DO3MHA-12 | 2026-09-02 10:46:55 | 47.74694 | 11.65487 | 57° | 38km/h | 18459m | 4.2m/s | -53.3°C | 3.8% | 74.6hPa | 2.6V | 02:20:00 | 01:18:04 | 00:00:00 | |
| DO3MHA-11 | 2026-09-02 10:46:53 | 47.74683 | 11.65464 | 54° | 38km/h | 18449m | 5.4m/s | -53.1°C | 3.7% | 74.7hPa | 2.7V | 00:00:00 | 01:18:02 | 00:00:00 | |
| DM0DOS-11 | 2026-09-02 10:46:51 | 47.74619 | 11.65344 | 46° | 31km/h | 18391m | 4.7m/s | -53.1°C | 3.7% | 75.4hPa | 2.7V | 02:20:27 | 01:17:51 | 00:00:00 | |
| OE5WHR-10 | 2026-09-02 10:46:51 | 47.74672 | 11.65441 | 58° | 33km/h | 18438m | 5.8m/s | -53.1°C | 3.6% | 74.8hPa | 2.6V | 00:00:00 | 01:18:00 | 00:00:00 | |
| OE5MMP-10 | 2026-09-02 10:46:49 | 47.74661 | 11.65417 | 53° | 35km/h | 18428m | 5.9m/s | -53.0°C | 3.6% | 75.0hPa | 2.6V | 00:00:00 | 01:17:58 | 00:00:00 | |
| DO3MHA-12 | 2026-09-02 10:46:46 | 47.74636 | 11.65371 | 51° | 31km/h | 18407m | 4.4m/s | -53.1°C | 3.6% | 75.2hPa | 2.6V | 00:00:00 | 01:17:54 | 00:00:00 | |
| DO3MHA-11 | 2026-09-02 10:46:45 | 47.74624 | 11.65352 | 45° | 29km/h | 18396m | 4.9m/s | -53.1°C | 3.6% | 75.3hPa | 2.6V | 00:00:00 | 01:17:52 | 00:00:00 | |
| OE5DXL-15 | 2026-09-02 10:46:44 | 47.74624 | 11.65352 | 45° | 31km/h | 18396m | 4.9m/s | -53.1°C | 3.6% | 75.3hPa | 2.6V | 00:00:00 | 00:00:00 | 00:00:00 | |
| DL6DJ-15 | 2026-09-02 10:46:43 | 47.74619 | 11.65344 | 46° | 31km/h | 18391m | 4.7m/s | -53.1°C | 0.9% | 75.5hPa | 2.6V | 00:00:00 | 00:00:00 | 00:00:00 | |
| OE5DRO-10 | 2026-09-02 10:46:42 | 47.74619 | 11.65344 | 47° | 31km/h | 18391m | 4.7m/s | -53.1°C | 3.7% | 75.4hPa | 2.6V | 00:00:00 | 00:00:00 | 00:00:00 | |
| BAUMI2-15 | 2026-09-02 10:46:41 | 47.74614 | 11.65335 | 53° | 27km/h | 18386m | 5.7m/s | -53.1°C | 3.7% | 75.4hPa | 2.6V | 00:00:00 | 01:17:50 | 00:00:00 | |
| PG1ADW-2 | 2026-09-02 10:46:39 | 47.74606 | 11.65317 | 61° | 31km/h | 18375m | 5.3m/s | -53.0°C | 3.6% | 75.6hPa | 2.6V | 00:00:00 | 00:00:00 | 00:00:00 | |
| OM5KV | 2026-09-02 10:46:38 | 47.74606 | 11.65317 | 61° | 27km/h | 18375m | 5.4m/s | -53.0°C | 0.9% | 75.6hPa | 2.6V | 02:20:00 | 00:00:00 | 00:00:00 | |
| DM0DOS-11 | 2026-09-02 10:46:37 | 47.74588 | 11.65272 | 57° | 31km/h | 18350m | 4.9m/s | -53.1°C | 3.7% | 75.9hPa | 2.6V | 02:20:35 | 01:17:43 | 00:00:00 | |
| DO3MHA-12 | 2026-09-02 10:46:35 | 47.74591 | 11.65281 | 61° | 33km/h | 18355m | 4.9m/s | -53.1°C | 3.7% | 75.8hPa | 2.6V | 00:00:00 | 01:17:44 | 00:00:00 | |
| DB0UT-7 | 2026-09-02 10:46:34 | 47.74588 | 11.65271 | 58° | 33km/h | 18350m | 4.8m/s | -53.1°C | 3.7% | 75.9hPa | 2.6V | 00:00:00 | 00:00:00 | 00:00:00 | |
| DO3MHA-11 | 2026-09-02 10:46:33 | 47.74583 | 11.65262 | 53° | 33km/h | 18345m | 5.7m/s | -53.1°C | 3.7% | 76.0hPa | 2.6V | 02:20:00 | 01:17:42 | 00:00:00 | |
| OM5KV | 2026-09-02 10:46:32 | 47.74583 | 11.65262 | 54° | 33km/h | 18345m | 5.7m/s | -53.2°C | 0.9% | 76.0hPa | 2.6V | 02:20:00 | 00:00:00 | 00:00:00 | |
| DF7PN | 2026-09-02 10:46:30 | 47.74562 | 11.65219 | 55° | 35km/h | 18326m | 4.1m/s | -53.2°C | 0.8% | 76.3hPa | 2.6V | 00:00:00 | 00:00:00 | 00:00:00 | |
| OE5MMP-10 | 2026-09-02 10:46:29 | 47.74562 | 11.65219 | 56° | 29km/h | 18326m | 4.0m/s | -53.1°C | 3.6% | 76.3hPa | 2.6V | 00:00:00 | 01:17:38 | 00:00:00 | |
| DM0DOS-11 | 2026-09-02 10:46:27 | 47.74539 | 11.65172 | 64° | 26km/h | 18300m | 4.6m/s | -53.3°C | 3.8% | 76.5hPa | 2.6V | 02:20:45 | 01:17:33 | 00:00:00 | |
| DG1MFX-10 | 2026-09-02 10:46:26 | 47.74552 | 11.65199 | 52° | 33km/h | 18316m | 5.0m/s | -53.3°C | 0.9% | 76.4hPa | 2.6V | 02:20:00 | 00:00:00 | 00:00:00 | |
| DO3MHA-12 | 2026-09-02 10:46:25 | 47.74542 | 11.65181 | 58° | 31km/h | 18305m | 5.8m/s | -53.2°C | 3.8% | 76.4hPa | 2.6V | 02:20:00 | 01:17:34 | 00:00:00 | |
| DO3MHA-11 | 2026-09-02 10:46:23 | 47.74537 | 11.65164 | 67° | 33km/h | 18296m | 4.0m/s | -53.2°C | 3.8% | 76.5hPa | 2.7V | 00:00:00 | 01:17:32 | 00:00:00 | |
| IN3HCDX | 2026-09-02 10:46:22 | 47.74537 | 11.65164 | 67° | 24km/h | 18296m | 4.1m/s | -53.3°C | 0.9% | 76.6hPa | 2.7V | 02:20:00 | 00:00:00 | 00:00:00 | |
| OM5KV | 2026-09-02 10:46:20 | 47.74531 | 11.65148 | 58° | 26km/h | 18286m | 4.5m/s | -53.3°C | 0.9% | 76.7hPa | 2.7V | 02:20:00 | 00:00:00 | 00:00:00 | |
| OE5MMP-10 | 2026-09-02 10:46:19 | 47.74523 | 11.65129 | 59° | 35km/h | 18276m | 5.6m/s | -53.2°C | 3.7% | 76.8hPa | 2.7V | 00:00:00 | 01:17:28 | 00:00:00 | |
| DM0DOS-11 | 2026-09-02 10:46:17 | 47.74497 | 11.65068 | 57° | 38km/h | 18250m | 6m/s | 0°C | 0% | 0hPa | 2.7V | 02:20:55 | 01:17:23 | 00:00:00 | |
| DO3MHA-12 | 2026-09-02 10:46:15 | 47.74503 | 11.65080 | 56° | 33km/h | 18255m | 4.8m/s | -53.0°C | 3.7% | 77.0hPa | 2.7V | 00:00:00 | 01:17:24 | 00:00:00 | |
| DL9SK-14 | 2026-09-02 10:46:14 | 47.74497 | 11.65068 | 57° | 38km/h | 18250m | 6.0m/s | -53.0°C | 0.9% | 77.1hPa | 2.7V | 00:00:00 | 00:00:00 | 00:00:00 | |
| DO3MHA-11 | 2026-09-02 10:46:13 | 47.74492 | 11.65056 | 59° | 31km/h | 18245m | 4.4m/s | -52.9°C | 3.8% | 77.2hPa | 2.7V | 00:00:00 | 01:17:22 | 00:00:00 | |
| OM5KV | 2026-09-02 10:46:12 | 47.74492 | 11.65056 | 60° | 35km/h | 18245m | 4.4m/s | -53.0°C | 0.9% | 77.2hPa | 2.7V | 02:20:00 | 00:00:00 | 00:00:00 | |
| OM5KV | 2026-09-02 10:46:11 | 47.74479 | 11.65027 | 52° | 27km/h | 18230m | 4.0m/s | -52.7°C | 0.9% | 77.4hPa | 2.7V | 02:21:00 | 00:00:00 | 00:00:00 | |
| OE5MMP-10 | 2026-09-02 10:46:10 | 47.74474 | 11.65019 | 54° | 31km/h | 18226m | 4.4m/s | -52.7°C | 3.7% | 77.4hPa | 2.7V | 02:21:00 | 01:17:18 | 00:00:00 | |
| OE5WHR-10 | 2026-09-02 10:46:09 | 47.74474 | 11.65019 | 54° | 31km/h | 18226m | 4.4m/s | -52.7°C | 3.7% | 77.4hPa | 2.6V | 00:00:00 | 00:00:00 | 00:00:00 | |
| DM0DOS-11 | 2026-09-02 10:46:06 | 47.74453 | 11.64970 | 49° | 33km/h | 18201m | 5.2m/s | 0°C | 0% | 0hPa | 2.6V | 02:21:05 | 01:17:13 | 00:00:00 | |
| DO3MHA-12 | 2026-09-02 10:46:05 | 47.74458 | 11.64980 | 56° | 31km/h | 18207m | 4.8m/s | -52.6°C | 3.6% | 77.6hPa | 2.6V | 00:00:00 | 01:17:14 | 00:00:00 | |
| DB0UT-7 | 2026-09-02 10:46:04 | 47.74453 | 11.64970 | 50° | 29km/h | 18202m | 5.1m/s | -52.7°C | 3.6% | 77.7hPa | 2.6V | 00:00:00 | 01:17:13 | 00:00:00 | |
| DO3MHA-11 | 2026-09-02 10:46:03 | 47.74447 | 11.64960 | 48° | 29km/h | 18197m | 4.3m/s | -52.6°C | 3.5% | 77.7hPa | 2.6V | 02:21:00 | 01:17:12 | 00:00:00 | |
| IN3HCDX | 2026-09-02 10:46:02 | 47.74447 | 11.64960 | 48° | 33km/h | 18197m | 4.3m/s | -52.7°C | 0.8% | 77.8hPa | 2.7V | 02:21:00 | 00:00:00 | 00:00:00 | |
| NBG1-10 | 2026-09-02 10:46:00 | 47.74432 | 11.64933 | 53° | 27km/h | 18183m | 4.4m/s | -52.5°C | 3.6% | 77.9hPa | 2.7V | 00:00:00 | 01:17:09 | 00:00:00 | |
| DM0DOS-11 | 2026-09-02 10:45:59 | 47.74410 | 11.64880 | 61° | 29km/h | 18151m | 5.7m/s | 0°C | 0% | 0hPa | 2.7V | 02:21:15 | 01:17:03 | 00:00:00 | |
| DF7PN | 2026-09-02 10:45:59 | 47.74417 | 11.64899 | 63° | 27km/h | 18163m | 5.3m/s | -52.5°C | 0.9% | 78.2hPa | 2.6V | 00:00:00 | 00:00:00 | 00:00:00 | |
| DB0NH | 2026-09-02 10:45:58 | 47.74423 | 11.64916 | 55° | 29km/h | 18173m | 3.4m/s | -52.4°C | 3.6% | 78.0hPa | 2.6V | 02:21:00 | 01:17:07 | 00:00:00 | |
| DG1MJG | 2026-09-02 10:45:57 | 47.74423 | 11.64916 | 55° | 26km/h | 18173m | 3.4m/s | -52.5°C | 0.9% | 78.1hPa | 2.7V | 02:21:00 | 00:00:00 | 00:00:00 | |
| DO3MHA-12 | 2026-09-02 10:45:55 | 47.74413 | 11.64890 | 64° | 29km/h | 18157m | 5.5m/s | -52.4°C | 3.6% | 78.2hPa | 2.7V | 02:21:00 | 01:17:04 | 00:00:00 | |
| OM5KV | 2026-09-02 10:45:54 | 47.74413 | 11.64890 | 65° | 29km/h | 18157m | 5.6m/s | -52.5°C | 0.9% | 78.3hPa | 2.6V | 02:21:00 | 00:00:00 | 00:00:00 | |
| DO3MHA-11 | 2026-09-02 10:45:53 | 47.74406 | 11.64871 | 59° | 29km/h | 18147m | 4.0m/s | -52.3°C | 3.6% | 78.3hPa | 2.6V | 00:00:00 | 01:17:02 | 00:00:00 | |
| OM5KV | 2026-09-02 10:45:51 | 47.74403 | 11.64861 | 62° | 29km/h | 18142m | 5.6m/s | -52.4°C | 0.8% | 78.4hPa | 2.6V | 02:21:00 | 00:00:00 | 00:00:00 | |
| DM0DOS-11 | 2026-09-02 10:45:49 | 47.74371 | 11.64765 | 74° | 26km/h | 18090m | 5m/s | 0°C | 0% | 0hPa | 2.6V | 02:21:27 | 01:16:51 | 00:00:00 | |
| OE5WHR-10 | 2026-09-02 10:45:48 | 47.74388 | 11.64821 | 57° | 27km/h | 18121m | 4.2m/s | -52.5°C | 3.6% | 78.6hPa | 2.7V | 00:00:00 | 01:16:57 | 00:00:00 | |
| DO3MHA-12 | 2026-09-02 10:45:45 | 47.74377 | 11.64792 | 69° | 27km/h | 18106m | 4.0m/s | -52.5°C | 3.5% | 78.8hPa | 2.7V | 00:00:00 | 01:16:54 | 00:00:00 | |
| DO3MHA-11 | 2026-09-02 10:45:43 | 47.74373 | 11.64774 | 70° | 27km/h | 18095m | 4.9m/s | -52.6°C | 3.5% | 79.0hPa | 2.7V | 00:00:00 | 01:16:52 | 00:00:00 | |
| OM5KV | 2026-09-02 10:45:42 | 47.74373 | 11.64774 | 70° | 26km/h | 18095m | 4.9m/s | -52.6°C | 0.8% | 79.0hPa | 2.7V | 02:21:00 | 00:00:00 | 00:00:00 | |
| IN3HCDX | 2026-09-02 10:45:41 | 47.74371 | 11.64765 | 75° | 26km/h | 18090m | 5.0m/s | -52.6°C | 0.8% | 79.1hPa | 2.7V | 02:21:00 | 00:00:00 | 00:00:00 | |
| DL6DJ-15 | 2026-09-02 10:45:40 | 47.74368 | 11.64745 | 80° | 27km/h | 18080m | 4.1m/s | -52.5°C | 0.9% | 79.2hPa | 2.7V | 00:00:00 | 00:00:00 | 00:00:00 | |
| PG1ADW-2 | 2026-09-02 10:45:39 | 47.74367 | 11.64734 | 79° | 27km/h | 18075m | 6.7m/s | -52.5°C | 3.5% | 79.2hPa | 2.7V | 00:00:00 | 00:00:00 | 00:00:00 | |
| DM0DOS-11 | 2026-09-02 10:45:37 | 47.74358 | 11.64677 | 70° | 26km/h | 18044m | 4.4m/s | 0°C | 0% | 0hPa | 2.7V | 02:21:36 | 01:16:42 | 00:00:00 | |
| OM5KV | 2026-09-02 10:45:37 | 47.74364 | 11.64715 | 79° | 27km/h | 18064m | 5.3m/s | -52.6°C | 0.9% | 79.4hPa | 2.7V | 02:21:00 | 00:00:00 | 00:00:00 | |
| DO3MHA-12 | 2026-09-02 10:45:36 | 47.74361 | 11.64695 | 79° | 27km/h | 18054m | 4.3m/s | -52.5°C | 3.5% | 79.5hPa | 2.7V | 00:00:00 | 01:16:44 | 00:00:00 | |
| DB0UT-7 | 2026-09-02 10:45:35 | 47.74360 | 11.64686 | 75° | 31km/h | 18049m | 5.8m/s | -52.6°C | 3.5% | 79.5hPa | 2.7V | 02:21:00 | 00:00:00 | 00:00:00 | |
| DO3MHA-11 | 2026-09-02 10:45:33 | 47.74358 | 11.64677 | 71° | 27km/h | 18044m | 4.4m/s | -52.6°C | 3.6% | 79.6hPa | 2.7V | 02:21:00 | 01:16:42 | 00:00:00 | |
| OE5MMP-10 | 2026-09-02 10:45:29 | 47.74352 | 11.64636 | 80° | 27km/h | 18024m | 5.7m/s | -52.5°C | 3.5% | 79.8hPa | 2.6V | 00:00:00 | 01:16:38 | 00:00:00 | |
| DM0DOS-11 | 2026-09-02 10:45:28 | 47.74351 | 11.64575 | 87° | 27km/h | 17997m | 5.5m/s | 0°C | 0% | 0hPa | 2.6V | 02:21:46 | 01:16:32 | 00:00:00 | |
| OE5WHR-10 | 2026-09-02 10:45:27 | 47.74350 | 11.64616 | 87° | 31km/h | 18015m | 3.5m/s | -52.7°C | 3.6% | 80.0hPa | 2.7V | 02:21:00 | 00:00:00 | 00:00:00 | |
| OE5DRO-10 | 2026-09-02 10:45:26 | 47.74350 | 11.64606 | 92° | 31km/h | 18011m | 5.6m/s | -52.7°C | 3.6% | 80.0hPa | 2.7V | 00:00:00 | 00:00:00 | 00:00:00 | |
| DO3MHA-12 | 2026-09-02 10:45:25 | 47.74350 | 11.64596 | 96° | 29km/h | 18005m | 4.3m/s | -52.7°C | 3.6% | 80.1hPa | 2.7V | 02:21:00 | 01:16:34 | 00:00:00 | |
| DO3MHA-11 | 2026-09-02 10:45:23 | 47.74351 | 11.64575 | 88° | 31km/h | 17997m | 5.5m/s | -52.8°C | 3.6% | 80.2hPa | 2.7V | 00:00:00 | 01:16:32 | 00:00:00 | |
| OM5KV | 2026-09-02 10:45:20 | 47.74349 | 11.64553 | 86° | 29km/h | 17987m | 4.5m/s | -52.9°C | 0.9% | 80.3hPa | 2.7V | 02:21:00 | 00:00:00 | 00:00:00 | |
| OE5MMP-10 | 2026-09-02 10:45:19 | 47.74349 | 11.64531 | 94° | 33km/h | 17976m | 5.0m/s | -52.9°C | 3.6% | 80.4hPa | 2.7V | 00:00:00 | 01:16:28 | 00:00:00 | |
| DM0DOS-11 | 2026-09-02 10:45:17 | 47.74360 | 11.64460 | 115° | 33km/h | 17946m | 4.9m/s | 0°C | 0% | 0hPa | 2.7V | 00:00:00 | 01:16:22 | 00:00:00 | |
| DO3MHA-12 | 2026-09-02 10:45:15 | 47.74354 | 11.64483 | 106° | 33km/h | 17957m | 5.0m/s | -53.1°C | 3.6% | 80.7hPa | 2.6V | 00:00:00 | 01:16:24 | 00:00:00 | |
| OM5KV | 2026-09-02 10:45:14 | 47.74354 | 11.64483 | 106° | 33km/h | 17957m | 5.1m/s | -53.2°C | 0.9% | 80.7hPa | 2.6V | 02:22:00 | 00:00:00 | 00:00:00 | |
| DO3MHA-11 | 2026-09-02 10:45:13 | 47.74360 | 11.64460 | 116° | 35km/h | 17947m | 4.8m/s | -53.0°C | 3.5% | 80.8hPa | 2.6V | 00:00:00 | 01:16:22 | 00:00:00 | |
| DL9SK-14 | 2026-09-02 10:45:12 | 47.74363 | 11.64449 | 115° | 31km/h | 17941m | 5.9m/s | -53.1°C | 0.9% | 81.0hPa | 2.6V | 00:00:00 | 00:00:00 | 00:00:00 | |
| OM5KV | 2026-09-02 10:45:10 | 47.74367 | 11.64438 | 117° | 31km/h | 17936m | 4.2m/s | -53.0°C | 0.9% | 81.0hPa | 2.6V | 02:22:00 | 00:00:00 | 00:00:00 | |
| OE5MMP-10 | 2026-09-02 10:45:09 | 47.74374 | 11.64417 | 117° | 38km/h | 17926m | 4.7m/s | -53.0°C | 3.6% | 81.1hPa | 2.6V | 02:22:00 | 01:16:18 | 00:00:00 | |
| DM0DOS-11 | 2026-09-02 10:45:08 | 47.74389 | 11.64339 | 102° | 42km/h | 17897m | 4.4m/s | 0°C | 0% | 0hPa | 2.6V | 00:00:00 | 01:16:12 | 00:00:00 | |
| DB0NH | 2026-09-02 10:45:08 | 47.74378 | 11.64406 | 114° | 47km/h | 17921m | 4.4m/s | -52.9°C | 3.5% | 81.1hPa | 2.6V | 00:00:00 | 01:16:17 | 00:00:00 | |
| OE5DRO-10 | 2026-09-02 10:45:07 | 47.74381 | 11.64394 | 109° | 42km/h | 17916m | 5.6m/s | -53.0°C | 3.6% | 81.2hPa | 2.6V | 02:22:00 | 00:00:00 | 00:00:00 | |
| OE5WHR-10 | 2026-09-02 10:45:06 | 47.74383 | 11.64382 | 103° | 44km/h | 17911m | 4.0m/s | -52.9°C | 3.6% | 81.3hPa | 2.7V | 00:00:00 | 00:00:00 | 00:00:00 | |
| DO3MHA-12 | 2026-09-02 10:45:05 | 47.74385 | 11.64368 | 102° | 40km/h | 17907m | 4.8m/s | -53.1°C | 3.6% | 81.3hPa | 2.7V | 00:00:00 | 01:16:14 | 00:00:00 | |
| DB0UT-7 | 2026-09-02 10:45:04 | 47.74387 | 11.64354 | 103° | 47km/h | 17902m | 5.1m/s | -53.1°C | 3.6% | 81.3hPa | 2.7V | 00:00:00 | 01:16:13 | 00:00:00 | |
| OM5KV | 2026-09-02 10:45:02 | 47.74389 | 11.64339 | 103° | 42km/h | 17897m | 4.4m/s | -53.2°C | 0.9% | 81.5hPa | 2.7V | 02:22:00 | 00:00:00 | 00:00:00 | |
| OE5MMP-10 | 2026-09-02 10:44:59 | 47.74397 | 11.64277 | 102° | 44km/h | 17877m | 5.9m/s | -53.5°C | 3.6% | 81.7hPa | 2.7V | 00:00:00 | 01:16:08 | 00:00:00 | |
| OM5KV | 2026-09-02 10:44:57 | 47.74401 | 11.64246 | 105° | 42km/h | 17868m | 4.7m/s | -53.8°C | 1.0% | 81.8hPa | 2.7V | 02:22:00 | 00:00:00 | 00:00:00 | |
| DO3MHA-12 | 2026-09-02 10:44:56 | 47.74406 | 11.64218 | 106° | 47km/h | 17859m | 3.5m/s | -53.9°C | 3.8% | 81.9hPa | 2.7V | 02:22:00 | 01:16:04 | 00:00:00 | |
| NBG1-10 | 2026-09-02 10:44:54 | 47.74409 | 11.64204 | 107° | 47km/h | 17854m | 4.8m/s | -53.9°C | 3.9% | 82.0hPa | 2.7V | 02:22:00 | 01:16:03 | 00:00:00 | |
| DO3MHA-11 | 2026-09-02 10:44:53 | 47.74412 | 11.64189 | 106° | 51km/h | 17849m | 4.8m/s | -53.9°C | 3.9% | 82.0hPa | 2.7V | 00:00:00 | 01:16:02 | 00:00:00 | |
| OM5KV | 2026-09-02 10:44:50 | 47.74417 | 11.64155 | 99° | 49km/h | 17841m | 4.1m/s | -53.8°C | 0% | 82.2hPa | 2.7V | 02:22:00 | 00:00:00 | 00:00:00 | |
| OE5MMP-10 | 2026-09-02 10:44:49 | 47.74419 | 11.64118 | 93° | 53km/h | 17831m | 4.5m/s | -53.9°C | 3.8% | 82.3hPa | 2.7V | 00:00:00 | 01:15:58 | 00:00:00 | |
| OE5DRO-10 | 2026-09-02 10:44:48 | 47.74419 | 11.64099 | 91° | 51km/h | 17826m | 5.8m/s | -53.9°C | 3.8% | 82.3hPa | 2.7V | 00:00:00 | 00:00:00 | 00:00:00 | |
| DO3MHA-12 | 2026-09-02 10:44:45 | 47.74420 | 11.64037 | 92° | 51km/h | 17812m | 5.3m/s | -53.9°C | 3.8% | 82.5hPa | 2.7V | 00:00:00 | 01:15:54 | 00:00:00 | |
| OM5KV | 2026-09-02 10:44:44 | 47.74420 | 11.64037 | 92° | 53km/h | 17812m | 5.4m/s | -53.9°C | 0% | 82.6hPa | 2.7V | 02:22:00 | 00:00:00 | 00:00:00 | |
| OE5DXL-15 | 2026-09-02 10:44:43 | 47.74421 | 11.63998 | 95° | 46km/h | 17802m | 4.9m/s | -53.8°C | 3.7% | 82.6hPa | 2.7V | 02:22:00 | 00:00:00 | 00:00:00 | |
| DL9SK-14 | 2026-09-02 10:44:41 | 47.74423 | 11.63959 | 94° | 53km/h | 17793m | 4.2m/s | -53.8°C | 0.9% | 82.8hPa | 2.6V | 00:00:00 | 00:00:00 | 00:00:00 | |
| OE5MMP-10 | 2026-09-02 10:44:39 | 47.74424 | 11.63920 | 91° | 47km/h | 17784m | 4.1m/s | -53.7°C | 3.7% | 82.9hPa | 2.6V | 02:22:00 | 01:15:48 | 00:00:00 | |
| DL6DJ-15 | 2026-09-02 10:44:38 | 47.74424 | 11.63901 | 89° | 51km/h | 17779m | 5.0m/s | -53.7°C | 1.0% | 83.0hPa | 2.6V | 00:00:00 | 00:00:00 | 00:00:00 | |
| OM5KV | 2026-09-02 10:44:36 | 47.74424 | 11.63882 | 90° | 51km/h | 17774m | 4.7m/s | -53.7°C | 0% | 83.1hPa | 2.6V | 02:22:00 | 00:00:00 | 00:00:00 | |
| DO3MHA-12 | 2026-09-02 10:44:35 | 47.74423 | 11.63844 | 88° | 44km/h | 17765m | 5.3m/s | -53.7°C | 3.8% | 83.1hPa | 2.6V | 00:00:00 | 01:15:44 | 00:00:00 | |
| DB0UT-7 | 2026-09-02 10:44:34 | 47.74423 | 11.63827 | 89° | 44km/h | 17760m | 3.8m/s | -53.6°C | 3.8% | 83.2hPa | 2.6V | 00:00:00 | 00:00:00 | 00:00:00 | |
| DO3MHA-11 | 2026-09-02 10:44:33 | 47.74423 | 11.63810 | 91° | 44km/h | 17756m | 5.0m/s | -53.6°C | 3.8% | 83.3hPa | 2.6V | 02:22:00 | 01:15:42 | 00:00:00 | |
| OM5KV | 2026-09-02 10:44:32 | 47.74422 | 11.63810 | 92° | 46km/h | 17756m | 5.0m/s | -53.7°C | 0% | 83.3hPa | 2.6V | 02:22:00 | 00:00:00 | 00:00:00 | |
| BAUMI2-15 | 2026-09-02 10:44:30 | 47.74424 | 11.63759 | 94° | 44km/h | 17742m | 5.4m/s | -53.7°C | 3.8% | 83.5hPa | 2.6V | 00:00:00 | 01:15:39 | 00:00:00 | |
| OE5MMP-10 | 2026-09-02 10:44:29 | 47.74425 | 11.63743 | 92° | 44km/h | 17737m | 4.7m/s | -53.7°C | 3.8% | 83.5hPa | 2.6V | 00:00:00 | 01:15:38 | 00:00:00 | |
| OM5KV | 2026-09-02 10:44:27 | 47.74425 | 11.63727 | 92° | 42km/h | 17732m | 4.4m/s | 0°C | 0% | 83.6hPa | 2.6V | 02:23:00 | 00:00:00 | 00:00:00 | |
| DO3MHA-12 | 2026-09-02 10:44:25 | 47.74425 | 11.63677 | 88° | 44km/h | 17718m | 5.2m/s | -54.0°C | 3.7% | 83.7hPa | 2.6V | 02:22:00 | 01:15:34 | 00:00:00 | |
| OE5WHR-10 | 2026-09-02 10:44:24 | 47.74425 | 11.63660 | 86° | 42km/h | 17713m | 4.5m/s | -54.0°C | 3.7% | 83.8hPa | 2.6V | 02:22:00 | 00:00:00 | 00:00:00 | |
| DO3MHA-11 | 2026-09-02 10:44:23 | 47.74424 | 11.63644 | 87° | 42km/h | 17709m | 4.3m/s | -54.1°C | 3.8% | 83.9hPa | 2.6V | 00:00:00 | 01:15:32 | 00:00:00 | |
| NBG1-10 | 2026-09-02 10:44:22 | 47.74424 | 11.63610 | 94° | 40km/h | 17699m | 4.1m/s | -54.2°C | 3.9% | 83.9hPa | 2.6V | 00:00:00 | 01:15:30 | 00:00:00 | |
| BAUMI2-15 | 2026-09-02 10:44:20 | 47.74425 | 11.63594 | 96° | 40km/h | 17694m | 5.2m/s | -54.2°C | 3.8% | 84.1hPa | 2.6V | 02:22:00 | 01:15:29 | 00:00:00 | |
| OE5MMP-10 | 2026-09-02 10:44:19 | 47.74426 | 11.63579 | 98° | 42km/h | 17689m | 4.2m/s | -54.1°C | 3.9% | 84.1hPa | 2.6V | 00:00:00 | 01:15:28 | 00:00:00 | |
| OM5KV | 2026-09-02 10:44:17 | 47.74427 | 11.63564 | 102° | 40km/h | 17685m | 4.1m/s | 0°C | 0% | 0hPa | 2.6V | 02:23:00 | 00:00:00 | 00:00:00 | |
| OM5KV | 2026-09-02 10:44:16 | 47.74430 | 11.63549 | 104° | 42km/h | 17680m | 5.4m/s | -54.2°C | 0% | 0hPa | 2.6V | 02:23:00 | 00:00:00 | 00:00:00 | |
| DO3MHA-12 | 2026-09-02 10:44:15 | 47.74434 | 11.63519 | 102° | 44km/h | 17671m | 5.3m/s | -54.2°C | 4.0% | 84.4hPa | 2.6V | 00:00:00 | 01:15:24 | 00:00:00 | |
| OE5DXL-15 | 2026-09-02 10:44:13 | 47.74437 | 11.63489 | 97° | 42km/h | 17661m | 4.5m/s | -54.2°C | 4.0% | 84.5hPa | 2.6V | 00:00:00 | 00:00:00 | 00:00:00 | |
| OM5KV | 2026-09-02 10:44:12 | 47.74437 | 11.63489 | 98° | 40km/h | 17661m | 4.6m/s | 0°C | 0% | 0hPa | 2.6V | 02:23:00 | 00:00:00 | 00:00:00 | |
| OE5DRO-10 | 2026-09-02 10:44:10 | 47.74441 | 11.63441 | 96° | 40km/h | 17647m | 4.9m/s | -54.2°C | 3.9% | 84.7hPa | 2.6V | 02:22:00 | 00:00:00 | 00:00:00 | |
| OE5MMP-10 | 2026-09-02 10:44:09 | 47.74442 | 11.63425 | 93° | 42km/h | 17642m | 4.7m/s | -54.2°C | 3.9% | 84.7hPa | 2.6V | 02:23:00 | 01:15:18 | 00:00:00 | |
| DL6DJ-15 | 2026-09-02 10:44:07 | 47.74444 | 11.63374 | 94° | 46km/h | 17628m | 4.0m/s | -54.2°C | 1.0% | 85.0hPa | 2.7V | 00:00:00 | 00:00:00 | 00:00:00 | |
| DO3MHA-12 | 2026-09-02 10:44:05 | 47.74445 | 11.63358 | 96° | 40km/h | 17624m | 5.0m/s | -54.2°C | 3.8% | 85.0hPa | 2.7V | 00:00:00 | 01:15:14 | 00:00:00 | |
| DB0UT-7 | 2026-09-02 10:44:04 | 47.74446 | 11.63342 | 98° | 42km/h | 17619m | 4.7m/s | -54.2°C | 3.9% | 85.0hPa | 2.7V | 02:23:00 | 01:15:13 | 00:00:00 | |
| DO3MHA-11 | 2026-09-02 10:44:03 | 47.74447 | 11.63327 | 102° | 40km/h | 17615m | 3.6m/s | -54.2°C | 3.9% | 85.1hPa | 2.6V | 02:23:00 | 01:15:12 | 00:00:00 | |
| DG1MFX-10 | 2026-09-02 10:44:02 | 47.74447 | 11.63327 | 102° | 40km/h | 17615m | 3.7m/s | -54.2°C | 1.0% | 85.2hPa | 2.6V | 02:23:00 | 00:00:00 | 00:00:00 | |
| DF7PN | 2026-09-02 10:43:54 | 47.74474 | 11.63196 | 108° | 37km/h | 17574m | 5.6m/s | -54.4°C | 1.0% | 85.7hPa | 2.6V | 00:00:00 | 00:00:00 | 00:00:00 | |
| DO3MHA-11 | 2026-09-02 10:43:53 | 47.74477 | 11.63183 | 113° | 42km/h | 17570m | 3.8m/s | -54.3°C | 3.9% | 85.7hPa | 2.6V | 00:00:00 | 01:15:02 | 00:00:00 | |
| OM5KV | 2026-09-02 10:43:52 | 47.74477 | 11.63183 | 113° | 35km/h | 17570m | 3.9m/s | -54.3°C | 0% | 0hPa | 2.6V | 02:23:00 | 00:00:00 | 00:00:00 | |
| OE5DRO-10 | 2026-09-02 10:43:51 | 47.74485 | 11.63160 | 120° | 46km/h | 17562m | 4.9m/s | -54.3°C | 3.9% | 85.8hPa | 2.6V | 00:00:00 | 00:00:00 | 00:00:00 | |
| BAUMI2-15 | 2026-09-02 10:43:50 | 47.74490 | 11.63148 | 122° | 42km/h | 17557m | 4.4m/s | -54.3°C | 3.9% | 85.8hPa | 2.6V | 02:23:00 | 01:14:59 | 00:00:00 | |
| OE5MMP-10 | 2026-09-02 10:43:49 | 47.74495 | 11.63135 | 121° | 46km/h | 17553m | 4.4m/s | -54.4°C | 3.9% | 85.9hPa | 2.6V | 00:00:00 | 01:14:58 | 00:00:00 | |
| DO3MHA-12 | 2026-09-02 10:43:45 | 47.74513 | 11.63074 | 111° | 46km/h | 17534m | 5.0m/s | -54.5°C | 4.0% | 86.2hPa | 2.6V | 00:00:00 | 01:14:54 | 00:00:00 | |
| DK5PH-5 | 2026-09-02 10:43:43 | 47.74521 | 11.63038 | 108° | 51km/h | 17524m | 5.1m/s | -54.6°C | 3.9% | 86.4hPa | 2.6V | 00:00:00 | 01:14:52 | 00:00:00 | |
| OE5WHR-10 | 2026-09-02 10:43:40 | 47.74533 | 11.62988 | 114° | 49km/h | 17510m | 3.8m/s | -54.5°C | 4.0% | 86.5hPa | 2.6V | 00:00:00 | 01:14:49 | 00:00:00 | |
| OE5MMP-10 | 2026-09-02 10:43:39 | 47.74538 | 11.62973 | 114° | 49km/h | 17506m | 3.6m/s | -54.5°C | 4.0% | 86.6hPa | 2.6V | 02:23:00 | 01:14:48 | 00:00:00 | |
| DL6DJ-15 | 2026-09-02 10:43:36 | 47.74552 | 11.62912 | 106° | 47km/h | 17488m | 4.7m/s | -54.6°C | 1.1% | 86.9hPa | 2.6V | 00:00:00 | 00:00:00 | 00:00:00 | |
| DO3MHA-12 | 2026-09-02 10:43:35 | 47.74552 | 11.62912 | 107° | 53km/h | 17488m | 4.7m/s | -54.5°C | 4.0% | 86.8hPa | 2.6V | 00:00:00 | 01:14:44 | 00:00:00 | |
| DB0UT-7 | 2026-09-02 10:43:34 | 47.74556 | 11.62894 | 107° | 53km/h | 17484m | 3.5m/s | -54.4°C | 4.0% | 86.9hPa | 2.6V | 00:00:00 | 00:00:00 | 00:00:00 | |
| DO3MHA-11 | 2026-09-02 10:43:33 | 47.74559 | 11.62875 | 106° | 53km/h | 17480m | 4.5m/s | -54.5°C | 4.1% | 87.0hPa | 2.6V | 02:23:00 | 01:14:42 | 00:00:00 | |
| OE5DRO-10 | 2026-09-02 10:43:32 | 47.74562 | 11.62856 | 103° | 53km/h | 17475m | 5.0m/s | -54.5°C | 4.0% | 87.0hPa | 2.7V | 00:00:00 | 00:00:00 | 00:00:00 | |
| BAUMI2-15 | 2026-09-02 10:43:30 | 47.74568 | 11.62816 | 102° | 53km/h | 17466m | 5.1m/s | -54.4°C | 4.0% | 87.1hPa | 2.7V | 00:00:00 | 01:14:39 | 00:00:00 | |
| OE5MMP-10 | 2026-09-02 10:43:29 | 47.74571 | 11.62796 | 102° | 49km/h | 17461m | 4.2m/s | -54.4°C | 4.0% | 87.2hPa | 2.7V | 00:00:00 | 01:14:38 | 00:00:00 | |
| OM5KV | 2026-09-02 10:43:28 | 47.74571 | 11.62796 | 103° | 57km/h | 17461m | 4.3m/s | 0°C | 0% | 0hPa | 2.7V | 00:00:00 | 00:00:00 | 00:00:00 | |
| DO3MHA-12 | 2026-09-02 10:43:25 | 47.74579 | 11.62719 | 99° | 51km/h | 17442m | 5.6m/s | -54.4°C | 3.9% | 87.4hPa | 2.7V | 02:23:00 | 01:14:34 | 00:00:00 | |
| DG1MJG | 2026-09-02 10:43:24 | 47.74579 | 11.62719 | 99° | 49km/h | 17442m | 5.7m/s | -54.4°C | 1.0% | 87.4hPa | 2.7V | 02:24:00 | 00:00:00 | 00:00:00 | |
| DO3MHA-11 | 2026-09-02 10:43:23 | 47.74583 | 11.62684 | 99° | 55km/h | 17433m | 3.5m/s | -54.4°C | 4.0% | 87.5hPa | 2.7V | 00:00:00 | 01:14:32 | 00:00:00 | |
| DG1MFX-10 | 2026-09-02 10:43:21 | 47.74584 | 11.62667 | 98° | 46km/h | 17429m | 5.4m/s | -54.5°C | 1.1% | 87.6hPa | 2.7V | 02:24:00 | 00:00:00 | 00:00:00 | |
| BAUMI2-15 | 2026-09-02 10:43:20 | 47.74587 | 11.62631 | 95° | 57km/h | 17419m | 5.3m/s | -54.3°C | 3.9% | 87.7hPa | 2.7V | 02:23:00 | 01:14:29 | 00:00:00 | |
| OE5MMP-10 | 2026-09-02 10:43:19 | 47.74588 | 11.62611 | 95° | 57km/h | 17414m | 4.4m/s | -54.3°C | 3.9% | 87.8hPa | 2.7V | 00:00:00 | 01:14:28 | 00:00:00 | |
| OM5KV | 2026-09-02 10:43:17 | 47.74589 | 11.62591 | 95° | 57km/h | 17410m | 4.1m/s | 0°C | 0% | 0hPa | 2.7V | 00:00:00 | 00:00:00 | 00:00:00 | |
| DO3MHA-12 | 2026-09-02 10:43:15 | 47.74590 | 11.62524 | 93° | 55km/h | 17396m | 5.9m/s | -54.3°C | 3.9% | 88.1hPa | 2.7V | 00:00:00 | 01:14:24 | 00:00:00 | |
| OE5DXL-15 | 2026-09-02 10:43:14 | 47.74592 | 11.62479 | 92° | 55km/h | 17386m | 4.8m/s | -54.4°C | 3.9% | 88.2hPa | 2.7V | 02:23:00 | 00:00:00 | 00:00:00 | |
| DO3MHA-11 | 2026-09-02 10:43:13 | 47.74592 | 11.62479 | 92° | 53km/h | 17386m | 4.8m/s | -54.4°C | 3.9% | 88.2hPa | 2.6V | 00:00:00 | 01:14:22 | 00:00:00 | |
| BAUMI2-15 | 2026-09-02 10:43:10 | 47.74592 | 11.62417 | 91° | 51km/h | 17371m | 5.3m/s | -54.5°C | 3.9% | 88.4hPa | 2.6V | 00:00:00 | 01:14:19 | 00:00:00 | |
| OE5MMP-10 | 2026-09-02 10:43:09 | 47.74592 | 11.62397 | 91° | 55km/h | 17366m | 4.4m/s | -54.5°C | 3.9% | 88.5hPa | 2.6V | 02:24:00 | 01:14:18 | 00:00:00 | |
| DL9SK-14 | 2026-09-02 10:43:08 | 47.74592 | 11.62378 | 88° | 49km/h | 17361m | 4.7m/s | -54.5°C | 1.0% | 88.6hPa | 2.6V | 00:00:00 | 00:00:00 | 00:00:00 | |
| DL6DJ-15 | 2026-09-02 10:43:05 | 47.74590 | 11.62300 | 88° | 55km/h | 17343m | 3.8m/s | -54.4°C | 1.0% | 88.8hPa | 2.6V | 00:00:00 | 00:00:00 | 00:00:00 | |
| DB0UT-7 | 2026-09-02 10:43:04 | 47.74590 | 11.62299 | 89° | 55km/h | 17344m | 3.7m/s | -54.4°C | 3.9% | 88.8hPa | 2.6V | 00:00:00 | 01:14:13 | 00:00:00 | |
| DO3MHA-11 | 2026-09-02 10:43:03 | 47.74589 | 11.62278 | 88° | 58km/h | 17339m | 5.6m/s | -54.4°C | 3.9% | 88.8hPa | 2.6V | 02:24:00 | 01:14:12 | 00:00:00 | |
| DF7PN | 2026-09-02 10:42:52 | 47.74575 | 11.62039 | 77° | 55km/h | 17286m | 4.6m/s | -54.7°C | 1.0% | 89.6hPa | 2.6V | 00:00:00 | 00:00:00 | 00:00:00 | |
| BAUMI2-15 | 2026-09-02 10:42:50 | 47.74569 | 11.62000 | 83° | 49km/h | 17278m | 5.5m/s | -54.6°C | 3.9% | 89.7hPa | 2.6V | 02:24:00 | 01:13:59 | 00:00:00 | |
| OE5MMP-10 | 2026-09-02 10:42:49 | 47.74568 | 11.61980 | 88° | 51km/h | 17273m | 4.4m/s | -54.6°C | 3.9% | 89.8hPa | 2.7V | 00:00:00 | 01:13:58 | 00:00:00 | |
| OM5KV | 2026-09-02 10:42:48 | 47.74569 | 11.61980 | 88° | 51km/h | 17273m | 4.5m/s | 0°C | 0% | 0hPa | 2.7V | 00:00:00 | 00:00:00 | 00:00:00 | |
| DO3MHA-12 | 2026-09-02 10:42:45 | 47.74568 | 11.61906 | 91° | 53km/h | 17254m | 5.6m/s | -54.8°C | 4.1% | 90.0hPa | 2.7V | 00:00:00 | 01:13:54 | 00:00:00 | |
| DO3MHA-11 | 2026-09-02 10:42:43 | 47.74567 | 11.61866 | 86° | 53km/h | 17245m | 4.3m/s | -54.9°C | 4.0% | 90.2hPa | 2.7V | 00:00:00 | 01:13:52 | 00:00:00 | |
| NBG1-10 | 2026-09-02 10:42:42 | 47.74566 | 11.61846 | 84° | 47km/h | 17240m | 5.1m/s | -55.1°C | 4.1% | 90.2hPa | 2.7V | 00:00:00 | 01:13:51 | 00:00:00 | |
| OE5MMP-10 | 2026-09-02 10:42:40 | 47.74562 | 11.61788 | 87° | 51km/h | 17226m | 5.0m/s | -55.1°C | 4.0% | 90.4hPa | 2.7V | 02:24:00 | 01:13:48 | 00:00:00 | |
| DL9SK-14 | 2026-09-02 10:42:37 | 47.74561 | 11.61748 | 87° | 51km/h | 17217m | 5.3m/s | -55.3°C | 1.1% | 90.6hPa | 2.7V | 00:00:00 | 00:00:00 | 00:00:00 | |
| DO3MHA-12 | 2026-09-02 10:42:35 | 47.74560 | 11.61710 | 89° | 51km/h | 17207m | 4.4m/s | -55.3°C | 4.2% | 90.7hPa | 2.7V | 00:00:00 | 01:13:44 | 00:00:00 | |
| DB0UT-7 | 2026-09-02 10:42:34 | 47.74560 | 11.61690 | 89° | 44km/h | 17202m | 5.6m/s | -55.4°C | 4.2% | 90.8hPa | 2.7V | 02:24:00 | 00:00:00 | 00:00:00 | |
| DO3MHA-11 | 2026-09-02 10:42:33 | 47.74559 | 11.61671 | 89° | 49km/h | 17197m | 4.3m/s | -55.4°C | 4.2% | 90.9hPa | 2.6V | 02:24:00 | 01:13:42 | 00:00:00 | |
| OE5MMP-10 | 2026-09-02 10:42:29 | 47.74556 | 11.61595 | 87° | 46km/h | 17178m | 5.7m/s | -55.4°C | 4.3% | 91.2hPa | 2.7V | 00:00:00 | 01:13:38 | 00:00:00 | |
| DO3MHA-12 | 2026-09-02 10:42:25 | 47.74553 | 11.61523 | 83° | 44km/h | 17157m | 5.1m/s | -55.3°C | 4.3% | 91.4hPa | 2.7V | 02:24:00 | 01:13:34 | 00:00:00 | |
| DO3MHA-11 | 2026-09-02 10:42:23 | 47.74549 | 11.61489 | 80° | 44km/h | 17147m | 3.7m/s | -55.3°C | 4.2% | 91.6hPa | 2.7V | 00:00:00 | 01:13:32 | 00:00:00 | |
| DF7PN | 2026-09-02 10:42:21 | 47.74545 | 11.61457 | 75° | 40km/h | 17138m | 5.4m/s | -55.3°C | 1.1% | 91.7hPa | 2.7V | 00:00:00 | 00:00:00 | 00:00:00 | |
| DG1MFX-10 | 2026-09-02 10:42:20 | 47.74545 | 11.61457 | 76° | 42km/h | 17138m | 5.4m/s | -55.3°C | 1.1% | 91.7hPa | 2.7V | 02:25:00 | 00:00:00 | 00:00:00 | |
| OE5MMP-10 | 2026-09-02 10:42:19 | 47.74539 | 11.61427 | 77° | 42km/h | 17128m | 5.5m/s | -55.4°C | 4.2% | 91.9hPa | 2.7V | 00:00:00 | 01:13:28 | 00:00:00 | |
| OE5DRO-10 | 2026-09-02 10:42:16 | 47.74532 | 11.61380 | 78° | 42km/h | 17114m | 4.3m/s | -55.3°C | 4.2% | 92.1hPa | 2.7V | 02:24:00 | 00:00:00 | 00:00:00 | |
| DO3MHA-12 | 2026-09-02 10:42:15 | 47.74530 | 11.61364 | 79° | 40km/h | 17108m | 5.7m/s | -55.3°C | 4.2% | 92.1hPa | 2.6V | 00:00:00 | 01:13:24 | 00:00:00 | |
| IN3HCDX | 2026-09-02 10:42:13 | 47.74526 | 11.61331 | 82° | 46km/h | 17099m | 4.7m/s | -55.4°C | 1.2% | 92.3hPa | 2.6V | 02:25:00 | 00:00:00 | 00:00:00 | |
| NBG1-10 | 2026-09-02 10:42:09 | 47.74521 | 11.61271 | 87° | 40km/h | 17079m | 5.5m/s | -55.4°C | 4.2% | 92.6hPa | 2.6V | 00:00:00 | 01:13:18 | 00:00:00 | |
| DO3MHA-12 | 2026-09-02 10:42:06 | 47.74518 | 11.61213 | 84° | 42km/h | 17058m | 5.4m/s | -55.2°C | 4.2% | 92.8hPa | 2.6V | 00:00:00 | 01:13:14 | 00:00:00 | |
| DB0UT-7 | 2026-09-02 10:42:05 | 47.74517 | 11.61197 | 86° | 42km/h | 17053m | 5.5m/s | -55.1°C | 4.1% | 92.9hPa | 2.6V | 00:00:00 | 01:13:13 | 00:00:00 | |
| DO3MHA-11 | 2026-09-02 10:42:04 | 47.74516 | 11.61181 | 87° | 42km/h | 17048m | 4.1m/s | -55.1°C | 4.1% | 93.0hPa | 2.6V | 02:25:00 | 01:13:12 | 00:00:00 | |
| DL6DJ-15 | 2026-09-02 10:42:02 | 47.74515 | 11.61166 | 84° | 42km/h | 17043m | 5.8m/s | -55.2°C | 1.1% | 93.1hPa | 2.7V | 00:00:00 | 00:00:00 | 00:00:00 | |
| DF7PN | 2026-09-02 10:41:50 | 47.74516 | 11.60990 | 90° | 35km/h | 16985m | 5.0m/s | -55.4°C | 1.2% | 94.0hPa | 2.7V | 00:00:00 | 00:00:00 | 00:00:00 | |
| OE5MMP-10 | 2026-09-02 10:41:49 | 47.74516 | 11.60976 | 92° | 44km/h | 16980m | 5.1m/s | -55.3°C | 4.3% | 94.0hPa | 2.7V | 00:00:00 | 01:12:58 | 00:00:00 | |
| DO3MHA-12 | 2026-09-02 10:41:45 | 47.74518 | 11.60914 | 97° | 44km/h | 16961m | 4.4m/s | -55.3°C | 4.3% | 94.3hPa | 2.7V | 00:00:00 | 01:12:54 | 00:00:00 | |
| DK5PH-5 | 2026-09-02 10:41:43 | 47.74522 | 11.60880 | 103° | 42km/h | 16952m | 3.3m/s | -55.3°C | 4.4% | 94.4hPa | 2.7V | 00:00:00 | 01:12:52 | 00:00:00 | |
| DF1GD-15 | 2026-09-02 10:41:42 | 47.74522 | 11.60880 | 103° | 47km/h | 16952m | 3.4m/s | 0°C | 0% | 0hPa | 2.7V | 00:00:00 | 00:00:00 | 00:00:00 | |
| OE5MMP-10 | 2026-09-02 10:41:39 | 47.74529 | 11.60815 | 91° | 42km/h | 16934m | 5.1m/s | -55.3°C | 4.4% | 94.7hPa | 2.7V | 02:25:00 | 01:12:48 | 00:00:00 | |
| OE5DRO-10 | 2026-09-02 10:41:38 | 47.74529 | 11.60799 | 86° | 42km/h | 16929m | 5.2m/s | -55.3°C | 4.4% | 94.8hPa | 2.7V | 00:00:00 | 00:00:00 | 00:00:00 | |
| NBG1-10 | 2026-09-02 10:41:36 | 47.74525 | 11.60766 | 76° | 44km/h | 16919m | 4.8m/s | -55.1°C | 4.3% | 94.9hPa | 2.7V | 02:25:00 | 01:12:45 | 00:00:00 | |
| DO3MHA-12 | 2026-09-02 10:41:35 | 47.74522 | 11.60751 | 73° | 42km/h | 16914m | 5.3m/s | -55.1°C | 4.2% | 95.0hPa | 2.6V | 00:00:00 | 01:12:44 | 00:00:00 | |
| DB0UT-7 | 2026-09-02 10:41:34 | 47.74519 | 11.60735 | 74° | 42km/h | 16909m | 4.7m/s | -55.2°C | 4.3% | 95.0hPa | 2.6V | 00:00:00 | 00:00:00 | 00:00:00 | |
| DO3MHA-11 | 2026-09-02 10:41:33 | 47.74516 | 11.60720 | 78° | 42km/h | 16904m | 5.4m/s | -55.1°C | 4.3% | 95.2hPa | 2.6V | 02:25:00 | 01:12:42 | 00:00:00 | |
| IN3HCDX | 2026-09-02 10:41:31 | 47.74513 | 11.60691 | 85° | 38km/h | 16894m | 5.4m/s | -55.1°C | 1.2% | 95.4hPa | 2.7V | 02:26:00 | 00:00:00 | 00:00:00 | |
| OE5MMP-10 | 2026-09-02 10:41:29 | 47.74512 | 11.60662 | 92° | 44km/h | 16885m | 5.4m/s | -54.9°C | 4.2% | 95.4hPa | 2.7V | 00:00:00 | 01:12:38 | 00:00:00 | |
| DO3MHA-12 | 2026-09-02 10:41:25 | 47.74512 | 11.60597 | 86° | 42km/h | 16865m | 5.9m/s | -54.7°C | 4.1% | 95.8hPa | 2.7V | 02:25:00 | 01:12:34 | 00:00:00 | |
| DG1MJG | 2026-09-02 10:41:24 | 47.74510 | 11.60580 | 85° | 47km/h | 16860m | 4.8m/s | -54.8°C | 1.2% | 95.9hPa | 2.6V | 02:26:00 | 00:00:00 | 00:00:00 | |
| DO3MHA-11 | 2026-09-02 10:41:23 | 47.74509 | 11.60563 | 82° | 40km/h | 16854m | 6.0m/s | -54.8°C | 4.2% | 95.9hPa | 2.6V | 00:00:00 | 01:12:32 | 00:00:00 | |
| OE5MMP-10 | 2026-09-02 10:41:19 | 47.74503 | 11.60499 | 85° | 42km/h | 16835m | 4.5m/s | -54.8°C | 4.2% | 96.2hPa | 2.6V | 00:00:00 | 01:12:28 | 00:00:00 | |
| DO3MHA-12 | 2026-09-02 10:41:15 | 47.74503 | 11.60444 | 95° | 46km/h | 16815m | 4.6m/s | -54.9°C | 4.3% | 96.5hPa | 2.6V | 00:00:00 | 01:12:24 | 00:00:00 | |
| DK5PH-5 | 2026-09-02 10:41:13 | 47.74504 | 11.60412 | 90° | 44km/h | 16806m | 5.6m/s | -54.9°C | 4.3% | 96.6hPa | 2.6V | 02:25:00 | 01:12:22 | 00:00:00 | |
| OE5MMP-10 | 2026-09-02 10:41:09 | 47.74503 | 11.60342 | 91° | 46km/h | 16787m | 4.6m/s | -54.9°C | 4.3% | 96.9hPa | 2.6V | 02:26:00 | 01:12:18 | 00:00:00 | |
| DO3MHA-12 | 2026-09-02 10:41:05 | 47.74503 | 11.60274 | 93° | 46km/h | 16767m | 4.4m/s | -54.7°C | 4.2% | 97.2hPa | 2.6V | 00:00:00 | 01:12:14 | 00:00:00 | |
| DB0UT-7 | 2026-09-02 10:41:04 | 47.74504 | 11.60256 | 93° | 38km/h | 16763m | 3.4m/s | -54.7°C | 4.2% | 97.3hPa | 2.6V | 02:26:00 | 01:12:13 | 00:00:00 | |
| DO3MHA-11 | 2026-09-02 10:41:03 | 47.74505 | 11.60238 | 91° | 44km/h | 16759m | 5.2m/s | -54.7°C | 4.2% | 97.3hPa | 2.6V | 02:26:00 | 01:12:12 | 00:00:00 | |
| DL6DJ-15 | 2026-09-02 10:41:00 | 47.74505 | 11.60186 | 92° | 44km/h | 16745m | 5.3m/s | -54.8°C | 1.2% | 97.6hPa | 2.7V | 00:00:00 | 00:00:00 | 00:00:00 | |
| DF7PN | 2026-09-02 10:40:48 | 47.74508 | 11.60002 | 93° | 37km/h | 16686m | 3.6m/s | -55.0°C | 1.3% | 98.5hPa | 2.7V | 00:00:00 | 00:00:00 | 00:00:00 | |
| DO3MHA-12 | 2026-09-02 10:40:45 | 47.74507 | 11.59959 | 84° | 31km/h | 16673m | 3.7m/s | -55.0°C | 4.3% | 98.7hPa | 2.7V | 00:00:00 | 01:11:54 | 00:00:00 | |
| DO3MHA-11 | 2026-09-02 10:40:43 | 47.74505 | 11.59931 | 85° | 29km/h | 16663m | 4.6m/s | -55.0°C | 4.4% | 98.8hPa | 2.7V | 00:00:00 | 01:11:52 | 00:00:00 | |
| OE5DRO-10 | 2026-09-02 10:40:41 | 47.74503 | 11.59905 | 82° | 31km/h | 16653m | 5.0m/s | -55.0°C | 4.3% | 99.0hPa | 2.7V | 00:00:00 | 00:00:00 | 00:00:00 | |
| OE5MMP-10 | 2026-09-02 10:40:39 | 47.74501 | 11.59882 | 86° | 29km/h | 16643m | 5.3m/s | -55.0°C | 4.3% | 99.1hPa | 2.7V | 02:26:00 | 01:11:48 | 00:00:00 | |
| DG1MFX-10 | 2026-09-02 10:40:38 | 47.74501 | 11.59882 | 87° | 27km/h | 16643m | 5.4m/s | -55.0°C | 1.3% | 99.2hPa | 2.7V | 02:26:00 | 00:00:00 | 00:00:00 | |
| DF1GD-15 | 2026-09-02 10:40:37 | 47.74500 | 11.59873 | 89° | 26km/h | 16639m | 3.7m/s | 0°C | 0% | 0hPa | 2.7V | 00:00:00 | 00:00:00 | 00:00:00 | |
| DO3MHA-12 | 2026-09-02 10:40:35 | 47.74498 | 11.59843 | 79° | 31km/h | 16625m | 4.2m/s | -55.0°C | 4.4% | 99.4hPa | 2.7V | 00:00:00 | 01:11:44 | 00:00:00 | |
| BAUMI2-15 | 2026-09-02 10:40:34 | 47.74497 | 11.59833 | 80° | 31km/h | 16621m | 3.7m/s | -55.0°C | 4.3% | 99.5hPa | 2.7V | 02:26:00 | 01:11:43 | 00:00:00 | |
| DO3MHA-11 | 2026-09-02 10:40:33 | 47.74495 | 11.59822 | 84° | 31km/h | 16616m | 5.3m/s | -55.0°C | 4.4% | 99.5hPa | 2.6V | 02:26:00 | 01:11:42 | 00:00:00 | |
| NBG1-10 | 2026-09-02 10:40:30 | 47.74493 | 11.59788 | 84° | 29km/h | 16602m | 4.4m/s | -54.8°C | 4.3% | 99.7hPa | 2.7V | 00:00:00 | 01:11:39 | 00:00:00 | |
| OE5MMP-10 | 2026-09-02 10:40:29 | 47.74492 | 11.59775 | 86° | 31km/h | 16596m | 6.0m/s | -54.8°C | 4.4% | 99.9hPa | 2.7V | 00:00:00 | 01:11:38 | 00:00:00 | |
| IN3HCDX | 2026-09-02 10:40:27 | 47.74492 | 11.59763 | 89° | 33km/h | 16591m | 3.7m/s | -54.8°C | 1.3% | 100.0hPa | 2.7V | 00:00:00 | 00:00:00 | 00:00:00 | |
| DO3MHA-12 | 2026-09-02 10:40:25 | 47.74490 | 11.59727 | 84° | 29km/h | 16578m | 4.1m/s | -54.8°C | 4.3% | 100.1hPa | 2.7V | 02:26:00 | 01:11:34 | 00:00:00 | |
| PG1ADW-2 | 2026-09-02 10:40:24 | 47.74489 | 11.59715 | 87° | 27km/h | 16573m | 5.9m/s | -54.7°C | 4.3% | 100.2hPa | 2.6V | 00:00:00 | 00:00:00 | 00:00:00 | |
| DO3MHA-11 | 2026-09-02 10:40:23 | 47.74489 | 11.59703 | 90° | 29km/h | 16568m | 3.9m/s | -54.6°C | 4.2% | 100.3hPa | 2.6V | 00:00:00 | 01:11:32 | 00:00:00 | |
| OE5WHR-10 | 2026-09-02 10:40:22 | 47.74489 | 11.59692 | 90° | 27km/h | 16563m | 4.8m/s | -54.6°C | 4.3% | 100.4hPa | 2.6V | 00:00:00 | 00:00:00 | 00:00:00 | |
| OE5MMP-10 | 2026-09-02 10:40:19 | 47.74488 | 11.59658 | 90° | 27km/h | 16548m | 5.5m/s | -54.6°C | 4.3% | 100.6hPa | 2.6V | 00:00:00 | 01:11:28 | 00:00:00 | |
| DG1MFX-10 | 2026-09-02 10:40:18 | 47.74488 | 11.59658 | 91° | 29km/h | 16548m | 5.6m/s | -54.7°C | 1.3% | 100.7hPa | 2.6V | 02:26:00 | 00:00:00 | 00:00:00 | |
| DO3MHA-12 | 2026-09-02 10:40:15 | 47.74488 | 11.59617 | 88° | 27km/h | 16529m | 4.7m/s | -54.6°C | 4.3% | 100.9hPa | 2.6V | 00:00:00 | 01:11:24 | 00:00:00 | |
| BAUMI2-15 | 2026-09-02 10:40:14 | 47.74488 | 11.59606 | 93° | 27km/h | 16524m | 5.8m/s | -54.6°C | 4.3% | 101.0hPa | 2.6V | 00:00:00 | 01:11:23 | 00:00:00 | |
| DK5PH-5 | 2026-09-02 10:40:13 | 47.74488 | 11.59596 | 99° | 31km/h | 16518m | 5.4m/s | -54.6°C | 4.3% | 101.1hPa | 2.6V | 00:00:00 | 01:11:22 | 00:00:00 | |
| BAUMI2-15 | 2026-09-02 10:40:09 | 47.74493 | 11.59555 | 99° | 27km/h | 16499m | 3.7m/s | -54.5°C | 4.3% | 101.4hPa | 2.6V | 00:00:00 | 01:11:18 | 00:00:00 | |
| IN3HCDX | 2026-09-02 10:40:07 | 47.74495 | 11.59545 | 101° | 27km/h | 16495m | 5.6m/s | -54.6°C | 1.3% | 101.5hPa | 2.6V | 02:27:00 | 00:00:00 | 00:00:00 | |
| DO3MHA-12 | 2026-09-02 10:40:05 | 47.74498 | 11.59516 | 96° | 29km/h | 16481m | 5.3m/s | -54.4°C | 4.1% | 101.7hPa | 2.6V | 00:00:00 | 01:11:14 | 00:00:00 | |
| DB0UT-7 | 2026-09-02 10:40:04 | 47.74498 | 11.59505 | 91° | 33km/h | 16475m | 4.9m/s | -54.4°C | 4.0% | 101.7hPa | 2.6V | 00:00:00 | 01:11:13 | 00:00:00 | |
| DO3MHA-11 | 2026-09-02 10:40:03 | 47.74498 | 11.59495 | 90° | 29km/h | 16471m | 3.9m/s | -54.4°C | 4.0% | 101.8hPa | 2.6V | 02:27:00 | 01:11:12 | 00:00:00 | |
| DL6DJ-15 | 2026-09-02 10:39:58 | 47.74510 | 11.59448 | 125° | 31km/h | 16446m | 4.4m/s | -54.1°C | 1.2% | 102.3hPa | 2.7V | 00:00:00 | 00:00:00 | 00:00:00 | |
| DF7PN | 2026-09-02 10:39:46 | 47.74551 | 11.59313 | 113° | 33km/h | 16391m | 5.5m/s | -54.2°C | 1.2% | 103.1hPa | 2.7V | 00:00:00 | 00:00:00 | 00:00:00 | |
| DO3MHA-12 | 2026-09-02 10:39:45 | 47.74555 | 11.59301 | 116° | 37km/h | 16386m | 4.5m/s | -54.2°C | 4.1% | 103.2hPa | 2.7V | 00:00:00 | 01:10:54 | 00:00:00 | |
| PG1ADW-2 | 2026-09-02 10:39:44 | 47.74558 | 11.59290 | 119° | 40km/h | 16381m | 4.3m/s | -54.2°C | 4.1% | 103.2hPa | 2.7V | 02:27:00 | 01:10:53 | 00:00:00 | |
| OE5DXL-15 | 2026-09-02 10:39:43 | 47.74563 | 11.59279 | 124° | 44km/h | 16376m | 5.9m/s | -54.2°C | 4.1% | 103.4hPa | 2.6V | 00:00:00 | 00:00:00 | 00:00:00 | |
| OE5WHR-10 | 2026-09-02 10:39:40 | 47.74580 | 11.59245 | 128° | 44km/h | 16361m | 4.5m/s | -54.1°C | 4.1% | 103.6hPa | 2.6V | 02:27:00 | 00:00:00 | 00:00:00 | |
| OE5MMP-10 | 2026-09-02 10:39:39 | 47.74586 | 11.59234 | 128° | 42km/h | 16357m | 3.9m/s | -54.1°C | 4.1% | 103.7hPa | 2.6V | 02:27:00 | 01:10:48 | 00:00:00 | |
| DG1MFX-10 | 2026-09-02 10:39:37 | 47.74592 | 11.59223 | 130° | 38km/h | 16352m | 5.9m/s | -54.2°C | 1.3% | 103.8hPa | 2.6V | 02:27:00 | 00:00:00 | 00:00:00 | |
| DO3MHA-12 | 2026-09-02 10:39:35 | 47.74610 | 11.59187 | 120° | 44km/h | 16337m | 4.2m/s | -54.1°C | 4.2% | 104.0hPa | 2.6V | 00:00:00 | 01:10:44 | 00:00:00 | |
| DB0UT-7 | 2026-09-02 10:39:34 | 47.74615 | 11.59173 | 117° | 47km/h | 16333m | 3.6m/s | -54.0°C | 4.2% | 104.0hPa | 2.6V | 02:27:00 | 00:00:00 | 00:00:00 | |
| DO3MHA-11 | 2026-09-02 10:39:33 | 47.74619 | 11.59160 | 117° | 44km/h | 16329m | 5.4m/s | -54.0°C | 4.1% | 104.1hPa | 2.6V | 02:27:00 | 01:10:42 | 00:00:00 | |
| OE5MMP-10 | 2026-09-02 10:39:29 | 47.74639 | 11.59101 | 117° | 46km/h | 16309m | 4.0m/s | -53.9°C | 4.1% | 104.4hPa | 2.7V | 00:00:00 | 01:10:38 | 00:00:00 | |
| DL6DJ-15 | 2026-09-02 10:39:27 | 47.74650 | 11.59072 | 120° | 44km/h | 16300m | 4.2m/s | -53.9°C | 1.2% | 104.6hPa | 2.7V | 00:00:00 | 00:00:00 | 00:00:00 | |
| DO3MHA-12 | 2026-09-02 10:39:25 | 47.74661 | 11.59043 | 121° | 47km/h | 16290m | 3.9m/s | -53.8°C | 4.0% | 104.8hPa | 2.7V | 02:27:00 | 01:10:34 | 00:00:00 | |
| NBG1-10 | 2026-09-02 10:39:24 | 47.74667 | 11.59030 | 122° | 51km/h | 16285m | 5.3m/s | -53.8°C | 3.9% | 104.8hPa | 2.7V | 00:00:00 | 01:10:33 | 00:00:00 | |
| DO3MHA-11 | 2026-09-02 10:39:23 | 47.74673 | 11.59015 | 122° | 49km/h | 16281m | 4.6m/s | -53.7°C | 3.9% | 104.9hPa | 2.7V | 00:00:00 | 01:10:32 | 00:00:00 | |
| DG1MJG | 2026-09-02 10:39:22 | 47.74673 | 11.59015 | 122° | 46km/h | 16281m | 4.7m/s | -53.8°C | 1.2% | 104.9hPa | 2.7V | 02:28:00 | 00:00:00 | 00:00:00 | |
| OE5MMP-10 | 2026-09-02 10:39:19 | 47.74695 | 11.58953 | 117° | 51km/h | 16261m | 5.7m/s | -53.7°C | 4.1% | 105.3hPa | 2.7V | 00:00:00 | 01:10:28 | 00:00:00 | |
| DG1MFX-10 | 2026-09-02 10:39:16 | 47.74706 | 11.58919 | 117° | 49km/h | 16252m | 5.4m/s | -53.6°C | 1.2% | 105.4hPa | 2.7V | 02:28:00 | 00:00:00 | 00:00:00 | |
| OE5DXL-15 | 2026-09-02 10:39:15 | 47.74729 | 11.58850 | 117° | 57km/h | 16233m | 5.0m/s | -53.6°C | 3.9% | 105.7hPa | 2.7V | 00:00:00 | 00:00:00 | 00:00:00 | |
| DK5PH-5 | 2026-09-02 10:39:14 | 47.74729 | 11.58850 | 117° | 57km/h | 16233m | 5.0m/s | -53.6°C | 3.9% | 105.7hPa | 2.7V | 00:00:00 | 01:10:22 | 00:00:00 | |
| DO3MHA-11 | 2026-09-02 10:39:13 | 47.74729 | 11.58850 | 117° | 51km/h | 16233m | 5.0m/s | -53.6°C | 3.9% | 105.7hPa | 2.7V | 00:00:00 | 01:10:22 | 00:00:00 | |
| BAUMI2-15 | 2026-09-02 10:39:09 | 47.74753 | 11.58782 | 118° | 51km/h | 16213m | 4.5m/s | -53.6°C | 3.9% | 106.0hPa | 2.7V | 00:00:00 | 01:10:18 | 00:00:00 | |
| OE5DRO-10 | 2026-09-02 10:39:06 | 47.74769 | 11.58730 | 116° | 57km/h | 16200m | 5.0m/s | -53.6°C | 3.9% | 106.3hPa | 2.7V | 00:00:00 | 00:00:00 | 00:00:00 | |
| DO3MHA-12 | 2026-09-02 10:39:05 | 47.74775 | 11.58712 | 117° | 55km/h | 16196m | 4.1m/s | -53.6°C | 3.9% | 106.3hPa | 2.7V | 00:00:00 | 01:10:14 | 00:00:00 | |
| DB0UT-7 | 2026-09-02 10:39:04 | 47.74781 | 11.58695 | 117° | 60km/h | 16192m | 4.1m/s | -53.6°C | 3.9% | 106.4hPa | 2.7V | 00:00:00 | 01:10:13 | 00:00:00 | |
| DO3MHA-11 | 2026-09-02 10:39:03 | 47.74787 | 11.58677 | 115° | 55km/h | 16187m | 5.5m/s | -53.7°C | 4.0% | 106.5hPa | 2.7V | 02:28:00 | 01:10:12 | 00:00:00 | |
| DL6DJ-15 | 2026-09-02 10:38:56 | 47.74825 | 11.58545 | 111° | 55km/h | 16154m | 4.4m/s | -53.8°C | 1.2% | 107.1hPa | 2.6V | 00:00:00 | 00:00:00 | 00:00:00 | |
| DO3MHA-12 | 2026-09-02 10:38:55 | 47.74830 | 11.58526 | 113° | 60km/h | 16150m | 5.0m/s | -53.7°C | 4.0% | 107.1hPa | 2.6V | 02:28:00 | 01:10:04 | 00:00:00 | |
| BAUMI2-15 | 2026-09-02 10:38:54 | 47.74836 | 11.58506 | 112° | 58km/h | 16145m | 4.6m/s | -53.7°C | 4.0% | 107.2hPa | 2.6V | 00:00:00 | 01:10:03 | 00:00:00 | |
| DO3MHA-11 | 2026-09-02 10:38:53 | 47.74840 | 11.58486 | 110° | 60km/h | 16140m | 5.2m/s | -53.7°C | 4.0% | 107.3hPa | 2.6V | 00:00:00 | 01:10:02 | 00:00:00 | |
| NBG1-10 | 2026-09-02 10:38:51 | 47.74850 | 11.58446 | 109° | 66km/h | 16130m | 5.7m/s | -53.7°C | 4.0% | 107.4hPa | 2.6V | 00:00:00 | 01:10:00 | 00:00:00 | |
| OE5MMP-10 | 2026-09-02 10:38:49 | 47.74859 | 11.58403 | 107° | 64km/h | 16120m | 5.2m/s | -53.6°C | 3.9% | 107.5hPa | 2.6V | 00:00:00 | 01:09:58 | 00:00:00 | |
| OE5DRO-10 | 2026-09-02 10:38:47 | 47.74868 | 11.58358 | 108° | 64km/h | 16112m | 3.4m/s | -53.6°C | 3.9% | 107.7hPa | 2.6V | 00:00:00 | 00:00:00 | 00:00:00 | |
| DO3MHA-12 | 2026-09-02 10:38:45 | 47.74879 | 11.58313 | 112° | 64km/h | 16102m | 4.0m/s | -53.4°C | 3.9% | 107.9hPa | 2.6V | 00:00:00 | 01:09:54 | 00:00:00 | |
| PG1ADW-2 | 2026-09-02 10:38:44 | 47.74885 | 11.58291 | 114° | 66km/h | 16098m | 4.3m/s | -53.4°C | 3.9% | 108.0hPa | 2.6V | 02:28:00 | 00:00:00 | 00:00:00 | |
| OE5DXL-15 | 2026-09-02 10:38:43 | 47.74891 | 11.58269 | 114° | 68km/h | 16093m | 5.0m/s | -53.4°C | 3.9% | 108.0hPa | 2.6V | 02:28:00 | 00:00:00 | 00:00:00 | |
| OE5MMP-10 | 2026-09-02 10:38:39 | 47.74919 | 11.58183 | 119° | 66km/h | 16075m | 4.1m/s | -53.5°C | 3.9% | 108.3hPa | 2.6V | 02:28:00 | 01:09:48 | 00:00:00 | |
| OE5WHR-10 | 2026-09-02 10:38:37 | 47.74934 | 11.58140 | 115° | 68km/h | 16065m | 4.1m/s | -53.5°C | 3.9% | 108.5hPa | 2.6V | 02:28:00 | 00:00:00 | 00:00:00 | |
| DO3MHA-12 | 2026-09-02 10:38:35 | 47.74946 | 11.58096 | 113° | 68km/h | 16056m | 5.2m/s | -53.5°C | 3.9% | 108.7hPa | 2.6V | 00:00:00 | 01:09:44 | 00:00:00 | |
| DB0UT-7 | 2026-09-02 10:38:34 | 47.74953 | 11.58074 | 113° | 69km/h | 16052m | 4.0m/s | -53.5°C | 3.9% | 108.7hPa | 2.6V | 00:00:00 | 00:00:00 | 00:00:00 | |
| DO3MHA-11 | 2026-09-02 10:38:33 | 47.74959 | 11.58051 | 112° | 68km/h | 16047m | 5.6m/s | -53.5°C | 4.0% | 108.8hPa | 2.6V | 02:28:00 | 01:09:42 | 00:00:00 | |
| OE5MMP-10 | 2026-09-02 10:38:29 | 47.74984 | 11.57958 | 113° | 68km/h | 16028m | 3.9m/s | -53.5°C | 4.0% | 109.1hPa | 2.6V | 00:00:00 | 01:09:38 | 00:00:00 | |
| OE5DRO-10 | 2026-09-02 10:38:28 | 47.74991 | 11.57934 | 113° | 69km/h | 16023m | 5.4m/s | -53.5°C | 4.0% | 109.2hPa | 2.6V | 02:28:00 | 00:00:00 | 00:00:00 | |
| DO3MHA-12 | 2026-09-02 10:38:25 | 47.75011 | 11.57864 | 113° | 68km/h | 16009m | 4.5m/s | -53.4°C | 3.9% | 109.4hPa | 2.7V | 02:28:00 | 01:09:34 | 00:00:00 | |
| PG1ADW-2 | 2026-09-02 10:38:24 | 47.75017 | 11.57840 | 113° | 71km/h | 16004m | 5.2m/s | -53.4°C | 3.9% | 109.5hPa | 2.7V | 00:00:00 | 01:09:33 | 00:00:00 | |
| DO3MHA-11 | 2026-09-02 10:38:23 | 47.75023 | 11.57817 | 112° | 69km/h | 15999m | 4.7m/s | -53.4°C | 3.9% | 109.6hPa | 2.7V | 00:00:00 | 01:09:32 | 00:00:00 | |
| IN3HCDX | 2026-09-02 10:38:22 | 47.75023 | 11.57817 | 112° | 66km/h | 15999m | 4.8m/s | -53.5°C | 1.2% | 109.7hPa | 2.7V | 02:29:00 | 00:00:00 | 00:00:00 | |
| DG1MJG | 2026-09-02 10:38:20 | 47.75035 | 11.57771 | 112° | 66km/h | 15990m | 5.7m/s | -53.4°C | 1.1% | 109.9hPa | 2.7V | 02:29:00 | 00:00:00 | 00:00:00 | |
| OE5MMP-10 | 2026-09-02 10:38:19 | 47.75047 | 11.57723 | 108° | 73km/h | 15980m | 5.1m/s | -53.3°C | 3.8% | 110.0hPa | 2.7V | 00:00:00 | 01:09:28 | 00:00:00 | |
| NBG1-10 | 2026-09-02 10:38:18 | 47.75052 | 11.57699 | 106° | 75km/h | 15975m | 4.7m/s | -53.2°C | 3.8% | 110.0hPa | 2.7V | 02:28:00 | 01:09:27 | 00:00:00 | |
| OE5WHR-10 | 2026-09-02 10:38:16 | 47.75061 | 11.57648 | 105° | 73km/h | 15966m | 5.7m/s | -53.2°C | 3.8% | 110.2hPa | 2.7V | 00:00:00 | 00:00:00 | 00:00:00 | |
| DO3MHA-12 | 2026-09-02 10:38:15 | 47.75065 | 11.57621 | 105° | 73km/h | 15961m | 4.7m/s | -53.3°C | 3.9% | 110.3hPa | 2.7V | 00:00:00 | 01:09:24 | 00:00:00 | |
| DG1MFX-10 | 2026-09-02 10:38:14 | 47.75066 | 11.57621 | 105° | 75km/h | 15961m | 4.7m/s | -53.3°C | 1.2% | 110.3hPa | 2.7V | 02:29:00 | 00:00:00 | 00:00:00 | |
| DK5PH-5 | 2026-09-02 10:38:13 | 47.75074 | 11.57567 | 103° | 75km/h | 15951m | 5.2m/s | -53.2°C | 3.9% | 110.4hPa | 2.7V | 02:28:00 | 01:09:22 | 00:00:00 | |
| OE5MMP-10 | 2026-09-02 10:38:09 | 47.75090 | 11.57459 | 103° | 73km/h | 15933m | 3.7m/s | -53.1°C | 3.8% | 110.8hPa | 2.6V | 02:29:00 | 01:09:18 | 00:00:00 | |
| DO3MHA-12 | 2026-09-02 10:38:05 | 47.75104 | 11.57356 | 101° | 75km/h | 15915m | 5.5m/s | -53.3°C | 3.9% | 111.1hPa | 2.7V | 00:00:00 | 01:09:14 | 00:00:00 | |
| PG1ADW-2 | 2026-09-02 10:38:04 | 47.75107 | 11.57329 | 102° | 77km/h | 15910m | 4.4m/s | -53.3°C | 3.9% | 111.1hPa | 2.7V | 00:00:00 | 00:00:00 | 00:00:00 | |
| DO3MHA-11 | 2026-09-02 10:38:03 | 47.75111 | 11.57301 | 102° | 77km/h | 15906m | 4.9m/s | -53.2°C | 3.9% | 111.2hPa | 2.7V | 02:29:00 | 01:09:12 | 00:00:00 | |
| DL6DJ-15 | 2026-09-02 10:37:54 | 47.75138 | 11.57048 | 96° | 77km/h | 15861m | 4.4m/s | -53.2°C | 1.2% | 112.0hPa | 2.6V | 00:00:00 | 00:00:00 | 00:00:00 | |
| DO3MHA-11 | 2026-09-02 10:37:53 | 47.75141 | 11.57019 | 99° | 78km/h | 15857m | 5.5m/s | -53.2°C | 3.9% | 112.1hPa | 2.6V | 00:00:00 | 01:09:02 | 00:00:00 | |
| OE5DRO-10 | 2026-09-02 10:37:50 | 47.75150 | 11.56935 | 99° | 78km/h | 15842m | 4.5m/s | -53.1°C | 4.0% | 112.3hPa | 2.6V | 00:00:00 | 00:00:00 | 00:00:00 | |
| OE5MMP-10 | 2026-09-02 10:37:49 | 47.75153 | 11.56905 | 99° | 78km/h | 15838m | 3.8m/s | -53.1°C | 4.0% | 112.4hPa | 2.6V | 00:00:00 | 01:08:58 | 00:00:00 | |
| NBG1-10 | 2026-09-02 10:37:45 | 47.75162 | 11.56786 | 94° | 77km/h | 15819m | 4.6m/s | -53.2°C | 3.9% | 112.7hPa | 2.6V | 00:00:00 | 01:08:54 | 00:00:00 | |
| PG1ADW-2 | 2026-09-02 10:37:44 | 47.75163 | 11.56756 | 92° | 78km/h | 15815m | 3.7m/s | -53.2°C | 3.8% | 112.8hPa | 2.6V | 02:29:00 | 00:00:00 | 00:00:00 | |
| DK5PH-5 | 2026-09-02 10:37:43 | 47.75163 | 11.56726 | 91° | 77km/h | 15810m | 5.3m/s | -53.2°C | 3.8% | 112.9hPa | 2.7V | 00:00:00 | 01:08:52 | 00:00:00 | |
| DF7PN | 2026-09-02 10:37:42 | 47.75164 | 11.56667 | 91° | 77km/h | 15801m | 4.9m/s | -53.3°C | 1.1% | 113.1hPa | 2.7V | 00:00:00 | 00:00:00 | 00:00:00 | |
| IN3HCDX | 2026-09-02 10:37:40 | 47.75164 | 11.56638 | 93° | 78km/h | 15796m | 4.9m/s | -53.4°C | 1.2% | 113.2hPa | 2.7V | 02:30:00 | 00:00:00 | 00:00:00 | |
| OE5MMP-10 | 2026-09-02 10:37:39 | 47.75165 | 11.56609 | 94° | 78km/h | 15791m | 4.9m/s | -53.3°C | 3.8% | 113.2hPa | 2.7V | 02:29:00 | 01:08:48 | 00:00:00 | |
| DO3MHA-12 | 2026-09-02 10:37:35 | 47.75174 | 11.56496 | 98° | 78km/h | 15772m | 5.0m/s | -53.5°C | 3.9% | 113.6hPa | 2.7V | 00:00:00 | 01:08:44 | 00:00:00 | |
| OE5WHR-10 | 2026-09-02 10:37:34 | 47.75176 | 11.56466 | 98° | 77km/h | 15767m | 4.2m/s | -53.5°C | 3.9% | 113.7hPa | 2.7V | 02:29:00 | 00:00:00 | 00:00:00 | |
| DO3MHA-11 | 2026-09-02 10:37:33 | 47.75179 | 11.56436 | 98° | 78km/h | 15763m | 5.0m/s | -53.5°C | 3.9% | 113.7hPa | 2.6V | 02:29:00 | 01:08:42 | 00:00:00 | |
| OE5DRO-10 | 2026-09-02 10:37:31 | 47.75183 | 11.56377 | 96° | 75km/h | 15753m | 3.9m/s | -53.6°C | 4.0% | 113.9hPa | 2.6V | 02:29:00 | 00:00:00 | 00:00:00 | |
| OE5MMP-10 | 2026-09-02 10:37:29 | 47.75187 | 11.56319 | 95° | 77km/h | 15744m | 4.2m/s | -53.8°C | 3.9% | 114.0hPa | 2.6V | 00:00:00 | 01:08:38 | 00:00:00 | |
| DO3MHA-12 | 2026-09-02 10:37:25 | 47.75194 | 11.56204 | 98° | 75km/h | 15724m | 4.9m/s | -54.0°C | 4.0% | 114.4hPa | 2.6V | 02:29:00 | 01:08:34 | 00:00:00 | |
| PG1ADW-2 | 2026-09-02 10:37:24 | 47.75197 | 11.56175 | 98° | 73km/h | 15720m | 3.4m/s | -54.0°C | 4.0% | 114.5hPa | 2.6V | 00:00:00 | 00:00:00 | 00:00:00 | |
| DO3MHA-11 | 2026-09-02 10:37:23 | 47.75200 | 11.56146 | 99° | 75km/h | 15716m | 4.7m/s | -54.0°C | 4.0% | 114.5hPa | 2.6V | 00:00:00 | 01:08:32 | 00:00:00 | |
| OE5MMP-10 | 2026-09-02 10:37:19 | 47.75209 | 11.56035 | 96° | 75km/h | 15696m | 4.6m/s | -54.0°C | 4.1% | 114.9hPa | 2.6V | 00:00:00 | 01:08:28 | 00:00:00 | |
| IN3HCDX | 2026-09-02 10:37:18 | 47.75209 | 11.56035 | 96° | 75km/h | 15696m | 4.6m/s | -54.1°C | 1.3% | 115.0hPa | 2.6V | 02:30:00 | 00:00:00 | 00:00:00 | |
| DO3MHA-12 | 2026-09-02 10:37:15 | 47.75212 | 11.55924 | 91° | 73km/h | 15677m | 4.4m/s | -54.0°C | 4.0% | 115.2hPa | 2.6V | 00:00:00 | 01:08:24 | 00:00:00 | |
| DO3MHA-11 | 2026-09-02 10:37:13 | 47.75212 | 11.55869 | 91° | 73km/h | 15668m | 4.3m/s | -54.0°C | 4.0% | 115.4hPa | 2.6V | 00:00:00 | 01:08:22 | 00:00:00 | |
| NBG1-10 | 2026-09-02 10:37:12 | 47.75212 | 11.55841 | 91° | 69km/h | 15663m | 5.7m/s | -54.0°C | 4.0% | 115.5hPa | 2.6V | 00:00:00 | 01:08:21 | 00:00:00 | |
| DF7PN | 2026-09-02 10:37:11 | 47.75213 | 11.55786 | 90° | 73km/h | 15652m | 5.5m/s | -54.1°C | 1.2% | 115.7hPa | 2.6V | 00:00:00 | 00:00:00 | 00:00:00 | |
| OE5MMP-10 | 2026-09-02 10:37:09 | 47.75213 | 11.55758 | 92° | 73km/h | 15648m | 4.2m/s | -54.1°C | 3.9% | 115.8hPa | 2.6V | 02:30:00 | 01:08:18 | 00:00:00 | |
| DO3MHA-12 | 2026-09-02 10:37:05 | 47.75217 | 11.55651 | 94° | 71km/h | 15628m | 5.4m/s | -54.6°C | 4.1% | 116.1hPa | 2.6V | 00:00:00 | 01:08:14 | 00:00:00 | |
| DB0UT-7 | 2026-09-02 10:37:04 | 47.75218 | 11.55624 | 94° | 68km/h | 15623m | 4.1m/s | -54.6°C | 4.1% | 116.2hPa | 2.6V | 00:00:00 | 01:08:13 | 00:00:00 | |
| DO3MHA-11 | 2026-09-02 10:37:03 | 47.75219 | 11.55597 | 94° | 71km/h | 15618m | 5.7m/s | -54.6°C | 4.2% | 116.3hPa | 2.6V | 02:30:00 | 01:08:12 | 00:00:00 | |
| DL1ZP-14 | 2026-09-02 10:36:56 | 47.75226 | 11.55329 | 93° | 68km/h | 15572m | 4.9m/s | 0°C | -1.0% | 117.2hPa | 2.6V | 00:00:00 | 00:00:00 | 00:00:00 | |
| DO3MHA-12 | 2026-09-02 10:36:55 | 47.75225 | 11.55382 | 92° | 69km/h | 15582m | 4.1m/s | -54.6°C | 4.3% | 117.0hPa | 2.7V | 02:30:00 | 01:08:04 | 00:00:00 | |
| DO3MHA-11 | 2026-09-02 10:36:53 | 47.75226 | 11.55329 | 94° | 68km/h | 15573m | 4.9m/s | -54.6°C | 4.2% | 117.2hPa | 2.7V | 00:00:00 | 01:08:02 | 00:00:00 | |
| OE5WHR-10 | 2026-09-02 10:36:52 | 47.75227 | 11.55303 | 93° | 64km/h | 15568m | 4.5m/s | -54.6°C | 4.2% | 117.2hPa | 2.7V | 00:00:00 | 01:08:01 | 00:00:00 | |
| OE5MMP-10 | 2026-09-02 10:36:49 | 47.75228 | 11.55226 | 90° | 66km/h | 15553m | 4.3m/s | -54.5°C | 4.1% | 117.5hPa | 2.7V | 00:00:00 | 01:07:58 | 00:00:00 | |
| DO3MHA-12 | 2026-09-02 10:36:45 | 47.75227 | 11.55125 | 88° | 62km/h | 15534m | 4.0m/s | -54.5°C | 4.4% | 117.8hPa | 2.7V | 00:00:00 | 01:07:54 | 00:00:00 | |
| OE5DXL-15 | 2026-09-02 10:36:44 | 47.75225 | 11.55076 | 87° | 58km/h | 15525m | 4.9m/s | -54.4°C | 4.3% | 118.0hPa | 2.7V | 00:00:00 | 01:07:52 | 00:00:00 | |
| OE5MMP-10 | 2026-09-02 10:36:39 | 47.75221 | 11.54984 | 87° | 58km/h | 15505m | 4.7m/s | -54.3°C | 4.2% | 118.4hPa | 2.7V | 02:30:00 | 01:07:48 | 00:00:00 | |
| DO3MHA-12 | 2026-09-02 10:36:35 | 47.75218 | 11.54892 | 86° | 58km/h | 15487m | 4.5m/s | -54.2°C | 4.0% | 118.7hPa | 2.7V | 00:00:00 | 01:07:44 | 00:00:00 | |
| DB0UT-7 | 2026-09-02 10:36:34 | 47.75217 | 11.54870 | 86° | 58km/h | 15482m | 5.5m/s | -54.2°C | 4.0% | 118.8hPa | 2.7V | 02:30:00 | 00:00:00 | 00:00:00 | |
| DO3MHA-11 | 2026-09-02 10:36:33 | 47.75215 | 11.54849 | 85° | 58km/h | 15477m | 4.2m/s | -54.1°C | 4.0% | 118.9hPa | 2.7V | 02:30:00 | 01:07:42 | 00:00:00 | |
| DG1MFX-10 | 2026-09-02 10:36:32 | 47.75216 | 11.54849 | 86° | 57km/h | 15477m | 4.2m/s | -54.1°C | 1.3% | 118.9hPa | 2.6V | 02:31:00 | 00:00:00 | 00:00:00 | |
| OE5WHR-10 | 2026-09-02 10:36:31 | 47.75213 | 11.54806 | 86° | 57km/h | 15467m | 4.5m/s | -54.1°C | 4.1% | 119.1hPa | 2.6V | 02:30:00 | 00:00:00 | 00:00:00 | |
| BAUMI2-15 | 2026-09-02 10:36:30 | 47.75212 | 11.54784 | 87° | 58km/h | 15463m | 5.0m/s | -54.0°C | 4.1% | 119.2hPa | 2.6V | 00:00:00 | 01:07:39 | 00:00:00 | |
| OE5MMP-10 | 2026-09-02 10:36:29 | 47.75211 | 11.54763 | 88° | 60km/h | 15458m | 4.5m/s | -54.0°C | 4.3% | 119.3hPa | 2.6V | 00:00:00 | 01:07:38 | 00:00:00 | |
| DO3MHA-12 | 2026-09-02 10:36:25 | 47.75211 | 11.54673 | 93° | 57km/h | 15438m | 4.2m/s | -53.9°C | 4.1% | 119.6hPa | 2.6V | 02:30:00 | 01:07:34 | 00:00:00 | |
| PG1ADW-2 | 2026-09-02 10:36:24 | 47.75212 | 11.54650 | 91° | 57km/h | 15433m | 5.4m/s | -53.9°C | 4.1% | 119.7hPa | 2.6V | 00:00:00 | 00:00:00 | 00:00:00 | |
| DO3MHA-11 | 2026-09-02 10:36:23 | 47.75212 | 11.54627 | 89° | 55km/h | 15428m | 4.4m/s | -53.9°C | 4.1% | 119.8hPa | 2.6V | 00:00:00 | 01:07:32 | 00:00:00 | |
| DL6DJ-15 | 2026-09-02 10:36:21 | 47.75210 | 11.54560 | 87° | 55km/h | 15414m | 4.0m/s | -54.0°C | 1.3% | 120.1hPa | 2.6V | 00:00:00 | 00:00:00 | 00:00:00 | |
| BAUMI2-15 | 2026-09-02 10:36:20 | 47.75210 | 11.54560 | 88° | 53km/h | 15414m | 4.0m/s | -54.0°C | 4.1% | 120.1hPa | 2.6V | 02:30:00 | 01:07:29 | 00:00:00 | |
| OE5MMP-10 | 2026-09-02 10:36:19 | 47.75209 | 11.54539 | 86° | 55km/h | 15409m | 5.4m/s | -54.0°C | 4.0% | 120.2hPa | 2.7V | 00:00:00 | 01:07:28 | 00:00:00 | |
| DG1MJG | 2026-09-02 10:36:18 | 47.75208 | 11.54539 | 86° | 55km/h | 15409m | 5.4m/s | -54.1°C | 1.2% | 120.2hPa | 2.7V | 02:31:00 | 00:00:00 | 00:00:00 | |
| DK5PH-5 | 2026-09-02 10:36:15 | 47.75206 | 11.54420 | 93° | 60km/h | 15380m | 3.8m/s | -53.8°C | 4.2% | 120.7hPa | 2.7V | 00:00:00 | 01:07:22 | 00:00:00 | |
| OE5DXL-15 | 2026-09-02 10:36:14 | 47.75206 | 11.54420 | 93° | 60km/h | 15380m | 3.8m/s | -53.8°C | 4.2% | 120.7hPa | 2.7V | 00:00:00 | 00:00:00 | 00:00:00 | |
| DO3MHA-11 | 2026-09-02 10:36:13 | 47.75206 | 11.54420 | 93° | 58km/h | 15380m | 3.8m/s | -53.8°C | 4.2% | 120.7hPa | 2.7V | 00:00:00 | 01:07:22 | 00:00:00 | |
| DG1MFX-10 | 2026-09-02 10:36:12 | 47.75206 | 11.54420 | 93° | 57km/h | 15380m | 3.9m/s | -53.8°C | 1.3% | 120.8hPa | 2.7V | 02:31:00 | 00:00:00 | 00:00:00 | |
| OE5WHR-10 | 2026-09-02 10:36:10 | 47.75210 | 11.54357 | 95° | 60km/h | 15366m | 3.9m/s | -53.6°C | 4.1% | 121.0hPa | 2.7V | 00:00:00 | 00:00:00 | 00:00:00 | |
| DF7PN | 2026-09-02 10:36:09 | 47.75211 | 11.54312 | 90° | 60km/h | 15357m | 4.3m/s | -53.7°C | 1.2% | 121.2hPa | 2.7V | 00:00:00 | 00:00:00 | 00:00:00 | |
| NBG1-10 | 2026-09-02 10:36:06 | 47.75212 | 11.54267 | 92° | 62km/h | 15347m | 4.1m/s | -53.6°C | 4.0% | 121.4hPa | 2.7V | 00:00:00 | 01:07:15 | 00:00:00 | |
| DO3MHA-12 | 2026-09-02 10:36:05 | 47.75212 | 11.54243 | 90° | 58km/h | 15342m | 5.5m/s | -53.5°C | 4.0% | 121.4hPa | 2.7V | 00:00:00 | 01:07:14 | 00:00:00 | |
| DB0UT-7 | 2026-09-02 10:36:04 | 47.75211 | 11.54220 | 89° | 62km/h | 15337m | 4.5m/s | -53.5°C | 3.9% | 121.6hPa | 2.7V | 00:00:00 | 01:07:13 | 00:00:00 | |
| DO3MHA-11 | 2026-09-02 10:36:03 | 47.75211 | 11.54197 | 90° | 58km/h | 15333m | 3.2m/s | -53.5°C | 3.9% | 121.6hPa | 2.7V | 02:31:00 | 01:07:12 | 00:00:00 | |
| DL1ZP-14 | 2026-09-02 10:35:53 | 47.75227 | 11.53980 | 93° | 64km/h | 15286m | 4.1m/s | 0°C | -1.0% | 122.5hPa | 2.6V | 00:00:00 | 00:00:00 | 00:00:00 | |
| DL6DJ-15 | 2026-09-02 10:35:50 | 47.75230 | 11.53882 | 92° | 68km/h | 15267m | 5.0m/s | -53.6°C | 1.2% | 122.9hPa | 2.6V | 00:00:00 | 00:00:00 | 00:00:00 | |
| OE5MMP-10 | 2026-09-02 10:35:49 | 47.75230 | 11.53882 | 93° | 64km/h | 15267m | 4.9m/s | -53.5°C | 4.0% | 122.9hPa | 2.6V | 00:00:00 | 01:06:58 | 00:00:00 | |
| DG1MJG | 2026-09-02 10:35:47 | 47.75231 | 11.53856 | 95° | 68km/h | 15262m | 4.5m/s | -53.6°C | 1.2% | 123.0hPa | 2.6V | 02:32:00 | 00:00:00 | 00:00:00 | |
| DO3MHA-12 | 2026-09-02 10:35:45 | 47.75237 | 11.53785 | 99° | 64km/h | 15248m | 4.8m/s | -53.3°C | 4.0% | 123.2hPa | 2.6V | 00:00:00 | 01:06:54 | 00:00:00 | |
| PG1ADW-2 | 2026-09-02 10:35:44 | 47.75239 | 11.53762 | 98° | 62km/h | 15243m | 4.7m/s | -53.3°C | 4.0% | 123.3hPa | 2.6V | 02:31:00 | 01:06:53 | 00:00:00 | |
| BAUMI2-15 | 2026-09-02 10:35:42 | 47.75246 | 11.53667 | 95° | 64km/h | 15225m | 5.6m/s | -53.3°C | 4.0% | 123.7hPa | 2.6V | 00:00:00 | 01:06:49 | 00:00:00 | |
| OE5MMP-10 | 2026-09-02 10:35:39 | 47.75247 | 11.53643 | 93° | 62km/h | 15220m | 3.7m/s | -53.3°C | 4.0% | 123.8hPa | 2.6V | 02:31:00 | 01:06:48 | 00:00:00 | |
| OE5DRO-10 | 2026-09-02 10:35:37 | 47.75248 | 11.53594 | 90° | 60km/h | 15211m | 3.9m/s | -53.3°C | 4.0% | 123.9hPa | 2.7V | 02:31:00 | 00:00:00 | 00:00:00 | |
| DO3MHA-12 | 2026-09-02 10:35:35 | 47.75248 | 11.53546 | 90° | 60km/h | 15202m | 4.4m/s | -53.3°C | 3.9% | 124.1hPa | 2.6V | 00:00:00 | 01:06:44 | 00:00:00 | |
| DB0UT-7 | 2026-09-02 10:35:34 | 47.75248 | 11.53522 | 90° | 55km/h | 15197m | 4.8m/s | -53.3°C | 3.9% | 124.2hPa | 2.6V | 00:00:00 | 00:00:00 | 00:00:00 | |
| DO3MHA-11 | 2026-09-02 10:35:33 | 47.75247 | 11.53499 | 90° | 58km/h | 15193m | 4.8m/s | -53.3°C | 3.9% | 124.3hPa | 2.6V | 02:31:00 | 01:06:42 | 00:00:00 | |
| DG1MFX-10 | 2026-09-02 10:35:31 | 47.75247 | 11.53476 | 91° | 58km/h | 15188m | 4.0m/s | -53.3°C | 1.2% | 124.4hPa | 2.6V | 02:32:00 | 00:00:00 | 00:00:00 | |
| BAUMI2-15 | 2026-09-02 10:35:30 | 47.75249 | 11.53432 | 94° | 58km/h | 15179m | 4.1m/s | -53.4°C | 3.9% | 124.6hPa | 2.6V | 00:00:00 | 01:06:39 | 00:00:00 | |
| OE5MMP-10 | 2026-09-02 10:35:29 | 47.75249 | 11.53410 | 95° | 58km/h | 15174m | 4.5m/s | -53.4°C | 3.9% | 124.6hPa | 2.6V | 00:00:00 | 01:06:38 | 00:00:00 | |
| OE5WHR-10 | 2026-09-02 10:35:28 | 47.75251 | 11.53388 | 95° | 53km/h | 15170m | 5.1m/s | -53.4°C | 3.9% | 124.7hPa | 2.6V | 02:31:00 | 00:00:00 | 00:00:00 | |
| DO3MHA-12 | 2026-09-02 10:35:25 | 47.75253 | 11.53323 | 93° | 57km/h | 15156m | 4.0m/s | -53.4°C | 3.9% | 125.0hPa | 2.7V | 02:31:00 | 01:06:34 | 00:00:00 | |
| PG1ADW-2 | 2026-09-02 10:35:24 | 47.75254 | 11.53300 | 91° | 53km/h | 15151m | 5.3m/s | -53.4°C | 4.0% | 125.1hPa | 2.6V | 00:00:00 | 00:00:00 | 00:00:00 | |
| DO3MHA-11 | 2026-09-02 10:35:23 | 47.75254 | 11.53278 | 90° | 55km/h | 15146m | 4.2m/s | -53.5°C | 4.0% | 125.2hPa | 2.6V | 00:00:00 | 01:06:32 | 00:00:00 | |
| BAUMI2-15 | 2026-09-02 10:35:20 | 47.75253 | 11.53213 | 89° | 53km/h | 15132m | 4.2m/s | -53.4°C | 4.1% | 125.5hPa | 2.6V | 02:31:00 | 01:06:29 | 00:00:00 | |
| DL6DJ-15 | 2026-09-02 10:35:19 | 47.75252 | 11.53173 | 89° | 49km/h | 15123m | 3.4m/s | -53.3°C | 1.2% | 125.7hPa | 2.6V | 00:00:00 | 00:00:00 | 00:00:00 | |
| OE5DRO-10 | 2026-09-02 10:35:18 | 47.75252 | 11.53173 | 90° | 49km/h | 15124m | 3.4m/s | -53.3°C | 4.0% | 125.7hPa | 2.6V | 00:00:00 | 00:00:00 | 00:00:00 | |
| DG1MJG | 2026-09-02 10:35:17 | 47.75252 | 11.53173 | 90° | 51km/h | 15124m | 3.4m/s | -53.3°C | 1.2% | 125.7hPa | 2.6V | 02:32:00 | 00:00:00 | 00:00:00 | |
| DO3MHA-12 | 2026-09-02 10:35:15 | 47.75252 | 11.53115 | 90° | 49km/h | 15111m | 3.5m/s | -53.3°C | 4.0% | 125.9hPa | 2.6V | 00:00:00 | 01:06:24 | 00:00:00 | |
| DO3MHA-11 | 2026-09-02 10:35:13 | 47.75251 | 11.53078 | 89° | 49km/h | 15101m | 4.6m/s | -53.2°C | 3.9% | 126.1hPa | 2.6V | 00:00:00 | 01:06:22 | 00:00:00 | |
| DG1MFX-10 | 2026-09-02 10:35:11 | 47.75251 | 11.53059 | 90° | 51km/h | 15096m | 5.4m/s | -53.3°C | 1.3% | 126.2hPa | 2.6V | 02:32:00 | 00:00:00 | 00:00:00 | |
| BAUMI2-15 | 2026-09-02 10:35:10 | 47.75251 | 11.53021 | 90° | 49km/h | 15087m | 5.1m/s | -53.2°C | 3.9% | 126.3hPa | 2.6V | 00:00:00 | 01:06:19 | 00:00:00 | |
| OE5MMP-10 | 2026-09-02 10:35:09 | 47.75251 | 11.53003 | 91° | 49km/h | 15083m | 4.2m/s | -53.3°C | 4.0% | 126.5hPa | 2.6V | 02:32:00 | 01:06:18 | 00:00:00 | |
| OE5WHR-10 | 2026-09-02 10:35:08 | 47.75251 | 11.52967 | 93° | 49km/h | 15074m | 4.7m/s | -53.3°C | 4.0% | 126.6hPa | 2.7V | 00:00:00 | 00:00:00 | 00:00:00 | |
| DF7PN | 2026-09-02 10:35:07 | 47.75252 | 11.52948 | 93° | 49km/h | 15070m | 4.5m/s | -53.3°C | 1.3% | 126.8hPa | 2.7V | 00:00:00 | 00:00:00 | 00:00:00 | |
| BAUMI2-15 | 2026-09-02 10:35:06 | 47.75253 | 11.52930 | 95° | 49km/h | 15065m | 5.1m/s | -53.3°C | 4.0% | 126.8hPa | 2.7V | 02:32:00 | 01:06:14 | 00:00:00 | |
| DO3MHA-12 | 2026-09-02 10:35:05 | 47.75253 | 11.52930 | 95° | 49km/h | 15065m | 5.1m/s | -53.3°C | 4.0% | 126.8hPa | 2.7V | 00:00:00 | 01:06:14 | 00:00:00 | |
| DB0UT-7 | 2026-09-02 10:35:04 | 47.75254 | 11.52912 | 94° | 47km/h | 15061m | 3.7m/s | -53.3°C | 4.0% | 126.9hPa | 2.7V | 02:32:00 | 01:06:13 | 00:00:00 | |
| DO3MHA-11 | 2026-09-02 10:35:03 | 47.75254 | 11.52894 | 94° | 49km/h | 15057m | 4.5m/s | -53.3°C | 3.9% | 127.0hPa | 2.6V | 02:32:00 | 01:06:12 | 00:00:00 | |
| DL1ZP-14 | 2026-09-02 10:34:51 | 47.75266 | 11.52674 | 94° | 47km/h | 15003m | 4.8m/s | 0°C | -1.0% | -1.0hPa | 2.8V | 00:00:00 | 00:00:00 | 00:00:00 | |
| DL6DJ-15 | 2026-09-02 10:34:47 | 47.75269 | 11.52603 | 89° | 46km/h | 14985m | 3.4m/s | -53.1°C | 1.3% | 128.4hPa | 2.7V | 00:00:00 | 00:00:00 | 00:00:00 | |
| OE5WHR-10 | 2026-09-02 10:34:46 | 47.75269 | 11.52586 | 90° | 44km/h | 14982m | 4.3m/s | -53.1°C | 3.9% | 128.4hPa | 2.7V | 00:00:00 | 01:05:55 | 00:00:00 | |
| DO3MHA-12 | 2026-09-02 10:34:45 | 47.75269 | 11.52570 | 92° | 46km/h | 14977m | 5.1m/s | -53.0°C | 3.9% | 128.6hPa | 2.7V | 00:00:00 | 01:05:54 | 00:00:00 | |
| PG1ADW-2 | 2026-09-02 10:34:44 | 47.75269 | 11.52554 | 95° | 44km/h | 14973m | 3.7m/s | -53.0°C | 4.0% | 128.6hPa | 2.7V | 02:32:00 | 00:00:00 | 00:00:00 | |
| OE5DXL-15 | 2026-09-02 10:34:43 | 47.75270 | 11.52538 | 94° | 44km/h | 14968m | 5.8m/s | -52.9°C | 4.0% | 128.7hPa | 2.7V | 00:00:00 | 00:00:00 | 00:00:00 | |
| OE5DRO-10 | 2026-09-02 10:34:40 | 47.75274 | 11.52489 | 101° | 44km/h | 14954m | 4.1m/s | -52.7°C | 4.0% | 129.0hPa | 2.7V | 02:32:00 | 00:00:00 | 00:00:00 | |
| OE5MMP-10 | 2026-09-02 10:34:39 | 47.75276 | 11.52472 | 100° | 46km/h | 14949m | 5.3m/s | -52.8°C | 3.9% | 129.1hPa | 2.6V | 02:32:00 | 01:05:48 | 00:00:00 | |
| DO3MHA-12 | 2026-09-02 10:34:35 | 47.75284 | 11.52401 | 101° | 44km/h | 14930m | 5.1m/s | -52.8°C | 3.9% | 129.5hPa | 2.6V | 00:00:00 | 01:05:44 | 00:00:00 | |
| DB0UT-7 | 2026-09-02 10:34:34 | 47.75286 | 11.52384 | 99° | 47km/h | 14925m | 4.3m/s | -52.8°C | 3.9% | 129.6hPa | 2.6V | 00:00:00 | 00:00:00 | 00:00:00 | |
| DO3MHA-11 | 2026-09-02 10:34:33 | 47.75288 | 11.52367 | 100° | 42km/h | 14921m | 3.6m/s | -52.8°C | 3.9% | 129.7hPa | 2.6V | 02:32:00 | 01:05:42 | 00:00:00 | |
| DG1MFX-10 | 2026-09-02 10:34:30 | 47.75292 | 11.52334 | 103° | 42km/h | 14912m | 3.7m/s | -52.9°C | 1.3% | 129.9hPa | 2.7V | 02:32:00 | 00:00:00 | 00:00:00 | |
| OE5MMP-10 | 2026-09-02 10:34:29 | 47.75296 | 11.52303 | 101° | 42km/h | 14903m | 3.4m/s | -52.8°C | 3.9% | 130.1hPa | 2.7V | 00:00:00 | 01:05:38 | 00:00:00 | |
| NBG1-10 | 2026-09-02 10:34:26 | 47.75303 | 11.52257 | 106° | 51km/h | 14890m | 4.3m/s | -52.8°C | 3.9% | 130.3hPa | 2.7V | 00:00:00 | 01:05:35 | 00:00:00 | |
| OE5WHR-10 | 2026-09-02 10:34:25 | 47.75306 | 11.52242 | 106° | 49km/h | 14885m | 4.4m/s | -52.8°C | 3.9% | 130.4hPa | 2.7V | 02:32:00 | 00:00:00 | 00:00:00 | |
| PG1ADW-2 | 2026-09-02 10:34:24 | 47.75309 | 11.52227 | 108° | 49km/h | 14881m | 4.5m/s | -52.8°C | 3.9% | 130.4hPa | 2.6V | 00:00:00 | 01:05:33 | 00:00:00 | |
| DO3MHA-11 | 2026-09-02 10:34:23 | 47.75312 | 11.52212 | 111° | 44km/h | 14876m | 4.5m/s | -52.9°C | 3.9% | 130.6hPa | 2.6V | 00:00:00 | 01:05:32 | 00:00:00 | |
| OE5DRO-10 | 2026-09-02 10:34:21 | 47.75320 | 11.52182 | 108° | 51km/h | 14868m | 4.9m/s | -53.1°C | 3.9% | 130.8hPa | 2.6V | 00:00:00 | 00:00:00 | 00:00:00 | |
| OE5MMP-10 | 2026-09-02 10:34:19 | 47.75326 | 11.52149 | 106° | 47km/h | 14859m | 3.9m/s | -53.3°C | 4.0% | 130.9hPa | 2.6V | 00:00:00 | 01:05:28 | 00:00:00 | |
| DG1MJG | 2026-09-02 10:34:16 | 47.75332 | 11.52118 | 108° | 44km/h | 14850m | 3.2m/s | -53.5°C | 1.4% | 131.2hPa | 2.6V | 02:33:00 | 00:00:00 | 00:00:00 | |
| DO3MHA-12 | 2026-09-02 10:34:15 | 47.75339 | 11.52086 | 107° | 53km/h | 14841m | 4.7m/s | -53.4°C | 4.1% | 131.3hPa | 2.6V | 00:00:00 | 01:05:24 | 00:00:00 | |
| DK5PH-5 | 2026-09-02 10:34:13 | 47.75347 | 11.52052 | 112° | 55km/h | 14831m | 4.0m/s | -53.4°C | 4.1% | 131.5hPa | 2.6V | 00:00:00 | 01:05:22 | 00:00:00 | |
| DO8TBO-1 | 2026-09-02 10:34:12 | 47.75351 | 11.52034 | 112° | 55km/h | 14827m | 3.6m/s | -53.4°C | 4.2% | 131.6hPa | 2.6V | 00:00:00 | 01:05:21 | 00:00:00 | |
| DF1GD-15 | 2026-09-02 10:34:11 | 47.75351 | 11.52034 | 112° | 51km/h | 14827m | 3.7m/s | 0°C | 0% | 0hPa | 2.6V | 00:00:00 | 00:00:00 | 00:00:00 | |
| DG1MFX-10 | 2026-09-02 10:34:10 | 47.75356 | 11.52016 | 111° | 55km/h | 14823m | 5.4m/s | -53.5°C | 1.4% | 131.7hPa | 2.6V | 02:33:00 | 00:00:00 | 00:00:00 | |
| OE5MMP-10 | 2026-09-02 10:34:09 | 47.75366 | 11.51976 | 110° | 57km/h | 14813m | 5.3m/s | -53.4°C | 4.2% | 131.9hPa | 2.6V | 02:33:00 | 01:05:18 | 00:00:00 | |
| DO3MHA-12 | 2026-09-02 10:34:05 | 47.75383 | 11.51894 | 107° | 57km/h | 14795m | 4.7m/s | -53.4°C | 4.1% | 132.2hPa | 2.6V | 00:00:00 | 01:05:14 | 00:00:00 | |
| PG1ADW-2 | 2026-09-02 10:34:04 | 47.75387 | 11.51874 | 107° | 55km/h | 14790m | 4.9m/s | -53.3°C | 4.1% | 132.3hPa | 2.6V | 00:00:00 | 00:00:00 | 00:00:00 | |
| DO3MHA-11 | 2026-09-02 10:34:03 | 47.75391 | 11.51854 | 108° | 55km/h | 14786m | 3.9m/s | -53.2°C | 4.0% | 132.4hPa | 2.6V | 02:33:00 | 01:05:12 | 00:00:00 | |
| DL1ZP-14 | 2026-09-02 10:33:50 | 47.75440 | 11.51574 | 97° | 55km/h | 14722m | 4.8m/s | 0°C | -1.0% | -1.0hPa | 2.8V | 00:00:00 | 00:00:00 | 00:00:00 | |
| OE5MMP-10 | 2026-09-02 10:33:49 | 47.75440 | 11.51574 | 98° | 57km/h | 14722m | 4.8m/s | -53.2°C | 4.2% | 133.7hPa | 2.7V | 00:00:00 | 01:04:58 | 00:00:00 | |
| DO3MHA-12 | 2026-09-02 10:33:45 | 47.75449 | 11.51490 | 101° | 57km/h | 14704m | 4.8m/s | -53.1°C | 4.1% | 134.1hPa | 2.7V | 00:00:00 | 01:04:54 | 00:00:00 | |
| PG1ADW-2 | 2026-09-02 10:33:44 | 47.75452 | 11.51469 | 100° | 55km/h | 14700m | 3.9m/s | -53.1°C | 4.1% | 134.2hPa | 2.7V | 02:33:00 | 00:00:00 | 00:00:00 | |
| DO3MHA-11 | 2026-09-02 10:33:43 | 47.75454 | 11.51448 | 100° | 57km/h | 14696m | 5.1m/s | -53.1°C | 4.1% | 134.3hPa | 2.6V | 00:00:00 | 01:04:52 | 00:00:00 | |
| OE5MMP-10 | 2026-09-02 10:33:39 | 47.75461 | 11.51364 | 97° | 55km/h | 14678m | 4.9m/s | -53.0°C | 4.0% | 134.7hPa | 2.6V | 02:33:00 | 01:04:48 | 00:00:00 | |
| DO3MHA-12 | 2026-09-02 10:33:35 | 47.75467 | 11.51282 | 95° | 53km/h | 14659m | 5.0m/s | -53.0°C | 4.0% | 135.1hPa | 2.7V | 00:00:00 | 01:04:44 | 00:00:00 | |
| DB0UT-7 | 2026-09-02 10:33:34 | 47.75468 | 11.51260 | 94° | 53km/h | 14654m | 3.8m/s | -53.0°C | 4.1% | 135.2hPa | 2.7V | 02:33:00 | 00:00:00 | 00:00:00 | |
| DO3MHA-11 | 2026-09-02 10:33:33 | 47.75468 | 11.51239 | 94° | 53km/h | 14651m | 3.3m/s | -53.0°C | 4.1% | 135.3hPa | 2.6V | 02:33:00 | 01:04:42 | 00:00:00 | |
| OE5MMP-10 | 2026-09-02 10:33:29 | 47.75471 | 11.51160 | 92° | 55km/h | 14633m | 5.1m/s | -53.1°C | 4.1% | 135.6hPa | 2.6V | 00:00:00 | 01:04:38 | 00:00:00 | |
| PG1ADW-2 | 2026-09-02 10:33:25 | 47.75472 | 11.51063 | 92° | 53km/h | 14611m | 5.1m/s | -53.2°C | 4.2% | 136.1hPa | 2.6V | 00:00:00 | 00:00:00 | 00:00:00 | |
| OE5DRO-10 | 2026-09-02 10:33:24 | 47.75472 | 11.51063 | 92° | 53km/h | 14611m | 5.1m/s | -53.2°C | 4.2% | 136.1hPa | 2.6V | 00:00:00 | 00:00:00 | 00:00:00 | |
| DO3MHA-11 | 2026-09-02 10:33:23 | 47.75473 | 11.51041 | 91° | 53km/h | 14606m | 4.0m/s | -53.2°C | 4.3% | 136.2hPa | 2.6V | 00:00:00 | 01:04:32 | 00:00:00 | |
| OE5WHR-10 | 2026-09-02 10:33:22 | 47.75473 | 11.51019 | 92° | 51km/h | 14602m | 3.9m/s | -53.2°C | 4.3% | 136.3hPa | 2.6V | 02:33:00 | 00:00:00 | 00:00:00 | |
| NBG1-10 | 2026-09-02 10:33:20 | 47.75474 | 11.50977 | 92° | 51km/h | 14593m | 3.8m/s | -53.2°C | 4.3% | 136.4hPa | 2.7V | 02:33:00 | 01:04:29 | 00:00:00 | |
| OE5MMP-10 | 2026-09-02 10:33:19 | 47.75474 | 11.50957 | 91° | 51km/h | 14589m | 5.0m/s | -53.2°C | 4.2% | 136.5hPa | 2.6V | 00:00:00 | 01:04:28 | 00:00:00 | |
| DO3MHA-12 | 2026-09-02 10:33:15 | 47.75472 | 11.50880 | 86° | 51km/h | 14570m | 4.4m/s | -53.1°C | 4.1% | 136.9hPa | 2.6V | 00:00:00 | 01:04:24 | 00:00:00 | |
| DG1MJG | 2026-09-02 10:33:14 | 47.75472 | 11.50880 | 87° | 49km/h | 14570m | 4.5m/s | -53.2°C | 1.4% | 137.0hPa | 2.6V | 02:34:00 | 00:00:00 | 00:00:00 | |
| DK5PH-5 | 2026-09-02 10:33:13 | 47.75471 | 11.50842 | 88° | 49km/h | 14561m | 4.8m/s | -53.0°C | 4.1% | 137.1hPa | 2.6V | 00:00:00 | 01:04:22 | 00:00:00 | |
| OE5MMP-10 | 2026-09-02 10:33:09 | 47.75471 | 11.50763 | 95° | 49km/h | 14542m | 3.5m/s | -52.9°C | 4.1% | 137.6hPa | 2.6V | 02:34:00 | 01:04:18 | 00:00:00 | |
| DO8TBO-1 | 2026-09-02 10:33:08 | 47.75477 | 11.50705 | 99° | 57km/h | 14528m | 3.9m/s | -52.9°C | 4.2% | 137.8hPa | 2.7V | 02:34:00 | 01:04:15 | 00:00:00 | |
| DO3MHA-12 | 2026-09-02 10:33:05 | 47.75478 | 11.50687 | 98° | 49km/h | 14524m | 5.6m/s | -52.9°C | 4.1% | 137.9hPa | 2.6V | 00:00:00 | 01:04:14 | 00:00:00 | |
| DB0UT-7 | 2026-09-02 10:33:04 | 47.75480 | 11.50669 | 95° | 49km/h | 14519m | 4.5m/s | -52.9°C | 4.1% | 138.0hPa | 2.6V | 00:00:00 | 01:04:13 | 00:00:00 | |
| DO3MHA-11 | 2026-09-02 10:33:03 | 47.75481 | 11.50650 | 96° | 49km/h | 14514m | 4.2m/s | -52.9°C | 4.1% | 138.2hPa | 2.6V | 02:34:00 | 01:04:12 | 00:00:00 | |
| DF7PN | 2026-09-02 10:33:02 | 47.75482 | 11.50632 | 96° | 47km/h | 14509m | 5.4m/s | -52.9°C | 1.4% | 138.3hPa | 2.7V | 00:00:00 | 00:00:00 | 00:00:00 | |
| OE5WHR-10 | 2026-09-02 10:33:01 | 47.75484 | 11.50614 | 98° | 49km/h | 14505m | 4.0m/s | -52.8°C | 4.1% | 138.3hPa | 2.7V | 00:00:00 | 00:00:00 | 00:00:00 | |
| OE5MMP-10 | 2026-09-02 10:32:59 | 47.75486 | 11.50577 | 98° | 47km/h | 14495m | 3.5m/s | -52.8°C | 4.1% | 138.6hPa | 2.7V | 00:00:00 | 01:04:08 | 00:00:00 | |
| DO3MHA-12 | 2026-09-02 10:32:55 | 47.75497 | 11.50506 | 104° | 49km/h | 14476m | 5.7m/s | -52.7°C | 4.1% | 139.0hPa | 2.7V | 02:34:00 | 01:04:04 | 00:00:00 | |
| DO3MHA-11 | 2026-09-02 10:32:53 | 47.75503 | 11.50472 | 106° | 49km/h | 14466m | 5.2m/s | -52.7°C | 4.1% | 139.2hPa | 2.7V | 00:00:00 | 01:04:02 | 00:00:00 | |
| OE5MMP-10 | 2026-09-02 10:32:49 | 47.75514 | 11.50401 | 101° | 49km/h | 14448m | 4.1m/s | -52.5°C | 4.0% | 139.7hPa | 2.7V | 00:00:00 | 01:03:58 | 00:00:00 | |
| NBG1-10 | 2026-09-02 10:32:47 | 47.75519 | 11.50363 | 102° | 51km/h | 14438m | 3.9m/s | -52.5°C | 4.0% | 139.8hPa | 2.7V | 00:00:00 | 01:03:56 | 00:00:00 | |
| OE5DRO-10 | 2026-09-02 10:32:46 | 47.75521 | 11.50345 | 100° | 49km/h | 14434m | 5.3m/s | -52.5°C | 4.1% | 139.9hPa | 2.7V | 02:34:00 | 00:00:00 | 00:00:00 | |
| DO3MHA-12 | 2026-09-02 10:32:45 | 47.75523 | 11.50327 | 100° | 49km/h | 14429m | 4.4m/s | -52.4°C | 4.1% | 140.0hPa | 2.7V | 00:00:00 | 01:03:54 | 00:00:00 | |
| PG1ADW-2 | 2026-09-02 10:32:44 | 47.75526 | 11.50309 | 102° | 51km/h | 14424m | 5.2m/s | -52.4°C | 4.1% | 140.1hPa | 2.7V | 02:34:00 | 00:00:00 | 00:00:00 | |
| OE5DXL-15 | 2026-09-02 10:32:43 | 47.75528 | 11.50291 | 103° | 51km/h | 14419m | 4.0m/s | -52.5°C | 4.1% | 140.2hPa | 2.6V | 02:34:00 | 00:00:00 | 00:00:00 | |
| IN3HCDX | 2026-09-02 10:32:42 | 47.75528 | 11.50291 | 104° | 47km/h | 14419m | 4.1m/s | -52.5°C | 1.4% | 140.2hPa | 2.6V | 00:00:00 | 00:00:00 | 00:00:00 | |
| OE5WHR-10 | 2026-09-02 10:32:40 | 47.75536 | 11.50238 | 104° | 53km/h | 14405m | 5.4m/s | -52.4°C | 4.0% | 140.5hPa | 2.6V | 00:00:00 | 01:03:49 | 00:00:00 | |
| OE5MMP-10 | 2026-09-02 10:32:39 | 47.75539 | 11.50219 | 103° | 49km/h | 14400m | 3.5m/s | -52.4°C | 4.0% | 140.6hPa | 2.6V | 02:34:00 | 01:03:48 | 00:00:00 | |
| DO3MHA-12 | 2026-09-02 10:32:35 | 47.75548 | 11.50144 | 102° | 51km/h | 14383m | 4.7m/s | -52.4°C | 4.0% | 141.0hPa | 2.7V | 00:00:00 | 01:03:44 | 00:00:00 | |
| DB0UT-7 | 2026-09-02 10:32:34 | 47.75550 | 11.50125 | 104° | 55km/h | 14378m | 4.6m/s | -52.4°C | 4.0% | 141.1hPa | 2.7V | 00:00:00 | 00:00:00 | 00:00:00 | |
| DO3MHA-11 | 2026-09-02 10:32:33 | 47.75553 | 11.50107 | 104° | 53km/h | 14373m | 4.3m/s | -52.4°C | 3.9% | 141.2hPa | 2.7V | 02:34:00 | 01:03:42 | 00:00:00 | |
| DF7PN | 2026-09-02 10:32:31 | 47.75559 | 11.50072 | 104° | 47km/h | 14365m | 4.0m/s | -52.4°C | 1.4% | 141.4hPa | 2.7V | 00:00:00 | 00:00:00 | 00:00:00 | |
| BAUMI2-15 | 2026-09-02 10:32:30 | 47.75562 | 11.50054 | 108° | 53km/h | 14360m | 5.1m/s | -52.3°C | 4.0% | 141.5hPa | 2.7V | 00:00:00 | 01:03:39 | 00:00:00 | |
| OE5MMP-10 | 2026-09-02 10:32:29 | 47.75567 | 11.50036 | 109° | 55km/h | 14356m | 3.6m/s | -52.2°C | 4.0% | 141.6hPa | 2.7V | 00:00:00 | 01:03:38 | 00:00:00 | |
| OE5DRO-10 | 2026-09-02 10:32:27 | 47.75574 | 11.49997 | 104° | 55km/h | 14348m | 5.1m/s | -52.1°C | 3.9% | 141.7hPa | 2.7V | 00:00:00 | 00:00:00 | 00:00:00 | |
| DG1MFX-10 | 2026-09-02 10:32:26 | 47.75574 | 11.49997 | 105° | 55km/h | 14348m | 5.2m/s | -52.2°C | 1.4% | 141.8hPa | 2.7V | 02:35:00 | 00:00:00 | 00:00:00 | |
| DO3MHA-12 | 2026-09-02 10:32:25 | 47.75580 | 11.49956 | 103° | 55km/h | 14338m | 5.7m/s | -52.1°C | 3.9% | 142.0hPa | 2.7V | 02:34:00 | 01:03:34 | 00:00:00 | |
| PG1ADW-2 | 2026-09-02 10:32:24 | 47.75584 | 11.49936 | 103° | 55km/h | 14333m | 4.3m/s | 0°C | 0% | 0hPa | 2.6V | 00:00:00 | 00:00:00 | 00:00:00 | |
| DO3MHA-11 | 2026-09-02 10:32:23 | 47.75586 | 11.49916 | 101° | 53km/h | 14328m | 5.5m/s | -52.3°C | 4.0% | 142.2hPa | 2.6V | 00:00:00 | 01:03:32 | 00:00:00 | |
| BAUMI2-15 | 2026-09-02 10:32:20 | 47.75595 | 11.49856 | 107° | 53km/h | 14314m | 4.2m/s | -52.3°C | 4.1% | 142.5hPa | 2.6V | 02:34:00 | 01:03:29 | 00:00:00 | |
| OE5WHR-10 | 2026-09-02 10:32:19 | 47.75599 | 11.49836 | 108° | 57km/h | 14310m | 3.3m/s | -52.3°C | 4.0% | 142.6hPa | 2.6V | 02:34:00 | 00:00:00 | 00:00:00 | |
| DO3MHA-12 | 2026-09-02 10:32:15 | 47.75615 | 11.49761 | 107° | 57km/h | 14291m | 5.7m/s | -52.4°C | 4.0% | 143.0hPa | 2.7V | 00:00:00 | 01:03:24 | 00:00:00 | |
| NBG1-10 | 2026-09-02 10:32:14 | 47.75619 | 11.49742 | 108° | 60km/h | 14287m | 3.7m/s | -52.4°C | 3.9% | 143.1hPa | 2.7V | 00:00:00 | 01:03:23 | 00:00:00 | |
| DK5PH-5 | 2026-09-02 10:32:13 | 47.75622 | 11.49723 | 106° | 60km/h | 14282m | 5.2m/s | -52.4°C | 3.9% | 143.2hPa | 2.7V | 02:34:00 | 01:03:22 | 00:00:00 | |
| DL6DJ-15 | 2026-09-02 10:32:12 | 47.75626 | 11.49704 | 103° | 53km/h | 14277m | 4.8m/s | -52.5°C | 1.4% | 143.3hPa | 2.7V | 00:00:00 | 00:00:00 | 00:00:00 | |
| BAUMI2-15 | 2026-09-02 10:32:10 | 47.75633 | 11.49663 | 106° | 58km/h | 14267m | 3.7m/s | -52.6°C | 4.0% | 143.5hPa | 2.7V | 00:00:00 | 01:03:19 | 00:00:00 | |
| OE5MMP-10 | 2026-09-02 10:32:09 | 47.75637 | 11.49643 | 105° | 58km/h | 14263m | 4.6m/s | -52.6°C | 4.0% | 143.6hPa | 2.7V | 02:35:00 | 01:03:18 | 00:00:00 | |
| OE5DRO-10 | 2026-09-02 10:32:08 | 47.75640 | 11.49622 | 105° | 60km/h | 14258m | 4.9m/s | -52.6°C | 4.0% | 143.7hPa | 2.7V | 00:00:00 | 00:00:00 | 00:00:00 | |
| DO3MHA-12 | 2026-09-02 10:32:05 | 47.75653 | 11.49558 | 109° | 62km/h | 14244m | 4.8m/s | -52.5°C | 4.0% | 144.0hPa | 2.7V | 00:00:00 | 01:03:14 | 00:00:00 | |
| PG1ADW-2 | 2026-09-02 10:32:04 | 47.75658 | 11.49538 | 110° | 62km/h | 14239m | 4.6m/s | 0°C | 0% | 0hPa | 2.7V | 00:00:00 | 00:00:00 | 00:00:00 | |
| DO3MHA-11 | 2026-09-02 10:32:03 | 47.75663 | 11.49517 | 111° | 62km/h | 14235m | 4.4m/s | -52.5°C | 4.0% | 144.2hPa | 2.7V | 02:35:00 | 01:03:12 | 00:00:00 | |
| DF7PN | 2026-09-02 10:32:00 | 47.75680 | 11.49455 | 110° | 58km/h | 14220m | 5.5m/s | -52.8°C | 1.6% | 144.6hPa | 2.7V | 00:00:00 | 00:00:00 | 00:00:00 | |
| OE5MMP-10 | 2026-09-02 10:31:59 | 47.75685 | 11.49433 | 110° | 62km/h | 14215m | 3.4m/s | -52.8°C | 4.2% | 144.7hPa | 2.7V | 00:00:00 | 01:03:08 | 00:00:00 | |
| OE5WHR-10 | 2026-09-02 10:31:58 | 47.75690 | 11.49411 | 110° | 64km/h | 14211m | 5.3m/s | -52.9°C | 4.2% | 144.8hPa | 2.7V | 00:00:00 | 00:00:00 | 00:00:00 | |
| DO3MHA-12 | 2026-09-02 10:31:55 | 47.75706 | 11.49342 | 106° | 62km/h | 14198m | 5.0m/s | -53.0°C | 4.2% | 145.0hPa | 2.7V | 02:35:00 | 01:03:04 | 00:00:00 | |
| DO3MHA-11 | 2026-09-02 10:31:53 | 47.75714 | 11.49297 | 105° | 62km/h | 14189m | 5.1m/s | -53.1°C | 4.2% | 145.2hPa | 2.7V | 00:00:00 | 01:03:02 | 00:00:00 | |
| BAUMI2-15 | 2026-09-02 10:31:50 | 47.75727 | 11.49230 | 108° | 60km/h | 14175m | 4.4m/s | -53.1°C | 4.2% | 145.5hPa | 2.7V | 02:35:00 | 01:02:59 | 00:00:00 | |
| OE5MMP-10 | 2026-09-02 10:31:49 | 47.75732 | 11.49209 | 111° | 64km/h | 14171m | 3.5m/s | -53.1°C | 4.2% | 145.6hPa | 2.7V | 00:00:00 | 01:02:58 | 00:00:00 | |
| DO3MHA-12 | 2026-09-02 10:31:45 | 47.75756 | 11.49123 | 113° | 66km/h | 14153m | 4.8m/s | -53.1°C | 4.2% | 146.1hPa | 2.7V | 00:00:00 | 01:02:54 | 00:00:00 | |
| PG1ADW-2 | 2026-09-02 10:31:44 | 47.75762 | 11.49101 | 112° | 66km/h | 14149m | 4.1m/s | 0°C | 0% | 0hPa | 2.7V | 00:00:00 | 01:02:53 | 00:00:00 | |
| NBG1-10 | 2026-09-02 10:31:43 | 47.75778 | 11.49032 | 108° | 66km/h | 14134m | 6.1m/s | -53.3°C | 4.2% | 146.5hPa | 2.7V | 02:35:00 | 01:02:50 | 00:00:00 | |
| BAUMI2-15 | 2026-09-02 10:31:40 | 47.75782 | 11.49009 | 108° | 66km/h | 14130m | 3.3m/s | 0°C | 0% | 0hPa | 2.7V | 00:00:00 | 01:02:49 | 00:00:00 | |
| OE5MMP-10 | 2026-09-02 10:31:39 | 47.75788 | 11.48985 | 108° | 66km/h | 14125m | 5.0m/s | -53.5°C | 4.4% | 146.7hPa | 2.7V | 02:35:00 | 01:02:48 | 00:00:00 | |
| IN3HCDX | 2026-09-02 10:31:38 | 47.75788 | 11.48985 | 109° | 68km/h | 14125m | 5.1m/s | -53.5°C | 1.7% | 146.7hPa | 2.7V | 02:36:00 | 00:00:00 | 00:00:00 | |
| DO3MHA-12 | 2026-09-02 10:31:35 | 47.75812 | 11.48892 | 114° | 66km/h | 14108m | 4.7m/s | -53.5°C | 4.5% | 147.1hPa | 2.7V | 00:00:00 | 01:02:44 | 00:00:00 | |
| DB0UT-7 | 2026-09-02 10:31:34 | 47.75819 | 11.48869 | 114° | 69km/h | 14103m | 4.3m/s | -53.4°C | 4.5% | 147.2hPa | 2.7V | 00:00:00 | 00:00:00 | 00:00:00 | |
| DO3MHA-11 | 2026-09-02 10:31:33 | 47.75826 | 11.48847 | 115° | 66km/h | 14098m | 5.1m/s | -53.3°C | 4.5% | 147.4hPa | 2.7V | 02:35:00 | 01:02:42 | 00:00:00 | |
| OE5DRO-10 | 2026-09-02 10:31:30 | 47.75845 | 11.48779 | 109° | 68km/h | 14085m | 3.2m/s | -53.4°C | 4.5% | 147.6hPa | 2.6V | 00:00:00 | 00:00:00 | 00:00:00 | |
| OE5MMP-10 | 2026-09-02 10:31:29 | 47.75850 | 11.48755 | 109° | 66km/h | 14081m | 4.9m/s | -53.3°C | 4.4% | 147.7hPa | 2.6V | 00:00:00 | 01:02:38 | 00:00:00 | |
| DO3MHA-12 | 2026-09-02 10:31:25 | 47.75871 | 11.48659 | 110° | 66km/h | 14063m | 4.2m/s | -53.3°C | 4.5% | 148.1hPa | 2.6V | 02:35:00 | 01:02:34 | 00:00:00 | |
| PG1ADW-2 | 2026-09-02 10:31:24 | 47.75877 | 11.48635 | 111° | 68km/h | 14059m | 5.3m/s | 0°C | 0% | 0hPa | 2.7V | 00:00:00 | 00:00:00 | 00:00:00 | |
| DO3MHA-11 | 2026-09-02 10:31:23 | 47.75883 | 11.48613 | 113° | 68km/h | 14054m | 3.7m/s | -53.2°C | 4.4% | 148.4hPa | 2.7V | 00:00:00 | 01:02:32 | 00:00:00 | |
| BAUMI2-15 | 2026-09-02 10:31:20 | 47.75904 | 11.48547 | 117° | 66km/h | 14041m | 3.8m/s | 0°C | 0% | 0hPa | 2.7V | 00:00:00 | 01:02:29 | 00:00:00 | |
| OE5MMP-10 | 2026-09-02 10:31:19 | 47.75911 | 11.48525 | 116° | 71km/h | 14036m | 5.7m/s | -53.2°C | 4.3% | 148.7hPa | 2.7V | 00:00:00 | 01:02:28 | 00:00:00 | |
| IN3HCDX | 2026-09-02 10:31:17 | 47.75918 | 11.48503 | 115° | 66km/h | 14031m | 3.2m/s | -53.2°C | 1.7% | 148.9hPa | 2.7V | 02:36:00 | 00:00:00 | 00:00:00 | |
| DO8TBO-1 | 2026-09-02 10:31:16 | 47.75932 | 11.48457 | 114° | 78km/h | 14022m | 5.7m/s | -53.0°C | 4.2% | 149.1hPa | 2.7V | 00:00:00 | 01:02:25 | 00:00:00 | |
| DO3MHA-12 | 2026-09-02 10:31:15 | 47.75939 | 11.48433 | 115° | 75km/h | 14016m | 5.5m/s | -53.0°C | 4.2% | 149.3hPa | 2.7V | 00:00:00 | 01:02:24 | 00:00:00 | |
| DO3MHA-11 | 2026-09-02 10:31:13 | 47.75954 | 11.48384 | 117° | 75km/h | 14006m | 2.9m/s | -52.9°C | 4.2% | 149.5hPa | 2.7V | 00:00:00 | 01:02:22 | 00:00:00 | |
| OE5DRO-10 | 2026-09-02 10:31:11 | 47.75972 | 11.48334 | 119° | 78km/h | 13996m | 5.5m/s | -52.9°C | 4.3% | 149.6hPa | 2.7V | 00:00:00 | 00:00:00 | 00:00:00 | |
| BAUMI2-15 | 2026-09-02 10:31:10 | 47.75981 | 11.48308 | 119° | 77km/h | 13991m | 4.5m/s | 0°C | 0% | 0hPa | 2.7V | 00:00:00 | 01:02:19 | 00:00:00 | |
| OE5MMP-10 | 2026-09-02 10:31:09 | 47.75990 | 11.48282 | 117° | 75km/h | 13985m | 6.8m/s | -52.9°C | 4.4% | 149.9hPa | 2.7V | 02:36:00 | 01:02:18 | 00:00:00 | |
| NBG1-10 | 2026-09-02 10:31:08 | 47.75999 | 11.48257 | 115° | 77km/h | 13979m | 4.3m/s | -52.9°C | 4.3% | 150.1hPa | 2.7V | 00:00:00 | 01:02:17 | 00:00:00 | |
| DO3MHA-12 | 2026-09-02 10:31:05 | 47.76023 | 11.48180 | 116° | 78km/h | 13963m | 4.6m/s | -53.2°C | 4.4% | 150.4hPa | 2.7V | 00:00:00 | 01:02:14 | 00:00:00 | |
| PG1ADW-2 | 2026-09-02 10:31:04 | 47.76031 | 11.48156 | 117° | 66km/h | 13958m | 6.3m/s | 0°C | 0% | 0hPa | 2.7V | 00:00:00 | 00:00:00 | 00:00:00 | |
| DO3MHA-11 | 2026-09-02 10:31:03 | 47.76039 | 11.48132 | 117° | 82km/h | 13953m | 3.5m/s | -53.5°C | 4.5% | 150.7hPa | 2.7V | 02:36:00 | 01:02:12 | 00:00:00 | |
| DF7PN | 2026-09-02 10:30:58 | 47.76095 | 11.47970 | 117° | 86km/h | 13925m | 5.0m/s | -53.7°C | 1.8% | 151.4hPa | 2.7V | 00:00:00 | 00:00:00 | 00:00:00 | |
| DO3MHA-12 | 2026-09-02 10:30:55 | 47.76116 | 11.47914 | 118° | 78km/h | 13917m | 4.7m/s | -53.6°C | 4.5% | 151.5hPa | 2.7V | 02:36:00 | 01:02:04 | 00:00:00 | |
| IN3HCDX | 2026-09-02 10:30:54 | 47.76116 | 11.47914 | 119° | 84km/h | 13917m | 4.8m/s | -53.7°C | 1.8% | 151.6hPa | 2.7V | 02:36:00 | 00:00:00 | 00:00:00 | |
| DO3MHA-11 | 2026-09-02 10:30:53 | 47.76135 | 11.47859 | 118° | 78km/h | 13908m | 4.9m/s | -53.5°C | 4.6% | 151.7hPa | 2.7V | 00:00:00 | 01:02:02 | 00:00:00 | |
| OE5DRO-10 | 2026-09-02 10:30:52 | 47.76144 | 11.47832 | 117° | 77km/h | 13903m | 3.8m/s | -53.5°C | 4.6% | 151.9hPa | 2.7V | 02:36:00 | 00:00:00 | 00:00:00 | |
| BAUMI2-15 | 2026-09-02 10:30:50 | 47.76161 | 11.47779 | 115° | 75km/h | 13894m | 3.6m/s | 0°C | 0% | 0hPa | 2.7V | 00:00:00 | 01:01:59 | 00:00:00 | |
| OE5MMP-10 | 2026-09-02 10:30:49 | 47.76169 | 11.47753 | 116° | 77km/h | 13890m | 4.5m/s | -53.7°C | 4.7% | 152.1hPa | 2.7V | 00:00:00 | 01:01:58 | 00:00:00 | |
| DO3MHA-12 | 2026-09-02 10:30:45 | 47.76202 | 11.47650 | 115° | 77km/h | 13873m | 4.3m/s | -53.7°C | 4.7% | 152.6hPa | 2.7V | 00:00:00 | 01:01:54 | 00:00:00 | |
| DO3MHA-11 | 2026-09-02 10:30:43 | 47.76218 | 11.47596 | 115° | 75km/h | 13865m | 3.5m/s | -53.6°C | 4.6% | 152.8hPa | 2.7V | 00:00:00 | 01:01:52 | 00:00:00 | |
| DG1MFX-10 | 2026-09-02 10:30:42 | 47.76218 | 11.47596 | 115° | 80km/h | 13865m | 3.5m/s | -53.7°C | 1.9% | 152.8hPa | 2.7V | 02:37:00 | 00:00:00 | 00:00:00 | |
| DG1MJG | 2026-09-02 10:30:40 | 47.76234 | 11.47540 | 113° | 78km/h | 13857m | 4.0m/s | -53.7°C | 1.9% | 153.0hPa | 2.7V | 02:37:00 | 00:00:00 | 00:00:00 | |
| OE5MMP-10 | 2026-09-02 10:30:39 | 47.76249 | 11.47487 | 113° | 71km/h | 13847m | 3.4m/s | -53.6°C | 4.8% | 153.2hPa | 2.7V | 02:36:00 | 01:01:48 | 00:00:00 | |
| DB0UT-7 | 2026-09-02 10:30:35 | 47.76282 | 11.47361 | 113° | 75km/h | 13826m | 3.1m/s | -53.5°C | 4.6% | 153.7hPa | 2.7V | 02:36:00 | 00:00:00 | 00:00:00 | |
| OE5DRO-10 | 2026-09-02 10:30:34 | 47.76289 | 11.47337 | 112° | 75km/h | 13822m | 4.8m/s | -53.6°C | 4.6% | 153.8hPa | 2.7V | 00:00:00 | 00:00:00 | 00:00:00 | |
| DO3MHA-11 | 2026-09-02 10:30:33 | 47.76289 | 11.47337 | 112° | 73km/h | 13822m | 4.8m/s | -53.6°C | 4.6% | 153.8hPa | 2.7V | 02:36:00 | 01:01:42 | 00:00:00 | |
| IN3HCDX | 2026-09-02 10:30:31 | 47.76295 | 11.47312 | 112° | 69km/h | 13818m | 3.6m/s | -53.6°C | 1.8% | 153.9hPa | 2.7V | 02:37:00 | 00:00:00 | 00:00:00 | |
| OE5WHR-10 | 2026-09-02 10:30:30 | 47.76309 | 11.47263 | 113° | 73km/h | 13810m | 3.5m/s | -53.5°C | 4.5% | 154.1hPa | 2.7V | 02:36:00 | 00:00:00 | 00:00:00 | |
| OE5MMP-10 | 2026-09-02 10:30:29 | 47.76316 | 11.47238 | 112° | 73km/h | 13806m | 3.7m/s | -53.6°C | 4.5% | 154.2hPa | 2.7V | 00:00:00 | 01:01:38 | 00:00:00 | |
| DF7PN | 2026-09-02 10:30:27 | 47.76333 | 11.47161 | 107° | 73km/h | 13793m | 3.9m/s | -53.7°C | 1.8% | 154.5hPa | 2.7V | 00:00:00 | 00:00:00 | 00:00:00 | |
| DO3MHA-12 | 2026-09-02 10:30:25 | 47.76339 | 11.47134 | 110° | 77km/h | 13789m | 4.3m/s | -53.6°C | 4.7% | 154.6hPa | 2.7V | 02:36:00 | 01:01:34 | 00:00:00 | |
| DO3MHA-11 | 2026-09-02 10:30:23 | 47.76352 | 11.47082 | 112° | 77km/h | 13782m | 4.1m/s | -53.6°C | 4.7% | 154.8hPa | 2.7V | 00:00:00 | 01:01:32 | 00:00:00 | |
| DG1MFX-10 | 2026-09-02 10:30:22 | 47.76352 | 11.47082 | 112° | 73km/h | 13782m | 4.1m/s | -53.6°C | 1.9% | 154.8hPa | 2.7V | 02:37:00 | 00:00:00 | 00:00:00 | |
| OE5MMP-10 | 2026-09-02 10:30:19 | 47.76378 | 11.46979 | 108° | 78km/h | 13766m | 3.2m/s | -53.6°C | 4.7% | 155.1hPa | 2.7V | 00:00:00 | 01:01:28 | 00:00:00 | |
| DO3MHA-12 | 2026-09-02 10:30:15 | 47.76398 | 11.46862 | 103° | 77km/h | 13749m | 3.6m/s | -53.7°C | 4.7% | 155.5hPa | 2.7V | 00:00:00 | 01:01:24 | 00:00:00 | |
| OE5DRO-10 | 2026-09-02 10:30:14 | 47.76402 | 11.46832 | 102° | 77km/h | 13744m | 4.9m/s | -53.7°C | 4.7% | 155.7hPa | 2.7V | 00:00:00 | 00:00:00 | 00:00:00 | |
| OE5DXL-15 | 2026-09-02 10:30:13 | 47.76406 | 11.46803 | 104° | 75km/h | 13741m | 2.4m/s | -53.7°C | 4.6% | 155.8hPa | 2.7V | 00:00:00 | 00:00:00 | 00:00:00 | |
| DG1MJG | 2026-09-02 10:30:10 | 47.76417 | 11.46746 | 108° | 77km/h | 13733m | 4.0m/s | -53.6°C | 1.8% | 156.0hPa | 2.7V | 02:37:00 | 00:00:00 | 00:00:00 | |
| OE5MMP-10 | 2026-09-02 10:30:09 | 47.76429 | 11.46692 | 108° | 77km/h | 13725m | 4.2m/s | -53.6°C | 4.7% | 156.1hPa | 2.7V | 02:37:00 | 01:01:18 | 00:00:00 | |
| DL6DJ-15 | 2026-09-02 10:30:08 | 47.76434 | 11.46666 | 106° | 73km/h | 13721m | 4.1m/s | -53.5°C | 1.8% | 156.3hPa | 2.7V | 00:00:00 | 00:00:00 | 00:00:00 | |
| DO3MHA-12 | 2026-09-02 10:30:05 | 47.76450 | 11.46584 | 106° | 77km/h | 13708m | 4.4m/s | -53.5°C | 4.6% | 156.6hPa | 2.7V | 00:00:00 | 01:01:14 | 00:00:00 | |
| DB0UT-7 | 2026-09-02 10:30:04 | 47.76455 | 11.46555 | 104° | 71km/h | 13704m | 5.1m/s | -53.4°C | 4.7% | 156.7hPa | 2.7V | 00:00:00 | 01:01:13 | 00:00:00 | |
| DG1MFX-10 | 2026-09-02 10:30:02 | 47.76459 | 11.46527 | 103° | 78km/h | 13700m | 3.4m/s | -53.4°C | 1.9% | 156.8hPa | 2.7V | 02:37:00 | 00:00:00 | 00:00:00 | |
| DF7PN | 2026-09-02 10:29:56 | 47.76495 | 11.46307 | 104° | 71km/h | 13667m | 4.1m/s | -53.2°C | 1.8% | 157.6hPa | 2.7V | 00:00:00 | 00:00:00 | 00:00:00 | |
| DO3MHA-12 | 2026-09-02 10:29:55 | 47.76495 | 11.46307 | 105° | 73km/h | 13667m | 4.0m/s | -53.2°C | 4.6% | 157.5hPa | 2.7V | 02:37:00 | 01:01:04 | 00:00:00 | |
| DO3MHA-11 | 2026-09-02 10:29:53 | 47.76503 | 11.46254 | 104° | 73km/h | 13658m | 4.1m/s | -53.1°C | 4.6% | 157.8hPa | 2.7V | 00:00:00 | 01:01:02 | 00:00:00 | |
| OE5MMP-10 | 2026-09-02 10:29:49 | 47.76519 | 11.46146 | 102° | 69km/h | 13640m | 4.3m/s | -53.1°C | 4.4% | 158.2hPa | 2.7V | 00:00:00 | 01:00:58 | 00:00:00 | |
| OE5WHR-10 | 2026-09-02 10:29:47 | 47.76527 | 11.46092 | 103° | 68km/h | 13632m | 3.8m/s | -53.0°C | 4.4% | 158.4hPa | 2.7V | 00:00:00 | 01:00:56 | 00:00:00 | |
| DK5PH-5 | 2026-09-02 10:29:43 | 47.76542 | 11.45987 | 105° | 64km/h | 13615m | 4.1m/s | 0°C | 0% | 0hPa | 2.7V | 00:00:00 | 01:00:52 | 00:00:00 | |
| DG1MFX-10 | 2026-09-02 10:29:42 | 47.76542 | 11.45987 | 106° | 68km/h | 13615m | 4.2m/s | -53.0°C | 1.8% | 158.9hPa | 2.7V | 02:37:00 | 00:00:00 | 00:00:00 | |
| OE5MMP-10 | 2026-09-02 10:29:39 | 47.76560 | 11.45893 | 107° | 68km/h | 13598m | 4.5m/s | -52.8°C | 4.4% | 159.3hPa | 2.7V | 02:37:00 | 01:00:48 | 00:00:00 | |
| DL6DJ-15 | 2026-09-02 10:29:37 | 47.76569 | 11.45845 | 103° | 66km/h | 13590m | 4.7m/s | -52.8°C | 1.7% | 159.6hPa | 2.7V | 00:00:00 | 00:00:00 | 00:00:00 | |
| OE5DRO-10 | 2026-09-02 10:29:36 | 47.76573 | 11.45820 | 103° | 64km/h | 13586m | 3.6m/s | -52.7°C | 4.3% | 159.6hPa | 2.7V | 00:00:00 | 00:00:00 | 00:00:00 | |
| DO3MHA-12 | 2026-09-02 10:29:35 | 47.76577 | 11.45795 | 103° | 66km/h | 13581m | 4.5m/s | -52.7°C | 4.3% | 159.7hPa | 2.7V | 00:00:00 | 01:00:44 | 00:00:00 | |
| DB0UT-7 | 2026-09-02 10:29:34 | 47.76580 | 11.45769 | 102° | 60km/h | 13578m | 3.0m/s | -52.7°C | 4.3% | 159.8hPa | 2.7V | 00:00:00 | 00:00:00 | 00:00:00 | |
| DO3MHA-11 | 2026-09-02 10:29:33 | 47.76583 | 11.45743 | 100° | 64km/h | 13574m | 5.0m/s | -52.7°C | 4.4% | 159.8hPa | 2.7V | 02:37:00 | 01:00:42 | 00:00:00 | |
| OE5MMP-10 | 2026-09-02 10:29:29 | 47.76597 | 11.45649 | 107° | 62km/h | 13556m | 3.7m/s | -52.7°C | 4.4% | 160.3hPa | 2.7V | 00:00:00 | 01:00:38 | 00:00:00 | |
| NBG1-10 | 2026-09-02 10:29:28 | 47.76602 | 11.45626 | 108° | 58km/h | 13552m | 3.4m/s | -52.8°C | 4.4% | 160.4hPa | 2.7V | 00:00:00 | 01:00:37 | 00:00:00 | |
| OE5WHR-10 | 2026-09-02 10:29:26 | 47.76610 | 11.45582 | 105° | 60km/h | 13543m | 4.1m/s | -52.8°C | 4.3% | 160.7hPa | 2.7V | 02:37:00 | 00:00:00 | 00:00:00 | |
| DF7PN | 2026-09-02 10:29:25 | 47.76618 | 11.45535 | 102° | 66km/h | 13534m | 3.5m/s | -52.8°C | 1.7% | 160.9hPa | 2.7V | 00:00:00 | 00:00:00 | 00:00:00 | |
| DO3MHA-11 | 2026-09-02 10:29:23 | 47.76621 | 11.45511 | 102° | 60km/h | 13531m | 3.2m/s | -52.7°C | 4.2% | 160.9hPa | 2.7V | 00:00:00 | 01:00:32 | 00:00:00 | |
| DG1MFX-10 | 2026-09-02 10:29:22 | 47.76621 | 11.45511 | 103° | 66km/h | 13531m | 3.3m/s | -52.8°C | 1.6% | 161.0hPa | 2.7V | 02:37:00 | 00:00:00 | 00:00:00 | |
| OE5DRO-10 | 2026-09-02 10:29:17 | 47.76644 | 11.45379 | 111° | 57km/h | 13504m | 4.0m/s | -52.6°C | 4.3% | 161.6hPa | 2.7V | 00:00:00 | 00:00:00 | 00:00:00 | |
| DO3MHA-12 | 2026-09-02 10:29:15 | 47.76654 | 11.45338 | 113° | 58km/h | 13496m | 3.8m/s | -52.6°C | 4.3% | 161.9hPa | 2.7V | 00:00:00 | 01:00:24 | 00:00:00 | |
| DO3MHA-11 | 2026-09-02 10:29:13 | 47.76666 | 11.45297 | 114° | 58km/h | 13486m | 3.7m/s | -52.7°C | 4.4% | 162.0hPa | 2.7V | 00:00:00 | 01:00:22 | 00:00:00 | |
| OE5MMP-10 | 2026-09-02 10:29:09 | 47.76688 | 11.45217 | 113° | 57km/h | 13468m | 4.2m/s | -52.7°C | 4.4% | 162.5hPa | 2.7V | 02:38:00 | 01:00:18 | 00:00:00 | |
| DG1MJG | 2026-09-02 10:29:08 | 47.76689 | 11.45217 | 113° | 58km/h | 13468m | 4.3m/s | -52.7°C | 1.7% | 162.5hPa | 2.7V | 02:38:00 | 00:00:00 | 00:00:00 | |
| DL6DJ-15 | 2026-09-02 10:29:06 | 47.76704 | 11.45156 | 109° | 57km/h | 13454m | 4.7m/s | -52.7°C | 1.7% | 162.9hPa | 2.7V | 00:00:00 | 00:00:00 | 00:00:00 | |
| DO3MHA-12 | 2026-09-02 10:29:05 | 47.76709 | 11.45136 | 111° | 57km/h | 13449m | 3.7m/s | -52.6°C | 4.3% | 163.0hPa | 2.7V | 00:00:00 | 01:00:14 | 00:00:00 | |
| DB0UT-7 | 2026-09-02 10:29:04 | 47.76714 | 11.45116 | 112° | 60km/h | 13445m | 4.2m/s | -52.6°C | 4.2% | 163.1hPa | 2.7V | 02:38:00 | 01:00:13 | 00:00:00 | |
| DO3MHA-11 | 2026-09-02 10:29:03 | 47.76719 | 11.45097 | 111° | 58km/h | 13440m | 5.3m/s | -52.6°C | 4.2% | 163.2hPa | 2.7V | 02:38:00 | 01:00:12 | 00:00:00 | |
| DF7PN | 2026-09-02 10:28:54 | 47.76766 | 11.44891 | 105° | 60km/h | 13394m | 4.2m/s | -52.3°C | 1.7% | 164.4hPa | 2.7V | 00:00:00 | 00:00:00 | 00:00:00 | |
| DO3MHA-11 | 2026-09-02 10:28:53 | 47.76766 | 11.44891 | 106° | 60km/h | 13394m | 4.1m/s | -52.3°C | 4.2% | 164.4hPa | 2.7V | 00:00:00 | 01:00:02 | 00:00:00 | |
| PG1ADW-2 | 2026-09-02 10:28:51 | 47.76774 | 11.44847 | 107° | 64km/h | 13385m | 4.5m/s | 0°C | 0% | 0hPa | 2.7V | 00:00:00 | 01:00:00 | 00:00:00 | |
| OE5MMP-10 | 2026-09-02 10:28:49 | 47.76783 | 11.44803 | 107° | 62km/h | 13376m | 5.2m/s | -52.4°C | 4.1% | 164.9hPa | 2.7V | 00:00:00 | 00:59:58 | 00:00:00 | |
| DO3MHA-12 | 2026-09-02 10:28:45 | 47.76800 | 11.44719 | 107° | 66km/h | 13358m | 4.0m/s | -52.7°C | 4.3% | 165.3hPa | 2.7V | 00:00:00 | 00:59:54 | 00:00:00 | |
| OE5WHR-10 | 2026-09-02 10:28:44 | 47.76804 | 11.44697 | 105° | 64km/h | 13354m | 5.2m/s | -52.6°C | 4.4% | 165.4hPa | 2.7V | 00:00:00 | 00:59:53 | 00:00:00 | |
| DO3MHA-11 | 2026-09-02 10:28:43 | 47.76807 | 11.44675 | 101° | 66km/h | 13349m | 3.6m/s | -52.6°C | 4.3% | 165.6hPa | 2.7V | 00:00:00 | 00:59:52 | 00:00:00 | |
| DG1MFX-10 | 2026-09-02 10:28:41 | 47.76810 | 11.44651 | 100° | 66km/h | 13345m | 5.4m/s | -52.6°C | 1.7% | 165.7hPa | 2.7V | 02:38:00 | 00:00:00 | 00:00:00 | |
| OE5MMP-10 | 2026-09-02 10:28:39 | 47.76818 | 11.44575 | 99° | 66km/h | 13332m | 5.1m/s | -52.5°C | 4.3% | 166.1hPa | 2.7V | 02:38:00 | 00:59:48 | 00:00:00 | |
| DG1MJG | 2026-09-02 10:28:38 | 47.76818 | 11.44575 | 99° | 69km/h | 13332m | 5.1m/s | -52.5°C | 1.7% | 166.1hPa | 2.7V | 02:38:00 | 00:00:00 | 00:00:00 | |
| DO3MHA-12 | 2026-09-02 10:28:35 | 47.76830 | 11.44477 | 102° | 64km/h | 13314m | 4.2m/s | -52.3°C | 4.3% | 166.5hPa | 2.7V | 00:00:00 | 00:59:44 | 00:00:00 | |
| DB0UT-7 | 2026-09-02 10:28:34 | 47.76833 | 11.44453 | 101° | 62km/h | 13309m | 5.4m/s | -52.3°C | 4.2% | 166.6hPa | 2.7V | 00:00:00 | 00:00:00 | 00:00:00 | |
| DO3MHA-11 | 2026-09-02 10:28:33 | 47.76836 | 11.44430 | 99° | 62km/h | 13305m | 4.0m/s | -52.3°C | 4.3% | 166.7hPa | 2.7V | 02:38:00 | 00:59:42 | 00:00:00 | |
| PG1ADW-2 | 2026-09-02 10:28:31 | 47.76840 | 11.44383 | 99° | 62km/h | 13296m | 4.6m/s | 0°C | 0% | 0hPa | 2.7V | 00:00:00 | 00:00:00 | 00:00:00 | |
| OE5MMP-10 | 2026-09-02 10:28:29 | 47.76845 | 11.44336 | 98° | 62km/h | 13287m | 5.6m/s | -52.1°C | 4.2% | 167.2hPa | 2.7V | 00:00:00 | 00:59:38 | 00:00:00 | |
| DO3MHA-12 | 2026-09-02 10:28:25 | 47.76855 | 11.44244 | 102° | 60km/h | 13268m | 5.1m/s | -51.9°C | 4.2% | 167.6hPa | 2.7V | 02:38:00 | 00:59:34 | 00:00:00 | |
| DO3MHA-11 | 2026-09-02 10:28:23 | 47.76862 | 11.44198 | 105° | 60km/h | 13259m | 4.3m/s | -51.8°C | 4.2% | 167.9hPa | 2.7V | 00:00:00 | 00:59:32 | 00:00:00 | |
| NBG1-10 | 2026-09-02 10:28:22 | 47.76867 | 11.44175 | 105° | 60km/h | 13254m | 5.0m/s | -51.8°C | 4.2% | 168.0hPa | 2.7V | 02:38:00 | 00:59:31 | 00:00:00 | |
| DG1MFX-10 | 2026-09-02 10:28:21 | 47.76867 | 11.44175 | 106° | 64km/h | 13254m | 5.0m/s | -51.9°C | 1.7% | 168.1hPa | 2.7V | 02:38:00 | 00:00:00 | 00:00:00 | |
| OE5DRO-10 | 2026-09-02 10:28:20 | 47.76875 | 11.44130 | 104° | 60km/h | 13245m | 5.2m/s | -51.7°C | 4.2% | 168.2hPa | 2.7V | 00:00:00 | 00:00:00 | 00:00:00 | |
| OE5MMP-10 | 2026-09-02 10:28:19 | 47.76878 | 11.44108 | 104° | 58km/h | 13241m | 3.6m/s | -51.7°C | 4.2% | 168.4hPa | 2.7V | 00:00:00 | 00:59:28 | 00:00:00 | |
| DO3MHA-12 | 2026-09-02 10:28:15 | 47.76891 | 11.44024 | 103° | 62km/h | 13223m | 4.9m/s | -51.5°C | 4.2% | 168.9hPa | 2.7V | 00:00:00 | 00:59:24 | 00:00:00 | |
| OE5DXL-15 | 2026-09-02 10:28:13 | 47.76897 | 11.43983 | 104° | 57km/h | 13215m | 5.3m/s | -51.4°C | 4.1% | 169.1hPa | 2.7V | 02:38:00 | 00:00:00 | 00:00:00 | |
| PG1ADW-2 | 2026-09-02 10:28:11 | 47.76905 | 11.43940 | 107° | 64km/h | 13205m | 6.0m/s | 0°C | 0% | 0hPa | 2.7V | 00:00:00 | 00:00:00 | 00:00:00 | |
| OE5MMP-10 | 2026-09-02 10:28:09 | 47.76913 | 11.43895 | 104° | 58km/h | 13196m | 5.5m/s | -51.3°C | 4.1% | 169.6hPa | 2.7V | 02:39:00 | 00:59:18 | 00:00:00 | |
| DO3MHA-12 | 2026-09-02 10:28:05 | 47.76930 | 11.43801 | 106° | 57km/h | 13177m | 4.4m/s | -51.1°C | 4.0% | 170.1hPa | 2.7V | 00:00:00 | 00:59:14 | 00:00:00 | |
| DB0UT-7 | 2026-09-02 10:28:04 | 47.76934 | 11.43779 | 108° | 55km/h | 13172m | 5.9m/s | -51.1°C | 4.0% | 170.2hPa | 2.7V | 00:00:00 | 00:59:13 | 00:00:00 | |
| DO3MHA-11 | 2026-09-02 10:28:03 | 47.76939 | 11.43758 | 109° | 57km/h | 13167m | 4.5m/s | -51.0°C | 4.0% | 170.3hPa | 2.7V | 02:39:00 | 00:59:12 | 00:00:00 | |
| DF7PN | 2026-09-02 10:27:51 | 47.76982 | 11.43508 | 111° | 60km/h | 13107m | 6.8m/s | -50.9°C | 1.7% | 171.9hPa | 2.7V | 00:00:00 | 00:00:00 | 00:00:00 | |
| OE5MMP-10 | 2026-09-02 10:27:49 | 47.76993 | 11.43468 | 112° | 51km/h | 13096m | 5.9m/s | -50.8°C | 4.1% | 172.1hPa | 2.7V | 00:00:00 | 00:58:58 | 00:00:00 | |
| DO3MHA-12 | 2026-09-02 10:27:45 | 47.77007 | 11.43398 | 96° | 55km/h | 13077m | 2.5m/s | -50.7°C | 3.8% | 172.5hPa | 2.7V | 00:00:00 | 00:58:54 | 00:00:00 | |
| DO3MHA-11 | 2026-09-02 10:27:43 | 47.77009 | 11.43363 | 96° | 55km/h | 13067m | 3.7m/s | -50.7°C | 3.9% | 172.9hPa | 2.7V | 00:00:00 | 00:58:52 | 00:00:00 | |
| OE5DRO-10 | 2026-09-02 10:27:42 | 47.77010 | 11.43344 | 100° | 62km/h | 13063m | 6.0m/s | -50.7°C | 3.9% | 173.0hPa | 2.7V | 00:00:00 | 00:00:00 | 00:00:00 | |
| OE5WHR-10 | 2026-09-02 10:27:41 | 47.77013 | 11.43324 | 105° | 64km/h | 13056m | 6.3m/s | -50.7°C | 3.8% | 173.2hPa | 2.7V | 00:00:00 | 00:58:50 | 00:00:00 | |
| DG1MFX-10 | 2026-09-02 10:27:40 | 47.77013 | 11.43324 | 106° | 57km/h | 13056m | 6.3m/s | -50.7°C | 1.6% | 173.2hPa | 2.7V | 02:39:00 | 00:00:00 | 00:00:00 | |
| OE5MMP-10 | 2026-09-02 10:27:39 | 47.77023 | 11.43282 | 114° | 60km/h | 13042m | 8.1m/s | -50.7°C | 3.8% | 173.5hPa | 2.7V | 02:39:00 | 00:58:48 | 00:00:00 | |
| DG1MJG | 2026-09-02 10:27:37 | 47.77029 | 11.43261 | 114° | 60km/h | 13034m | 8.5m/s | -50.8°C | 1.5% | 173.8hPa | 2.7V | 02:39:00 | 00:00:00 | 00:00:00 | |
| DO3MHA-12 | 2026-09-02 10:27:35 | 47.77045 | 11.43205 | 115° | 64km/h | 13013m | 3.6m/s | -50.8°C | 3.8% | 174.3hPa | 2.7V | 00:00:00 | 00:58:44 | 00:00:00 | |
| DB0UT-7 | 2026-09-02 10:27:34 | 47.77051 | 11.43187 | 116° | 68km/h | 13008m | 5.4m/s | -50.8°C | 3.8% | 174.4hPa | 2.7V | 02:39:00 | 00:00:00 | 00:00:00 | |
| DO3MHA-11 | 2026-09-02 10:27:33 | 47.77058 | 11.43168 | 118° | 68km/h | 13003m | 4.8m/s | -50.8°C | 3.9% | 174.5hPa | 2.7V | 02:39:00 | 00:58:42 | 00:00:00 | |
| OE5MMP-10 | 2026-09-02 10:27:28 | 47.77100 | 11.43060 | 123° | 68km/h | 12977m | 4.7m/s | -51.7°C | 4.3% | 175.3hPa | 2.7V | 00:00:00 | 00:58:37 | 00:00:00 | |
| DO3MHA-12 | 2026-09-02 10:27:25 | 47.77129 | 11.42995 | 123° | 69km/h | 12963m | 5.1m/s | -51.9°C | 4.3% | 175.6hPa | 2.7V | 02:39:00 | 00:58:34 | 00:00:00 | |
| DO3MHA-11 | 2026-09-02 10:27:23 | 47.77147 | 11.42952 | 121° | 69km/h | 12953m | 5.5m/s | -51.9°C | 4.3% | 175.8hPa | 2.7V | 00:00:00 | 00:58:32 | 00:00:00 | |
| OE5WHR-10 | 2026-09-02 10:27:20 | 47.77173 | 11.42887 | 123° | 69km/h | 12940m | 4.4m/s | -52.0°C | 4.4% | 176.3hPa | 2.7V | 02:39:00 | 00:00:00 | 00:00:00 | |
| DG1MFX-10 | 2026-09-02 10:27:19 | 47.77173 | 11.42887 | 123° | 68km/h | 12940m | 4.4m/s | -52.0°C | 1.9% | 176.3hPa | 2.7V | 02:40:00 | 00:00:00 | 00:00:00 | |
| OE5MMP-10 | 2026-09-02 10:27:18 | 47.77192 | 11.42843 | 125° | 71km/h | 12932m | 4.6m/s | -52.1°C | 4.6% | 176.5hPa | 2.7V | 00:00:00 | 00:58:27 | 00:00:00 | |
| NBG1-10 | 2026-09-02 10:27:16 | 47.77213 | 11.42800 | 128° | 73km/h | 12923m | 5.1m/s | -52.1°C | 4.6% | 176.7hPa | 2.7V | 00:00:00 | 00:58:25 | 00:00:00 | |
| DO3MHA-12 | 2026-09-02 10:27:15 | 47.77224 | 11.42780 | 130° | 69km/h | 12918m | 3.4m/s | -52.0°C | 4.6% | 176.9hPa | 2.7V | 00:00:00 | 00:58:24 | 00:00:00 | |
| DO3MHA-11 | 2026-09-02 10:27:13 | 47.77247 | 11.42739 | 132° | 69km/h | 12909m | 4.2m/s | -52.0°C | 4.6% | 177.1hPa | 2.7V | 00:00:00 | 00:58:22 | 00:00:00 | |
| DG1MJG | 2026-09-02 10:27:06 | 47.77319 | 11.42624 | 133° | 71km/h | 12882m | 4.9m/s | -51.9°C | 2.0% | 177.9hPa | 2.7V | 02:40:00 | 00:00:00 | 00:00:00 | |
| DO3MHA-12 | 2026-09-02 10:27:05 | 47.77343 | 11.42584 | 132° | 71km/h | 12873m | 5.1m/s | -51.8°C | 4.6% | 178.1hPa | 2.7V | 00:00:00 | 00:58:14 | 00:00:00 | |
| DB0UT-7 | 2026-09-02 10:27:04 | 47.77355 | 11.42564 | 132° | 75km/h | 12868m | 4.1m/s | -51.8°C | 4.5% | 178.3hPa | 2.7V | 00:00:00 | 00:58:13 | 00:00:00 | |
| DL6DJ-15 | 2026-09-02 10:27:02 | 47.77390 | 11.42507 | 133° | 68km/h | 12855m | 3.5m/s | -51.8°C | 2.1% | 178.7hPa | 2.7V | 00:00:00 | 00:00:00 | 00:00:00 | |
| DF7PN | 2026-09-02 10:26:49 | 47.77547 | 11.42269 | 131° | 75km/h | 12803m | 5.5m/s | -51.5°C | 2.1% | 180.1hPa | 2.7V | 00:00:00 | 00:00:00 | 00:00:00 | |
| OE5MMP-10 | 2026-09-02 10:26:46 | 47.77586 | 11.42203 | 133° | 77km/h | 12789m | 4.0m/s | 0°C | 0% | 180.4hPa | 2.7V | 00:00:00 | 00:57:55 | 00:00:00 | |
| DO3MHA-12 | 2026-09-02 10:26:45 | 47.77600 | 11.42181 | 134° | 75km/h | 12785m | 4.4m/s | -51.3°C | 4.6% | 180.6hPa | 2.7V | 00:00:00 | 00:57:54 | 00:00:00 | |
| OE5DXL-15 | 2026-09-02 10:26:43 | 47.77628 | 11.42138 | 134° | 78km/h | 12777m | 5.0m/s | -51.3°C | 4.7% | 180.8hPa | 2.7V | 02:40:00 | 00:00:00 | 00:00:00 | |
| OE5WHR-10 | 2026-09-02 10:26:38 | 47.77693 | 11.42036 | 132° | 78km/h | 12755m | 3.7m/s | 0°C | 0% | 0hPa | 2.7V | 00:00:00 | 00:57:47 | 00:00:00 | |
| IN3HCDX | 2026-09-02 10:26:37 | 47.77693 | 11.42036 | 133° | 73km/h | 12755m | 3.8m/s | -51.1°C | 2.2% | 181.5hPa | 2.7V | 02:41:00 | 00:00:00 | 00:00:00 | |
| OE5MMP-10 | 2026-09-02 10:26:36 | 47.77718 | 11.41995 | 133° | 80km/h | 12746m | 3.9m/s | 0°C | 0% | 0hPa | 2.7V | 00:00:00 | 00:57:45 | 00:00:00 | |
| DO3MHA-12 | 2026-09-02 10:26:35 | 47.77730 | 11.41975 | 132° | 80km/h | 12742m | 4.4m/s | -51.1°C | 4.7% | 181.8hPa | 2.7V | 00:00:00 | 00:57:44 | 00:00:00 | |
| DB0UT-7 | 2026-09-02 10:26:34 | 47.77743 | 11.41953 | 131° | 82km/h | 12737m | 4.2m/s | -51.1°C | 4.7% | 181.9hPa | 2.7V | 00:00:00 | 00:00:00 | 00:00:00 | |
| DO3MHA-11 | 2026-09-02 10:26:33 | 47.77756 | 11.41930 | 131° | 80km/h | 12733m | 3.7m/s | -51.1°C | 4.7% | 182.0hPa | 2.7V | 02:40:00 | 00:57:42 | 00:00:00 | |
| DL6DJ-15 | 2026-09-02 10:26:31 | 47.77797 | 11.41861 | 130° | 82km/h | 12720m | 5.3m/s | -51.6°C | 2.4% | 182.5hPa | 2.7V | 00:00:00 | 00:00:00 | 00:00:00 | |
| OE5MMP-10 | 2026-09-02 10:26:26 | 47.77851 | 11.41770 | 133° | 80km/h | 12703m | 3.2m/s | 0°C | 0% | 0hPa | 2.7V | 02:40:00 | 00:57:35 | 00:00:00 | |
| DO3MHA-12 | 2026-09-02 10:26:25 | 47.77864 | 11.41749 | 132° | 80km/h | 12699m | 4.5m/s | -51.8°C | 5.0% | 183.0hPa | 2.7V | 02:40:00 | 00:57:34 | 00:00:00 | |
| DO3MHA-11 | 2026-09-02 10:26:23 | 47.77889 | 11.41706 | 131° | 82km/h | 12691m | 4.4m/s | -51.9°C | 5.1% | 183.1hPa | 2.7V | 00:00:00 | 00:57:32 | 00:00:00 | |
| DF7PN | 2026-09-02 10:26:18 | 47.77955 | 11.41590 | 129° | 86km/h | 12670m | 5.0m/s | -52.2°C | 2.6% | 183.8hPa | 2.7V | 00:00:00 | 00:00:00 | 00:00:00 | |
| OE5MMP-10 | 2026-09-02 10:26:16 | 47.77983 | 11.41540 | 129° | 84km/h | 12662m | 3.7m/s | 0°C | 0% | 0hPa | 2.7V | 00:00:00 | 00:57:25 | 00:00:00 | |
| DO3MHA-12 | 2026-09-02 10:26:15 | 47.77996 | 11.41514 | 128° | 84km/h | 12657m | 5.0m/s | -52.3°C | 5.3% | 184.2hPa | 2.7V | 00:00:00 | 00:57:24 | 00:00:00 | |
| OE5DXL-15 | 2026-09-02 10:26:13 | 47.78021 | 11.41464 | 128° | 86km/h | 12648m | 4.0m/s | -52.6°C | 5.5% | 184.4hPa | 2.7V | 00:00:00 | 00:00:00 | 00:00:00 | |
| NBG1-10 | 2026-09-02 10:26:10 | 47.78057 | 11.41389 | 124° | 86km/h | 12635m | 4.3m/s | -52.7°C | 5.6% | 184.8hPa | 2.7V | 00:00:00 | 00:57:19 | 00:00:00 | |
| OE5DRO-10 | 2026-09-02 10:26:07 | 47.78093 | 11.41312 | 124° | 86km/h | 12621m | 5.0m/s | -52.7°C | 5.7% | 185.2hPa | 2.7V | 02:41:00 | 00:00:00 | 00:00:00 | |
| OE5MMP-10 | 2026-09-02 10:26:06 | 47.78105 | 11.41284 | 125° | 88km/h | 12617m | 4.1m/s | 0°C | 0% | 0hPa | 2.7V | 00:00:00 | 00:57:15 | 00:00:00 | |
| OE5WHR-10 | 2026-09-02 10:26:05 | 47.78118 | 11.41257 | 125° | 86km/h | 12612m | 4.9m/s | 0°C | 0% | 0hPa | 2.7V | 02:41:00 | 00:00:00 | 00:00:00 | |
| DB0UT-7 | 2026-09-02 10:26:04 | 47.78131 | 11.41230 | 126° | 86km/h | 12607m | 4.3m/s | -52.8°C | 5.7% | 185.6hPa | 2.7V | 02:41:00 | 00:57:13 | 00:00:00 | |
| DO3MHA-11 | 2026-09-02 10:26:03 | 47.78143 | 11.41203 | 125° | 86km/h | 12603m | 4.6m/s | -52.8°C | 5.8% | 185.7hPa | 2.7V | 02:41:00 | 00:57:12 | 00:00:00 | |
| DL6DJ-15 | 2026-09-02 10:25:59 | 47.78194 | 11.41093 | 123° | 86km/h | 12585m | 5.1m/s | -52.9°C | 2.9% | 186.3hPa | 2.7V | 00:00:00 | 00:00:00 | 00:00:00 | |
| DF7PN | 2026-09-02 10:25:47 | 47.78335 | 11.40771 | 126° | 84km/h | 12534m | 4.1m/s | -52.7°C | 3.0% | 187.8hPa | 2.7V | 00:00:00 | 00:00:00 | 00:00:00 | |
| DO3MHA-12 | 2026-09-02 10:25:45 | 47.78361 | 11.40720 | 126° | 84km/h | 12526m | 4.8m/s | -52.6°C | 5.9% | 188.0hPa | 2.7V | 00:00:00 | 00:56:54 | 00:00:00 | |
| OE5WHR-10 | 2026-09-02 10:25:44 | 47.78373 | 11.40693 | 125° | 84km/h | 12522m | 3.5m/s | 0°C | 0% | 0hPa | 2.7V | 00:00:00 | 00:00:00 | 00:00:00 | |
| DO3MHA-11 | 2026-09-02 10:25:43 | 47.78385 | 11.40666 | 124° | 84km/h | 12518m | 4.2m/s | -52.5°C | 5.9% | 188.2hPa | 2.7V | 00:00:00 | 00:56:52 | 00:00:00 | |
| NBG1-10 | 2026-09-02 10:25:37 | 47.78458 | 11.40512 | 128° | 88km/h | 12493m | 4.5m/s | -52.3°C | 5.8% | 188.9hPa | 2.7V | 00:00:00 | 00:56:46 | 00:00:00 | |
| DO3MHA-12 | 2026-09-02 10:25:35 | 47.78484 | 11.40461 | 128° | 84km/h | 12484m | 5.1m/s | -52.3°C | 5.7% | 189.2hPa | 2.7V | 00:00:00 | 00:56:44 | 00:00:00 | |
| DB0UT-7 | 2026-09-02 10:25:34 | 47.78497 | 11.40435 | 127° | 88km/h | 12479m | 4.1m/s | -52.3°C | 5.7% | 189.4hPa | 2.7V | 00:00:00 | 00:00:00 | 00:00:00 | |
| DO3MHA-11 | 2026-09-02 10:25:33 | 47.78510 | 11.40410 | 127° | 84km/h | 12474m | 5.1m/s | -52.2°C | 5.7% | 189.5hPa | 2.7V | 02:41:00 | 00:56:42 | 00:00:00 | |
| IN3HCDX | 2026-09-02 10:25:32 | 47.78510 | 11.40410 | 127° | 84km/h | 12474m | 5.1m/s | 0°C | 0% | 0hPa | 2.7V | 02:42:00 | 00:00:00 | 00:00:00 | |
| OE5DRO-10 | 2026-09-02 10:25:29 | 47.78559 | 11.40308 | 127° | 86km/h | 12457m | 3.6m/s | -52.1°C | 5.9% | 190.0hPa | 2.7V | 00:00:00 | 00:00:00 | 00:00:00 | |
| DL6DJ-15 | 2026-09-02 10:25:28 | 47.78571 | 11.40283 | 126° | 82km/h | 12452m | 4.9m/s | -52.1°C | 3.1% | 190.2hPa | 2.7V | 00:00:00 | 00:00:00 | 00:00:00 | |
| DO3MHA-12 | 2026-09-02 10:25:25 | 47.78610 | 11.40209 | 129° | 86km/h | 12440m | 4.9m/s | -52.0°C | 6.0% | 190.5hPa | 2.7V | 02:41:00 | 00:56:34 | 00:00:00 | |
| OE5WHR-10 | 2026-09-02 10:25:23 | 47.78638 | 11.40158 | 130° | 89km/h | 12430m | 6.1m/s | 0°C | 0% | 0hPa | 2.7V | 00:00:00 | 00:56:32 | 00:00:00 | |
| DO8TBO-1 | 2026-09-02 10:25:22 | 47.78679 | 11.40080 | 129° | 91km/h | 12414m | 3.9m/s | -52.2°C | 6.2% | 191.3hPa | 2.7V | 00:00:00 | 00:56:29 | 00:00:00 | |
| DG1MFX-10 | 2026-09-02 10:25:17 | 47.78706 | 11.40028 | 128° | 82km/h | 12405m | 3.8m/s | -52.3°C | 3.5% | 191.6hPa | 2.7V | 02:42:00 | 00:00:00 | 00:00:00 | |
| DF7PN | 2026-09-02 10:25:16 | 47.78731 | 11.39979 | 127° | 80km/h | 12397m | 5.1m/s | -52.5°C | 3.5% | 191.8hPa | 2.7V | 00:00:00 | 00:00:00 | 00:00:00 | |
| DO3MHA-12 | 2026-09-02 10:25:15 | 47.78744 | 11.39955 | 130° | 91km/h | 12393m | 3.1m/s | -52.6°C | 6.4% | 191.9hPa | 2.7V | 00:00:00 | 00:56:24 | 00:00:00 | |
| OE5MMP-10 | 2026-09-02 10:25:13 | 47.78771 | 11.39909 | 133° | 89km/h | 12383m | 3.9m/s | 0°C | 0% | 0hPa | 2.7V | 00:00:00 | 00:56:22 | 00:00:00 | |
| IN3HCDX | 2026-09-02 10:25:12 | 47.78771 | 11.39909 | 133° | 82km/h | 12383m | 3.9m/s | 0°C | 0% | 0hPa | 2.7V | 02:42:00 | 00:00:00 | 00:00:00 | |
| OE5DRO-10 | 2026-09-02 10:25:10 | 47.78816 | 11.39836 | 132° | 97km/h | 12370m | 4.5m/s | -52.5°C | 6.6% | 192.6hPa | 2.7V | 02:41:00 | 00:00:00 | 00:00:00 | |
| DO3MHA-12 | 2026-09-02 10:25:05 | 47.78897 | 11.39698 | 131° | 97km/h | 12344m | 4.1m/s | -52.4°C | 6.7% | 193.4hPa | 2.7V | 00:00:00 | 00:56:14 | 00:00:00 | |
| DB0UT-7 | 2026-09-02 10:25:04 | 47.78914 | 11.39670 | 131° | 93km/h | 12340m | 5.3m/s | -52.4°C | 6.8% | 193.5hPa | 2.7V | 00:00:00 | 00:56:13 | 00:00:00 | |
| DO3MHA-11 | 2026-09-02 10:25:03 | 47.78930 | 11.39643 | 132° | 97km/h | 12335m | 3.8m/s | -52.4°C | 6.8% | 193.6hPa | 2.7V | 02:42:00 | 00:56:12 | 00:00:00 | |
| OE5WHR-10 | 2026-09-02 10:25:02 | 47.78946 | 11.39615 | 131° | 95km/h | 12331m | 5.2m/s | 0°C | 0% | 0hPa | 2.7V | 02:42:00 | 00:00:00 | 00:00:00 | |
| DG1MFX-10 | 2026-09-02 10:24:57 | 47.79008 | 11.39503 | 129° | 97km/h | 12313m | 5.3m/s | -52.5°C | 4.3% | 194.4hPa | 2.7V | 02:42:00 | 00:00:00 | 00:00:00 | |
| DO3MHA-12 | 2026-09-02 10:24:55 | 47.79053 | 11.39418 | 129° | 93km/h | 12299m | 4.0m/s | -52.5°C | 7.4% | 194.7hPa | 2.7V | 02:42:00 | 00:56:04 | 00:00:00 | |
| OE5MMP-10 | 2026-09-02 10:24:53 | 47.79082 | 11.39363 | 128° | 93km/h | 12290m | 3.7m/s | 0°C | 0% | 0hPa | 2.7V | 00:00:00 | 00:56:02 | 00:00:00 | |
| OE5DRO-10 | 2026-09-02 10:24:51 | 47.79110 | 11.39308 | 129° | 91km/h | 12282m | 4.2m/s | -52.6°C | 7.6% | 195.2hPa | 2.7V | 00:00:00 | 00:00:00 | 00:00:00 | |
| IN3HCDX | 2026-09-02 10:24:50 | 47.79110 | 11.39308 | 130° | 91km/h | 12282m | 4.2m/s | 0°C | 0% | 0hPa | 2.7V | 00:00:00 | 00:00:00 | 00:00:00 | |
| DH7VM-15 | 2026-09-02 10:24:46 | 47.79169 | 11.39200 | 130° | 91km/h | 12266m | 5.1m/s | 0°C | 0% | 0hPa | 2.7V | 00:00:00 | 00:00:00 | 00:00:00 | |
| DO3MHA-12 | 2026-09-02 10:24:45 | 47.79198 | 11.39146 | 128° | 93km/h | 12257m | 4.7m/s | -52.7°C | 8.2% | 196.0hPa | 2.7V | 00:00:00 | 00:55:54 | 00:00:00 | |
| DO3MHA-11 | 2026-09-02 10:24:43 | 47.79227 | 11.39090 | 129° | 91km/h | 12249m | 4.9m/s | -52.8°C | 8.3% | 196.2hPa | 2.7V | 00:00:00 | 00:55:52 | 00:00:00 | |
| OE5WHR-10 | 2026-09-02 10:24:41 | 47.79256 | 11.39035 | 129° | 91km/h | 12240m | 4.6m/s | 0°C | 0% | 0hPa | 2.7V | 00:00:00 | 00:00:00 | 00:00:00 | |
| OE5MMP-10 | 2026-09-02 10:24:37 | 47.79313 | 11.38925 | 128° | 91km/h | 12224m | 4.0m/s | 0°C | 0% | 0hPa | 2.7V | 02:42:00 | 00:55:46 | 00:00:00 | |
| DG1MFX-10 | 2026-09-02 10:24:36 | 47.79313 | 11.38925 | 129° | 89km/h | 12224m | 4.0m/s | -53.0°C | 5.8% | 197.0hPa | 2.7V | 02:43:00 | 00:00:00 | 00:00:00 | |
| DO3MHA-12 | 2026-09-02 10:24:35 | 47.79340 | 11.38871 | 127° | 91km/h | 12215m | 3.3m/s | -53.0°C | 9.2% | 197.3hPa | 2.7V | 00:00:00 | 00:55:44 | 00:00:00 | |
| DB0UT-7 | 2026-09-02 10:24:34 | 47.79354 | 11.38844 | 128° | 89km/h | 12211m | 4.8m/s | -53.1°C | 9.4% | 197.4hPa | 2.7V | 02:42:00 | 00:00:00 | 00:00:00 | |
| DO3MHA-11 | 2026-09-02 10:24:33 | 47.79368 | 11.38817 | 128° | 91km/h | 12207m | 3.2m/s | -53.0°C | 9.6% | 197.5hPa | 2.7V | 02:42:00 | 00:55:42 | 00:00:00 | |
| OE5DRO-10 | 2026-09-02 10:24:32 | 47.79382 | 11.38790 | 127° | 89km/h | 12203m | 4.8m/s | -53.1°C | 9.7% | 197.6hPa | 2.7V | 00:00:00 | 00:00:00 | 00:00:00 | |
| NBG1-10 | 2026-09-02 10:24:31 | 47.79395 | 11.38762 | 126° | 89km/h | 12199m | 3.8m/s | -53.0°C | 9.9% | 197.8hPa | 2.7V | 00:00:00 | 00:55:40 | 00:00:00 | |
| BAUMI2-15 | 2026-09-02 10:24:29 | 47.79421 | 11.38707 | 125° | 91km/h | 12190m | 3.6m/s | 0°C | 0% | 0hPa | 2.7V | 00:00:00 | 00:55:38 | 00:00:00 | |
| DL6DJ-15 | 2026-09-02 10:24:26 | 47.79460 | 11.38621 | 122° | 91km/h | 12177m | 4.3m/s | -53.1°C | 7.0% | 198.5hPa | 2.7V | 00:00:00 | 00:00:00 | 00:00:00 | |
| DO3MHA-12 | 2026-09-02 10:24:25 | 47.79472 | 11.38592 | 124° | 89km/h | 12173m | 4.6m/s | -53.1°C | 10.8% | 198.6hPa | 2.7V | 02:42:00 | 00:55:34 | 00:00:00 | |
| BAUMI2-15 | 2026-09-02 10:24:24 | 47.79485 | 11.38564 | 124° | 91km/h | 12169m | 4.0m/s | 0°C | 0% | 0hPa | 2.7V | 00:00:00 | 00:55:33 | 00:00:00 | |
| DO3MHA-11 | 2026-09-02 10:24:23 | 47.79497 | 11.38536 | 124° | 89km/h | 12164m | 4.9m/s | -53.2°C | 11.1% | 198.8hPa | 2.7V | 00:00:00 | 00:55:32 | 00:00:00 | |
| OE5MMP-10 | 2026-09-02 10:24:21 | 47.79522 | 11.38479 | 124° | 88km/h | 12156m | 5.1m/s | 0°C | 0% | 0hPa | 2.7V | 00:00:00 | 00:55:30 | 00:00:00 | |
| OE5WHR-10 | 2026-09-02 10:24:19 | 47.79548 | 11.38423 | 125° | 89km/h | 12147m | 4.7m/s | 0°C | 0% | 0hPa | 2.7V | 00:00:00 | 00:55:28 | 00:00:00 | |
| DG1MFX-10 | 2026-09-02 10:24:16 | 47.79573 | 11.38369 | 126° | 88km/h | 12139m | 4.6m/s | -53.6°C | 8.6% | 199.6hPa | 2.7V | 02:43:00 | 00:00:00 | 00:00:00 | |
| DO3MHA-12 | 2026-09-02 10:24:15 | 47.79598 | 11.38314 | 124° | 88km/h | 12130m | 4.0m/s | -53.7°C | 13.2% | 199.9hPa | 2.7V | 00:00:00 | 00:55:24 | 00:00:00 | |
| DF7PN | 2026-09-02 10:24:14 | 47.79611 | 11.38286 | 122° | 88km/h | 12126m | 3.3m/s | -53.8°C | 9.3% | 200.1hPa | 2.7V | 00:00:00 | 00:00:00 | 00:00:00 | |
| DO3MHA-11 | 2026-09-02 10:24:13 | 47.79622 | 11.38258 | 122° | 89km/h | 12122m | 4.8m/s | -53.8°C | 13.6% | 200.1hPa | 2.7V | 00:00:00 | 00:55:22 | 00:00:00 | |
| OE5MMP-10 | 2026-09-02 10:24:11 | 47.79645 | 11.38201 | 120° | 89km/h | 12114m | 4.5m/s | 0°C | 0% | 0hPa | 2.7V | 00:00:00 | 00:55:20 | 00:00:00 | |
| DO3MHA-12 | 2026-09-02 10:24:05 | 47.79713 | 11.38028 | 122° | 93km/h | 12087m | 4.8m/s | -53.8°C | 14.2% | 201.2hPa | 2.7V | 00:00:00 | 00:55:14 | 00:00:00 | |
| DB0UT-7 | 2026-09-02 10:24:04 | 47.79725 | 11.38000 | 122° | 95km/h | 12083m | 3.0m/s | -53.7°C | 14.3% | 201.4hPa | 2.7V | 00:00:00 | 00:55:13 | 00:00:00 | |
| DO3MHA-11 | 2026-09-02 10:24:03 | 47.79737 | 11.37971 | 123° | 93km/h | 12080m | 5.1m/s | -53.7°C | 14.4% | 201.4hPa | 2.7V | 02:43:00 | 00:55:12 | 00:00:00 | |
| OE5MMP-10 | 2026-09-02 10:24:01 | 47.79761 | 11.37912 | 120° | 95km/h | 12071m | 5.2m/s | 0°C | 0% | 0hPa | 2.7V | 00:00:00 | 00:55:10 | 00:00:00 | |
| NBG1-10 | 2026-09-02 10:23:58 | 47.79795 | 11.37819 | 119° | 97km/h | 12058m | 4.1m/s | -53.8°C | 15.3% | 202.1hPa | 2.7V | 00:00:00 | 00:55:07 | 00:00:00 | |
| OE5WHR-10 | 2026-09-02 10:23:57 | 47.79806 | 11.37788 | 119° | 95km/h | 12053m | 4.8m/s | 0°C | 0% | 0hPa | 2.7V | 00:00:00 | 00:00:00 | 00:00:00 | |
| DG1MFX-10 | 2026-09-02 10:23:56 | 47.79806 | 11.37788 | 119° | 93km/h | 12053m | 4.9m/s | -53.9°C | 11.2% | 202.3hPa | 2.7V | 02:43:00 | 00:00:00 | 00:00:00 | |
| DO3MHA-12 | 2026-09-02 10:23:55 | 47.79829 | 11.37726 | 119° | 95km/h | 12044m | 5.0m/s | -53.8°C | 16.0% | 202.5hPa | 2.7V | 02:43:00 | 00:55:04 | 00:00:00 | |
| OE5DRO-10 | 2026-09-02 10:23:54 | 47.79841 | 11.37695 | 120° | 97km/h | 12040m | 3.1m/s | -53.8°C | 16.1% | 202.7hPa | 2.7V | 00:00:00 | 00:00:00 | 00:00:00 | |
| DO3MHA-11 | 2026-09-02 10:23:53 | 47.79853 | 11.37664 | 120° | 97km/h | 12036m | 5.4m/s | -53.8°C | 16.3% | 202.8hPa | 2.7V | 00:00:00 | 00:55:02 | 00:00:00 | |
| DO8TBO-1 | 2026-09-02 10:23:52 | 47.79877 | 11.37602 | 121° | 95km/h | 12027m | 4.8m/s | -53.9°C | 16.7% | 203.0hPa | 2.7V | 00:00:00 | 00:55:00 | 00:00:00 | |
| OE5MMP-10 | 2026-09-02 10:23:47 | 47.79926 | 11.37478 | 121° | 99km/h | 12010m | 4.1m/s | 0°C | 0% | 0hPa | 2.7V | 00:00:00 | 00:54:56 | 00:00:00 | |
| DO3MHA-12 | 2026-09-02 10:23:45 | 47.79950 | 11.37414 | 120° | 97km/h | 12002m | 4.5m/s | -54.3°C | 19.0% | 203.9hPa | 2.7V | 00:00:00 | 00:54:54 | 00:00:00 | |
| DO3MHA-11 | 2026-09-02 10:23:43 | 47.79975 | 11.37351 | 121° | 97km/h | 11994m | 4.3m/s | -54.4°C | 19.5% | 204.1hPa | 2.7V | 00:00:00 | 00:54:52 | 00:00:00 | |
| BAUMI2-15 | 2026-09-02 10:23:40 | 47.80014 | 11.37256 | 123° | 97km/h | 11982m | 3.1m/s | 0°C | 0% | 0hPa | 2.7V | 00:00:00 | 00:54:49 | 00:00:00 | |
| OE5MMP-10 | 2026-09-02 10:23:37 | 47.80054 | 11.37165 | 124° | 95km/h | 11970m | 4.7m/s | 0°C | 0% | 0hPa | 2.7V | 00:00:00 | 00:54:46 | 00:00:00 | |
| DO3MHA-12 | 2026-09-02 10:23:35 | 47.80081 | 11.37105 | 125° | 95km/h | 11962m | 4.7m/s | -54.7°C | 21.5% | 205.1hPa | 2.7V | 00:00:00 | 00:54:44 | 00:00:00 | |
| DB0UT-7 | 2026-09-02 10:23:34 | 47.80095 | 11.37075 | 124° | 93km/h | 11958m | 2.7m/s | -54.7°C | 22.0% | 205.2hPa | 2.7V | 00:00:00 | 00:00:00 | 00:00:00 | |
| DO3MHA-11 | 2026-09-02 10:23:33 | 47.80108 | 11.37044 | 123° | 95km/h | 11955m | 4.6m/s | -54.8°C | 22.4% | 205.3hPa | 2.7V | 02:43:00 | 00:54:42 | 00:00:00 | |
| DG1MJG | 2026-09-02 10:23:31 | 47.80121 | 11.37013 | 122° | 97km/h | 11950m | 4.1m/s | -54.8°C | 17.3% | 205.5hPa | 2.7V | 02:43:00 | 00:00:00 | 00:00:00 | |
| BAUMI2-15 | 2026-09-02 10:23:29 | 47.80157 | 11.36919 | 119° | 95km/h | 11938m | 4.2m/s | 0°C | 0% | 0hPa | 2.7V | 00:00:00 | 00:54:38 | 00:00:00 | |
| OE5MMP-10 | 2026-09-02 10:23:27 | 47.80179 | 11.36857 | 119° | 91km/h | 11929m | 3.7m/s | 0°C | 0% | 0hPa | 2.7V | 00:00:00 | 00:54:36 | 00:00:00 | |
| DO3MHA-12 | 2026-09-02 10:23:25 | 47.80202 | 11.36797 | 120° | 91km/h | 11921m | 3.0m/s | -55.0°C | 25.8% | 206.4hPa | 2.7V | 02:43:00 | 00:54:34 | 00:00:00 | |
| DL6DJ-15 | 2026-09-02 10:23:24 | 47.80214 | 11.36767 | 119° | 89km/h | 11916m | 5.2m/s | -55.0°C | 20.2% | 206.6hPa | 2.7V | 00:00:00 | 00:00:00 | 00:00:00 | |
| DO3MHA-11 | 2026-09-02 10:23:23 | 47.80225 | 11.36737 | 120° | 91km/h | 11912m | 2.8m/s | -54.9°C | 26.5% | 206.7hPa | 2.7V | 00:00:00 | 00:54:32 | 00:00:00 | |
| DO8TBO-1 | 2026-09-02 10:23:22 | 47.80247 | 11.36677 | 118° | 89km/h | 11905m | 3.2m/s | -54.9°C | 27.3% | 206.9hPa | 2.7V | 02:43:00 | 00:54:30 | 00:00:00 | |
| OE5DRO-10 | 2026-09-02 10:23:16 | 47.80297 | 11.36522 | 117° | 91km/h | 11885m | 4.9m/s | -55.0°C | 29.0% | 207.5hPa | 2.7V | 02:43:00 | 00:00:00 | 00:00:00 | |
| DO3MHA-12 | 2026-09-02 10:23:15 | 47.80307 | 11.36492 | 118° | 91km/h | 11881m | 3.3m/s | -55.2°C | 29.7% | 207.7hPa | 2.7V | 00:00:00 | 00:54:24 | 00:00:00 | |
| DG1MFX-10 | 2026-09-02 10:23:14 | 47.80307 | 11.36492 | 119° | 89km/h | 11881m | 3.4m/s | -55.2°C | 23.4% | 207.8hPa | 2.7V | 02:43:00 | 00:00:00 | 00:00:00 | |
| DO3MHA-11 | 2026-09-02 10:23:13 | 47.80329 | 11.36433 | 120° | 91km/h | 11872m | 3.7m/s | -55.2°C | 30.6% | 208.0hPa | 2.7V | 00:00:00 | 00:54:22 | 00:00:00 | |
| DF7PN | 2026-09-02 10:23:12 | 47.80340 | 11.36404 | 119° | 88km/h | 11868m | 4.4m/s | -55.3°C | 24.5% | 208.2hPa | 2.7V | 00:00:00 | 00:00:00 | 00:00:00 | |
| BAUMI2-15 | 2026-09-02 10:23:10 | 47.80362 | 11.36345 | 119° | 93km/h | 11860m | 4.7m/s | 0°C | 0% | 0hPa | 2.7V | 00:00:00 | 00:54:19 | 00:00:00 | |
| DO3MHA-12 | 2026-09-02 10:23:05 | 47.80416 | 11.36192 | 117° | 91km/h | 11839m | 3.8m/s | -55.5°C | 34.8% | 209.0hPa | 2.7V | 00:00:00 | 00:54:14 | 00:00:00 | |
| DB0UT-7 | 2026-09-02 10:23:04 | 47.80426 | 11.36160 | 116° | 86km/h | 11836m | 3.3m/s | -55.5°C | 35.3% | 209.1hPa | 2.7V | 02:44:00 | 00:54:13 | 00:00:00 | |
| DO3MHA-11 | 2026-09-02 10:23:03 | 47.80436 | 11.36130 | 116° | 89km/h | 11831m | 4.7m/s | -55.5°C | 35.7% | 209.3hPa | 2.7V | 02:44:00 | 00:54:12 | 00:00:00 | |
| DG1MJG | 2026-09-02 10:23:00 | 47.80455 | 11.36069 | 116° | 91km/h | 11822m | 5.1m/s | -55.8°C | 29.5% | 209.6hPa | 2.7V | 02:44:00 | 00:00:00 | 00:00:00 | |
| OE5DRO-10 | 2026-09-02 10:22:57 | 47.80495 | 11.35948 | 117° | 86km/h | 11805m | 4.7m/s | -56.2°C | 39.6% | 210.1hPa | 2.7V | 00:00:00 | 00:00:00 | 00:00:00 | |
| DO3MHA-12 | 2026-09-02 10:22:55 | 47.80515 | 11.35887 | 118° | 88km/h | 11796m | 5.3m/s | -56.5°C | 41.3% | 210.3hPa | 2.7V | 02:44:00 | 00:54:04 | 00:00:00 | |
| DO3MHA-11 | 2026-09-02 10:22:53 | 47.80536 | 11.35828 | 118° | 86km/h | 11788m | 4.6m/s | -56.6°C | 42.5% | 210.6hPa | 2.7V | 00:00:00 | 00:54:02 | 00:00:00 | |
| NBG1-10 | 2026-09-02 10:22:52 | 47.80546 | 11.35798 | 117° | 80km/h | 11783m | 3.8m/s | -56.8°C | 43.6% | 210.8hPa | 2.7V | 00:00:00 | 00:54:01 | 00:00:00 | |
| OE3JTB-15 | 2026-09-02 10:22:51 | 47.80556 | 11.35769 | 117° | 82km/h | 11779m | 5.0m/s | 0°C | 0% | 0hPa | 2.7V | 02:44:00 | 00:00:00 | 00:00:00 | |
| DO3MHA-12 | 2026-09-02 10:22:45 | 47.80611 | 11.35594 | 115° | 82km/h | 11752m | 3.2m/s | -57.2°C | 47.3% | 211.7hPa | 2.7V | 00:00:00 | 00:53:54 | 00:00:00 | |
| DO3MHA-11 | 2026-09-02 10:22:43 | 47.80629 | 11.35536 | 113° | 80km/h | 11754m | 2.7m/s | -57.3°C | 48.3% | 211.9hPa | 2.7V | 00:00:00 | 00:53:52 | 00:00:00 | |
| DF7PN | 2026-09-02 10:22:41 | 47.80645 | 11.35479 | 112° | 80km/h | 11746m | 3.7m/s | -57.5°C | 40.1% | 212.2hPa | 2.7V | 00:00:00 | 00:00:00 | 00:00:00 | |
| OE5DRO-10 | 2026-09-02 10:22:38 | 47.80670 | 11.35396 | 116° | 78km/h | 11734m | 4.2m/s | -57.7°C | 49.8% | 212.6hPa | 2.7V | 00:00:00 | 00:00:00 | 00:00:00 | |
| DO3MHA-12 | 2026-09-02 10:22:35 | 47.80697 | 11.35317 | 117° | 78km/h | 11721m | 3.6m/s | -57.8°C | 51.7% | 213.0hPa | 2.7V | 00:00:00 | 00:53:44 | 00:00:00 | |
| DB0UT-7 | 2026-09-02 10:22:34 | 47.80705 | 11.35291 | 116° | 78km/h | 11717m | 4.6m/s | -57.9°C | 51.8% | 213.2hPa | 2.7V | 00:00:00 | 00:00:00 | 00:00:00 | |
| DO3MHA-11 | 2026-09-02 10:22:33 | 47.80714 | 11.35265 | 115° | 78km/h | 11713m | 3.6m/s | -57.9°C | 52.2% | 213.3hPa | 2.7V | 02:44:00 | 00:53:42 | 00:00:00 | |
| DG1MFX-10 | 2026-09-02 10:22:32 | 47.80714 | 11.35265 | 115° | 75km/h | 11713m | 3.7m/s | -57.9°C | 42.5% | 213.3hPa | 2.7V | 02:44:00 | 00:00:00 | 00:00:00 | |
| DG1MJG | 2026-09-02 10:22:30 | 47.80729 | 11.35212 | 114° | 78km/h | 11705m | 4.1m/s | -57.9°C | 42.8% | 213.7hPa | 2.7V | 02:44:00 | 00:00:00 | 00:00:00 | |
| DO3MHA-12 | 2026-09-02 10:22:25 | 47.80776 | 11.35049 | 116° | 78km/h | 11682m | 4.0m/s | -58.1°C | 55.8% | 214.4hPa | 2.7V | 02:44:00 | 00:53:34 | 00:00:00 | |
| DO3MHA-11 | 2026-09-02 10:22:23 | 47.80793 | 11.34996 | 116° | 78km/h | 11675m | 3.2m/s | -58.3°C | 57.5% | 214.7hPa | 2.7V | 00:00:00 | 00:53:32 | 00:00:00 | |
| DL6DJ-15 | 2026-09-02 10:22:22 | 47.80801 | 11.34970 | 114° | 77km/h | 11671m | 4.4m/s | -58.4°C | 47.3% | 214.9hPa | 2.7V | 00:00:00 | 00:00:00 | 00:00:00 | |
| NBG1-10 | 2026-09-02 10:22:19 | 47.80825 | 11.34889 | 112° | 84km/h | 11659m | 3.1m/s | -58.3°C | 57.9% | 215.2hPa | 2.7V | 00:00:00 | 00:53:28 | 00:00:00 | |
| DO3MHA-12 | 2026-09-02 10:22:15 | 47.80858 | 11.34779 | 117° | 80km/h | 11644m | 4.4m/s | -58.3°C | 57.7% | 215.7hPa | 2.7V | 00:00:00 | 00:53:24 | 00:00:00 | |
| DO3MHA-11 | 2026-09-02 10:22:13 | 47.80877 | 11.34726 | 118° | 82km/h | 11635m | 4.9m/s | -58.3°C | 57.1% | 216.0hPa | 2.7V | 00:00:00 | 00:53:22 | 00:00:00 | |
| DG1MFX-10 | 2026-09-02 10:22:12 | 47.80877 | 11.34726 | 118° | 80km/h | 11635m | 4.9m/s | -58.3°C | 46.8% | 216.0hPa | 2.7V | 02:45:00 | 00:00:00 | 00:00:00 | |
| DF7PN | 2026-09-02 10:22:10 | 47.80912 | 11.34619 | 115° | 78km/h | 11619m | 3.4m/s | -58.4°C | 47.4% | 216.6hPa | 2.7V | 00:00:00 | 00:00:00 | 00:00:00 | |
| DO3MHA-12 | 2026-09-02 10:22:05 | 47.80947 | 11.34507 | 115° | 84km/h | 11603m | 2.9m/s | -58.3°C | 58.9% | 217.1hPa | 2.7V | 00:00:00 | 00:53:14 | 00:00:00 | |
| DB0UT-7 | 2026-09-02 10:22:04 | 47.80956 | 11.34477 | 115° | 86km/h | 11600m | 4.4m/s | -58.3°C | 59.8% | 217.2hPa | 2.7V | 00:00:00 | 00:53:13 | 00:00:00 | |
| DO3MHA-11 | 2026-09-02 10:22:03 | 47.80966 | 11.34447 | 115° | 82km/h | 11596m | 3.1m/s | -58.3°C | 60.4% | 217.4hPa | 2.7V | 02:45:00 | 00:53:12 | 00:00:00 | |
| DL6DJ-15 | 2026-09-02 10:21:51 | 47.81072 | 11.34068 | 111° | 91km/h | 11541m | 3.6m/s | -58.0°C | 50.3% | 219.3hPa | 2.7V | 00:00:00 | 00:00:00 | 00:00:00 | |
| NBG1-10 | 2026-09-02 10:21:46 | 47.81106 | 11.33943 | 113° | 86km/h | 11523m | 4.5m/s | -57.9°C | 61.0% | 219.8hPa | 2.7V | 02:45:00 | 00:52:55 | 00:00:00 | |
| DO3MHA-12 | 2026-09-02 10:21:45 | 47.81115 | 11.33912 | 112° | 84km/h | 11518m | 5.3m/s | -57.8°C | 60.9% | 220.0hPa | 2.7V | 00:00:00 | 00:52:54 | 00:00:00 | |
| DO3MHA-11 | 2026-09-02 10:21:43 | 47.81129 | 11.33852 | 109° | 86km/h | 11510m | 4.1m/s | -57.8°C | 60.1% | 220.3hPa | 2.7V | 00:00:00 | 00:52:52 | 00:00:00 | |
| OE5DRO-10 | 2026-09-02 10:21:41 | 47.81143 | 11.33792 | 110° | 86km/h | 11499m | 4.8m/s | -57.7°C | 60.3% | 220.6hPa | 2.7V | 00:00:00 | 00:00:00 | 00:00:00 | |
| DF7PN | 2026-09-02 10:21:39 | 47.81157 | 11.33733 | 109° | 82km/h | 11488m | 5.3m/s | -57.6°C | 50.1% | 221.2hPa | 2.7V | 00:00:00 | 00:00:00 | 00:00:00 | |
| DO3MHA-12 | 2026-09-02 10:21:35 | 47.81184 | 11.33612 | 108° | 86km/h | 11470m | 5.0m/s | -57.5°C | 61.9% | 221.7hPa | 2.7V | 00:00:00 | 00:52:44 | 00:00:00 | |
| DB0UT-7 | 2026-09-02 10:21:34 | 47.81191 | 11.33580 | 108° | 84km/h | 11465m | 3.6m/s | -57.5°C | 62.6% | 221.9hPa | 2.7V | 02:45:00 | 00:00:00 | 00:00:00 | |
| DO3MHA-11 | 2026-09-02 10:21:33 | 47.81197 | 11.33549 | 107° | 86km/h | 11461m | 4.2m/s | -57.4°C | 62.1% | 222.0hPa | 2.7V | 02:45:00 | 00:52:42 | 00:00:00 | |
| DG1MFX-10 | 2026-09-02 10:21:30 | 47.81210 | 11.33486 | 106° | 86km/h | 11452m | 3.6m/s | -57.5°C | 51.4% | 222.3hPa | 2.7V | 02:46:00 | 00:00:00 | 00:00:00 | |
| DG1MJG | 2026-09-02 10:21:28 | 47.81222 | 11.33424 | 109° | 86km/h | 11443m | 4.9m/s | -57.5°C | 51.4% | 222.7hPa | 2.7V | 02:46:00 | 00:00:00 | 00:00:00 | |
| DO3MHA-12 | 2026-09-02 10:21:25 | 47.81247 | 11.33304 | 108° | 84km/h | 11423m | 5.1m/s | -57.4°C | 63.4% | 223.3hPa | 2.7V | 02:45:00 | 00:52:34 | 00:00:00 | |
| DO8TBO-1 | 2026-09-02 10:21:23 | 47.81265 | 11.33213 | 106° | 84km/h | 11409m | 4.6m/s | -57.3°C | 64.7% | 223.8hPa | 2.7V | 00:00:00 | 00:52:31 | 00:00:00 | |
| OE5DRO-10 | 2026-09-02 10:21:22 | 47.81265 | 11.33213 | 106° | 84km/h | 11409m | 4.6m/s | -57.3°C | 64.7% | 223.8hPa | 2.7V | 02:45:00 | 00:00:00 | 00:00:00 | |
| DL6DJ-15 | 2026-09-02 10:21:20 | 47.81281 | 11.33121 | 103° | 84km/h | 11395m | 4.8m/s | -57.4°C | 54.6% | 224.3hPa | 2.7V | 00:00:00 | 00:00:00 | 00:00:00 | |
| DO3MHA-12 | 2026-09-02 10:21:15 | 47.81299 | 11.32996 | 103° | 84km/h | 11378m | 4.0m/s | -57.5°C | 67.1% | 224.9hPa | 2.7V | 00:00:00 | 00:52:24 | 00:00:00 | |
| DO3MHA-11 | 2026-09-02 10:21:13 | 47.81308 | 11.32934 | 102° | 84km/h | 11368m | 4.8m/s | -57.5°C | 67.2% | 225.3hPa | 2.7V | 00:00:00 | 00:52:22 | 00:00:00 | |
| DG1MFX-10 | 2026-09-02 10:21:10 | 47.81316 | 11.32873 | 102° | 84km/h | 11359m | 4.4m/s | -57.5°C | 56.0% | 225.7hPa | 2.7V | 02:46:00 | 00:00:00 | 00:00:00 | |
| DF7PN | 2026-09-02 10:21:08 | 47.81331 | 11.32749 | 98° | 84km/h | 11341m | 3.8m/s | -57.4°C | 56.0% | 226.4hPa | 2.7V | 00:00:00 | 00:00:00 | 00:00:00 | |
| DO3MHA-12 | 2026-09-02 10:21:05 | 47.81337 | 11.32686 | 99° | 84km/h | 11332m | 4.3m/s | -57.3°C | 67.1% | 226.6hPa | 2.7V | 00:00:00 | 00:52:14 | 00:00:00 | |
| DB0UT-7 | 2026-09-02 10:21:04 | 47.81340 | 11.32655 | 100° | 84km/h | 11328m | 4.9m/s | -57.3°C | 67.3% | 226.8hPa | 2.7V | 00:00:00 | 00:52:13 | 00:00:00 | |
| DL6DJ-15 | 2026-09-02 10:20:49 | 47.81381 | 11.32155 | 95° | 84km/h | 11255m | 5.4m/s | -57.1°C | 61.6% | 229.4hPa | 2.7V | 00:00:00 | 00:00:00 | 00:00:00 | |
| DO3MHA-12 | 2026-09-02 10:20:45 | 47.81387 | 11.32062 | 96° | 84km/h | 11242m | 4.1m/s | -57.0°C | 72.1% | 229.8hPa | 2.7V | 00:00:00 | 00:51:54 | 00:00:00 | |
| OE5DRO-10 | 2026-09-02 10:20:44 | 47.81390 | 11.32031 | 97° | 84km/h | 11237m | 4.9m/s | -57.0°C | 71.8% | 230.0hPa | 2.7V | 00:00:00 | 00:00:00 | 00:00:00 | |
| DO3MHA-11 | 2026-09-02 10:20:43 | 47.81392 | 11.32000 | 97° | 84km/h | 11233m | 4.0m/s | -56.9°C | 71.2% | 230.2hPa | 2.7V | 00:00:00 | 00:51:52 | 00:00:00 | |
| NBG1-10 | 2026-09-02 10:20:40 | 47.81400 | 11.31908 | 99° | 84km/h | 11219m | 4.7m/s | -56.8°C | 70.5% | 230.7hPa | 2.7V | 00:00:00 | 00:51:49 | 00:00:00 | |
| DF7PN | 2026-09-02 10:20:37 | 47.81411 | 11.31749 | 93° | 88km/h | 11197m | 2.8m/s | -56.7°C | 59.3% | 231.6hPa | 2.7V | 00:00:00 | 00:00:00 | 00:00:00 | |
| DO3MHA-12 | 2026-09-02 10:20:35 | 47.81411 | 11.31749 | 94° | 84km/h | 11197m | 2.8m/s | -56.6°C | 70.6% | 231.5hPa | 2.7V | 00:00:00 | 00:51:44 | 00:00:00 | |
| DB0UT-7 | 2026-09-02 10:20:34 | 47.81412 | 11.31716 | 93° | 84km/h | 11193m | 5.1m/s | -56.6°C | 70.2% | 231.6hPa | 2.7V | 00:00:00 | 00:00:00 | 00:00:00 | |
| DO3MHA-11 | 2026-09-02 10:20:33 | 47.81413 | 11.31683 | 92° | 82km/h | 11189m | 3.9m/s | -56.6°C | 70.6% | 231.8hPa | 2.7V | 02:46:00 | 00:51:42 | 00:00:00 | |
| DG1MFX-10 | 2026-09-02 10:20:29 | 47.81416 | 11.31586 | 95° | 84km/h | 11175m | 3.7m/s | -56.6°C | 59.0% | 232.3hPa | 2.7V | 02:47:00 | 00:00:00 | 00:00:00 | |
| DG1MJG | 2026-09-02 10:20:26 | 47.81421 | 11.31495 | 95° | 80km/h | 11162m | 5.0m/s | -56.5°C | 58.0% | 232.8hPa | 2.7V | 02:47:00 | 00:00:00 | 00:00:00 | |
| DO3MHA-12 | 2026-09-02 10:20:25 | 47.81424 | 11.31435 | 95° | 82km/h | 11154m | 3.9m/s | -56.3°C | 68.5% | 233.1hPa | 2.7V | 02:46:00 | 00:51:34 | 00:00:00 | |
| DO3MHA-11 | 2026-09-02 10:20:23 | 47.81427 | 11.31375 | 96° | 84km/h | 11146m | 3.4m/s | -56.3°C | 68.5% | 233.4hPa | 2.7V | 00:00:00 | 00:51:32 | 00:00:00 | |
| DO8TBO-1 | 2026-09-02 10:20:22 | 47.81434 | 11.31282 | 96° | 84km/h | 11132m | 5.4m/s | -56.1°C | 69.2% | 233.9hPa | 2.7V | 02:46:00 | 00:51:29 | 00:00:00 | |
| DO3MHA-12 | 2026-09-02 10:20:15 | 47.81441 | 11.31123 | 93° | 86km/h | 11110m | 3.9m/s | -56.0°C | 67.9% | 234.8hPa | 2.7V | 00:00:00 | 00:51:24 | 00:00:00 | |
| DO3MHA-11 | 2026-09-02 10:20:13 | 47.81443 | 11.31059 | 94° | 84km/h | 11100m | 4.6m/s | -55.9°C | 67.8% | 235.1hPa | 2.7V | 00:00:00 | 00:51:22 | 00:00:00 | |
| DG1MFX-10 | 2026-09-02 10:20:08 | 47.81449 | 11.30931 | 97° | 84km/h | 11082m | 3.8m/s | -55.8°C | 57.9% | 235.9hPa | 2.7V | 02:47:00 | 00:00:00 | 00:00:00 | |
| NBG1-10 | 2026-09-02 10:20:07 | 47.81453 | 11.30869 | 95° | 86km/h | 11073m | 4.2m/s | -55.7°C | 69.5% | 236.1hPa | 2.7V | 02:47:00 | 00:51:16 | 00:00:00 | |
| DF7PN | 2026-09-02 10:20:06 | 47.81455 | 11.30806 | 93° | 84km/h | 11064m | 4.2m/s | -55.7°C | 59.2% | 236.4hPa | 2.7V | 00:00:00 | 00:00:00 | 00:00:00 | |
| DB0UT-7 | 2026-09-02 10:20:04 | 47.81457 | 11.30774 | 95° | 86km/h | 11060m | 4.4m/s | -55.6°C | 70.4% | 236.6hPa | 2.7V | 02:47:00 | 00:51:13 | 00:00:00 | |
| DO3MHA-11 | 2026-09-02 10:20:03 | 47.81458 | 11.30742 | 94° | 84km/h | 11056m | 3.8m/s | -55.5°C | 70.3% | 236.8hPa | 2.7V | 02:47:00 | 00:51:12 | 00:00:00 | |
| DO3MHA-12 | 2026-09-02 10:20:02 | 47.81459 | 11.30710 | 92° | 88km/h | 11051m | 5.3m/s | -55.5°C | 69.9% | 236.9hPa | 2.7V | 00:00:00 | 00:51:11 | 00:00:00 | |
| DG1MJG | 2026-09-02 10:19:55 | 47.81462 | 11.30523 | 93° | 84km/h | 11022m | 4.5m/s | -55.3°C | 59.0% | 238.1hPa | 2.7V | 02:47:00 | 00:00:00 | 00:00:00 | |
| DO8TBO-1 | 2026-09-02 10:19:53 | 47.81464 | 11.30324 | 90° | 84km/h | 10994m | 4.1m/s | -55.0°C | 67.3% | 239.1hPa | 2.7V | 00:00:00 | 00:50:59 | 00:00:00 | |
| DO3MHA-12 | 2026-09-02 10:19:48 | 47.81464 | 11.30256 | 89° | 86km/h | 10986m | 3.8m/s | -54.9°C | 67.3% | 239.4hPa | 2.7V | 02:47:00 | 00:50:57 | 00:00:00 | |
| OE5DRO-10 | 2026-09-02 10:19:47 | 47.81463 | 11.30222 | 90° | 84km/h | 10981m | 5.4m/s | -54.9°C | 66.8% | 239.6hPa | 2.7V | 00:00:00 | 00:00:00 | 00:00:00 | |
| DO3MHA-11 | 2026-09-02 10:19:43 | 47.81466 | 11.30092 | 91° | 84km/h | 10962m | 4.4m/s | -54.6°C | 68.6% | 240.3hPa | 2.7V | 00:00:00 | 00:50:52 | 00:00:00 | |
| DO3MHA-12 | 2026-09-02 10:19:38 | 47.81463 | 11.29937 | 87° | 84km/h | 10937m | 4.9m/s | -54.4°C | 69.8% | 241.3hPa | 2.7V | 00:00:00 | 00:50:47 | 00:00:00 | |
| OE3JTB-15 | 2026-09-02 10:19:35 | 47.81459 | 11.29840 | 87° | 82km/h | 10923m | 5.9m/s | 0°C | 0% | 0hPa | 2.7V | 00:00:00 | 00:00:00 | 00:00:00 | |
| DB0UT-7 | 2026-09-02 10:19:34 | 47.81458 | 11.29808 | 88° | 82km/h | 10918m | 5.8m/s | -54.3°C | 67.9% | 242.0hPa | 2.7V | 00:00:00 | 00:00:00 | 00:00:00 | |
| DO3MHA-11 | 2026-09-02 10:19:33 | 47.81457 | 11.29777 | 91° | 82km/h | 10913m | 3.7m/s | -54.2°C | 67.6% | 242.2hPa | 2.7V | 02:47:00 | 00:50:42 | 00:00:00 | |
| DO3MHA-12 | 2026-09-02 10:19:28 | 47.81456 | 11.29625 | 85° | 82km/h | 10887m | 4.2m/s | -54.0°C | 67.3% | 243.2hPa | 2.7V | 00:00:00 | 00:50:37 | 00:00:00 | |
| DG1MJG | 2026-09-02 10:19:25 | 47.81452 | 11.29561 | 88° | 86km/h | 10878m | 4.5m/s | -54.0°C | 57.2% | 243.6hPa | 2.7V | 02:48:00 | 00:00:00 | 00:00:00 | |
| DO3MHA-11 | 2026-09-02 10:19:23 | 47.81450 | 11.29468 | 91° | 82km/h | 10864m | 5.3m/s | -53.8°C | 66.8% | 244.0hPa | 2.7V | 00:00:00 | 00:50:32 | 00:00:00 | |
| DO8TBO-1 | 2026-09-02 10:19:20 | 47.81448 | 11.29316 | 87° | 82km/h | 10841m | 5.0m/s | -53.6°C | 67.0% | 244.8hPa | 2.7V | 00:00:00 | 00:50:27 | 00:00:00 | |
| DO3MHA-12 | 2026-09-02 10:19:18 | 47.81448 | 11.29316 | 87° | 82km/h | 10841m | 5.0m/s | -53.6°C | 67.0% | 244.8hPa | 2.7V | 02:47:00 | 00:50:27 | 00:00:00 | |
| DH7VM-15 | 2026-09-02 10:19:17 | 47.81448 | 11.29316 | 87° | 82km/h | 10841m | 5.1m/s | 0°C | 0% | 0hPa | 2.9V | 00:00:00 | 00:00:00 | 00:00:00 | |
| DL6DJ-15 | 2026-09-02 10:19:16 | 47.81444 | 11.29222 | 86° | 80km/h | 10829m | 4.5m/s | -53.5°C | 57.0% | 245.3hPa | 2.9V | 00:00:00 | 00:00:00 | 00:00:00 | |
| DO3MHA-11 | 2026-09-02 10:19:13 | 47.81442 | 11.29161 | 89° | 82km/h | 10820m | 4.8m/s | -53.4°C | 67.6% | 245.7hPa | 2.9V | 00:00:00 | 00:50:22 | 00:00:00 | |
| OE5DRO-10 | 2026-09-02 10:19:09 | 47.81440 | 11.29038 | 89° | 82km/h | 10802m | 4.4m/s | -53.2°C | 66.9% | 246.4hPa | 2.9V | 00:00:00 | 00:00:00 | 00:00:00 | |
| DO3MHA-12 | 2026-09-02 10:19:08 | 47.81439 | 11.29008 | 90° | 80km/h | 10798m | 4.4m/s | -53.2°C | 66.8% | 246.6hPa | 2.9V | 00:00:00 | 00:50:17 | 00:00:00 | |
| DB0ND-19 | 2026-09-02 10:19:07 | 47.81439 | 11.28977 | 87° | 80km/h | 10793m | 4.3m/s | -53.2°C | 57.1% | 246.8hPa | 2.9V | 00:00:00 | 00:00:00 | 00:00:00 | |
| DB0UT-7 | 2026-09-02 10:19:04 | 47.81436 | 11.28885 | 88° | 80km/h | 10780m | 3.8m/s | -53.0°C | 66.5% | 247.3hPa | 2.9V | 00:00:00 | 00:50:13 | 00:00:00 | |
| NBG1-10 | 2026-09-02 10:19:01 | 47.81433 | 11.28795 | 87° | 80km/h | 10767m | 5.5m/s | -52.9°C | 65.6% | 247.7hPa | 2.9V | 00:00:00 | 00:50:10 | 00:00:00 | |
| DG1MJG | 2026-09-02 10:18:54 | 47.81428 | 11.28612 | 91° | 84km/h | 10740m | 4.2m/s | -52.7°C | 55.8% | 248.8hPa | 2.9V | 02:49:00 | 00:00:00 | 00:00:00 | |
| DO3MHA-11 | 2026-09-02 10:18:53 | 47.81428 | 11.28550 | 91° | 80km/h | 10731m | 4.3m/s | -52.6°C | 65.1% | 249.2hPa | 2.9V | 00:00:00 | 00:50:02 | 00:00:00 | |
| OE5DRO-10 | 2026-09-02 10:18:50 | 47.81427 | 11.28457 | 89° | 80km/h | 10717m | 4.6m/s | -52.5°C | 64.8% | 249.6hPa | 2.9V | 00:00:00 | 00:00:00 | 00:00:00 | |
| DO3MHA-12 | 2026-09-02 10:18:48 | 47.81425 | 11.28397 | 86° | 80km/h | 10708m | 4.3m/s | -52.4°C | 64.1% | 250.0hPa | 2.9V | 02:48:00 | 00:49:57 | 00:00:00 | |
| DG1MFX-10 | 2026-09-02 10:18:47 | 47.81425 | 11.28397 | 87° | 82km/h | 10708m | 4.3m/s | -52.4°C | 54.9% | 250.1hPa | 2.7V | 02:49:00 | 00:00:00 | 00:00:00 | |
| DL6DJ-15 | 2026-09-02 10:18:45 | 47.81420 | 11.28278 | 88° | 78km/h | 10691m | 4.6m/s | -52.3°C | 54.6% | 250.8hPa | 2.7V | 00:00:00 | 00:00:00 | 00:00:00 | |
| OE5DXL-15 | 2026-09-02 10:18:43 | 47.81420 | 11.28248 | 90° | 80km/h | 10688m | 3.8m/s | -52.2°C | 63.6% | 250.8hPa | 2.7V | 00:00:00 | 00:00:00 | 00:00:00 | |
| DO3MHA-12 | 2026-09-02 10:18:38 | 47.81421 | 11.28095 | 91° | 78km/h | 10664m | 3.2m/s | -52.0°C | 65.0% | 251.7hPa | 2.7V | 00:00:00 | 00:49:47 | 00:00:00 | |
| DB0ND-19 | 2026-09-02 10:18:36 | 47.81422 | 11.28034 | 91° | 80km/h | 10656m | 3.8m/s | -51.9°C | 56.2% | 252.1hPa | 2.7V | 00:00:00 | 00:00:00 | 00:00:00 | |
| DB0UT-7 | 2026-09-02 10:18:34 | 47.81423 | 11.27973 | 91° | 80km/h | 10647m | 4.3m/s | -51.8°C | 65.2% | 252.4hPa | 2.7V | 02:48:00 | 00:00:00 | 00:00:00 | |
| DO3MHA-11 | 2026-09-02 10:18:33 | 47.81423 | 11.27943 | 91° | 75km/h | 10642m | 4.0m/s | -51.8°C | 63.9% | 252.5hPa | 2.9V | 02:48:00 | 00:49:42 | 00:00:00 | |
| OE5DRO-10 | 2026-09-02 10:18:31 | 47.81423 | 11.27885 | 90° | 80km/h | 10633m | 4.4m/s | -51.7°C | 62.9% | 252.9hPa | 2.7V | 02:48:00 | 00:00:00 | 00:00:00 | |
| DB0NH | 2026-09-02 10:18:28 | 47.81423 | 11.27803 | 91° | 80km/h | 10621m | 4.4m/s | -51.6°C | 62.6% | 253.4hPa | 2.7V | 00:00:00 | 00:49:37 | 00:00:00 | |
| DG1MJG | 2026-09-02 10:18:24 | 47.81425 | 11.27719 | 91° | 78km/h | 10605m | 5.7m/s | -51.5°C | 54.7% | 254.1hPa | 2.7V | 02:49:00 | 00:00:00 | 00:00:00 | |
| DO3MHA-11 | 2026-09-02 10:18:23 | 47.81424 | 11.27657 | 90° | 84km/h | 10595m | 4.4m/s | -51.4°C | 63.8% | 254.4hPa | 2.7V | 00:00:00 | 00:49:32 | 00:00:00 | |
| DO3MHA-11 | 2026-09-02 10:18:13 | 47.81432 | 11.27341 | 93° | 80km/h | 10549m | 3.8m/s | -51.0°C | 64.6% | 256.3hPa | 2.7V | 00:00:00 | 00:49:22 | 00:00:00 | |
| OE5DRO-10 | 2026-09-02 10:18:12 | 47.81432 | 11.27310 | 92° | 80km/h | 10545m | 5.1m/s | -50.9°C | 63.9% | 256.4hPa | 2.7V | 00:00:00 | 00:00:00 | 00:00:00 | |
| DO3MHA-12 | 2026-09-02 10:18:08 | 47.81434 | 11.27190 | 92° | 80km/h | 10526m | 5.5m/s | -50.8°C | 63.0% | 257.2hPa | 2.7V | 00:00:00 | 00:49:17 | 00:00:00 | |
| DB0UT-7 | 2026-09-02 10:18:04 | 47.81439 | 11.27070 | 94° | 82km/h | 10508m | 5.8m/s | -50.6°C | 63.4% | 257.9hPa | 2.7V | 00:00:00 | 00:49:13 | 00:00:00 | |
| DO3MHA-11 | 2026-09-02 10:18:03 | 47.81440 | 11.27039 | 94° | 82km/h | 10503m | 4.1m/s | -50.6°C | 63.7% | 258.1hPa | 2.7V | 02:49:00 | 00:49:12 | 00:00:00 | |
| DF7PN | 2026-09-02 10:18:01 | 47.81443 | 11.26978 | 94° | 80km/h | 10493m | 4.7m/s | -50.5°C | 55.5% | 258.5hPa | 2.9V | 00:00:00 | 00:00:00 | 00:00:00 | |
| DO3MHA-12 | 2026-09-02 10:17:58 | 47.81446 | 11.26887 | 92° | 82km/h | 10481m | 3.4m/s | -50.4°C | 63.5% | 258.9hPa | 2.9V | 00:00:00 | 00:49:07 | 00:00:00 | |
| NBG1-10 | 2026-09-02 10:17:55 | 47.81449 | 11.26794 | 92° | 80km/h | 10467m | 4.5m/s | -50.3°C | 63.4% | 259.5hPa | 2.9V | 00:00:00 | 00:49:04 | 00:00:00 | |
| DO3MHA-11 | 2026-09-02 10:17:53 | 47.81451 | 11.26732 | 95° | 82km/h | 10458m | 4.5m/s | -50.2°C | 63.7% | 259.9hPa | 2.9V | 00:00:00 | 00:49:02 | 00:00:00 | |
| OE3JTB-15 | 2026-09-02 10:17:52 | 47.81453 | 11.26700 | 95° | 78km/h | 10454m | 3.4m/s | 0°C | 0% | 0hPa | 2.9V | 00:00:00 | 00:49:01 | 00:00:00 | |
| DO3MHA-12 | 2026-09-02 10:17:48 | 47.81460 | 11.26576 | 96° | 82km/h | 10438m | 4.5m/s | -50.0°C | 62.8% | 260.7hPa | 2.9V | 02:49:00 | 00:48:57 | 00:00:00 | |
| DO3MHA-11 | 2026-09-02 10:17:43 | 47.81468 | 11.26424 | 93° | 80km/h | 10415m | 5.0m/s | -49.8°C | 62.5% | 261.6hPa | 2.7V | 00:00:00 | 00:48:52 | 00:00:00 | |
| DL6DJ-15 | 2026-09-02 10:17:42 | 47.81469 | 11.26393 | 92° | 82km/h | 10411m | 4.3m/s | -49.8°C | 54.1% | 261.9hPa | 2.7V | 00:00:00 | 00:00:00 | 00:00:00 | |
| DB0UT-7 | 2026-09-02 10:17:34 | 47.81482 | 11.26154 | 95° | 80km/h | 10373m | 5.4m/s | -49.4°C | 62.9% | 263.2hPa | 2.7V | 00:00:00 | 00:00:00 | 00:00:00 | |
| DO3MHA-11 | 2026-09-02 10:17:33 | 47.81483 | 11.26125 | 95° | 78km/h | 10368m | 4.3m/s | -49.4°C | 62.7% | 263.5hPa | 2.7V | 02:49:00 | 00:48:42 | 00:00:00 | |
| DF7PN | 2026-09-02 10:17:30 | 47.81488 | 11.26036 | 94° | 78km/h | 10354m | 4.6m/s | -49.3°C | 54.7% | 264.1hPa | 2.9V | 00:00:00 | 00:00:00 | 00:00:00 | |
| DO3MHA-12 | 2026-09-02 10:17:28 | 47.81491 | 11.25977 | 96° | 78km/h | 10345m | 4.8m/s | -49.2°C | 62.9% | 264.3hPa | 2.9V | 00:00:00 | 00:48:37 | 00:00:00 | |
| DO3MHA-11 | 2026-09-02 10:17:23 | 47.81500 | 11.25829 | 96° | 78km/h | 10324m | 4.8m/s | -49.0°C | 62.9% | 265.2hPa | 2.9V | 00:00:00 | 00:48:32 | 00:00:00 | |
| NBG1-10 | 2026-09-02 10:17:22 | 47.81502 | 11.25799 | 95° | 80km/h | 10320m | 3.8m/s | -49.0°C | 62.7% | 265.4hPa | 2.9V | 00:00:00 | 00:48:31 | 00:00:00 | |
| OE3JTB-15 | 2026-09-02 10:17:21 | 47.81504 | 11.25770 | 95° | 80km/h | 10315m | 5.0m/s | 0°C | 0% | 0hPa | 2.9V | 02:49:00 | 00:00:00 | 00:00:00 | |
| DO3MHA-12 | 2026-09-02 10:17:18 | 47.81507 | 11.25682 | 92° | 80km/h | 10302m | 4.1m/s | -48.8°C | 61.6% | 266.1hPa | 2.9V | 02:49:00 | 00:48:27 | 00:00:00 | |
| DG1MFX-10 | 2026-09-02 10:17:16 | 47.81507 | 11.25653 | 93° | 77km/h | 10298m | 5.0m/s | -48.8°C | 53.6% | 266.4hPa | 2.7V | 02:50:00 | 00:00:00 | 00:00:00 | |
| OE5DRO-10 | 2026-09-02 10:17:15 | 47.81509 | 11.25594 | 93° | 80km/h | 10289m | 4.9m/s | -48.7°C | 62.4% | 266.6hPa | 2.7V | 00:00:00 | 00:00:00 | 00:00:00 | |
| DO3MHA-11 | 2026-09-02 10:17:13 | 47.81512 | 11.25534 | 96° | 82km/h | 10280m | 5.3m/s | -48.6°C | 63.0% | 266.9hPa | 2.7V | 00:00:00 | 00:48:22 | 00:00:00 | |
| DL6DJ-15 | 2026-09-02 10:17:11 | 47.81516 | 11.25475 | 96° | 80km/h | 10271m | 5.8m/s | -48.6°C | 54.8% | 267.4hPa | 2.7V | 00:00:00 | 00:00:00 | 00:00:00 | |
| DO3MHA-12 | 2026-09-02 10:17:08 | 47.81524 | 11.25383 | 98° | 82km/h | 10258m | 3.8m/s | -48.4°C | 64.3% | 267.9hPa | 2.7V | 00:00:00 | 00:48:17 | 00:00:00 | |
| DB0UT-7 | 2026-09-02 10:17:04 | 47.81534 | 11.25261 | 96° | 80km/h | 10241m | 3.7m/s | -48.2°C | 65.3% | 268.6hPa | 2.7V | 02:50:00 | 00:48:13 | 00:00:00 | |
| DO3MHA-11 | 2026-09-02 10:17:03 | 47.81536 | 11.25230 | 95° | 80km/h | 10237m | 4.2m/s | -48.2°C | 65.4% | 268.8hPa | 2.9V | 02:50:00 | 00:48:12 | 00:00:00 | |
| DF7PN | 2026-09-02 10:16:59 | 47.81543 | 11.25109 | 95° | 78km/h | 10220m | 4.1m/s | 0°C | -1.0% | -1.0hPa | 2.9V | 00:00:00 | 00:00:00 | 00:00:00 | |
| DO3MHA-12 | 2026-09-02 10:16:58 | 47.81544 | 11.25080 | 96° | 80km/h | 10216m | 4.1m/s | -48.0°C | 65.1% | 269.6hPa | 2.9V | 00:00:00 | 00:48:07 | 00:00:00 | |
| DO3MHA-11 | 2026-09-02 10:16:53 | 47.81555 | 11.24932 | 99° | 82km/h | 10196m | 3.8m/s | -47.8°C | 63.5% | 270.5hPa | 2.9V | 00:00:00 | 00:48:02 | 00:00:00 | |
| DG1MJG | 2026-09-02 10:16:52 | 47.81555 | 11.24932 | 99° | 78km/h | 10196m | 3.8m/s | -47.9°C | 55.5% | 270.5hPa | 2.9V | 02:50:00 | 00:00:00 | 00:00:00 | |
| NBG1-10 | 2026-09-02 10:16:49 | 47.81568 | 11.24812 | 100° | 80km/h | 10179m | 3.9m/s | -47.7°C | 64.6% | 271.1hPa | 2.9V | 02:50:00 | 00:47:58 | 00:00:00 | |
| DO3MHA-12 | 2026-09-02 10:16:48 | 47.81571 | 11.24782 | 99° | 80km/h | 10175m | 4.6m/s | -47.7°C | 65.0% | 271.3hPa | 2.7V | 02:50:00 | 00:47:57 | 00:00:00 | |
| DB0NH | 2026-09-02 10:16:44 | 47.81581 | 11.24660 | 97° | 78km/h | 10160m | 3.6m/s | -47.5°C | 0% | 272.0hPa | 2.9V | 00:00:00 | 00:47:53 | 00:00:00 | |
| DO3MHA-11 | 2026-09-02 10:16:43 | 47.81584 | 11.24629 | 96° | 80km/h | 10156m | 4.7m/s | -47.5°C | 65.4% | 272.1hPa | 2.9V | 00:00:00 | 00:47:52 | 00:00:00 | |
| OE3JTB-15 | 2026-09-02 10:16:40 | 47.81589 | 11.24538 | 96° | 77km/h | 10143m | 3.1m/s | 0°C | 0% | 0hPa | 2.9V | 00:00:00 | 00:00:00 | 00:00:00 | |
| DO3MHA-12 | 2026-09-02 10:16:38 | 47.81593 | 11.24479 | 96° | 80km/h | 10136m | 4.3m/s | -47.3°C | 67.1% | 272.9hPa | 2.9V | 00:00:00 | 00:47:47 | 00:00:00 | |
| OE5DRO-10 | 2026-09-02 10:16:37 | 47.81595 | 11.24449 | 96° | 80km/h | 10132m | 3.9m/s | -47.3°C | 67.5% | 273.0hPa | 2.9V | 02:50:00 | 00:00:00 | 00:00:00 | |
| DB0UT-7 | 2026-09-02 10:16:34 | 47.81601 | 11.24358 | 97° | 80km/h | 10121m | 3.2m/s | -47.2°C | 67.3% | 273.5hPa | 2.9V | 00:00:00 | 00:00:00 | 00:00:00 | |
| DO3MHA-11 | 2026-09-02 10:16:33 | 47.81604 | 11.24328 | 98° | 80km/h | 10117m | 4.6m/s | -47.2°C | 66.9% | 273.7hPa | 2.9V | 02:50:00 | 00:47:42 | 00:00:00 | |
| DB0ND-19 | 2026-09-02 10:16:32 | 47.81607 | 11.24298 | 97° | 78km/h | 10113m | 3.4m/s | -47.2°C | 58.8% | 274.0hPa | 2.9V | 00:00:00 | 00:00:00 | 00:00:00 | |
| DH7VM-15 | 2026-09-02 10:16:29 | 47.81612 | 11.24237 | 97° | 82km/h | 10105m | 3.1m/s | 0°C | 0% | 0hPa | 2.9V | 00:00:00 | 00:00:00 | 00:00:00 | |
| DO3MHA-12 | 2026-09-02 10:16:28 | 47.81616 | 11.24178 | 96° | 80km/h | 10097m | 3.9m/s | -47.0°C | 66.1% | 274.6hPa | 2.9V | 00:00:00 | 00:47:37 | 00:00:00 | |
| DO3MHA-11 | 2026-09-02 10:16:23 | 47.81627 | 11.24029 | 99° | 80km/h | 10076m | 4.9m/s | -46.8°C | 65.1% | 275.4hPa | 2.9V | 00:00:00 | 00:47:32 | 00:00:00 | |
| DG1MJG | 2026-09-02 10:16:21 | 47.81630 | 11.23999 | 99° | 82km/h | 10072m | 3.4m/s | -46.8°C | 57.1% | 275.6hPa | 2.9V | 02:51:00 | 00:00:00 | 00:00:00 | |
| DO8TBO-1 | 2026-09-02 10:16:18 | 47.81647 | 11.23816 | 98° | 77km/h | 10049m | 3.2m/s | -46.5°C | 66.0% | 276.5hPa | 2.9V | 00:00:00 | 00:47:25 | 00:00:00 | |
| NBG1-10 | 2026-09-02 10:16:16 | 47.81647 | 11.23816 | 98° | 77km/h | 10049m | 3.2m/s | -46.5°C | 66.0% | 276.5hPa | 2.9V | 00:00:00 | 00:47:25 | 00:00:00 | |
| DG1MFX-10 | 2026-09-02 10:16:14 | 47.81650 | 11.23787 | 99° | 78km/h | 10045m | 4.8m/s | -46.6°C | 58.1% | 276.8hPa | 2.9V | 02:51:00 | 00:00:00 | 00:00:00 | |
| DO3MHA-11 | 2026-09-02 10:16:13 | 47.81655 | 11.23729 | 98° | 78km/h | 10036m | 4.8m/s | -46.5°C | 66.4% | 277.0hPa | 2.9V | 00:00:00 | 00:47:22 | 00:00:00 | |
| DL6DJ-15 | 2026-09-02 10:16:09 | 47.81666 | 11.23612 | 97° | 78km/h | 10021m | 2.8m/s | -46.3°C | 59.3% | 277.7hPa | 2.9V | 00:00:00 | 00:00:00 | 00:00:00 | |
| DO3MHA-12 | 2026-09-02 10:16:08 | 47.81669 | 11.23583 | 98° | 77km/h | 10018m | 4.8m/s | -46.3°C | 66.9% | 277.8hPa | 2.9V | 00:00:00 | 00:47:17 | 00:00:00 | |
| DB0UT-7 | 2026-09-02 10:16:04 | 47.81679 | 11.23466 | 99° | 77km/h | 10000m | 4.8m/s | -46.2°C | 67.5% | 278.5hPa | 2.9V | 00:00:00 | 00:47:13 | 00:00:00 | |
| DB0ND-19 | 2026-09-02 10:16:01 | 47.81694 | 11.23295 | 96° | 77km/h | 9976m | 4.9m/s | -46.0°C | 60.5% | 279.6hPa | 2.9V | 00:00:00 | 00:00:00 | 00:00:00 | |
| OE5DRO-10 | 2026-09-02 10:15:59 | 47.81692 | 11.23323 | 98° | 77km/h | 9980m | 3.7m/s | -46.0°C | 68.3% | 279.4hPa | 2.9V | 00:00:00 | 00:00:00 | 00:00:00 | |
| DO3MHA-12 | 2026-09-02 10:15:58 | 47.81694 | 11.23295 | 97° | 77km/h | 9976m | 4.8m/s | -46.0°C | 68.5% | 279.6hPa | 2.9V | 00:00:00 | 00:47:07 | 00:00:00 | |
| DO3MHA-11 | 2026-09-02 10:15:53 | 47.81705 | 11.23149 | 96° | 77km/h | 9957m | 3.0m/s | -45.8°C | 69.1% | 280.3hPa | 2.9V | 00:00:00 | 00:47:02 | 00:00:00 | |
| DG1MJG | 2026-09-02 10:15:50 | 47.81709 | 11.23091 | 99° | 75km/h | 9949m | 3.8m/s | -45.7°C | 61.4% | 280.7hPa | 2.9V | 02:51:00 | 00:00:00 | 00:00:00 | |
| DO3MHA-12 | 2026-09-02 10:15:48 | 47.81718 | 11.23007 | 100° | 75km/h | 9937m | 4.0m/s | -45.6°C | 69.2% | 281.2hPa | 2.9V | 02:51:00 | 00:46:57 | 00:00:00 | |
| DO8TBO-1 | 2026-09-02 10:15:47 | 47.81725 | 11.22951 | 99° | 75km/h | 9928m | 4.8m/s | -45.5°C | 69.3% | 281.5hPa | 2.7V | 02:51:00 | 00:46:55 | 00:00:00 | |
| OE5DXL-15 | 2026-09-02 10:15:43 | 47.81733 | 11.22867 | 98° | 75km/h | 9915m | 3.5m/s | -45.4°C | 69.2% | 282.1hPa | 2.7V | 00:00:00 | 00:00:00 | 00:00:00 | |
| OE5DRO-10 | 2026-09-02 10:15:40 | 47.81740 | 11.22782 | 99° | 75km/h | 9903m | 4.4m/s | -45.3°C | 68.7% | 282.5hPa | 2.7V | 02:51:00 | 00:00:00 | 00:00:00 | |
| DO3MHA-12 | 2026-09-02 10:15:38 | 47.81747 | 11.22725 | 100° | 75km/h | 9895m | 4.5m/s | -45.2°C | 68.4% | 283.0hPa | 2.7V | 00:00:00 | 00:46:47 | 00:00:00 | |
| DB0UT-7 | 2026-09-02 10:15:34 | 47.81760 | 11.22615 | 100° | 75km/h | 9879m | 4.1m/s | -45.1°C | 68.5% | 283.7hPa | 2.7V | 02:51:00 | 00:00:00 | 00:00:00 | |
| DO3MHA-11 | 2026-09-02 10:15:33 | 47.81763 | 11.22587 | 99° | 75km/h | 9875m | 4.2m/s | -45.0°C | 68.4% | 283.9hPa | 2.9V | 02:51:00 | 00:46:42 | 00:00:00 | |
| DO3MHA-12 | 2026-09-02 10:15:28 | 47.81776 | 11.22448 | 98° | 75km/h | 9855m | 3.9m/s | -44.8°C | 68.0% | 284.7hPa | 2.7V | 00:00:00 | 00:46:37 | 00:00:00 | |
| DF7PN | 2026-09-02 10:15:26 | 47.81781 | 11.22392 | 97° | 77km/h | 9847m | 3.6m/s | 0°C | -1.0% | -1.0hPa | 2.7V | 00:00:00 | 00:00:00 | 00:00:00 | |
| DO3MHA-11 | 2026-09-02 10:15:23 | 47.81790 | 11.22307 | 101° | 75km/h | 9835m | 4.5m/s | -44.7°C | 67.6% | 285.6hPa | 2.7V | 00:00:00 | 00:46:32 | 00:00:00 | |
| OE5DRO-10 | 2026-09-02 10:15:21 | 47.81797 | 11.22251 | 102° | 75km/h | 9827m | 4.7m/s | -44.6°C | 67.7% | 285.9hPa | 2.7V | 00:00:00 | 00:00:00 | 00:00:00 | |
| DG1MJG | 2026-09-02 10:15:19 | 47.81800 | 11.22223 | 101° | 73km/h | 9823m | 2.5m/s | -44.6°C | 60.3% | 286.1hPa | 2.7V | 02:52:00 | 00:00:00 | 00:00:00 | |
| DO8TBO-1 | 2026-09-02 10:15:18 | 47.81809 | 11.22141 | 98° | 75km/h | 9811m | 4.9m/s | 0°C | 0% | 0hPa | 2.7V | 00:00:00 | 00:46:26 | 00:00:00 | |
| DO3MHA-11 | 2026-09-02 10:15:13 | 47.81818 | 11.22030 | 98° | 77km/h | 9796m | 4.2m/s | -44.3°C | 67.0% | 287.2hPa | 2.7V | 00:00:00 | 00:46:22 | 00:00:00 | |
| NBG1-10 | 2026-09-02 10:15:10 | 47.81827 | 11.21945 | 101° | 75km/h | 9785m | 3.2m/s | -44.2°C | 66.3% | 287.7hPa | 2.7V | 02:51:00 | 00:46:19 | 00:00:00 | |
| DO3MHA-12 | 2026-09-02 10:15:08 | 47.81834 | 11.21889 | 102° | 75km/h | 9777m | 2.5m/s | -44.1°C | 65.6% | 288.0hPa | 2.7V | 00:00:00 | 00:46:17 | 00:00:00 | |
| DL6DJ-15 | 2026-09-02 10:15:07 | 47.81838 | 11.21861 | 100° | 77km/h | 9774m | 4.6m/s | -44.2°C | 58.3% | 288.2hPa | 2.7V | 00:00:00 | 00:00:00 | 00:00:00 | |
| DB0UT-7 | 2026-09-02 10:15:04 | 47.81848 | 11.21776 | 98° | 75km/h | 9762m | 2.9m/s | -44.0°C | 65.0% | 288.7hPa | 2.7V | 00:00:00 | 00:46:13 | 00:00:00 | |
| DO3MHA-11 | 2026-09-02 10:15:03 | 47.81850 | 11.21749 | 97° | 73km/h | 9758m | 4.7m/s | -44.0°C | 64.5% | 288.9hPa | 2.7V | 02:52:00 | 00:46:12 | 00:00:00 | |
| DB0ND-19 | 2026-09-02 10:14:59 | 47.81857 | 11.21641 | 96° | 71km/h | 9742m | 3.8m/s | -43.9°C | 57.1% | 289.6hPa | 2.9V | 00:00:00 | 00:00:00 | 00:00:00 | |
| DO3MHA-12 | 2026-09-02 10:14:58 | 47.81859 | 11.21614 | 98° | 75km/h | 9738m | 4.2m/s | -43.8°C | 63.9% | 289.7hPa | 2.9V | 00:00:00 | 00:46:07 | 00:00:00 | |
| DO3MHA-11 | 2026-09-02 10:14:53 | 47.81877 | 11.21476 | 102° | 75km/h | 9718m | 3.1m/s | -43.6°C | 64.0% | 290.6hPa | 2.9V | 00:00:00 | 00:46:02 | 00:00:00 | |
| DG1MJG | 2026-09-02 10:14:49 | 47.81886 | 11.21393 | 100° | 73km/h | 9706m | 4.6m/s | -43.6°C | 56.6% | 291.2hPa | 2.9V | 02:52:00 | 00:00:00 | 00:00:00 | |
| DO3MHA-12 | 2026-09-02 10:14:48 | 47.81891 | 11.21338 | 97° | 75km/h | 9698m | 3.8m/s | -43.4°C | 63.3% | 291.4hPa | 2.9V | 02:52:00 | 00:45:57 | 00:00:00 | |
| DO8TBO-1 | 2026-09-02 10:14:47 | 47.81893 | 11.21311 | 97° | 75km/h | 9694m | 4.1m/s | 0°C | 0% | 0hPa | 2.9V | 00:00:00 | 00:45:56 | 00:00:00 | |
| DO3MHA-11 | 2026-09-02 10:14:43 | 47.81903 | 11.21201 | 101° | 75km/h | 9678m | 4.7m/s | -43.3°C | 64.4% | 292.3hPa | 2.9V | 00:00:00 | 00:45:52 | 00:00:00 | |
| DO3MHA-12 | 2026-09-02 10:14:38 | 47.81919 | 11.21062 | 100° | 75km/h | 9659m | 4.5m/s | -43.1°C | 64.3% | 293.1hPa | 2.9V | 00:00:00 | 00:45:47 | 00:00:00 | |
| NBG1-10 | 2026-09-02 10:14:37 | 47.81922 | 11.21034 | 98° | 75km/h | 9655m | 3.7m/s | -43.1°C | 64.0% | 293.3hPa | 2.9V | 00:00:00 | 00:45:46 | 00:00:00 | |
| DL6DJ-15 | 2026-09-02 10:14:36 | 47.81924 | 11.21006 | 98° | 73km/h | 9651m | 4.6m/s | -43.1°C | 56.9% | 293.6hPa | 2.9V | 00:00:00 | 00:00:00 | 00:00:00 | |
| DB0UT-7 | 2026-09-02 10:14:34 | 47.81929 | 11.20951 | 97° | 75km/h | 9644m | 4.4m/s | -43.0°C | 63.0% | 293.8hPa | 2.9V | 00:00:00 | 00:00:00 | 00:00:00 | |
| DO3MHA-11 | 2026-09-02 10:14:33 | 47.81932 | 11.20922 | 97° | 75km/h | 9640m | 3.2m/s | -42.9°C | 62.9% | 294.0hPa | 2.9V | 02:52:00 | 00:45:42 | 00:00:00 | |
| DG1MFX-10 | 2026-09-02 10:14:32 | 47.81932 | 11.20922 | 97° | 77km/h | 9640m | 3.2m/s | 0°C | 0% | 0hPa | 2.9V | 00:00:00 | 00:00:00 | 00:00:00 | |
| DO3MHA-12 | 2026-09-02 10:14:28 | 47.81944 | 11.20782 | 99° | 73km/h | 9620m | 4.3m/s | -42.7°C | 61.7% | 294.8hPa | 2.9V | 00:00:00 | 00:45:37 | 00:00:00 | |
| OE5DRO-10 | 2026-09-02 10:14:24 | 47.81956 | 11.20672 | 101° | 73km/h | 9605m | 4.7m/s | -42.6°C | 60.9% | 295.5hPa | 2.9V | 00:00:00 | 00:00:00 | 00:00:00 | |
| DO3MHA-11 | 2026-09-02 10:14:23 | 47.81960 | 11.20645 | 100° | 73km/h | 9601m | 3.1m/s | -42.5°C | 60.8% | 295.7hPa | 2.9V | 00:00:00 | 00:45:32 | 00:00:00 | |
| DO3MHA-12 | 2026-09-02 10:14:18 | 47.81973 | 11.20507 | 98° | 73km/h | 9580m | 3.9m/s | -42.4°C | 61.6% | 296.5hPa | 2.9V | 02:52:00 | 00:45:27 | 00:00:00 | |
| DO8TBO-1 | 2026-09-02 10:14:17 | 47.81975 | 11.20480 | 97° | 73km/h | 9577m | 3.5m/s | 0°C | 0% | 0hPa | 2.9V | 00:00:00 | 00:45:26 | 00:00:00 | |
| DO3MHA-11 | 2026-09-02 10:14:13 | 47.81982 | 11.20371 | 96° | 73km/h | 9561m | 4.7m/s | -42.2°C | 62.7% | 297.4hPa | 2.9V | 00:00:00 | 00:45:22 | 00:00:00 | |
| DG1MFX-10 | 2026-09-02 10:14:11 | 47.81985 | 11.20343 | 98° | 73km/h | 9557m | 3.3m/s | 0°C | 0% | 0hPa | 2.9V | 00:00:00 | 00:00:00 | 00:00:00 | |
| DO3MHA-12 | 2026-09-02 10:14:08 | 47.81996 | 11.20233 | 100° | 73km/h | 9542m | 3.3m/s | -42.0°C | 63.0% | 298.2hPa | 2.9V | 00:00:00 | 00:45:17 | 00:00:00 | |
| DN1GJH-1 | 2026-09-02 10:14:07 | 47.81996 | 11.20233 | 100° | 75km/h | 9542m | 3.4m/s | 0°C | 0% | 0hPa | 2.9V | 00:00:00 | 00:00:00 | 00:00:00 | |
| OE5DRO-10 | 2026-09-02 10:14:05 | 47.82004 | 11.20151 | 98° | 71km/h | 9532m | 4.1m/s | -42.0°C | 62.6% | 298.7hPa | 2.9V | 00:00:00 | 00:00:00 | 00:00:00 | |
| NBG1-10 | 2026-09-02 10:14:04 | 47.82006 | 11.20124 | 96° | 71km/h | 9528m | 3.4m/s | -41.9°C | 62.8% | 298.9hPa | 2.9V | 00:00:00 | 00:45:13 | 00:00:00 | |
| DB0ND-19 | 2026-09-02 10:13:57 | 47.82020 | 11.19936 | 100° | 73km/h | 9502m | 3.5m/s | -41.8°C | 54.8% | 300.1hPa | 2.9V | 00:00:00 | 00:00:00 | 00:00:00 | |
| DO3MHA-11 | 2026-09-02 10:13:53 | 47.82031 | 11.19828 | 98° | 71km/h | 9487m | 3.1m/s | -41.6°C | 60.0% | 300.7hPa | 2.9V | 00:00:00 | 00:45:02 | 00:00:00 | |
| DO3MHA-12 | 2026-09-02 10:13:48 | 47.82042 | 11.19694 | 98° | 71km/h | 9466m | 4.9m/s | -41.4°C | 58.9% | 301.6hPa | 2.9V | 02:53:00 | 00:44:57 | 00:00:00 | |
| DN1GJH-1 | 2026-09-02 10:13:47 | 47.82042 | 11.19694 | 98° | 71km/h | 9466m | 5.0m/s | 0°C | 0% | 0hPa | 2.7V | 00:00:00 | 00:00:00 | 00:00:00 | |
| OE5DRO-10 | 2026-09-02 10:13:46 | 47.82046 | 11.19641 | 98° | 71km/h | 9458m | 4.5m/s | -41.3°C | 58.2% | 301.9hPa | 2.7V | 02:53:00 | 00:00:00 | 00:00:00 | |
| DO3MHA-11 | 2026-09-02 10:13:43 | 47.82054 | 11.19561 | 100° | 71km/h | 9446m | 3.5m/s | -41.2°C | 56.7% | 302.4hPa | 2.9V | 00:00:00 | 00:44:52 | 00:00:00 | |
| DO3MHA-12 | 2026-09-02 10:13:38 | 47.82066 | 11.19427 | 97° | 71km/h | 9427m | 3.3m/s | -41.1°C | 57.7% | 303.3hPa | 2.9V | 00:00:00 | 00:44:47 | 00:00:00 | |
| DB0UT-7 | 2026-09-02 10:13:34 | 47.82073 | 11.19320 | 96° | 71km/h | 9413m | 2.8m/s | -41.0°C | 59.4% | 304.0hPa | 2.9V | 00:00:00 | 00:00:00 | 00:00:00 | |
| DO3MHA-11 | 2026-09-02 10:13:33 | 47.82075 | 11.19294 | 96° | 69km/h | 9409m | 3.8m/s | -41.0°C | 59.3% | 304.1hPa | 2.9V | 02:53:00 | 00:44:42 | 00:00:00 | |
| NBG1-10 | 2026-09-02 10:13:31 | 47.82079 | 11.19242 | 96° | 71km/h | 9402m | 4.4m/s | -40.9°C | 59.3% | 304.5hPa | 2.7V | 02:53:00 | 00:44:40 | 00:00:00 | |
| DO3MHA-12 | 2026-09-02 10:13:28 | 47.82084 | 11.19164 | 97° | 71km/h | 9390m | 3.6m/s | -40.8°C | 59.8% | 305.0hPa | 2.7V | 00:00:00 | 00:44:37 | 00:00:00 | |
| OE5DRO-10 | 2026-09-02 10:13:27 | 47.82086 | 11.19139 | 97° | 71km/h | 9386m | 4.4m/s | -40.7°C | 60.3% | 305.1hPa | 2.7V | 00:00:00 | 00:00:00 | 00:00:00 | |
| DB0ND-19 | 2026-09-02 10:13:26 | 47.82089 | 11.19113 | 97° | 69km/h | 9382m | 3.6m/s | -40.8°C | 54.4% | 305.4hPa | 2.7V | 00:00:00 | 00:00:00 | 00:00:00 | |
| DN1GJH-1 | 2026-09-02 10:13:25 | 47.82089 | 11.19113 | 99° | 69km/h | 9382m | 3.6m/s | 0°C | 0% | 0hPa | 2.7V | 00:00:00 | 00:00:00 | 00:00:00 | |
| DO3MHA-11 | 2026-09-02 10:13:23 | 47.82096 | 11.19035 | 98° | 71km/h | 9371m | 3.2m/s | -40.6°C | 65.4% | 305.9hPa | 2.7V | 00:00:00 | 00:44:32 | 00:00:00 | |
| DO3MHA-12 | 2026-09-02 10:13:18 | 47.82110 | 11.18901 | 100° | 69km/h | 9351m | 4.3m/s | -40.5°C | 63.5% | 306.7hPa | 2.7V | 02:53:00 | 00:44:27 | 00:00:00 | |
| DG1MJG | 2026-09-02 10:13:16 | 47.82112 | 11.18874 | 100° | 71km/h | 9347m | 3.3m/s | -40.5°C | 57.5% | 306.9hPa | 2.7V | 02:54:00 | 00:00:00 | 00:00:00 | |
| DO3MHA-11 | 2026-09-02 10:13:13 | 47.82124 | 11.18772 | 102° | 71km/h | 9334m | 3.9m/s | -40.4°C | 64.2% | 307.5hPa | 2.7V | 00:00:00 | 00:44:22 | 00:00:00 | |
| DO3MHA-12 | 2026-09-02 10:13:08 | 47.82142 | 11.18642 | 101° | 71km/h | 9316m | 3.7m/s | -40.2°C | 62.2% | 308.3hPa | 2.7V | 00:00:00 | 00:44:17 | 00:00:00 | |
| DB0UT-7 | 2026-09-02 10:13:04 | 47.82154 | 11.18538 | 102° | 71km/h | 9299m | 3.4m/s | -40.0°C | 60.7% | 309.0hPa | 2.7V | 00:00:00 | 00:44:13 | 00:00:00 | |
| DL6DJ-15 | 2026-09-02 10:13:03 | 47.82162 | 11.18485 | 102° | 73km/h | 9291m | 4.0m/s | -40.0°C | 54.4% | 309.5hPa | 2.7V | 00:00:00 | 00:00:00 | 00:00:00 | |
| DB0ND-19 | 2026-09-02 10:12:55 | 47.82189 | 11.18299 | 101° | 69km/h | 9266m | 3.0m/s | -39.8°C | 54.0% | 310.7hPa | 2.7V | 00:00:00 | 00:00:00 | 00:00:00 | |
| DO3MHA-11 | 2026-09-02 10:12:53 | 47.82196 | 11.18247 | 100° | 71km/h | 9259m | 4.1m/s | -39.6°C | 60.4% | 311.0hPa | 2.7V | 00:00:00 | 00:44:02 | 00:00:00 | |
| OE5DRO-10 | 2026-09-02 10:12:49 | 47.82209 | 11.18142 | 101° | 73km/h | 9243m | 3.6m/s | -39.5°C | 60.2% | 311.7hPa | 2.7V | 02:54:00 | 00:00:00 | 00:00:00 | |
| DO3MHA-12 | 2026-09-02 10:12:48 | 47.82213 | 11.18116 | 102° | 73km/h | 9239m | 5.4m/s | -39.5°C | 60.1% | 311.8hPa | 2.7V | 02:54:00 | 00:43:57 | 00:00:00 | |
| DG1MJG | 2026-09-02 10:12:45 | 47.82219 | 11.18062 | 100° | 73km/h | 9231m | 4.9m/s | -39.5°C | 54.2% | 312.3hPa | 2.7V | 02:54:00 | 00:00:00 | 00:00:00 | |
| OE5DXL-15 | 2026-09-02 10:12:43 | 47.82228 | 11.17981 | 100° | 71km/h | 9219m | 3.2m/s | -39.3°C | 61.9% | 312.8hPa | 2.7V | 00:00:00 | 00:00:00 | 00:00:00 | |
| DN1GJH-1 | 2026-09-02 10:12:41 | 47.82231 | 11.17954 | 101° | 73km/h | 9215m | 4.3m/s | 0°C | 0% | 0hPa | 2.7V | 00:00:00 | 00:00:00 | 00:00:00 | |
| DO3MHA-12 | 2026-09-02 10:12:38 | 47.82245 | 11.17850 | 103° | 73km/h | 9199m | 3.9m/s | -39.1°C | 59.8% | 313.7hPa | 2.7V | 00:00:00 | 00:43:47 | 00:00:00 | |
| DB0UT-7 | 2026-09-02 10:12:34 | 47.82261 | 11.17748 | 104° | 71km/h | 9185m | 3.6m/s | -39.0°C | 58.8% | 314.3hPa | 2.7V | 02:54:00 | 00:00:00 | 00:00:00 | |
| DO3MHA-11 | 2026-09-02 10:12:33 | 47.82266 | 11.17720 | 103° | 73km/h | 9181m | 4.0m/s | -38.9°C | 58.8% | 314.5hPa | 2.7V | 02:54:00 | 00:43:42 | 00:00:00 | |
| DL6DJ-15 | 2026-09-02 10:12:32 | 47.82273 | 11.17665 | 100° | 75km/h | 9173m | 3.7m/s | -38.9°C | 53.9% | 314.9hPa | 2.9V | 00:00:00 | 00:00:00 | 00:00:00 | |
| OE5DRO-10 | 2026-09-02 10:12:30 | 47.82276 | 11.17637 | 99° | 71km/h | 9169m | 3.7m/s | -38.8°C | 58.7% | 315.0hPa | 2.9V | 00:00:00 | 00:00:00 | 00:00:00 | |
| DO3MHA-12 | 2026-09-02 10:12:28 | 47.82282 | 11.17580 | 100° | 71km/h | 9160m | 5.0m/s | -38.7°C | 60.8% | 315.5hPa | 2.9V | 00:00:00 | 00:43:37 | 00:00:00 | |
| DO3MHA-11 | 2026-09-02 10:12:23 | 47.82299 | 11.17453 | 103° | 73km/h | 9138m | 2.6m/s | -38.5°C | 66.5% | 316.7hPa | 2.9V | 00:00:00 | 00:43:32 | 00:00:00 | |
| DN1GJH-1 | 2026-09-02 10:12:20 | 47.82306 | 11.17402 | 99° | 71km/h | 9131m | 4.7m/s | 0°C | 0% | 0hPa | 2.9V | 00:00:00 | 00:00:00 | 00:00:00 | |
| DO3MHA-12 | 2026-09-02 10:12:18 | 47.82314 | 11.17321 | 101° | 69km/h | 9115m | 5.5m/s | -38.3°C | 71.9% | 317.5hPa | 2.9V | 02:54:00 | 00:43:27 | 00:00:00 | |
| DG1MJG | 2026-09-02 10:12:14 | 47.82325 | 11.17238 | 102° | 73km/h | 9101m | 5.1m/s | -38.3°C | 66.2% | 318.2hPa | 2.9V | 02:54:00 | 00:00:00 | 00:00:00 | |
| DO3MHA-11 | 2026-09-02 10:12:13 | 47.82331 | 11.17187 | 99° | 69km/h | 9092m | 5.7m/s | -38.1°C | 73.6% | 318.7hPa | 2.9V | 00:00:00 | 00:43:22 | 00:00:00 | |
| OE5DRO-10 | 2026-09-02 10:12:11 | 47.82335 | 11.17138 | 95° | 73km/h | 9083m | 4.5m/s | -38.0°C | 71.6% | 319.1hPa | 2.9V | 00:00:00 | 00:00:00 | 00:00:00 | |
| DO3MHA-12 | 2026-09-02 10:12:08 | 47.82338 | 11.17065 | 95° | 77km/h | 9069m | 6.5m/s | -37.9°C | 70.2% | 319.7hPa | 2.9V | 00:00:00 | 00:43:17 | 00:00:00 | |
| DB0UT-7 | 2026-09-02 10:12:04 | 47.82351 | 11.16958 | 103° | 75km/h | 9050m | 4.2m/s | -37.7°C | 71.3% | 320.6hPa | 2.9V | 00:00:00 | 00:43:13 | 00:00:00 | |
| DO3MHA-11 | 2026-09-02 10:12:03 | 47.82356 | 11.16929 | 104° | 75km/h | 9046m | 3.7m/s | -37.7°C | 70.8% | 320.8hPa | 2.9V | 02:55:00 | 00:43:12 | 00:00:00 | |
| DL6DJ-15 | 2026-09-02 10:12:01 | 47.82370 | 11.16839 | 100° | 77km/h | 9035m | 4.7m/s | -37.6°C | 64.9% | 321.2hPa | 2.9V | 00:00:00 | 00:00:00 | 00:00:00 | |
| DN1GJH-1 | 2026-09-02 10:11:59 | 47.82369 | 11.16839 | 101° | 77km/h | 9035m | 4.7m/s | 0°C | 0% | 0hPa | 2.9V | 00:00:00 | 00:00:00 | 00:00:00 | |
| DO3MHA-12 | 2026-09-02 10:11:58 | 47.82374 | 11.16783 | 95° | 71km/h | 9024m | 6.3m/s | -37.5°C | 69.2% | 321.7hPa | 2.9V | 00:00:00 | 00:43:07 | 00:00:00 | |
| DB0NH | 2026-09-02 10:11:56 | 47.82377 | 11.16730 | 97° | 71km/h | 9009m | 7.9m/s | 0°C | 0% | 0hPa | 2.9V | 00:00:00 | 00:43:05 | 00:00:00 | |
| DO3MHA-11 | 2026-09-02 10:11:53 | 47.82385 | 11.16651 | 98° | 75km/h | 8990m | 7.3m/s | -37.2°C | 68.5% | 323.2hPa | 2.9V | 00:00:00 | 00:43:02 | 00:00:00 | |
| OE5DRO-10 | 2026-09-02 10:11:52 | 47.82387 | 11.16624 | 95° | 75km/h | 8982m | 7.9m/s | -37.1°C | 68.4% | 323.5hPa | 2.9V | 02:55:00 | 00:00:00 | 00:00:00 | |
| DO3MHA-12 | 2026-09-02 10:11:48 | 47.82396 | 11.16517 | 104° | 77km/h | 8962m | 2.8m/s | -36.9°C | 67.0% | 324.6hPa | 2.7V | 02:55:00 | 00:42:57 | 00:00:00 | |
| DG1MJG | 2026-09-02 10:11:44 | 47.82408 | 11.16434 | 99° | 78km/h | 8944m | 6.7m/s | -36.8°C | 59.2% | 325.4hPa | 2.9V | 02:55:00 | 00:00:00 | 00:00:00 | |
| DO3MHA-11 | 2026-09-02 10:11:43 | 47.82412 | 11.16373 | 96° | 75km/h | 8932m | 6.3m/s | -36.6°C | 65.4% | 325.9hPa | 2.9V | 00:00:00 | 00:42:52 | 00:00:00 | |
| DO3MHA-12 | 2026-09-02 10:11:38 | 47.82423 | 11.16235 | 98° | 77km/h | 8907m | 3.1m/s | -36.4°C | 64.6% | 327.2hPa | 2.9V | 00:00:00 | 00:42:47 | 00:00:00 | |
| DB0UT-7 | 2026-09-02 10:11:34 | 47.82436 | 11.16127 | 100° | 73km/h | 8891m | 3.0m/s | -36.2°C | 63.8% | 327.9hPa | 2.9V | 00:00:00 | 00:00:00 | 00:00:00 | |
| DO3MHA-11 | 2026-09-02 10:11:33 | 47.82439 | 11.16098 | 99° | 75km/h | 8887m | 3.9m/s | -36.2°C | 63.2% | 328.1hPa | 2.9V | 02:55:00 | 00:42:42 | 00:00:00 | |
| NBG1-10 | 2026-09-02 10:11:30 | 47.82448 | 11.16011 | 98° | 71km/h | 8876m | 5.2m/s | -36.1°C | 63.1% | 328.7hPa | 2.9V | 02:55:00 | 00:42:39 | 00:00:00 | |
| DL6DJ-15 | 2026-09-02 10:11:29 | 47.82451 | 11.15981 | 95° | 78km/h | 8872m | 2.5m/s | -36.1°C | 58.4% | 328.8hPa | 2.9V | 00:00:00 | 00:00:00 | 00:00:00 | |
| DO3MHA-12 | 2026-09-02 10:11:28 | 47.82452 | 11.15952 | 93° | 69km/h | 8868m | 6.4m/s | -36.0°C | 64.9% | 329.1hPa | 2.9V | 00:00:00 | 00:42:37 | 00:00:00 | |
| DO3MHA-11 | 2026-09-02 10:11:23 | 47.82456 | 11.15822 | 94° | 73km/h | 8843m | 3.4m/s | -35.8°C | 72.4% | 330.4hPa | 2.9V | 00:00:00 | 00:42:32 | 00:00:00 | |
| DO3MHA-12 | 2026-09-02 10:11:18 | 47.82466 | 11.15692 | 98° | 73km/h | 8817m | 3.6m/s | -35.6°C | 75.5% | 331.6hPa | 2.9V | 02:55:00 | 00:42:27 | 00:00:00 | |
| OE5DRO-10 | 2026-09-02 10:11:14 | 47.82479 | 11.15580 | 101° | 71km/h | 8797m | 4.5m/s | -35.4°C | 78.1% | 332.5hPa | 2.9V | 00:00:00 | 00:00:00 | 00:00:00 | |
| DO3MHA-11 | 2026-09-02 10:11:13 | 47.82482 | 11.15552 | 100° | 71km/h | 8794m | 2.4m/s | -35.4°C | 79.0% | 332.7hPa | 2.9V | 00:00:00 | 00:42:22 | 00:00:00 | |
| DO3MHA-12 | 2026-09-02 10:11:08 | 47.82499 | 11.15422 | 103° | 71km/h | 8771m | 5.5m/s | -35.3°C | 80.7% | 333.8hPa | 2.9V | 00:00:00 | 00:42:17 | 00:00:00 | |
| DB0UT-7 | 2026-09-02 10:11:04 | 47.82511 | 11.15318 | 97° | 69km/h | 8752m | 5.2m/s | -35.1°C | 79.5% | 334.6hPa | 2.9V | 02:56:00 | 00:42:13 | 00:00:00 | |
| DO3MHA-11 | 2026-09-02 10:11:03 | 47.82513 | 11.15291 | 98° | 71km/h | 8748m | 4.0m/s | -35.0°C | 79.4% | 334.8hPa | 2.9V | 02:56:00 | 00:42:12 | 00:00:00 | |
| DO3MHA-12 | 2026-09-02 10:10:58 | 47.82525 | 11.15157 | 101° | 69km/h | 8724m | 4.8m/s | -34.9°C | 79.3% | 336.0hPa | 2.9V | 00:00:00 | 00:42:07 | 00:00:00 | |
| NBG1-10 | 2026-09-02 10:10:57 | 47.82528 | 11.15132 | 101° | 69km/h | 8719m | 4.3m/s | -34.8°C | 79.9% | 336.2hPa | 2.9V | 00:00:00 | 00:42:06 | 00:00:00 | |
| OE5DRO-10 | 2026-09-02 10:10:55 | 47.82534 | 11.15083 | 101° | 69km/h | 8711m | 4.5m/s | -34.7°C | 79.6% | 336.6hPa | 2.9V | 02:56:00 | 00:00:00 | 00:00:00 | |
| DO3MHA-11 | 2026-09-02 10:10:53 | 47.82540 | 11.15031 | 99° | 69km/h | 8704m | 4.8m/s | -34.6°C | 80.4% | 337.0hPa | 2.9V | 00:00:00 | 00:42:02 | 00:00:00 | |
| DB0NH | 2026-09-02 10:10:51 | 47.82544 | 11.14979 | 97° | 69km/h | 8695m | 4.6m/s | 0°C | 0% | 0hPa | 2.9V | 02:56:00 | 00:42:00 | 00:00:00 | |
| DO3MHA-12 | 2026-09-02 10:10:48 | 47.82552 | 11.14901 | 99° | 69km/h | 8683m | 3.7m/s | -34.5°C | 82.1% | 338.0hPa | 2.9V | 02:56:00 | 00:41:57 | 00:00:00 | |
| OE5DXL-15 | 2026-09-02 10:10:43 | 47.82566 | 11.14771 | 100° | 69km/h | 8661m | 4.3m/s | -34.3°C | 83.1% | 339.1hPa | 2.9V | 00:00:00 | 00:00:00 | 00:00:00 | |
| DO3MHA-12 | 2026-09-02 10:10:38 | 47.82579 | 11.14642 | 99° | 69km/h | 8637m | 4.0m/s | -34.2°C | 83.6% | 340.1hPa | 2.9V | 00:00:00 | 00:41:47 | 00:00:00 | |
| OE5DRO-10 | 2026-09-02 10:10:36 | 47.82584 | 11.14591 | 100° | 69km/h | 8628m | 3.8m/s | -34.1°C | 84.3% | 340.6hPa | 2.9V | 00:00:00 | 00:00:00 | 00:00:00 | |
| DB0UT-7 | 2026-09-02 10:10:34 | 47.82590 | 11.14540 | 102° | 69km/h | 8619m | 4.7m/s | -34.1°C | 84.3% | 341.1hPa | 2.9V | 00:00:00 | 00:00:00 | 00:00:00 | |
| DO3MHA-11 | 2026-09-02 10:10:33 | 47.82594 | 11.14515 | 102° | 68km/h | 8615m | 3.8m/s | -34.1°C | 84.7% | 341.3hPa | 2.9V | 02:56:00 | 00:41:42 | 00:00:00 | |
| DO3MHA-12 | 2026-09-02 10:10:28 | 47.82608 | 11.14388 | 99° | 69km/h | 8594m | 3.1m/s | -33.9°C | 83.3% | 342.3hPa | 2.9V | 00:00:00 | 00:41:37 | 00:00:00 | |
| DL6DJ-15 | 2026-09-02 10:10:27 | 47.82611 | 11.14363 | 99° | 66km/h | 8590m | 5.3m/s | -33.9°C | 76.9% | 342.6hPa | 2.9V | 00:00:00 | 00:00:00 | 00:00:00 | |
| DO3MHA-11 | 2026-09-02 10:10:23 | 47.82623 | 11.14262 | 101° | 71km/h | 8571m | 4.4m/s | -33.7°C | 83.5% | 343.4hPa | 2.9V | 00:00:00 | 00:41:32 | 00:00:00 | |
| DB0ND-19 | 2026-09-02 10:10:20 | 47.82639 | 11.14157 | 102° | 71km/h | 8553m | 3.5m/s | -33.6°C | 78.1% | 344.3hPa | 2.9V | 00:00:00 | 00:00:00 | 00:00:00 | |
| DO3MHA-12 | 2026-09-02 10:10:18 | 47.82643 | 11.14131 | 104° | 71km/h | 8549m | 5.2m/s | -33.5°C | 83.8% | 344.5hPa | 2.9V | 02:56:00 | 00:41:27 | 00:00:00 | |
| OE5DRO-10 | 2026-09-02 10:10:17 | 47.82647 | 11.14105 | 103° | 71km/h | 8545m | 3.2m/s | -33.5°C | 83.9% | 344.6hPa | 2.9V | 00:00:00 | 00:00:00 | 00:00:00 | |
| OE5DXL-15 | 2026-09-02 10:10:13 | 47.82662 | 11.13999 | 102° | 71km/h | 8526m | 4.3m/s | -33.3°C | 84.0% | 345.6hPa | 2.9V | 02:56:00 | 00:00:00 | 00:00:00 | |
| DG1MJG | 2026-09-02 10:10:12 | 47.82662 | 11.13999 | 103° | 71km/h | 8526m | 4.4m/s | -33.4°C | 78.0% | 345.6hPa | 2.9V | 02:57:00 | 00:00:00 | 00:00:00 | |
| DO3MHA-12 | 2026-09-02 10:10:08 | 47.82680 | 11.13872 | 104° | 71km/h | 8505m | 5.1m/s | -33.1°C | 83.9% | 346.6hPa | 2.9V | 00:00:00 | 00:41:17 | 00:00:00 | |
| DH7VM-15 | 2026-09-02 10:10:06 | 47.82684 | 11.13846 | 105° | 71km/h | 8501m | 3.0m/s | 0°C | 0% | 0hPa | 2.9V | 00:00:00 | 00:00:00 | 00:00:00 | |
| DB0UT-7 | 2026-09-02 10:10:04 | 47.82697 | 11.13768 | 103° | 71km/h | 8488m | 4.2m/s | -33.0°C | 82.7% | 347.5hPa | 2.9V | 00:00:00 | 00:41:13 | 00:00:00 | |
| DO3MHA-11 | 2026-09-02 10:10:03 | 47.82701 | 11.13742 | 103° | 71km/h | 8484m | 4.1m/s | -33.0°C | 82.9% | 347.6hPa | 2.9V | 02:57:00 | 00:41:12 | 00:00:00 | |
| DL6DJ-15 | 2026-09-02 10:09:56 | 47.82728 | 11.13556 | 101° | 71km/h | 8452m | 4.2m/s | -32.8°C | 78.3% | 349.3hPa | 2.9V | 00:00:00 | 00:00:00 | 00:00:00 | |
| DO3MHA-11 | 2026-09-02 10:09:53 | 47.82738 | 11.13477 | 102° | 71km/h | 8439m | 4.2m/s | -32.7°C | 83.6% | 349.9hPa | 2.9V | 00:00:00 | 00:41:02 | 00:00:00 | |
| NBG1-10 | 2026-09-02 10:09:51 | 47.82746 | 11.13423 | 102° | 71km/h | 8430m | 3.8m/s | -32.7°C | 83.6% | 350.4hPa | 2.9V | 02:57:00 | 00:41:00 | 00:00:00 | |
| DB0NH | 2026-09-02 10:09:48 | 47.82756 | 11.13344 | 100° | 71km/h | 8416m | 4.8m/s | 0°C | 0% | 0hPa | 2.9V | 00:00:00 | 00:40:57 | 00:00:00 | |
| OE5DXL-15 | 2026-09-02 10:09:43 | 47.82771 | 11.13213 | 102° | 71km/h | 8393m | 4.4m/s | -32.5°C | 88.5% | 352.1hPa | 2.9V | 00:00:00 | 00:00:00 | 00:00:00 | |
| DG1MJG | 2026-09-02 10:09:42 | 47.82772 | 11.13213 | 103° | 71km/h | 8393m | 4.5m/s | -32.6°C | 82.4% | 352.2hPa | 2.9V | 02:57:00 | 00:00:00 | 00:00:00 | |
| OE5DRO-10 | 2026-09-02 10:09:39 | 47.82790 | 11.13108 | 105° | 73km/h | 8377m | 3.6m/s | -32.4°C | 89.7% | 353.0hPa | 2.9V | 00:00:00 | 00:00:00 | 00:00:00 | |
| DO3MHA-12 | 2026-09-02 10:09:38 | 47.82794 | 11.13082 | 105° | 73km/h | 8373m | 4.1m/s | -32.4°C | 89.6% | 353.2hPa | 2.9V | 00:00:00 | 00:40:47 | 00:00:00 | |
| DB0UT-7 | 2026-09-02 10:09:34 | 47.82814 | 11.12976 | 107° | 71km/h | 8355m | 3.9m/s | -32.2°C | 88.9% | 354.1hPa | 2.9V | 02:57:00 | 00:00:00 | 00:00:00 | |
| DO3MHA-11 | 2026-09-02 10:09:33 | 47.82820 | 11.12949 | 108° | 73km/h | 8350m | 4.8m/s | -32.2°C | 89.2% | 354.3hPa | 2.9V | 02:57:00 | 00:40:42 | 00:00:00 | |
| DO3MHA-12 | 2026-09-02 10:09:28 | 47.82848 | 11.12818 | 108° | 71km/h | 8330m | 5.0m/s | -32.0°C | 89.1% | 355.4hPa | 2.9V | 00:00:00 | 00:40:37 | 00:00:00 | |
| DL6DJ-15 | 2026-09-02 10:09:25 | 47.82864 | 11.12741 | 107° | 69km/h | 8316m | 5.5m/s | -32.0°C | 82.0% | 356.1hPa | 2.9V | 00:00:00 | 00:00:00 | 00:00:00 | |
| DO3MHA-11 | 2026-09-02 10:09:23 | 47.82875 | 11.12690 | 107° | 69km/h | 8306m | 5.1m/s | -31.8°C | 87.3% | 356.6hPa | 2.9V | 00:00:00 | 00:40:32 | 00:00:00 | |
| OE5DRO-10 | 2026-09-02 10:09:20 | 47.82891 | 11.12614 | 109° | 71km/h | 8293m | 3.8m/s | -31.7°C | 86.1% | 357.2hPa | 2.9V | 00:00:00 | 00:00:00 | 00:00:00 | |
| DO3MHA-12 | 2026-09-02 10:09:18 | 47.82902 | 11.12565 | 109° | 71km/h | 8284m | 3.6m/s | -31.6°C | 85.7% | 357.7hPa | 2.9V | 02:57:00 | 00:40:27 | 00:00:00 | |
| DO3MHA-11 | 2026-09-02 10:09:13 | 47.82930 | 11.12440 | 109° | 73km/h | 8262m | 3.7m/s | -31.4°C | 84.7% | 358.8hPa | 2.9V | 00:00:00 | 00:40:22 | 00:00:00 | |
| OE3JTB-15 | 2026-09-02 10:09:12 | 47.82936 | 11.12413 | 108° | 71km/h | 8258m | 5.2m/s | 0°C | 0% | 0hPa | 2.9V | 00:00:00 | 00:40:21 | 00:00:00 | |
| DO3MHA-12 | 2026-09-02 10:09:08 | 47.82959 | 11.12309 | 109° | 73km/h | 8240m | 4.3m/s | -31.2°C | 83.3% | 359.9hPa | 2.9V | 00:00:00 | 00:40:17 | 00:00:00 | |
| DH7VM-15 | 2026-09-02 10:09:06 | 47.82965 | 11.12283 | 110° | 73km/h | 8236m | 4.7m/s | 0°C | 0% | 0hPa | 2.9V | 00:00:00 | 00:00:00 | 00:00:00 | |
| DB0UT-7 | 2026-09-02 10:09:04 | 47.82982 | 11.12206 | 107° | 73km/h | 8222m | 4.6m/s | -31.0°C | 82.1% | 360.8hPa | 2.9V | 00:00:00 | 00:40:13 | 00:00:00 | |
| DO3MHA-11 | 2026-09-02 10:09:03 | 47.82988 | 11.12180 | 108° | 73km/h | 8218m | 4.4m/s | -31.0°C | 81.7% | 361.1hPa | 2.9V | 02:58:00 | 00:40:12 | 00:00:00 | |
| DL6DJ-15 | 2026-09-02 10:08:54 | 47.83039 | 11.11946 | 109° | 71km/h | 8176m | 5.2m/s | 0°C | -1.0% | 363.2hPa | 2.9V | 00:00:00 | 00:00:00 | 00:00:00 | |
| DB0ND-19 | 2026-09-02 10:08:47 | 47.83086 | 11.11739 | 108° | 75km/h | 8139m | 6.1m/s | -30.3°C | 73.5% | 365.1hPa | 2.9V | 00:00:00 | 00:00:00 | 00:00:00 | |
| DB0NH | 2026-09-02 10:08:46 | 47.83086 | 11.11739 | 109° | 73km/h | 8139m | 6.0m/s | 0°C | 0% | 0hPa | 2.9V | 00:00:00 | 00:39:55 | 00:00:00 | |
| NBG1-10 | 2026-09-02 10:08:45 | 47.83092 | 11.11713 | 109° | 73km/h | 8134m | 4.4m/s | -30.2°C | 79.2% | 365.4hPa | 2.9V | 00:00:00 | 00:39:54 | 00:00:00 | |
| DO3MHA-11 | 2026-09-02 10:08:43 | 47.83103 | 11.11661 | 108° | 71km/h | 8124m | 4.0m/s | -30.2°C | 80.5% | 365.8hPa | 2.9V | 00:00:00 | 00:39:52 | 00:00:00 | |
| OE5DRO-10 | 2026-09-02 10:08:42 | 47.83108 | 11.11635 | 109° | 73km/h | 8120m | 5.5m/s | -30.2°C | 80.7% | 366.1hPa | 2.9V | 00:00:00 | 00:00:00 | 00:00:00 | |
| DG1MJG | 2026-09-02 10:08:41 | 47.83108 | 11.11635 | 110° | 71km/h | 8120m | 5.5m/s | -30.2°C | 75.5% | 366.2hPa | 2.9V | 02:59:00 | 00:00:00 | 00:00:00 | |
| OE3JTB-15 | 2026-09-02 10:08:39 | 47.83125 | 11.11558 | 108° | 73km/h | 8105m | 4.4m/s | 0°C | 0% | 0hPa | 2.9V | 00:00:00 | 00:00:00 | 00:00:00 | |
| DO3MHA-12 | 2026-09-02 10:08:38 | 47.83130 | 11.11532 | 108° | 73km/h | 8101m | 4.9m/s | -30.0°C | 81.1% | 367.1hPa | 2.9V | 00:00:00 | 00:39:47 | 00:00:00 | |
| DB0UT-7 | 2026-09-02 10:08:34 | 47.83153 | 11.11429 | 110° | 71km/h | 8083m | 4.2m/s | -29.8°C | 80.5% | 368.0hPa | 2.9V | 00:00:00 | 00:00:00 | 00:00:00 | |
| DO3MHA-11 | 2026-09-02 10:08:33 | 47.83159 | 11.11403 | 110° | 73km/h | 8078m | 4.9m/s | -29.8°C | 80.1% | 368.2hPa | 2.9V | 02:58:00 | 00:39:42 | 00:00:00 | |
| DO3MHA-12 | 2026-09-02 10:08:28 | 47.83190 | 11.11270 | 109° | 73km/h | 8056m | 3.8m/s | -29.6°C | 80.6% | 369.5hPa | 2.7V | 00:00:00 | 00:39:37 | 00:00:00 | |
| DO3MHA-11 | 2026-09-02 10:08:23 | 47.83220 | 11.11141 | 111° | 73km/h | 8032m | 4.3m/s | -29.5°C | 82.1% | 370.7hPa | 2.7V | 00:00:00 | 00:39:32 | 00:00:00 | |
| DO3MHA-12 | 2026-09-02 10:08:18 | 47.83250 | 11.11014 | 110° | 75km/h | 8008m | 5.2m/s | -29.5°C | 86.8% | 371.9hPa | 2.7V | 02:58:00 | 00:39:27 | 00:00:00 | |
| DB0ND-19 | 2026-09-02 10:08:16 | 47.83271 | 11.10935 | 113° | 77km/h | 7994m | 3.7m/s | -29.5°C | 82.2% | 372.7hPa | 2.9V | 00:00:00 | 00:00:00 | 00:00:00 | |
| DO3MHA-11 | 2026-09-02 10:08:13 | 47.83287 | 11.10882 | 114° | 66km/h | 7985m | 4.7m/s | -29.5°C | 88.5% | 373.0hPa | 2.9V | 00:00:00 | 00:39:22 | 00:00:00 | |
| NBG1-10 | 2026-09-02 10:08:12 | 47.83295 | 11.10855 | 114° | 71km/h | 7980m | 4.7m/s | -29.5°C | 89.9% | 373.3hPa | 2.9V | 02:58:00 | 00:39:21 | 00:00:00 | |
| DG1MJG | 2026-09-02 10:08:10 | 47.83302 | 11.10829 | 114° | 75km/h | 7976m | 4.5m/s | -29.5°C | 84.5% | 373.7hPa | 2.9V | 02:59:00 | 00:00:00 | 00:00:00 | |
| DO3MHA-12 | 2026-09-02 10:08:08 | 47.83322 | 11.10759 | 113° | 62km/h | 7962m | 4.4m/s | -29.4°C | 90.7% | 374.3hPa | 2.9V | 00:00:00 | 00:39:17 | 00:00:00 | |
| DB0UT-7 | 2026-09-02 10:08:04 | 47.83341 | 11.10674 | 108° | 71km/h | 7945m | 4.8m/s | -29.4°C | 93.7% | 375.2hPa | 2.9V | 02:59:00 | 00:39:13 | 00:00:00 | |
| DO3MHA-11 | 2026-09-02 10:08:03 | 47.83346 | 11.10651 | 113° | 66km/h | 7940m | 5.2m/s | -29.4°C | 94.1% | 375.5hPa | 2.9V | 02:59:00 | 00:39:12 | 00:00:00 | |
| DL6DJ-15 | 2026-09-02 10:07:52 | 47.83419 | 11.10393 | 107° | 82km/h | 7870m | 8.4m/s | -28.9°C | 84.4% | 379.2hPa | 2.9V | 00:00:00 | 00:00:00 | 00:00:00 | |
| DO3MHA-12 | 2026-09-02 10:07:48 | 47.83436 | 11.10279 | 103° | 73km/h | 7841m | 10.0m/s | -28.7°C | 88.6% | 380.6hPa | 2.9V | 02:59:00 | 00:38:57 | 00:00:00 | |
| OE5DRO-10 | 2026-09-02 10:07:45 | 47.83450 | 11.10201 | 105° | 75km/h | 7822m | 6.2m/s | -28.6°C | 89.1% | 381.6hPa | 2.9V | 00:00:00 | 00:00:00 | 00:00:00 | |
| DO3MHA-11 | 2026-09-02 10:07:43 | 47.83456 | 11.10153 | 96° | 73km/h | 7811m | 5.4m/s | -28.5°C | 90.2% | 382.2hPa | 2.9V | 00:00:00 | 00:38:52 | 00:00:00 | |
| NBG1-10 | 2026-09-02 10:07:39 | 47.83465 | 11.10041 | 104° | 77km/h | 7785m | 7.7m/s | -28.5°C | 90.1% | 383.6hPa | 2.9V | 00:00:00 | 00:38:48 | 00:00:00 | |
| DO3MHA-12 | 2026-09-02 10:07:38 | 47.83471 | 11.10012 | 110° | 78km/h | 7778m | 6.5m/s | -28.5°C | 89.6% | 384.0hPa | 2.9V | 00:00:00 | 00:38:47 | 00:00:00 | |
| DB0UT-7 | 2026-09-02 10:07:34 | 47.83494 | 11.09912 | 103° | 77km/h | 7756m | 5.9m/s | -28.4°C | 90.2% | 385.3hPa | 2.9V | 00:00:00 | 00:00:00 | 00:00:00 | |
| DO3MHA-11 | 2026-09-02 10:07:33 | 47.83497 | 11.09883 | 98° | 80km/h | 7750m | 6.4m/s | -28.4°C | 89.6% | 385.6hPa | 2.9V | 02:59:00 | 00:38:42 | 00:00:00 | |
| DO3MHA-12 | 2026-09-02 10:07:28 | 47.83507 | 11.09727 | 97° | 77km/h | 7711m | 5.9m/s | -28.4°C | 87.4% | 387.8hPa | 2.9V | 00:00:00 | 00:38:37 | 00:00:00 | |
| OE5DRO-10 | 2026-09-02 10:07:26 | 47.83510 | 11.09672 | 95° | 77km/h | 7701m | 5.3m/s | -28.4°C | 87.1% | 388.2hPa | 2.9V | 00:00:00 | 00:00:00 | 00:00:00 | |
| DO3MHA-11 | 2026-09-02 10:07:23 | 47.83511 | 11.09583 | 89° | 77km/h | 7686m | 4.9m/s | -28.3°C | 85.6% | 389.1hPa | 2.9V | 00:00:00 | 00:38:32 | 00:00:00 | |
| DL6DJ-15 | 2026-09-02 10:07:21 | 47.83511 | 11.09495 | 89° | 75km/h | 7672m | 5.5m/s | -28.2°C | 80.2% | 389.9hPa | 2.9V | 00:00:00 | 00:00:00 | 00:00:00 | |
| DO3MHA-12 | 2026-09-02 10:07:18 | 47.83511 | 11.09438 | 92° | 77km/h | 7662m | 4.6m/s | -28.0°C | 84.6% | 390.4hPa | 2.9V | 02:59:00 | 00:38:27 | 00:00:00 | |
| DB0ND-19 | 2026-09-02 10:07:14 | 47.83514 | 11.09294 | 91° | 77km/h | 7640m | 4.1m/s | -27.9°C | 78.9% | 391.6hPa | 2.7V | 00:00:00 | 00:00:00 | 00:00:00 | |
| DO3MHA-11 | 2026-09-02 10:07:13 | 47.83514 | 11.09294 | 92° | 75km/h | 7640m | 4.1m/s | -27.8°C | 83.7% | 391.6hPa | 2.7V | 00:00:00 | 00:38:22 | 00:00:00 | |
| DG1MJG | 2026-09-02 10:07:09 | 47.83514 | 11.09205 | 90° | 77km/h | 7625m | 5.7m/s | -27.8°C | 77.8% | 392.4hPa | 2.7V | 03:00:00 | 00:00:00 | 00:00:00 | |
| DO3MHA-12 | 2026-09-02 10:07:07 | 47.83512 | 11.09121 | 88° | 77km/h | 7612m | 4.4m/s | -27.7°C | 76.4% | 393.1hPa | 2.7V | 03:00:00 | 00:38:16 | 00:00:00 | |
| NBG1-10 | 2026-09-02 10:07:06 | 47.83511 | 11.09094 | 89° | 73km/h | 7606m | 6.7m/s | -27.8°C | 69.3% | 393.4hPa | 2.7V | 00:00:00 | 00:38:15 | 00:00:00 | |
| DB0UT-7 | 2026-09-02 10:07:04 | 47.83510 | 11.09039 | 90° | 73km/h | 7596m | 5.3m/s | -27.8°C | 66.5% | 393.9hPa | 2.7V | 00:00:00 | 00:38:13 | 00:00:00 | |
| DL6DJ-15 | 2026-09-02 10:06:50 | 47.83499 | 11.08594 | 88° | 69km/h | 7525m | 4.1m/s | -27.2°C | 60.7% | 398.0hPa | 2.7V | 00:00:00 | 00:00:00 | 00:00:00 | |
| OE5DRO-10 | 2026-09-02 10:06:48 | 47.83499 | 11.08593 | 89° | 71km/h | 7526m | 4.1m/s | -27.2°C | 64.6% | 397.9hPa | 2.7V | 00:00:00 | 00:00:00 | 00:00:00 | |
| DO3MHA-12 | 2026-09-02 10:06:46 | 47.83499 | 11.08540 | 89° | 71km/h | 7517m | 3.6m/s | -27.1°C | 64.5% | 398.4hPa | 2.7V | 00:00:00 | 00:37:55 | 00:00:00 | |
| OE5DXL-15 | 2026-09-02 10:06:43 | 47.83497 | 11.08458 | 89° | 68km/h | 7504m | 4.8m/s | -27.0°C | 65.8% | 399.0hPa | 2.9V | 00:00:00 | 00:00:00 | 00:00:00 | |
| DB0ND-19 | 2026-09-02 10:06:42 | 47.83496 | 11.08431 | 88° | 73km/h | 7500m | 3.7m/s | -27.0°C | 62.0% | 399.4hPa | 2.9V | 00:00:00 | 00:00:00 | 00:00:00 | |
| DG1MJG | 2026-09-02 10:06:38 | 47.83493 | 11.08349 | 87° | 69km/h | 7488m | 4.3m/s | -26.9°C | 60.1% | 400.0hPa | 2.9V | 03:00:00 | 00:00:00 | 00:00:00 | |
| DO3MHA-12 | 2026-09-02 10:06:36 | 47.83488 | 11.08273 | 84° | 69km/h | 7475m | 5.2m/s | -26.8°C | 62.0% | 400.7hPa | 2.9V | 00:00:00 | 00:37:45 | 00:00:00 | |
| DB0UT-7 | 2026-09-02 10:06:34 | 47.83486 | 11.08224 | 87° | 66km/h | 7467m | 5.1m/s | -26.7°C | 61.9% | 401.2hPa | 2.9V | 00:00:00 | 00:00:00 | 00:00:00 | |
| DO3MHA-11 | 2026-09-02 10:06:33 | 47.83484 | 11.08198 | 88° | 69km/h | 7462m | 4.0m/s | -26.7°C | 61.8% | 401.4hPa | 2.7V | 00:00:00 | 00:37:42 | 00:00:00 | |
| OE5DRO-10 | 2026-09-02 10:06:29 | 47.83483 | 11.08091 | 87° | 66km/h | 7445m | 4.0m/s | -26.6°C | 60.1% | 402.4hPa | 2.9V | 00:00:00 | 00:00:00 | 00:00:00 | |
| DO3MHA-12 | 2026-09-02 10:06:26 | 47.83480 | 11.08012 | 88° | 68km/h | 7432m | 5.2m/s | -26.5°C | 52.4% | 403.1hPa | 2.9V | 03:00:00 | 00:37:35 | 00:00:00 | |
| DO3MHA-11 | 2026-09-02 10:06:23 | 47.83479 | 11.07938 | 92° | 64km/h | 7417m | 5.6m/s | -26.7°C | 28.9% | 403.9hPa | 2.9V | 00:00:00 | 00:37:32 | 00:00:00 | |
| DL6DJ-15 | 2026-09-02 10:06:19 | 47.83478 | 11.07811 | 85° | 66km/h | 7390m | 5.7m/s | -26.5°C | 22.2% | 405.4hPa | 2.9V | 00:00:00 | 00:00:00 | 00:00:00 | |
| DO3MHA-12 | 2026-09-02 10:06:16 | 47.83474 | 11.07763 | 85° | 60km/h | 7381m | 5.6m/s | -26.4°C | 24.4% | 405.9hPa | 2.9V | 00:00:00 | 00:37:25 | 00:00:00 | |
| DO3MHA-11 | 2026-09-02 10:06:13 | 47.83471 | 11.07698 | 89° | 60km/h | 7365m | 6.9m/s | -26.3°C | 25.3% | 406.7hPa | 2.9V | 03:00:00 | 00:37:22 | 00:00:00 | |
| DB0ND-19 | 2026-09-02 10:06:11 | 47.83471 | 11.07652 | 90° | 62km/h | 7354m | 4.4m/s | -26.2°C | 24.8% | 407.5hPa | 2.9V | 00:00:00 | 00:00:00 | 00:00:00 | |
| OE5DRO-10 | 2026-09-02 10:06:10 | 47.83471 | 11.07629 | 89° | 60km/h | 7350m | 4.8m/s | -26.1°C | 26.8% | 407.8hPa | 2.9V | 00:00:00 | 00:00:00 | 00:00:00 | |
| DG1MJG | 2026-09-02 10:06:07 | 47.83468 | 11.07583 | 82° | 62km/h | 7340m | 4.9m/s | -26.1°C | 24.9% | 408.4hPa | 2.9V | 03:01:00 | 00:00:00 | 00:00:00 | |
| DB0UT-7 | 2026-09-02 10:06:04 | 47.83460 | 11.07492 | 85° | 62km/h | 7319m | 7.2m/s | -25.9°C | 26.2% | 409.4hPa | 2.9V | 03:01:00 | 00:37:13 | 00:00:00 | |
| DL6DJ-15 | 2026-09-02 10:05:48 | 47.83426 | 11.07108 | 83° | 58km/h | 7240m | 4.8m/s | -25.2°C | 24.0% | 414.0hPa | 2.9V | 00:00:00 | 00:00:00 | 00:00:00 | |
| DO3MHA-12 | 2026-09-02 10:05:46 | 47.83424 | 11.07085 | 84° | 62km/h | 7236m | 4.2m/s | -25.1°C | 26.0% | 414.3hPa | 2.9V | 03:01:00 | 00:36:55 | 00:00:00 | |
| DO3MHA-11 | 2026-09-02 10:05:43 | 47.83420 | 11.07015 | 86° | 62km/h | 7222m | 5.9m/s | -25.0°C | 26.5% | 415.0hPa | 2.7V | 00:00:00 | 00:36:52 | 00:00:00 | |
| DO3MHA-12 | 2026-09-02 10:05:36 | 47.83407 | 11.06854 | 82° | 62km/h | 7191m | 4.0m/s | -24.7°C | 26.0% | 416.8hPa | 2.7V | 00:00:00 | 00:36:45 | 00:00:00 | |
| DB0UT-7 | 2026-09-02 10:05:34 | 47.83402 | 11.06808 | 83° | 62km/h | 7183m | 5.2m/s | -24.6°C | 25.8% | 417.3hPa | 2.7V | 00:00:00 | 00:00:00 | 00:00:00 | |
| DO3MHA-11 | 2026-09-02 10:05:33 | 47.83400 | 11.06784 | 83° | 62km/h | 7178m | 4.2m/s | -24.5°C | 25.7% | 417.5hPa | 2.7V | 03:01:00 | 00:36:42 | 00:00:00 | |
| OE5DRO-10 | 2026-09-02 10:05:32 | 47.83398 | 11.06761 | 84° | 64km/h | 7173m | 5.2m/s | -24.5°C | 25.6% | 417.7hPa | 2.9V | 00:00:00 | 00:00:00 | 00:00:00 | |
| NBG1-10 | 2026-09-02 10:05:27 | 47.83390 | 11.06644 | 86° | 62km/h | 7150m | 4.2m/s | -24.3°C | 25.3% | 419.0hPa | 2.9V | 00:00:00 | 00:36:36 | 00:00:00 | |
| DO3MHA-12 | 2026-09-02 10:05:26 | 47.83389 | 11.06620 | 86° | 64km/h | 7145m | 5.6m/s | -24.3°C | 25.2% | 419.2hPa | 2.9V | 00:00:00 | 00:36:35 | 00:00:00 | |
| DO3MHA-11 | 2026-09-02 10:05:23 | 47.83386 | 11.06550 | 87° | 64km/h | 7132m | 3.8m/s | -24.2°C | 24.3% | 419.9hPa | 2.9V | 00:00:00 | 00:36:32 | 00:00:00 | |
| DL6DJ-15 | 2026-09-02 10:05:17 | 47.83375 | 11.06382 | 83° | 62km/h | 7101m | 4.1m/s | -23.9°C | 19.6% | 421.9hPa | 2.9V | 00:00:00 | 00:00:00 | 00:00:00 | |
| DO3MHA-12 | 2026-09-02 10:05:16 | 47.83375 | 11.06382 | 84° | 62km/h | 7101m | 4.1m/s | -23.9°C | 21.2% | 421.9hPa | 2.9V | 00:00:00 | 00:36:25 | 00:00:00 | |
| DO3MHA-11 | 2026-09-02 10:05:13 | 47.83370 | 11.06312 | 85° | 62km/h | 7088m | 4.9m/s | -23.8°C | 20.6% | 422.5hPa | 2.9V | 00:00:00 | 00:36:22 | 00:00:00 | |
| DO3MHA-12 | 2026-09-02 10:05:06 | 47.83364 | 11.06153 | 88° | 64km/h | 7059m | 3.8m/s | -23.5°C | 19.6% | 424.2hPa | 2.9V | 03:02:00 | 00:36:15 | 00:00:00 | |
| DG1MJG | 2026-09-02 10:05:05 | 47.83364 | 11.06153 | 88° | 66km/h | 7059m | 3.8m/s | -23.6°C | 18.1% | 424.3hPa | 2.9V | 03:02:00 | 00:00:00 | 00:00:00 | |
| DO3MHA-11 | 2026-09-02 10:05:03 | 47.83361 | 11.06080 | 86° | 64km/h | 7047m | 5.0m/s | -23.4°C | 18.9% | 425.0hPa | 2.9V | 00:00:00 | 00:36:12 | 00:00:00 | |
| DL6DJ-15 | 2026-09-02 10:04:46 | 47.83348 | 11.05640 | 86° | 66km/h | 6966m | 3.8m/s | -22.7°C | 15.6% | 429.8hPa | 2.7V | 00:00:00 | 00:00:00 | 00:00:00 | |
| DO3MHA-11 | 2026-09-02 10:04:43 | 47.83346 | 11.05590 | 87° | 68km/h | 6957m | 4.3m/s | -22.6°C | 16.3% | 430.2hPa | 2.7V | 00:00:00 | 00:35:52 | 00:00:00 | |
| DB0ND-19 | 2026-09-02 10:04:38 | 47.83340 | 11.05442 | 86° | 66km/h | 6928m | 5.5m/s | -22.4°C | 14.2% | 431.9hPa | 2.7V | 00:00:00 | 00:00:00 | 00:00:00 | |
| DO3MHA-12 | 2026-09-02 10:04:36 | 47.83339 | 11.05417 | 88° | 68km/h | 6924m | 3.9m/s | -22.3°C | 15.5% | 432.1hPa | 2.7V | 00:00:00 | 00:35:45 | 00:00:00 | |
| OE5DRO-10 | 2026-09-02 10:04:35 | 47.83338 | 11.05392 | 88° | 68km/h | 6919m | 5.1m/s | 0°C | 0% | 0hPa | 2.7V | 03:02:00 | 00:00:00 | 00:00:00 | |
| DB0UT-7 | 2026-09-02 10:04:34 | 47.83337 | 11.05366 | 86° | 69km/h | 6915m | 3.6m/s | -22.2°C | 15.3% | 432.6hPa | 2.7V | 00:00:00 | 00:00:00 | 00:00:00 | |
| DO3MHA-11 | 2026-09-02 10:04:33 | 47.83336 | 11.05339 | 86° | 68km/h | 6910m | 6.2m/s | -22.2°C | 15.2% | 433.0hPa | 2.7V | 00:00:00 | 00:35:42 | 00:00:00 | |
| DO3MHA-12 | 2026-09-02 10:04:26 | 47.83327 | 11.05162 | 86° | 69km/h | 6879m | 3.4m/s | -21.9°C | 15.1% | 434.8hPa | 2.9V | 03:02:00 | 00:35:35 | 00:00:00 | |
| DO3MHA-11 | 2026-09-02 10:04:23 | 47.83323 | 11.05086 | 86° | 69km/h | 6865m | 4.5m/s | -21.8°C | 15.1% | 435.6hPa | 2.9V | 00:00:00 | 00:35:32 | 00:00:00 | |
| NBG1-10 | 2026-09-02 10:04:21 | 47.83320 | 11.05034 | 85° | 69km/h | 6856m | 5.9m/s | -21.7°C | 15.1% | 436.1hPa | 2.9V | 03:02:00 | 00:35:30 | 00:00:00 | |
| DO3MHA-12 | 2026-09-02 10:04:16 | 47.83314 | 11.04906 | 88° | 69km/h | 6835m | 4.8m/s | -21.5°C | 15.1% | 437.5hPa | 2.9V | 00:00:00 | 00:35:25 | 00:00:00 | |
| DL6DJ-15 | 2026-09-02 10:04:15 | 47.83313 | 11.04855 | 88° | 68km/h | 6826m | 4.5m/s | -21.5°C | 13.9% | 437.9hPa | 2.9V | 00:00:00 | 00:00:00 | 00:00:00 | |
| DO3MHA-11 | 2026-09-02 10:04:13 | 47.83313 | 11.04829 | 89° | 69km/h | 6822m | 3.5m/s | -21.4°C | 15.0% | 438.2hPa | 2.9V | 03:02:00 | 00:35:22 | 00:00:00 | |
| DB0ND-19 | 2026-09-02 10:04:07 | 47.83308 | 11.04673 | 87° | 69km/h | 6797m | 4.1m/s | 0°C | -1.0% | 439.8hPa | 2.9V | 00:00:00 | 00:00:00 | 00:00:00 | |
| DO3MHA-12 | 2026-09-02 10:04:06 | 47.83307 | 11.04646 | 88° | 69km/h | 6793m | 4.9m/s | -21.2°C | 15.1% | 439.9hPa | 2.9V | 00:00:00 | 00:35:15 | 00:00:00 | |
| DB0UT-7 | 2026-09-02 10:04:04 | 47.83305 | 11.04594 | 88° | 69km/h | 6784m | 5.8m/s | -21.1°C | 15.1% | 440.4hPa | 2.9V | 03:03:00 | 00:35:13 | 00:00:00 | |
| DO3MHA-11 | 2026-09-02 10:04:03 | 47.83304 | 11.04567 | 88° | 69km/h | 6779m | 3.7m/s | -21.0°C | 15.0% | 440.8hPa | 2.9V | 00:00:00 | 00:35:12 | 00:00:00 | |
| DB0NH | 2026-09-02 10:03:57 | 47.83304 | 11.04413 | 90° | 49km/h | 6754m | 4.9m/s | 0°C | 0% | 0hPa | 2.9V | 00:00:00 | 00:35:06 | 00:00:00 | |
| DO3MHA-12 | 2026-09-02 10:03:56 | 47.83304 | 11.04387 | 89° | 69km/h | 6749m | 4.5m/s | -20.8°C | 15.4% | 442.5hPa | 2.9V | 00:00:00 | 00:35:05 | 00:00:00 | |
| OE5DRO-10 | 2026-09-02 10:03:55 | 47.83303 | 11.04361 | 89° | 69km/h | 6745m | 4.3m/s | 0°C | 0% | 0hPa | 2.9V | 00:00:00 | 00:00:00 | 00:00:00 | |
| DO3MHA-11 | 2026-09-02 10:03:53 | 47.83302 | 11.04311 | 88° | 71km/h | 6736m | 4.1m/s | -20.7°C | 16.0% | 443.3hPa | 2.9V | 00:00:00 | 00:35:02 | 00:00:00 | |
| NBG1-10 | 2026-09-02 10:03:48 | 47.83298 | 11.04180 | 87° | 71km/h | 6714m | 5.3m/s | -20.5°C | 16.2% | 444.6hPa | 2.9V | 00:00:00 | 00:34:57 | 00:00:00 | |
| DO3MHA-12 | 2026-09-02 10:03:46 | 47.83296 | 11.04125 | 87° | 71km/h | 6705m | 4.8m/s | -20.4°C | 16.4% | 445.0hPa | 2.9V | 03:03:00 | 00:34:55 | 00:00:00 | |
| DL6DJ-15 | 2026-09-02 10:03:44 | 47.83294 | 11.04045 | 88° | 71km/h | 6693m | 4.3m/s | -20.4°C | 15.0% | 445.8hPa | 2.9V | 00:00:00 | 00:00:00 | 00:00:00 | |
| DO3MHA-11 | 2026-09-02 10:03:43 | 47.83294 | 11.04045 | 89° | 71km/h | 6693m | 4.3m/s | -20.3°C | 16.1% | 445.8hPa | 2.9V | 00:00:00 | 00:34:52 | 00:00:00 | |
| DO3MHA-12 | 2026-09-02 10:03:36 | 47.83294 | 11.03855 | 92° | 71km/h | 6662m | 4.8m/s | -20.0°C | 15.3% | 447.6hPa | 2.9V | 00:00:00 | 00:34:45 | 00:00:00 | |
| DB0UT-7 | 2026-09-02 10:03:34 | 47.83294 | 11.03801 | 90° | 71km/h | 6653m | 4.5m/s | -20.0°C | 15.4% | 448.3hPa | 2.9V | 00:00:00 | 00:00:00 | 00:00:00 | |
| DO3MHA-11 | 2026-09-02 10:03:33 | 47.83294 | 11.03775 | 89° | 71km/h | 6649m | 4.0m/s | -19.9°C | 15.6% | 448.4hPa | 2.7V | 03:03:00 | 00:34:42 | 00:00:00 | |
| DO3MHA-12 | 2026-09-02 10:03:26 | 47.83291 | 11.03586 | 90° | 71km/h | 6619m | 3.3m/s | -19.7°C | 16.5% | 450.2hPa | 2.9V | 00:00:00 | 00:34:35 | 00:00:00 | |
| DO3MHA-11 | 2026-09-02 10:03:23 | 47.83292 | 11.03507 | 93° | 71km/h | 6606m | 4.5m/s | -19.6°C | 16.6% | 451.0hPa | 2.9V | 00:00:00 | 00:34:32 | 00:00:00 | |
| DO3MHA-12 | 2026-09-02 10:03:16 | 47.83299 | 11.03317 | 93° | 71km/h | 6577m | 2.7m/s | -19.4°C | 17.7% | 452.8hPa | 2.9V | 00:00:00 | 00:34:25 | 00:00:00 | |
| NBG1-10 | 2026-09-02 10:03:14 | 47.83299 | 11.03267 | 89° | 68km/h | 6569m | 3.8m/s | -19.3°C | 18.0% | 453.2hPa | 2.7V | 00:00:00 | 00:34:23 | 00:00:00 | |
| DO3MHA-11 | 2026-09-02 10:03:13 | 47.83299 | 11.03242 | 88° | 75km/h | 6564m | 4.5m/s | -19.3°C | 18.2% | 453.5hPa | 2.9V | 00:00:00 | 00:34:22 | 00:00:00 | |
| DL6DJ-15 | 2026-09-02 10:03:12 | 47.83298 | 11.03216 | 86° | 68km/h | 6560m | 3.9m/s | -19.3°C | 17.1% | 453.9hPa | 2.9V | 00:00:00 | 00:00:00 | 00:00:00 | |
| OE5DRO-10 | 2026-09-02 10:03:09 | 47.83294 | 11.03135 | 86° | 68km/h | 6548m | 4.3m/s | 0°C | 0% | 0hPa | 2.9V | 00:00:00 | 00:00:00 | 00:00:00 | |
| DO3MHA-12 | 2026-09-02 10:03:06 | 47.83291 | 11.03046 | 90° | 71km/h | 6534m | 5.0m/s | -19.1°C | 22.7% | 455.3hPa | 2.9V | 03:04:00 | 00:34:15 | 00:00:00 | |
| DB0UT-7 | 2026-09-02 10:03:04 | 47.83290 | 11.02989 | 87° | 64km/h | 6523m | 5.5m/s | -19.1°C | 27.6% | 456.1hPa | 2.9V | 00:00:00 | 00:34:13 | 00:00:00 | |
| DO3MHA-11 | 2026-09-02 10:03:03 | 47.83289 | 11.02964 | 89° | 71km/h | 6517m | 5.6m/s | -19.1°C | 29.0% | 456.3hPa | 2.9V | 00:00:00 | 00:34:12 | 00:00:00 | |
| DG1MJG | 2026-09-02 10:03:02 | 47.83289 | 11.02964 | 89° | 64km/h | 6517m | 5.7m/s | -19.1°C | 27.5% | 456.4hPa | 2.9V | 03:04:00 | 00:00:00 | 00:00:00 | |
| DO3MHA-12 | 2026-09-02 10:02:56 | 47.83302 | 11.02777 | 89° | 58km/h | 6477m | 5.4m/s | -18.9°C | 36.4% | 458.8hPa | 2.9V | 00:00:00 | 00:34:05 | 00:00:00 | |
| DO3MHA-11 | 2026-09-02 10:02:53 | 47.83293 | 11.02697 | 76° | 57km/h | 6462m | 6.1m/s | -18.8°C | 36.2% | 459.7hPa | 2.9V | 03:04:00 | 00:34:02 | 00:00:00 | |
| OE5DRO-10 | 2026-09-02 10:02:49 | 47.83287 | 11.02625 | 95° | 55km/h | 6436m | 5.6m/s | 0°C | 0% | 0hPa | 2.9V | 00:00:00 | 00:00:00 | 00:00:00 | |
| DO3MHA-12 | 2026-09-02 10:02:46 | 47.83295 | 11.02564 | 101° | 64km/h | 6422m | 4.1m/s | -18.4°C | 36.4% | 462.3hPa | 2.9V | 00:00:00 | 00:33:55 | 00:00:00 | |
| DO3MHA-11 | 2026-09-02 10:02:43 | 47.83296 | 11.02482 | 83° | 64km/h | 6410m | 5.0m/s | -18.3°C | 36.4% | 463.0hPa | 2.9V | 00:00:00 | 00:33:52 | 00:00:00 | |
| NBG1-10 | 2026-09-02 10:02:41 | 47.83289 | 11.02432 | 74° | 64km/h | 6401m | 3.7m/s | -18.3°C | 35.9% | 463.5hPa | 2.9V | 00:00:00 | 00:33:50 | 00:00:00 | |
| DO3MHA-12 | 2026-09-02 10:02:36 | 47.83290 | 11.02330 | 104° | 62km/h | 6379m | 4.5m/s | -18.1°C | 36.1% | 464.9hPa | 2.9V | 00:00:00 | 00:33:45 | 00:00:00 | |
| DB0UT-7 | 2026-09-02 10:02:34 | 47.83295 | 11.02273 | 89° | 66km/h | 6370m | 4.4m/s | 0°C | 0% | 0hPa | 2.9V | 00:00:00 | 00:00:00 | 00:00:00 | |
| DO3MHA-11 | 2026-09-02 10:02:33 | 47.83293 | 11.02244 | 81° | 60km/h | 6365m | 5.3m/s | -18.0°C | 36.3% | 465.7hPa | 2.9V | 00:00:00 | 00:33:42 | 00:00:00 | |
| DG1MJG | 2026-09-02 10:02:31 | 47.83289 | 11.02219 | 76° | 66km/h | 6360m | 5.9m/s | -18.0°C | 34.4% | 466.0hPa | 2.9V | 03:05:00 | 00:00:00 | 00:00:00 | |
| DO3MHA-12 | 2026-09-02 10:02:26 | 47.83299 | 11.02101 | 104° | 73km/h | 6331m | 4.9m/s | -17.7°C | 35.2% | 467.9hPa | 2.9V | 03:04:00 | 00:33:35 | 00:00:00 | |
| DO3MHA-11 | 2026-09-02 10:02:23 | 47.83297 | 11.02023 | 74° | 66km/h | 6313m | 4.4m/s | -17.5°C | 33.9% | 469.1hPa | 2.9V | 00:00:00 | 00:33:32 | 00:00:00 | |
| DO3MHA-12 | 2026-09-02 10:02:16 | 47.83301 | 11.01835 | 108° | 60km/h | 6278m | 7.2m/s | -17.3°C | 33.7% | 471.0hPa | 2.9V | 00:00:00 | 00:33:25 | 00:00:00 | |
| DO3MHA-11 | 2026-09-02 10:02:13 | 47.83294 | 11.01786 | 75° | 69km/h | 6263m | 4.3m/s | -17.1°C | 32.7% | 472.1hPa | 2.9V | 03:04:00 | 00:33:22 | 00:00:00 | |
| DL6DJ-15 | 2026-09-02 10:02:10 | 47.83295 | 11.01697 | 96° | 71km/h | 6251m | 5.2m/s | -17.1°C | -1.0% | 472.9hPa | 2.9V | 00:00:00 | 00:00:00 | 00:00:00 | |
| NBG1-10 | 2026-09-02 10:02:08 | 47.83291 | 11.01656 | 59° | 57km/h | 6236m | 4.8m/s | -17.0°C | 30.8% | 473.7hPa | 2.9V | 03:05:00 | 00:33:17 | 00:00:00 | |
| DO3MHA-12 | 2026-09-02 10:02:06 | 47.83283 | 11.01612 | 91° | 66km/h | 6226m | 7.3m/s | -16.9°C | 35.0% | 474.3hPa | 2.9V | 00:00:00 | 00:33:15 | 00:00:00 | |
| DB0UT-7 | 2026-09-02 10:02:04 | 47.83283 | 11.01557 | 79° | 57km/h | 6213m | 7.6m/s | 0°C | 0% | 0hPa | 2.9V | 03:05:00 | 00:33:13 | 00:00:00 | |
| DB0ND-19 | 2026-09-02 10:02:03 | 47.83312 | 11.01219 | 73° | 51km/h | 6127m | 11.0m/s | 0°C | -1.0% | -1.0hPa | 2.9V | 00:00:00 | 00:00:00 | 00:00:00 | |
| DG1MJG | 2026-09-02 10:02:00 | 47.83288 | 11.01491 | 95° | 69km/h | 6200m | 2.2m/s | -16.7°C | 33.9% | 476.4hPa | 2.9V | 03:05:00 | 00:00:00 | 00:00:00 | |
| DO3MHA-12 | 2026-09-02 10:01:56 | 47.83298 | 11.01373 | 70° | 66km/h | 6171m | 7.5m/s | -16.4°C | 33.6% | 478.0hPa | 2.9V | 00:00:00 | 00:33:05 | 00:00:00 | |
| DO3MHA-11 | 2026-09-02 10:01:53 | 47.83300 | 11.01308 | 88° | 64km/h | 6151m | 3.4m/s | -16.2°C | 33.0% | 479.5hPa | 2.9V | 00:00:00 | 00:33:02 | 00:00:00 | |
| DO3MHA-12 | 2026-09-02 10:01:46 | 47.83312 | 11.01152 | 76° | 57km/h | 6107m | 7.0m/s | -15.8°C | 32.1% | 482.0hPa | 2.9V | 03:05:00 | 00:32:55 | 00:00:00 | |
| DO3MHA-11 | 2026-09-02 10:01:43 | 47.83313 | 11.01079 | 78° | 55km/h | 6093m | 6.5m/s | -15.6°C | 31.9% | 483.1hPa | 2.9V | 00:00:00 | 00:32:52 | 00:00:00 | |
| DL6DJ-15 | 2026-09-02 10:01:39 | 47.83308 | 11.00999 | 78° | 42km/h | 6072m | 5.2m/s | -15.5°C | -1.0% | 484.4hPa | 2.9V | 00:00:00 | 00:00:00 | 00:00:00 | |
| DO3MHA-12 | 2026-09-02 10:01:36 | 47.83299 | 11.00947 | 95° | 55km/h | 6056m | 9.3m/s | -15.4°C | 32.6% | 485.3hPa | 2.9V | 00:00:00 | 00:32:45 | 00:00:00 | |
| NBG1-10 | 2026-09-02 10:01:34 | 47.83300 | 11.00910 | 109° | 55km/h | 6040m | 7.1m/s | -15.3°C | 33.9% | 486.2hPa | 2.9V | 00:00:00 | 00:32:43 | 00:00:00 | |
| DO3MHA-11 | 2026-09-02 10:01:33 | 47.83302 | 11.00886 | 84° | 53km/h | 6034m | 4.3m/s | -15.3°C | 34.9% | 486.7hPa | 2.9V | 03:05:00 | 00:32:42 | 00:00:00 | |
| DG1MJG | 2026-09-02 10:01:30 | 47.83305 | 11.00844 | 84° | 71km/h | 6026m | 9.8m/s | -15.2°C | 33.1% | 487.4hPa | 2.9V | 03:06:00 | 00:00:00 | 00:00:00 | |
| DO3MHA-12 | 2026-09-02 10:01:26 | 47.83301 | 11.00747 | 76° | 57km/h | 5996m | 8.7m/s | -14.9°C | 34.3% | 488.8hPa | 2.9V | 00:00:00 | 00:32:35 | 00:00:00 | |
| DO3MHA-11 | 2026-09-02 10:01:23 | 47.83306 | 11.00692 | 121° | 60km/h | 5975m | 2.8m/s | -14.9°C | 32.9% | 490.4hPa | 2.9V | 00:00:00 | 00:32:32 | 00:00:00 | |
| DO3MHA-12 | 2026-09-02 10:01:16 | 47.83311 | 11.00541 | 109° | 51km/h | 5935m | 3.7m/s | -15.0°C | 31.3% | 493.0hPa | 2.9V | 00:00:00 | 00:32:25 | 00:00:00 | |
| DO3MHA-11 | 2026-09-02 10:01:13 | 47.83307 | 11.00477 | 83° | 53km/h | 5914m | 3.2m/s | -15.1°C | 30.9% | 494.0hPa | 2.9V | 00:00:00 | 00:32:22 | 00:00:00 | |
| DO3MHA-12 | 2026-09-02 10:01:06 | 47.83298 | 11.00341 | 87° | 57km/h | 5870m | 3.2m/s | -14.9°C | 41.2% | 496.8hPa | 2.9V | 03:06:00 | 00:32:15 | 00:00:00 | |
| NBG1-10 | 2026-09-02 10:01:01 | 47.83295 | 11.00230 | 97° | 57km/h | 5847m | 0.8m/s | -14.8°C | 52.1% | 498.4hPa | 2.9V | 00:00:00 | 00:32:10 | 00:00:00 | |
| DG1MJG | 2026-09-02 10:00:59 | 47.83295 | 11.00210 | 81° | 44km/h | 5845m | 1.4m/s | -14.8°C | 53.8% | 498.7hPa | 2.9V | 03:06:00 | 00:00:00 | 00:00:00 | |
| DO3MHA-12 | 2026-09-02 10:00:56 | 47.83296 | 11.00120 | 93° | 58km/h | 5828m | 0.8m/s | -14.9°C | 72.1% | 499.9hPa | 2.9V | 00:00:00 | 00:32:05 | 00:00:00 | |
| DO3MHA-11 | 2026-09-02 10:00:53 | 47.83292 | 11.00053 | 69° | 57km/h | 5804m | 5.1m/s | -14.8°C | 59.0% | 501.3hPa | 2.9V | 03:06:00 | 00:32:02 | 00:00:00 | |
| DO3MHA-12 | 2026-09-02 10:00:46 | 47.83287 | 10.99910 | 76° | 53km/h | 5774m | 1.5m/s | -14.6°C | 45.2% | 503.6hPa | 2.9V | 00:00:00 | 00:31:55 | 00:00:00 | |
| DO3MHA-11 | 2026-09-02 10:00:43 | 47.83282 | 10.99845 | 97° | 58km/h | 5753m | 6.3m/s | -14.4°C | 44.3% | 504.9hPa | 2.9V | 00:00:00 | 00:31:52 | 00:00:00 | |
| DO3MHA-12 | 2026-09-02 10:00:36 | 47.83298 | 10.99701 | 111° | 55km/h | 5712m | 1.9m/s | -14.2°C | 38.7% | 507.8hPa | 2.9V | 00:00:00 | 00:31:45 | 00:00:00 | |
| DG1MJG | 2026-09-02 10:00:28 | 47.83301 | 10.99564 | 84° | 64km/h | 5681m | 3.8m/s | -14.1°C | 46.2% | 510.0hPa | 2.9V | 03:06:00 | 00:00:00 | 00:00:00 | |
| DO3MHA-12 | 2026-09-02 10:00:26 | 47.83305 | 10.99506 | 101° | 55km/h | 5668m | 3.3m/s | -13.9°C | 45.6% | 511.0hPa | 2.9V | 03:06:00 | 00:31:35 | 00:00:00 | |
| DO3MHA-11 | 2026-09-02 10:00:23 | 47.83307 | 10.99444 | 109° | 57km/h | 5658m | 4.0m/s | -13.8°C | 40.8% | 511.5hPa | 2.9V | 00:00:00 | 00:31:32 | 00:00:00 | |
| DO3MHA-12 | 2026-09-02 10:00:16 | 47.83322 | 10.99307 | 93° | 57km/h | 5622m | 5.6m/s | -13.5°C | 39.2% | 514.2hPa | 2.9V | 00:00:00 | 00:31:25 | 00:00:00 | |
| DO3MHA-11 | 2026-09-02 10:00:13 | 47.83330 | 10.99235 | 104° | 49km/h | 5603m | 8.7m/s | -13.3°C | 40.2% | 515.2hPa | 2.9V | 03:06:00 | 00:31:22 | 00:00:00 | |
| DO3MHA-12 | 2026-09-02 10:00:06 | 47.83334 | 10.99108 | 91° | 51km/h | 5559m | 5.9m/s | -13.0°C | 41.2% | 518.1hPa | 2.9V | 00:00:00 | 00:31:15 | 00:00:00 | |
| DB0ND-19 | 2026-09-02 09:59:59 | 47.83342 | 10.98869 | 78° | 33km/h | 5499m | 6.5m/s | 0°C | -1.0% | -1.0hPa | 2.9V | 00:00:00 | 00:00:00 | 00:00:00 | |
| DG1MJG | 2026-09-02 09:59:58 | 47.83334 | 10.98972 | 87° | 47km/h | 5531m | 10.0m/s | -12.9°C | 44.3% | 520.2hPa | 2.9V | 00:00:00 | 00:00:00 | 00:00:00 | |
| DO3MHA-12 | 2026-09-02 09:59:56 | 47.83334 | 10.98920 | 108° | 38km/h | 5515m | 5.3m/s | -12.7°C | 47.9% | 521.4hPa | 2.9V | 00:00:00 | 00:31:05 | 00:00:00 | |
| NBG1-10 | 2026-09-02 09:59:54 | 47.83341 | 10.98884 | 113° | 42km/h | 5505m | 6.7m/s | -12.7°C | 49.0% | 522.0hPa | 2.9V | 00:00:00 | 00:31:03 | 00:00:00 | |
| DO3MHA-11 | 2026-09-02 09:59:53 | 47.83342 | 10.98869 | 79° | 35km/h | 5499m | 6.5m/s | -12.6°C | 50.3% | 522.5hPa | 2.9V | 00:00:00 | 00:31:02 | 00:00:00 | |
| DO3MHA-12 | 2026-09-02 09:59:45 | 47.83352 | 10.98758 | 64° | 49km/h | 5461m | 7.7m/s | -12.3°C | 38.7% | 525.3hPa | 2.9V | 03:07:00 | 00:30:54 | 00:00:00 | |
| DO3MHA-11 | 2026-09-02 09:59:43 | 47.83352 | 10.98730 | 110° | 47km/h | 5447m | 1.2m/s | -12.1°C | 38.0% | 526.2hPa | 2.9V | 00:00:00 | 00:30:52 | 00:00:00 | |
| DL6DJ-15 | 2026-09-02 09:59:35 | 47.83364 | 10.98597 | 117° | 57km/h | 5408m | 4.0m/s | -12.0°C | -1.0% | -1.0hPa | 2.9V | 00:00:00 | 00:00:00 | 00:00:00 | |
| DO3MHA-12 | 2026-09-02 09:59:34 | 47.83369 | 10.98580 | 109° | 46km/h | 5404m | 5.3m/s | -11.9°C | 47.6% | 528.9hPa | 2.9V | 00:00:00 | 00:30:43 | 00:00:00 | |
| DO3MHA-11 | 2026-09-02 09:59:33 | 47.83372 | 10.98569 | 114° | 44km/h | 5399m | 5.6m/s | -11.8°C | 48.7% | 529.3hPa | 2.9V | 03:07:00 | 00:30:42 | 00:00:00 | |
| DG1MJG | 2026-09-02 09:59:27 | 47.83385 | 10.98490 | 118° | 31km/h | 5366m | 7.5m/s | 0°C | 0% | 531.2hPa | 2.9V | 00:00:00 | 00:00:00 | 00:00:00 | |
| DO3MHA-12 | 2026-09-02 09:59:23 | 47.83386 | 10.98412 | 86° | 51km/h | 5339m | 4.3m/s | -11.4°C | 34.6% | 533.1hPa | 2.9V | 00:00:00 | 00:30:32 | 00:00:00 | |
| NBG1-10 | 2026-09-02 09:59:21 | 47.83386 | 10.98376 | 94° | 53km/h | 5325m | 3.7m/s | -11.3°C | 33.8% | 533.8hPa | 2.9V | 03:07:00 | 00:30:30 | 00:00:00 | |
| DO3MHA-11 | 2026-09-02 09:59:13 | 47.83394 | 10.98239 | 125° | 51km/h | 5289m | 3.8m/s | -11.2°C | 15.2% | 536.3hPa | 2.9V | 00:00:00 | 00:30:22 | 00:00:00 | |
| DO3MHA-12 | 2026-09-02 09:59:11 | 47.83400 | 10.98203 | 129° | 44km/h | 5280m | 5.1m/s | -11.2°C | 13.5% | 536.9hPa | 2.9V | 00:00:00 | 00:30:20 | 00:00:00 | |
| DL6DJ-15 | 2026-09-02 09:59:04 | 47.83416 | 10.98061 | 114° | 29km/h | 5247m | 2.6m/s | -11.2°C | -1.0% | -1.0hPa | 2.9V | 00:00:00 | 00:00:00 | 00:00:00 | |
| DO3MHA-11 | 2026-09-02 09:59:03 | 47.83416 | 10.98061 | 115° | 44km/h | 5247m | 2.5m/s | -11.1°C | 10.6% | 539.4hPa | 2.9V | 00:00:00 | 00:30:12 | 00:00:00 | |
| DB0ND-19 | 2026-09-02 09:58:57 | 47.83427 | 10.97843 | 102° | 33km/h | 5175m | 2.9m/s | 0°C | -1.0% | -1.0hPa | 2.9V | 00:00:00 | 00:00:00 | 00:00:00 | |
| DG1MJG | 2026-09-02 09:58:55 | 47.83412 | 10.97955 | 103° | 58km/h | 5204m | 5.6m/s | 0°C | 0% | 0hPa | 2.9V | 00:00:00 | 00:00:00 | 00:00:00 | |
| DO3MHA-11 | 2026-09-02 09:58:53 | 47.83423 | 10.97892 | 103° | 49km/h | 5188m | 7.8m/s | -10.8°C | 8.4% | 543.4hPa | 2.9V | 03:08:00 | 00:30:02 | 00:00:00 | |
| DO3MHA-12 | 2026-09-02 09:58:50 | 47.83427 | 10.97843 | 103° | 53km/h | 5175m | 2.8m/s | -10.7°C | 8.6% | 544.3hPa | 2.9V | 00:00:00 | 00:29:59 | 00:00:00 | |
| DO3MHA-11 | 2026-09-02 09:58:43 | 47.83443 | 10.97706 | 109° | 53km/h | 5153m | 4.4m/s | -10.6°C | 9.2% | 546.4hPa | 2.9V | 00:00:00 | 00:29:52 | 00:00:00 | |
| DO3MHA-12 | 2026-09-02 09:58:39 | 47.83457 | 10.97624 | 101° | 58km/h | 5129m | 4.5m/s | -10.5°C | 10.4% | 548.3hPa | 2.9V | 00:00:00 | 00:29:48 | 00:00:00 | |
| DO3MHA-11 | 2026-09-02 09:58:33 | 47.83470 | 10.97503 | 86° | 60km/h | 5108m | 5.3m/s | -10.4°C | 13.8% | 550.4hPa | 2.9V | 00:00:00 | 00:29:42 | 00:00:00 | |
| DO3MHA-12 | 2026-09-02 09:58:29 | 47.83468 | 10.97406 | 80° | 58km/h | 5088m | 8.0m/s | -10.4°C | 20.1% | 551.5hPa | 2.9V | 00:00:00 | 00:29:38 | 00:00:00 | |
| DB0ND-19 | 2026-09-02 09:58:26 | 47.83485 | 10.97335 | 88° | 55km/h | 5063m | 9.3m/s | 0°C | -1.0% | -1.0hPa | 2.9V | 00:00:00 | 00:00:00 | 00:00:00 | |
| DO3MHA-11 | 2026-09-02 09:58:23 | 47.83489 | 10.97301 | 90° | 58km/h | 5050m | 8.2m/s | -10.2°C | 27.5% | 554.2hPa | 2.9V | 00:00:00 | 00:29:32 | 00:00:00 | |
| DO3MHA-12 | 2026-09-02 09:58:16 | 47.83511 | 10.97149 | 115° | 55km/h | 5008m | 1.8m/s | -9.8°C | 27.3% | 557.2hPa | 2.9V | 03:08:00 | 00:29:25 | 00:00:00 | |
| DO3MHA-11 | 2026-09-02 09:58:13 | 47.83516 | 10.97089 | 112° | 53km/h | 4992m | 3.4m/s | -9.7°C | 27.3% | 558.2hPa | 2.9V | 03:08:00 | 00:29:22 | 00:00:00 | |
| DO3MHA-12 | 2026-09-02 09:58:03 | 47.83525 | 10.96890 | 103° | 51km/h | 4936m | 7.6m/s | -9.2°C | 25.0% | 562.1hPa | 2.9V | 00:00:00 | 00:29:12 | 00:00:00 | |
| DL6DJ-15 | 2026-09-02 09:58:02 | 47.83540 | 10.96762 | 118° | 44km/h | 4901m | 8.3m/s | 0°C | -1.0% | -1.0hPa | 2.9V | 00:00:00 | 00:00:00 | 00:00:00 | |
| DO3MHA-11 | 2026-09-02 09:57:52 | 47.83553 | 10.96683 | 88° | 55km/h | 4878m | 5.0m/s | -8.9°C | 28.2% | 566.3hPa | 2.9V | 00:00:00 | 00:29:01 | 00:00:00 | |
| DO3MHA-12 | 2026-09-02 09:57:47 | 47.83564 | 10.96585 | 83° | 53km/h | 4852m | 5.2m/s | -8.8°C | 28.6% | 567.8hPa | 2.9V | 00:00:00 | 00:28:56 | 00:00:00 | |
| OE5DXL-15 | 2026-09-02 09:57:43 | 47.83579 | 10.96511 | 123° | 51km/h | 4833m | 2.8m/s | -8.6°C | 28.5% | 569.0hPa | 2.9V | 00:00:00 | 00:00:00 | 00:00:00 | |
| DO3MHA-11 | 2026-09-02 09:57:42 | 47.83584 | 10.96495 | 107° | 49km/h | 4829m | 5.2m/s | -8.6°C | 27.9% | 569.3hPa | 2.9V | 00:00:00 | 00:28:51 | 00:00:00 | |
| NBG1-10 | 2026-09-02 09:57:40 | 47.83590 | 10.96463 | 75° | 51km/h | 4818m | 6.0m/s | -8.5°C | 27.0% | 570.2hPa | 2.9V | 00:00:00 | 00:28:49 | 00:00:00 | |
| DO3MHA-12 | 2026-09-02 09:57:37 | 47.83594 | 10.96401 | 109° | 55km/h | 4800m | 6.6m/s | -8.3°C | 26.1% | 571.8hPa | 2.9V | 00:00:00 | 00:28:46 | 00:00:00 | |
| DO3MHA-11 | 2026-09-02 09:57:32 | 47.83606 | 10.96316 | 110° | 58km/h | 4775m | 6.4m/s | -8.2°C | 27.2% | 573.8hPa | 2.9V | 03:09:00 | 00:28:41 | 00:00:00 | |
| DL6DJ-15 | 2026-09-02 09:57:31 | 47.83617 | 10.96283 | 109° | 64km/h | 4763m | 6.7m/s | 0°C | -1.0% | -1.0hPa | 2.9V | 00:00:00 | 00:00:00 | 00:00:00 | |
| DO3MHA-12 | 2026-09-02 09:57:27 | 47.83625 | 10.96213 | 68° | 51km/h | 4746m | 9.8m/s | -7.9°C | 26.4% | 576.0hPa | 2.9V | 03:09:00 | 00:28:36 | 00:00:00 | |
| DO3MHA-11 | 2026-09-02 09:57:22 | 47.83624 | 10.96114 | 85° | 46km/h | 4712m | 4.0m/s | -7.7°C | 26.6% | 578.3hPa | 2.9V | 00:00:00 | 00:28:31 | 00:00:00 | |
| DO3MHA-12 | 2026-09-02 09:57:14 | 47.83639 | 10.95965 | 94° | 49km/h | 4678m | 4.4m/s | -7.3°C | 26.5% | 581.3hPa | 2.9V | 00:00:00 | 00:28:23 | 00:00:00 | |
| OE5DXL-15 | 2026-09-02 09:57:13 | 47.83640 | 10.95948 | 103° | 53km/h | 4675m | 3.4m/s | -7.3°C | 27.0% | 581.5hPa | 2.9V | 00:00:00 | 00:00:00 | 00:00:00 | |
| DO3MHA-11 | 2026-09-02 09:57:10 | 47.83639 | 10.95904 | 92° | 57km/h | 4665m | 5.9m/s | -7.2°C | 27.2% | 582.3hPa | 2.9V | 00:00:00 | 00:28:19 | 00:00:00 | |
| NBG1-10 | 2026-09-02 09:57:05 | 47.83645 | 10.95811 | 92° | 53km/h | 4634m | 1.9m/s | -6.9°C | 26.8% | 584.9hPa | 2.9V | 00:00:00 | 00:28:14 | 00:00:00 | |
| DO3MHA-12 | 2026-09-02 09:57:04 | 47.83649 | 10.95791 | 120° | 51km/h | 4630m | 4.8m/s | -6.9°C | 26.5% | 585.4hPa | 2.9V | 00:00:00 | 00:28:13 | 00:00:00 | |
| DO3MHA-11 | 2026-09-02 09:56:59 | 47.83654 | 10.95696 | 102° | 49km/h | 4605m | 6.3m/s | -6.7°C | 25.4% | 587.4hPa | 2.9V | 00:00:00 | 00:28:08 | 00:00:00 | |
| DO3MHA-12 | 2026-09-02 09:56:53 | 47.83672 | 10.95604 | 93° | 60km/h | 4573m | 9.3m/s | -6.5°C | 24.5% | 589.3hPa | 2.9V | 00:00:00 | 00:28:02 | 00:00:00 | |
| DO3MHA-11 | 2026-09-02 09:56:49 | 47.83677 | 10.95521 | 103° | 55km/h | 4549m | 11.3m/s | -6.3°C | 23.8% | 591.3hPa | 2.9V | 03:10:00 | 00:27:58 | 00:00:00 | |
| DO3MHA-12 | 2026-09-02 09:56:43 | 47.83691 | 10.95398 | 102° | 44km/h | 4516m | 8.9m/s | -6.1°C | 23.1% | 593.2hPa | 2.9V | 03:10:00 | 00:27:52 | 00:00:00 | |
| DO3MHA-11 | 2026-09-02 09:56:39 | 47.83696 | 10.95335 | 78° | 53km/h | 4492m | 8.9m/s | -5.9°C | 22.8% | 595.4hPa | 2.9V | 00:00:00 | 00:27:48 | 00:00:00 | |
| DO3MHA-12 | 2026-09-02 09:56:32 | 47.83701 | 10.95214 | 117° | 49km/h | 4459m | 6.0m/s | -5.5°C | 22.6% | 598.1hPa | 2.9V | 00:00:00 | 00:27:41 | 00:00:00 | |
| DO3MHA-11 | 2026-09-02 09:56:29 | 47.83705 | 10.95152 | 106° | 47km/h | 4433m | 8.2m/s | -5.4°C | 22.8% | 599.4hPa | 2.9V | 00:00:00 | 00:27:38 | 00:00:00 | |
| DO3MHA-12 | 2026-09-02 09:56:19 | 47.83713 | 10.94971 | 115° | 47km/h | 4380m | 2.5m/s | -5.1°C | 26.3% | 603.3hPa | 2.9V | 00:00:00 | 00:27:28 | 00:00:00 | |
| DO3MHA-11 | 2026-09-02 09:56:18 | 47.83713 | 10.94954 | 68° | 47km/h | 4374m | 7.0m/s | -5.0°C | 26.6% | 603.6hPa | 2.9V | 00:00:00 | 00:27:27 | 00:00:00 | |
| OE5DXL-15 | 2026-09-02 09:56:13 | 47.83714 | 10.94866 | 67° | 44km/h | 4347m | 6.4m/s | -4.8°C | 24.7% | 605.6hPa | 2.9V | 03:10:00 | 00:00:00 | 00:00:00 | |
| DO3MHA-12 | 2026-09-02 09:56:06 | 47.83719 | 10.94752 | 118° | 42km/h | 4314m | 4.3m/s | -4.6°C | 23.7% | 608.3hPa | 2.9V | 00:00:00 | 00:27:15 | 00:00:00 | |
| NBG1-10 | 2026-09-02 09:55:59 | 47.83729 | 10.94632 | 81° | 44km/h | 4276m | 2.1m/s | -4.4°C | 27.9% | 611.5hPa | 2.9V | 00:00:00 | 00:27:08 | 00:00:00 | |
| DO3MHA-11 | 2026-09-02 09:55:56 | 47.83728 | 10.94597 | 83° | 46km/h | 4261m | 6.4m/s | -4.2°C | 25.9% | 612.9hPa | 2.9V | 00:00:00 | 00:27:05 | 00:00:00 | |
| DO3MHA-12 | 2026-09-02 09:55:46 | 47.83735 | 10.94430 | 112° | 47km/h | 4208m | 8.5m/s | -4.0°C | 25.6% | 617.6hPa | 2.9V | 00:00:00 | 00:26:55 | 00:00:00 | |
| OE5DXL-15 | 2026-09-02 09:55:41 | 47.83735 | 10.94350 | 74° | 40km/h | 4187m | 3.9m/s | -3.8°C | 27.4% | 619.4hPa | 2.9V | 00:00:00 | 00:00:00 | 00:00:00 | |
| DO3MHA-12 | 2026-09-02 09:55:36 | 47.83734 | 10.94252 | 107° | 37km/h | 4152m | 5.2m/s | -3.6°C | 25.9% | 621.7hPa | 2.9V | 00:00:00 | 00:26:45 | 00:00:00 | |
| DB0NH | 2026-09-02 09:55:29 | 47.83740 | 10.94156 | 110° | 37km/h | 4122m | 4.0m/s | 0°C | 0% | 0hPa | 2.9V | 00:00:00 | 00:26:38 | 00:00:00 | |
| DO3MHA-12 | 2026-09-02 09:55:26 | 47.83738 | 10.94123 | 85° | 42km/h | 4108m | 4.6m/s | -3.2°C | 18.1% | 625.5hPa | 2.9V | 00:00:00 | 00:26:35 | 00:00:00 | |
| DO3MHA-11 | 2026-09-02 09:55:16 | 47.83744 | 10.93958 | 82° | 42km/h | 4040m | 3.3m/s | -2.7°C | 17.8% | 630.0hPa | 2.9V | 00:00:00 | 00:26:25 | 00:00:00 | |
| NBG1-10 | 2026-09-02 09:55:08 | 47.83744 | 10.93837 | 94° | 47km/h | 3991m | 5.1m/s | -2.4°C | 17.9% | 633.7hPa | 2.9V | 00:00:00 | 00:26:17 | 00:00:00 | |
| DO3MHA-12 | 2026-09-02 09:55:06 | 47.83747 | 10.93808 | 90° | 53km/h | 3978m | 4.7m/s | -2.3°C | 18.0% | 634.7hPa | 2.9V | 00:00:00 | 00:26:15 | 00:00:00 | |
| DO3MHA-12 | 2026-09-02 09:54:56 | 47.83758 | 10.93619 | 94° | 44km/h | 3934m | 4.2m/s | -1.8°C | 17.1% | 639.3hPa | 2.9V | 00:00:00 | 00:26:05 | 00:00:00 | |
| DB0NH | 2026-09-02 09:54:49 | 47.83769 | 10.93506 | 74° | 44km/h | 3899m | 4.5m/s | 0°C | 0% | 0hPa | 2.9V | 00:00:00 | 00:25:58 | 00:00:00 | |
| DO3MHA-12 | 2026-09-02 09:54:46 | 47.83762 | 10.93465 | 93° | 47km/h | 3883m | 5.7m/s | -1.5°C | 16.6% | 643.1hPa | 2.9V | 00:00:00 | 00:25:55 | 00:00:00 | |
| DO3MHA-11 | 2026-09-02 09:54:36 | 47.83781 | 10.93289 | 116° | 44km/h | 3815m | 5.1m/s | -1.0°C | 16.9% | 648.3hPa | 2.9V | 00:00:00 | 00:25:45 | 00:00:00 | |
| NBG1-10 | 2026-09-02 09:54:35 | 47.83786 | 10.93273 | 112° | 42km/h | 3809m | 5.8m/s | -1.0°C | 17.6% | 648.8hPa | 2.9V | 00:00:00 | 00:25:44 | 00:00:00 | |
| DO3MHA-12 | 2026-09-02 09:54:26 | 47.83786 | 10.93138 | 120° | 42km/h | 3746m | 5.2m/s | -0.6°C | 18.5% | 653.6hPa | 2.9V | 00:00:00 | 00:25:35 | 00:00:00 | |
| DO3MHA-12 | 2026-09-02 09:54:16 | 47.83811 | 10.92992 | 112° | 46km/h | 3690m | 7.3m/s | -0.2°C | 19.0% | 658.4hPa | 2.9V | 00:00:00 | 00:25:25 | 00:00:00 | |
| DO3MHA-11 | 2026-09-02 09:54:06 | 47.83833 | 10.92829 | 108° | 40km/h | 3647m | 4.7m/s | 0.1°C | 18.7% | 662.4hPa | 2.9V | 03:13:00 | 00:25:15 | 00:00:00 | |
| DB0ND-19 | 2026-09-02 09:53:47 | 47.83854 | 10.92534 | 63° | 33km/h | 3540m | 6.4m/s | 0°C | 0% | -1.0hPa | 2.9V | 00:00:00 | 00:00:00 | 00:00:00 | |
| DO3MHA-12 | 2026-09-02 09:53:46 | 47.83853 | 10.92534 | 64° | 44km/h | 3540m | 6.4m/s | 1.0°C | 18.3% | 671.0hPa | 2.9V | 00:00:00 | 00:24:55 | 00:00:00 | |
| DO3MHA-11 | 2026-09-02 09:53:36 | 47.83852 | 10.92375 | 81° | 42km/h | 3480m | 6.1m/s | 1.3°C | 19.2% | 675.2hPa | 2.9V | 00:00:00 | 00:24:45 | 00:00:00 | |
| DO3MHA-12 | 2026-09-02 09:53:34 | 47.83850 | 10.92337 | 99° | 44km/h | 3468m | 4.2m/s | 1.4°C | 17.5% | 676.1hPa | 2.9V | 00:00:00 | 00:24:43 | 00:00:00 | |
| DO3MHA-11 | 2026-09-02 09:53:26 | 47.83865 | 10.92219 | 94° | 44km/h | 3435m | 5.2m/s | 1.7°C | 14.7% | 679.6hPa | 2.9V | 03:13:00 | 00:24:35 | 00:00:00 | |
| DO3MHA-12 | 2026-09-02 09:53:24 | 47.83865 | 10.92182 | 75° | 38km/h | 3422m | 6.9m/s | 1.8°C | 15.9% | 680.9hPa | 2.9V | 00:00:00 | 00:24:33 | 00:00:00 | |
| DB0ND-19 | 2026-09-02 09:53:16 | 47.83867 | 10.92054 | 107° | 29km/h | 3370m | 4.7m/s | 0°C | -1.0% | -1.0hPa | 2.9V | 00:00:00 | 00:00:00 | 00:00:00 | |
| DO3MHA-12 | 2026-09-02 09:53:14 | 47.83871 | 10.92043 | 121° | 47km/h | 3365m | 4.8m/s | 2.0°C | 23.3% | 686.0hPa | 2.9V | 03:13:00 | 00:24:23 | 00:00:00 | |
| DO3MHA-11 | 2026-09-02 09:53:06 | 47.83882 | 10.91901 | 81° | 47km/h | 3324m | 5.7m/s | 2.1°C | 30.1% | 689.7hPa | 2.9V | 00:00:00 | 00:24:15 | 00:00:00 | |
| DO3MHA-12 | 2026-09-02 09:53:04 | 47.83881 | 10.91860 | 77° | 44km/h | 3310m | 7.2m/s | 2.2°C | 30.5% | 690.5hPa | 2.9V | 00:00:00 | 00:24:13 | 00:00:00 | |
| DO3MHA-11 | 2026-09-02 09:52:56 | 47.83886 | 10.91743 | 86° | 38km/h | 3261m | 6.1m/s | 2.6°C | 25.2% | 694.3hPa | 2.9V | 00:00:00 | 00:24:05 | 00:00:00 | |
| DO3MHA-12 | 2026-09-02 09:52:54 | 47.83885 | 10.91708 | 79° | 37km/h | 3250m | 3.0m/s | 2.7°C | 25.6% | 695.4hPa | 2.9V | 00:00:00 | 00:24:03 | 00:00:00 | |
| DO3MHA-11 | 2026-09-02 09:52:46 | 47.83892 | 10.91606 | 105° | 42km/h | 3210m | 6.4m/s | 2.9°C | 26.3% | 698.8hPa | 2.9V | 03:14:00 | 00:23:55 | 00:00:00 | |
| DO3MHA-12 | 2026-09-02 09:52:44 | 47.83896 | 10.91569 | 91° | 40km/h | 3197m | 4.4m/s | 2.9°C | 26.3% | 699.8hPa | 2.9V | 00:00:00 | 00:23:53 | 00:00:00 | |
| DO3MHA-11 | 2026-09-02 09:52:36 | 47.83911 | 10.91456 | 112° | 51km/h | 3153m | 4.3m/s | 3.0°C | 27.3% | 703.4hPa | 2.9V | 00:00:00 | 00:23:45 | 00:00:00 | |
| DO3MHA-12 | 2026-09-02 09:52:34 | 47.83914 | 10.91425 | 101° | 49km/h | 3145m | 4.6m/s | 3.1°C | 29.5% | 704.6hPa | 2.9V | 03:14:00 | 00:23:43 | 00:00:00 | |
| DO3MHA-11 | 2026-09-02 09:52:26 | 47.83901 | 10.91271 | 73° | 40km/h | 3105m | 7.0m/s | 3.4°C | 25.6% | 708.3hPa | 2.9V | 00:00:00 | 00:23:35 | 00:00:00 | |
| DO3MHA-12 | 2026-09-02 09:52:24 | 47.83902 | 10.91245 | 99° | 42km/h | 3092m | 6.9m/s | 3.5°C | 19.4% | 709.3hPa | 2.9V | 00:00:00 | 00:23:33 | 00:00:00 | |
| NBG1-10 | 2026-09-02 09:52:22 | 47.83908 | 10.91213 | 101° | 38km/h | 3081m | 5.4m/s | 0°C | 0% | 0hPa | 2.9V | 00:00:00 | 00:23:31 | 00:00:00 | |
| DO3MHA-11 | 2026-09-02 09:52:16 | 47.83897 | 10.91125 | 67° | 44km/h | 3049m | 2.4m/s | 3.8°C | 16.3% | 713.0hPa | 2.9V | 00:00:00 | 00:23:25 | 00:00:00 | |
| DO3MHA-12 | 2026-09-02 09:52:14 | 47.83893 | 10.91093 | 71° | 40km/h | 3039m | 8.5m/s | 3.9°C | 16.1% | 714.1hPa | 2.9V | 00:00:00 | 00:23:23 | 00:00:00 | |
| OE5DXL-15 | 2026-09-02 09:52:06 | 47.83889 | 10.90968 | 74° | 49km/h | 3002m | 3.5m/s | 0°C | 0% | 0hPa | 2.9V | 00:00:00 | 00:00:00 | 00:00:00 | |
| DO3MHA-11 | 2026-09-02 09:51:56 | 47.83881 | 10.90819 | 101° | 31km/h | 2956m | 6.5m/s | 4.4°C | 15.4% | 721.6hPa | 2.9V | 00:00:00 | 00:23:05 | 00:00:00 | |
| DO3MHA-12 | 2026-09-02 09:51:53 | 47.83890 | 10.90786 | 115° | 37km/h | 2941m | 7.7m/s | 4.5°C | 17.7% | 723.0hPa | 2.9V | 03:15:00 | 00:23:02 | 00:00:00 | |
| NBG1-10 | 2026-09-02 09:51:49 | 47.83894 | 10.90746 | 66° | 42km/h | 2910m | 7.8m/s | 0°C | 0% | 0hPa | 2.9V | 00:00:00 | 00:22:58 | 00:00:00 | |
| DO3MHA-11 | 2026-09-02 09:51:46 | 47.83887 | 10.90703 | 86° | 42km/h | 2896m | 6.4m/s | 4.7°C | 17.6% | 726.7hPa | 2.9V | 00:00:00 | 00:22:55 | 00:00:00 | |
| DO3MHA-12 | 2026-09-02 09:51:43 | 47.83888 | 10.90661 | 78° | 40km/h | 2881m | 4.7m/s | 4.8°C | 17.1% | 727.8hPa | 2.9V | 00:00:00 | 00:22:52 | 00:00:00 | |
| DO3MHA-11 | 2026-09-02 09:51:36 | 47.83868 | 10.90553 | 87° | 44km/h | 2850m | 4.5m/s | 5.1°C | 15.5% | 730.8hPa | 2.9V | 00:00:00 | 00:22:45 | 00:00:00 | |
| DO3MHA-12 | 2026-09-02 09:51:33 | 47.83859 | 10.90519 | 58° | 49km/h | 2837m | 4.5m/s | 5.2°C | 15.7% | 732.1hPa | 2.9V | 00:00:00 | 00:22:42 | 00:00:00 | |
| DO3MHA-11 | 2026-09-02 09:51:26 | 47.83840 | 10.90394 | 90° | 44km/h | 2800m | 4.5m/s | 5.4°C | 16.3% | 735.3hPa | 2.9V | 03:15:00 | 00:22:35 | 00:00:00 | |
| DO3MHA-12 | 2026-09-02 09:51:23 | 47.83833 | 10.90340 | 73° | 44km/h | 2783m | 4.7m/s | 5.5°C | 17.9% | 736.9hPa | 2.9V | 00:00:00 | 00:22:32 | 00:00:00 | |
| DO3MHA-11 | 2026-09-02 09:51:16 | 47.83825 | 10.90232 | 83° | 42km/h | 2746m | 7.0m/s | 5.5°C | 23.5% | 740.3hPa | 2.9V | 00:00:00 | 00:22:25 | 00:00:00 | |
| NBG1-10 | 2026-09-02 09:51:15 | 47.83825 | 10.90212 | 92° | 42km/h | 2739m | 6.9m/s | 0°C | 0% | 0hPa | 2.9V | 00:00:00 | 00:22:24 | 00:00:00 | |
| DO3MHA-12 | 2026-09-02 09:51:13 | 47.83822 | 10.90179 | 75° | 37km/h | 2727m | 4.4m/s | 5.5°C | 29.0% | 742.1hPa | 2.9V | 03:15:00 | 00:22:22 | 00:00:00 | |
| DO3MHA-11 | 2026-09-02 09:51:06 | 47.83818 | 10.90084 | 83° | 46km/h | 2684m | 5.1m/s | 5.5°C | 32.3% | 745.6hPa | 2.9V | 00:00:00 | 00:22:15 | 00:00:00 | |
| DO3MHA-12 | 2026-09-02 09:51:03 | 47.83808 | 10.90049 | 60° | 47km/h | 2670m | 5.3m/s | 5.6°C | 32.3% | 747.0hPa | 2.9V | 00:00:00 | 00:22:12 | 00:00:00 | |
| DO3MHA-11 | 2026-09-02 09:50:56 | 47.83797 | 10.89917 | 89° | 46km/h | 2633m | 6.0m/s | 5.9°C | 32.4% | 750.4hPa | 2.9V | 00:00:00 | 00:22:05 | 00:00:00 | |
| DO3MHA-12 | 2026-09-02 09:50:53 | 47.83799 | 10.89875 | 104° | 42km/h | 2619m | 5.3m/s | 6.0°C | 32.4% | 751.7hPa | 2.9V | 00:00:00 | 00:22:02 | 00:00:00 | |
| DO3MHA-11 | 2026-09-02 09:50:46 | 47.83799 | 10.89753 | 90° | 38km/h | 2583m | 5.1m/s | 6.2°C | 28.9% | 755.3hPa | 2.9V | 03:16:00 | 00:21:55 | 00:00:00 | |
| DO3MHA-12 | 2026-09-02 09:50:43 | 47.83791 | 10.89723 | 60° | 38km/h | 2567m | 6.0m/s | 6.2°C | 31.6% | 756.6hPa | 2.9V | 00:00:00 | 00:21:52 | 00:00:00 | |
| DO3MHA-11 | 2026-09-02 09:50:36 | 47.83762 | 10.89620 | 77° | 37km/h | 2529m | 4.3m/s | 6.5°C | 31.9% | 760.2hPa | 2.9V | 00:00:00 | 00:21:45 | 00:00:00 | |
| DO3MHA-12 | 2026-09-02 09:50:33 | 47.83755 | 10.89589 | 53° | 42km/h | 2513m | 4.5m/s | 6.5°C | 32.5% | 761.5hPa | 2.9V | 03:16:00 | 00:21:42 | 00:00:00 | |
| DO3MHA-11 | 2026-09-02 09:50:26 | 47.83732 | 10.89491 | 80° | 40km/h | 2470m | 5.0m/s | 6.7°C | 33.0% | 765.5hPa | 2.9V | 00:00:00 | 00:21:35 | 00:00:00 | |
| DO3MHA-12 | 2026-09-02 09:50:23 | 47.83724 | 10.89444 | 86° | 40km/h | 2457m | 4.2m/s | 6.8°C | 33.4% | 766.8hPa | 2.9V | 00:00:00 | 00:21:32 | 00:00:00 | |
| DO3MHA-11 | 2026-09-02 09:50:16 | 47.83709 | 10.89349 | 44° | 42km/h | 2421m | 4.7m/s | 6.8°C | 37.2% | 770.0hPa | 2.9V | 00:00:00 | 00:21:25 | 00:00:00 | |
| DO3MHA-12 | 2026-09-02 09:50:13 | 47.83696 | 10.89307 | 91° | 46km/h | 2402m | 4.7m/s | 6.9°C | 37.9% | 771.8hPa | 2.9V | 00:00:00 | 00:21:22 | 00:00:00 | |
| DO3MHA-11 | 2026-09-02 09:50:06 | 47.83666 | 10.89208 | 81° | 40km/h | 2360m | 6.3m/s | 7.2°C | 40.5% | 775.9hPa | 2.9V | 03:17:00 | 00:21:15 | 00:00:00 | |
| DO3MHA-12 | 2026-09-02 09:50:03 | 47.83655 | 10.89152 | 60° | 40km/h | 2346m | 4.3m/s | 7.3°C | 44.8% | 777.2hPa | 2.9V | 00:00:00 | 00:21:12 | 00:00:00 | |
| DO3MHA-11 | 2026-09-02 09:49:56 | 47.83628 | 10.89073 | 91° | 46km/h | 2312m | 5.7m/s | 7.5°C | 50.9% | 780.8hPa | 2.9V | 00:00:00 | 00:21:05 | 00:00:00 | |
| DO3MHA-12 | 2026-09-02 09:49:53 | 47.83619 | 10.89019 | 60° | 47km/h | 2297m | 5.1m/s | 7.7°C | 52.8% | 782.2hPa | 2.9V | 03:17:00 | 00:21:02 | 00:00:00 | |
| DO3MHA-11 | 2026-09-02 09:49:46 | 47.83581 | 10.88917 | 55° | 42km/h | 2252m | 3.7m/s | 8.0°C | 54.2% | 786.1hPa | 2.9V | 00:00:00 | 00:20:55 | 00:00:00 | |
| DO3MHA-12 | 2026-09-02 09:49:43 | 47.83558 | 10.88873 | 61° | 42km/h | 2237m | 7.1m/s | 8.1°C | 55.0% | 787.2hPa | 2.9V | 00:00:00 | 00:20:52 | 00:00:00 | |
| DO3MHA-11 | 2026-09-02 09:49:36 | 47.83536 | 10.88777 | 50° | 46km/h | 2202m | 2.1m/s | 8.2°C | 66.5% | 790.6hPa | 2.9V | 00:00:00 | 00:20:45 | 00:00:00 | |
| DO3MHA-12 | 2026-09-02 09:49:33 | 47.83515 | 10.88738 | 46° | 38km/h | 2189m | 4.5m/s | 8.3°C | 68.4% | 792.2hPa | 2.9V | 00:00:00 | 00:20:42 | 00:00:00 | |
| DO3MHA-11 | 2026-09-02 09:49:26 | 47.83484 | 10.88633 | 60° | 33km/h | 2153m | 7.6m/s | 8.4°C | 76.1% | 795.6hPa | 2.9V | 03:17:00 | 00:20:35 | 00:00:00 | |
| DO3MHA-12 | 2026-09-02 09:49:23 | 47.83471 | 10.88610 | 47° | 37km/h | 2138m | 5.3m/s | 8.5°C | 78.1% | 797.1hPa | 2.9V | 00:00:00 | 00:20:32 | 00:00:00 | |
| DO3MHA-11 | 2026-09-02 09:49:16 | 47.83451 | 10.88524 | 49° | 35km/h | 2102m | 5.4m/s | 8.6°C | 79.1% | 800.5hPa | 2.9V | 00:00:00 | 00:20:25 | 00:00:00 | |
| DO3MHA-12 | 2026-09-02 09:49:13 | 47.83431 | 10.88488 | 62° | 35km/h | 2085m | 5.1m/s | 8.7°C | 79.9% | 802.0hPa | 2.9V | 03:17:00 | 00:20:22 | 00:00:00 | |
| DO3MHA-11 | 2026-09-02 09:49:06 | 47.83407 | 10.88407 | 85° | 35km/h | 2045m | 4.6m/s | 8.9°C | 80.1% | 806.0hPa | 2.9V | 00:00:00 | 00:20:15 | 00:00:00 | |
| DO3MHA-12 | 2026-09-02 09:49:03 | 47.83402 | 10.88370 | 55° | 33km/h | 2026m | 4.3m/s | 9.0°C | 79.4% | 807.8hPa | 2.9V | 00:00:00 | 00:20:12 | 00:00:00 | |
| DO3MHA-11 | 2026-09-02 09:48:56 | 47.83392 | 10.88286 | 107° | 31km/h | 1991m | 5.5m/s | 9.3°C | 78.2% | 811.0hPa | 2.9V | 00:00:00 | 00:20:05 | 00:00:00 | |
| DO3MHA-12 | 2026-09-02 09:48:53 | 47.83387 | 10.88256 | 56° | 27km/h | 1972m | 4.1m/s | 9.6°C | 77.0% | 813.0hPa | 2.9V | 00:00:00 | 00:20:02 | 00:00:00 | |
| DO3MHA-11 | 2026-09-02 09:48:46 | 47.83388 | 10.88176 | 110° | 26km/h | 1935m | 4.5m/s | 9.8°C | 75.6% | 816.6hPa | 2.9V | 03:18:00 | 00:19:55 | 00:00:00 | |
| DO3MHA-12 | 2026-09-02 09:48:43 | 47.83386 | 10.88159 | 58° | 24km/h | 1921m | 4.4m/s | 10.0°C | 75.2% | 818.0hPa | 2.9V | 00:00:00 | 00:19:52 | 00:00:00 | |
| DO3MHA-11 | 2026-09-02 09:48:36 | 47.83384 | 10.88089 | 93° | 22km/h | 1887m | 6.0m/s | 10.3°C | 73.6% | 821.4hPa | 2.9V | 00:00:00 | 00:19:45 | 00:00:00 | |
| DO3MHA-12 | 2026-09-02 09:48:33 | 47.83377 | 10.88076 | 52° | 26km/h | 1870m | 4.7m/s | 10.4°C | 73.3% | 823.1hPa | 2.9V | 03:18:00 | 00:19:42 | 00:00:00 | |
| DO3MHA-11 | 2026-09-02 09:48:26 | 47.83375 | 10.88014 | 127° | 22km/h | 1833m | 5.9m/s | 10.7°C | 72.5% | 826.7hPa | 2.9V | 00:00:00 | 00:19:35 | 00:00:00 | |
| DO3MHA-12 | 2026-09-02 09:48:23 | 47.83367 | 10.87993 | 55° | 24km/h | 1814m | 4.4m/s | 10.9°C | 71.8% | 828.8hPa | 0V | 00:00:00 | 00:19:32 | 00:00:00 | |
| DO3MHA-11 | 2026-09-02 09:48:06 | 47.83347 | 10.87875 | 101° | 16km/h | 1726m | 4.0m/s | 0°C | 0% | 0hPa | 0V | 03:19:00 | 00:19:15 | 00:00:00 | |
| DO3MHA-12 | 2026-09-02 09:48:03 | 47.83343 | 10.87851 | 27° | 15km/h | 1707m | 6.0m/s | 11.5°C | 73.2% | 839.3hPa | 0V | 00:00:00 | 00:19:12 | 00:00:00 | |
| DO3MHA-11 | 2026-09-02 09:47:56 | 47.83348 | 10.87836 | 35° | 22km/h | 1670m | 7.2m/s | 0°C | 0% | 0hPa | 0V | 00:00:00 | 00:19:05 | 00:00:00 | |
| DO3MHA-12 | 2026-09-02 09:47:53 | 47.83345 | 10.87810 | 120° | 22km/h | 1652m | 5.8m/s | 0°C | 0% | 0hPa | 0V | 03:19:00 | 00:19:02 | 00:00:00 | |
| DO3MHA-11 | 2026-09-02 09:47:46 | 47.83341 | 10.87760 | 103° | 20km/h | 1614m | 5.2m/s | 0°C | 0% | 0hPa | 0V | 00:00:00 | 00:18:55 | 00:00:00 | |
| DO3MHA-12 | 2026-09-02 09:47:43 | 47.83351 | 10.87743 | 138° | 20km/h | 1600m | 3.9m/s | 0°C | 0% | 0hPa | 0V | 00:00:00 | 00:18:52 | 00:00:00 | |
| DO3MHA-11 | 2026-09-02 09:47:36 | 47.83346 | 10.87705 | 117° | 20km/h | 1562m | 5.7m/s | 0°C | 0% | 0hPa | 0V | 00:00:00 | 00:18:45 | 00:00:00 | |
| DO3MHA-11 | 2026-09-02 09:47:26 | 47.83351 | 10.87651 | 140° | 22km/h | 1501m | 4.0m/s | 0°C | 0% | 0hPa | 0V | 00:00:00 | 00:18:35 | 00:00:00 | |
| DO3MHA-12 | 2026-09-02 09:47:23 | 47.83352 | 10.87627 | 68° | 18km/h | 1485m | 4.7m/s | 0°C | 0% | 0hPa | 0V | 00:00:00 | 00:18:32 | 00:00:00 | |
| DO3MHA-12 | 2026-09-02 09:47:13 | 47.83339 | 10.87586 | 27° | 13km/h | 1429m | 6.5m/s | 0°C | 0% | 0hPa | 0V | 00:00:00 | 00:18:22 | 00:00:00 |